# Wetter Temperatur Luftdruck Luftfeuchtigkeit Sichtweite Windgeschwindigkeit Windrichtung Zeit
1 Clouds 14 1016 82 10000 1 140 23:56 04.08.2020
2 Clouds 14 1016 82 10000 1 140 23:38 04.08.2020
3 Clouds 15 1017 77 10000 1.5 50 23:20 04.08.2020
4 Clouds 15 1017 72 10000 2.1 40 22:30 04.08.2020
5 Clouds 16 1016 67 10000 2.6 30 21:58 04.08.2020
6 Clouds 19 1016 55 10000 2.1 300 20:35 04.08.2020
7 Clouds 21 1016 49 10000 2.6 300 19:30 04.08.2020
8 Clouds 21 1016 52 10000 4.6 310 18:33 04.08.2020
9 Clouds 21 1016 52 10000 3.1 280 17:31 04.08.2020
10 Clouds 20 1016 55 10000 4.1 300 16:25 04.08.2020
11 Clouds 20 1016 55 10000 6.2 300 15:36 04.08.2020
12 Clouds 22 1016 46 10000 3.6 280 14:51 04.08.2020
13 Clouds 21 1016 46 10000 4.6 300 13:46 04.08.2020
14 Clouds 19 1016 59 10000 4.1 290 11:35 04.08.2020
15 Clouds 18 1016 67 10000 2.1 300 10:57 04.08.2020
16 Clouds 18 1016 67 10000 2.1 300 10:35 04.08.2020
17 Clouds 16 1016 72 10000 2.1 260 09:36 04.08.2020
18 Clouds 12 1015 93 10000 2.1 250 07:32 04.08.2020
19 Fog 10 1014 100 400 1 240 06:47 04.08.2020
20 Clouds 15 1013 77 10000 2.6 350 22:59 03.08.2020
21 Clouds 16 1013 72 10000 3.6 340 22:23 03.08.2020
22 Clouds 16 1013 72 10000 4.1 340 21:28 03.08.2020
23 Rain 17 1012 59 10000 3.6 320 20:57 03.08.2020
24 Rain 18 1012 55 10000 3.6 330 20:22 03.08.2020
25 Clouds 18 1012 59 10000 4.1 340 19:41 03.08.2020
26 Clouds 19 1012 55 10000 3.1 310 18:34 03.08.2020
27 Clouds 19 1012 52 10000 5.1 300 17:57 03.08.2020
28 Clouds 19 1013 45 10000 5.1 320 16:45 03.08.2020
29 Clouds 19 1013 52 10000 6.7 340 15:47 03.08.2020
30 Clouds 22 1013 43 10000 4.1 310 14:31 03.08.2020
31 Clouds 23 1013 40 10000 4.1 300 13:48 03.08.2020
32 Clouds 21 1013 52 10000 3.6 270 12:41 03.08.2020
33 Clouds 20 1014 52 10000 2.6 310 11:34 03.08.2020
34 Clouds 18 1014 63 10000 2.1 320 10:25 03.08.2020
35 Clouds 16 1014 77 10000 1.5 250 09:26 03.08.2020
36 Fog 10 1014 100 800 1 220 06:23 03.08.2020
37 Clouds 12 1014 93 10000 1 210 02:23 03.08.2020
38 Clouds 13 1015 93 10000 1 0 01:51 03.08.2020
39 Clouds 13 1015 93 10000 2.6 290 00:45 03.08.2020
40 Clouds 17 1014 68 10000 5.1 300 21:49 02.08.2020
41 Clouds 19 1014 59 10000 7.2 310 21:22 02.08.2020
42 Clouds 19 1013 59 10000 6.2 300 20:38 02.08.2020
43 Clouds 20 1013 56 10000 5.7 310 20:18 02.08.2020
44 Clouds 20 1013 56 10000 5.7 310 20:18 02.08.2020
45 Clouds 20 1013 60 10000 6.7 320 19:41 02.08.2020
46 Clouds 21 1013 64 10000 7.2 320 18:55 02.08.2020
47 Clouds 21 1013 64 10000 7.2 320 18:36 02.08.2020
48 Clouds 21 1013 72 10000 9.3 310 16:45 02.08.2020
49 Clouds 24 1012 47 10000 4.1 260 15:19 02.08.2020
50 Clouds 25 1012 47 10000 4.6 240 14:46 02.08.2020
51 Clouds 25 1013 53 10000 4.1 260 13:58 02.08.2020
52 Clouds 25 1013 50 10000 4.6 250 13:28 02.08.2020
53 Clouds 24 1013 53 10000 4.1 250 12:48 02.08.2020
54 Clouds 22 1013 60 10000 3.6 250 11:34 02.08.2020
55 Clouds 21 1013 64 10000 3.1 250 10:51 02.08.2020
56 Clouds 21 1013 64 10000 3.1 250 10:28 02.08.2020
57 Clouds 19 1013 72 10000 2.1 240 09:26 02.08.2020
58 Clouds 18 1013 77 10000 1.5 260 08:29 02.08.2020
59 Clouds 16 1013 93 10000 1 260 07:52 02.08.2020
60 Clouds 17 1014 88 10000 2.6 290 04:49 02.08.2020
61 Clouds 20 1014 82 10000 3.1 300 02:27 02.08.2020
62 Clouds 21 1014 77 10000 3.6 350 00:23 02.08.2020
63 Clouds 22 1013 69 10000 3.1 10 22:50 01.08.2020
64 Clouds 24 1013 64 10000 4.6 330 21:31 01.08.2020
65 Clouds 25 1013 65 10000 5.1 330 20:25 01.08.2020
66 Clouds 27 1012 65 10000 2.1 260 19:28 01.08.2020
67 Clouds 28 1013 61 10000 1.5 290 18:41 01.08.2020
68 Clouds 28 1013 57 10000 3.1 270 17:48 01.08.2020
69 Clouds 28 1013 54 10000 3.6 230 16:38 01.08.2020
70 Clouds 29 1013 51 10000 4.6 240 15:58 01.08.2020
71 Clouds 28 1013 54 10000 5.1 220 15:23 01.08.2020
72 Clouds 28 1013 54 10000 4.1 210 14:54 01.08.2020
73 Clouds 28 1013 47 10000 6.2 220 13:24 01.08.2020
74 Clouds 25 1013 57 10000 3.6 170 11:48 01.08.2020
75 Clouds 24 1012 53 10000 4.6 120 10:56 01.08.2020
76 Clear 19 1013 63 10000 3.6 110 07:43 01.08.2020
77 Clear 18 1015 72 10000 3.1 90 03:21 01.08.2020
78 Clouds 19 1015 68 10000 2.6 100 01:54 01.08.2020
79 Clouds 19 1015 68 10000 2.6 100 01:33 01.08.2020
80 Clouds 19 1016 72 10000 4.1 80 00:37 01.08.2020
81 Clouds 21 1016 68 10000 3.1 80 22:49 31.07.2020
82 Clouds 25 1016 53 10000 4.6 60 20:51 31.07.2020
83 Clouds 25 1016 53 10000 4.6 60 20:29 31.07.2020
84 Clouds 26 1016 50 10000 3.6 60 19:58 31.07.2020
85 Clouds 27 1017 45 10000 3.1 50 18:39 31.07.2020
86 Clouds 27 1017 44 10000 1.5 0 17:28 31.07.2020
87 Clouds 27 1017 42 10000 2.1 0 16:39 31.07.2020
88 Clouds 26 1018 44 10000 2.1 0 15:23 31.07.2020
89 Clear 26 1018 44 10000 2.1 80 13:42 31.07.2020
90 Clear 25 1018 44 10000 2.6 70 13:22 31.07.2020
91 Clear 25 1019 44 10000 1.5 0 12:19 31.07.2020
92 Clear 25 1019 44 10000 2.1 70 11:38 31.07.2020
93 Clear 24 1019 46 10000 1 0 10:47 31.07.2020
94 Clear 20 1019 56 10000 1 0 09:50 31.07.2020
95 Clouds 19 1019 59 10000 1 0 09:25 31.07.2020
96 Clouds 17 1019 63 10000 1.5 140 08:45 31.07.2020
97 Clear 12 1019 82 10000 1 0 06:39 31.07.2020
98 Clear 13 1019 87 10000 0.5 100 03:31 31.07.2020
99 Clear 13 1019 87 10000 0.5 100 03:31 31.07.2020
100 Clear 13 1019 87 10000 0.5 100 03:31 31.07.2020
101 Clouds 14 1020 82 10000 1.5 80 01:50 31.07.2020
102 Clouds 15 1020 82 10000 1 70 00:34 31.07.2020
103 Clouds 16 1019 77 10000 1 80 23:47 30.07.2020
104 Clouds 16 1020 67 10000 1 50 22:46 30.07.2020
105 Clouds 18 1020 63 10000 1.5 80 22:21 30.07.2020
106 Clouds 20 1019 56 10000 2.1 40 21:18 30.07.2020
107 Clouds 21 1019 49 10000 1 0 20:54 30.07.2020
108 Clouds 22 1020 46 10000 2.6 310 19:41 30.07.2020
109 Clouds 23 1020 46 10000 4.1 320 18:54 30.07.2020
110 Clouds 22 1020 43 10000 3.6 320 17:38 30.07.2020
111 Clouds 22 1021 43 10000 3.6 300 16:55 30.07.2020
112 Clouds 22 1021 43 10000 3.6 300 16:34 30.07.2020
113 Clouds 22 1021 43 10000 3.1 290 15:55 30.07.2020
114 Clouds 21 1021 43 10000 3.1 290 15:36 30.07.2020
115 Clouds 21 1021 40 10000 3.6 310 14:56 30.07.2020
116 Clouds 21 1021 40 10000 3.6 310 14:37 30.07.2020
117 Clouds 21 1021 43 10000 3.1 300 14:19 30.07.2020
118 Clouds 20 1021 45 10000 3.6 280 13:20 30.07.2020
119 Clouds 20 1021 45 10000 3.6 280 13:20 30.07.2020
120 Clouds 20 1021 45 10000 3.6 280 13:00 30.07.2020
121 Clouds 20 1021 48 10000 2.6 290 12:31 30.07.2020
122 Clouds 18 1022 52 10000 4.1 260 10:49 30.07.2020
123 Clouds 18 1022 59 10000 5.1 270 10:25 30.07.2020
124 Clouds 15 1022 67 10000 3.6 260 09:23 30.07.2020
125 Clouds 15 1022 67 10000 3.6 260 08:59 30.07.2020
126 Clouds 14 1021 76 10000 2.6 250 08:38 30.07.2020
127 Clouds 9 1020 100 10000 1 0 05:23 30.07.2020
128 Clouds 11 1020 93 10000 2.6 240 02:19 30.07.2020
129 Clouds 11 1020 87 10000 2.1 260 01:22 30.07.2020
130 Clouds 13 1020 71 10000 2.1 270 22:58 29.07.2020
131 Clouds 15 1020 62 10000 3.1 300 22:22 29.07.2020
132 Clouds 16 1019 59 10000 4.1 310 21:47 29.07.2020
133 Clouds 17 1019 55 10000 4.1 320 21:19 29.07.2020
134 Clouds 17 1019 59 10000 5.7 290 20:41 29.07.2020
135 Clouds 18 1019 55 10000 6.7 290 19:57 29.07.2020
136 Clouds 18 1019 55 10000 6.7 290 19:37 29.07.2020
137 Clouds 18 1019 55 10000 6.7 280 19:19 29.07.2020
138 Clouds 18 1019 55 10000 6.2 270 18:38 29.07.2020
139 Clouds 20 1019 52 10000 6.2 280 18:18 29.07.2020
140 Clouds 20 1019 48 10000 7.7 270 17:26 29.07.2020
141 Clouds 20 1019 48 10000 7.7 290 16:35 29.07.2020
142 Clouds 20 1018 42 10000 7.2 270 15:46 29.07.2020
143 Clouds 19 1018 45 10000 9.8 280 15:21 29.07.2020
144 Clouds 19 1018 55 10000 9.8 260 14:22 29.07.2020
145 Clouds 19 1018 55 10000 7.2 260 13:56 29.07.2020
146 Clouds 18 1018 59 10000 7.2 270 13:20 29.07.2020
147 Clouds 18 1017 55 10000 7.2 260 12:29 29.07.2020
148 Clouds 18 1017 55 10000 8.2 260 11:59 29.07.2020
149 Clouds 18 1017 55 10000 8.2 260 11:38 29.07.2020
150 Clouds 18 1017 59 10000 7.7 250 10:57 29.07.2020
151 Clouds 18 1016 67 10000 8.2 250 09:52 29.07.2020
152 Clouds 17 1016 67 10000 7.7 240 09:22 29.07.2020
153 Clouds 16 1015 72 10000 7.2 240 08:21 29.07.2020
154 Clouds 15 1015 72 10000 5.1 240 07:25 29.07.2020
155 Clear 14 1014 76 10000 3.6 220 02:56 29.07.2020
156 Clear 14 1014 76 10000 3.6 230 01:19 29.07.2020
157 Clear 14 1014 76 10000 3.6 230 00:24 29.07.2020
158 Clear 15 1013 67 10000 4.1 270 22:42 28.07.2020
159 Clear 15 1013 67 10000 4.1 280 22:18 28.07.2020
160 Clouds 17 1013 67 10000 7.2 290 21:33 28.07.2020
161 Clouds 18 1012 52 10000 6.2 270 20:54 28.07.2020
162 Clouds 19 1012 52 10000 6.2 270 20:29 28.07.2020
163 Clouds 20 1012 49 10000 6.7 270 19:56 28.07.2020
164 Clouds 21 1012 52 10000 7.2 280 19:24 28.07.2020
165 Clouds 21 1012 52 10000 7.2 270 18:56 28.07.2020
166 Clouds 21 1012 52 10000 7.2 270 18:36 28.07.2020
167 Clouds 21 1011 46 10000 9.3 260 17:52 28.07.2020
168 Rain 21 1011 56 10000 7.7 280 17:20 28.07.2020
169 Rain 22 1011 49 10000 8.2 300 16:35 28.07.2020
170 Rain 23 1010 40 10000 8.2 260 15:31 28.07.2020
171 Clouds 23 1010 46 10000 7.2 260 14:51 28.07.2020
172 Clouds 23 1010 46 10000 7.2 260 14:32 28.07.2020
173 Clouds 22 1009 49 10000 7.7 260 13:41 28.07.2020
174 Clouds 20 1009 64 10000 7.7 250 12:42 28.07.2020
175 Clouds 19 1009 68 10000 7.2 260 12:21 28.07.2020
176 Clouds 19 1008 68 10000 8.2 260 11:57 28.07.2020
177 Clouds 18 1008 82 10000 7.2 270 11:19 28.07.2020
178 Rain 18 1008 93 10000 5.7 230 10:43 28.07.2020
179 Rain 18 1007 88 10000 5.1 230 10:20 28.07.2020
180 Rain 18 1007 88 8000 6.2 230 09:39 28.07.2020
181 Clouds 18 1007 82 10000 5.1 230 09:19 28.07.2020
182 Clouds 19 1007 77 10000 6.2 230 08:40 28.07.2020
183 Clouds 18 1006 82 10000 5.7 220 07:51 28.07.2020
184 Clouds 18 1006 82 10000 5.1 220 07:19 28.07.2020
185 Clouds 18 1005 82 10000 2.1 160 02:21 28.07.2020
186 Clouds 18 1005 82 10000 2.1 160 02:21 28.07.2020
187 Clouds 18 1005 77 10000 2.1 140 01:51 28.07.2020
188 Clouds 18 1006 68 10000 4.6 130 00:57 28.07.2020
189 Clouds 19 1006 63 10000 5.1 130 23:55 27.07.2020
190 Rain 19 1007 60 10000 5.1 120 23:25 27.07.2020
191 Rain 19 1007 68 10000 5.7 120 22:44 27.07.2020
192 Clouds 19 1008 64 10000 4.6 120 22:21 27.07.2020
193 Rain 19 1008 64 10000 3.1 120 21:46 27.07.2020
194 Clouds 20 1009 68 10000 3.6 110 20:56 27.07.2020
195 Clouds 20 1009 68 10000 3.6 110 20:56 27.07.2020
196 Clouds 20 1009 68 10000 3.6 110 20:38 27.07.2020
197 Clouds 20 1009 64 10000 3.1 120 20:20 27.07.2020
198 Clouds 20 1010 73 10000 4.1 120 19:35 27.07.2020
199 Clouds 20 1011 73 10000 4.1 140 18:57 27.07.2020
200 Rain 20 1011 73 10000 1.5 100 17:52 27.07.2020
201 Rain 20 1011 73 10000 1.5 100 17:33 27.07.2020
202 Rain 19 1012 77 10000 2.6 180 17:00 27.07.2020
203 Rain 20 1013 60 10000 3.6 170 16:24 27.07.2020
204 Rain 21 1013 64 10000 4.1 180 15:51 27.07.2020
205 Rain 21 1013 64 10000 4.1 180 15:32 27.07.2020
206 Rain 22 1014 56 10000 5.1 170 14:56 27.07.2020
207 Rain 22 1014 56 10000 5.1 170 14:37 27.07.2020
208 Clouds 21 1014 60 10000 4.1 190 13:51 27.07.2020
209 Clouds 21 1015 60 10000 3.6 190 13:28 27.07.2020
210 Clouds 20 1015 64 10000 4.6 200 12:53 27.07.2020
211 Clouds 20 1015 64 10000 4.6 200 12:34 27.07.2020
212 Clouds 19 1015 68 10000 4.6 200 11:41 27.07.2020
213 Clouds 19 1015 72 10000 4.1 190 11:19 27.07.2020
214 Clouds 18 1015 77 10000 4.1 170 09:59 27.07.2020
215 Clouds 17 1015 82 10000 2.6 140 09:41 27.07.2020
216 Clouds 17 1015 82 10000 3.1 140 09:19 27.07.2020
217 Clouds 17 1016 82 10000 2.6 150 08:54 27.07.2020
218 Clouds 16 1016 82 10000 2.6 150 08:33 27.07.2020
219 Clouds 15 1016 87 10000 1 150 07:48 27.07.2020
220 Clouds 12 1016 100 10000 1 140 06:36 27.07.2020
221 Clouds 12 1016 100 10000 1.5 140 04:30 27.07.2020
222 Clouds 15 1016 87 10000 0.5 0 02:18 27.07.2020
223 Clear 16 1015 87 10000 0.5 0 00:22 27.07.2020
224 Clear 16 1015 82 10000 0.5 0 23:30 26.07.2020
225 Clear 16 1014 72 10000 1 0 22:49 26.07.2020
226 Clear 17 1014 72 10000 1 0 22:31 26.07.2020
227 Clear 20 1013 63 10000 3.6 290 21:55 26.07.2020
228 Clear 20 1013 63 10000 3.6 290 21:37 26.07.2020
229 Clouds 20 1013 60 10000 4.6 280 21:18 26.07.2020
230 Clouds 21 1013 68 10000 1.5 250 20:44 26.07.2020
231 Clear 21 1012 64 10000 2.1 240 20:20 26.07.2020
232 Clear 19 1012 68 10000 4.6 230 19:42 26.07.2020
233 Clouds 20 1012 68 10000 6.2 220 19:20 26.07.2020
234 Rain 20 1012 77 10000 5.1 210 18:45 26.07.2020
235 Rain 22 1011 60 10000 4.6 270 18:25 26.07.2020
236 Clouds 23 1011 49 10000 5.1 260 17:47 26.07.2020
237 Clouds 24 1010 47 10000 5.7 280 17:23 26.07.2020
238 Clouds 23 1010 47 10000 6.7 260 16:52 26.07.2020
239 Clouds 23 1010 53 10000 4.6 250 16:26 26.07.2020
240 Clouds 23 1010 56 10000 5.7 300 15:42 26.07.2020
241 Clouds 23 1009 53 10000 7.7 280 15:24 26.07.2020
242 Clouds 23 1009 53 10000 7.2 270 14:56 26.07.2020
243 Clouds 23 1009 53 10000 7.2 270 14:33 26.07.2020
244 Clouds 23 1008 53 10000 9.3 260 13:48 26.07.2020
245 Clouds 22 1008 60 10000 7.7 260 13:18 26.07.2020
246 Clouds 21 1008 64 10000 7.2 260 12:39 26.07.2020
247 Clouds 22 1008 68 10000 7.2 250 12:20 26.07.2020
248 Rain 20 1007 72 10000 6.7 240 11:41 26.07.2020
249 Rain 20 1007 77 10000 6.7 240 11:22 26.07.2020
250 Clouds 19 1007 82 10000 5.7 240 10:42 26.07.2020
251 Clouds 19 1006 88 10000 5.7 220 09:59 26.07.2020
252 Rain 18 1006 100 10000 3.1 210 09:38 26.07.2020
253 Rain 17 1006 93 10000 3.1 200 08:56 26.07.2020
254 Rain 17 1005 93 10000 4.1 210 07:57 26.07.2020
255 Rain 17 1005 93 10000 3.1 150 06:30 26.07.2020
256 Rain 18 1005 88 10000 5.1 140 03:52 26.07.2020
257 Clouds 18 1007 88 10000 3.6 130 01:23 26.07.2020
258 Clouds 18 1008 93 10000 3.1 140 00:21 26.07.2020
259 Clouds 18 1008 93 10000 2.1 130 23:32 25.07.2020
260 Clouds 18 1009 93 10000 2.1 130 22:46 25.07.2020
261 Clouds 19 1009 88 10000 2.1 130 22:19 25.07.2020
262 Clouds 19 1009 93 10000 2.1 160 21:28 25.07.2020
263 Clouds 19 1009 88 10000 3.1 190 20:55 25.07.2020
264 Clouds 20 1009 88 10000 3.1 190 20:33 25.07.2020
265 Clouds 19 1010 88 10000 3.6 200 19:48 25.07.2020
266 Clouds 19 1010 88 10000 3.1 210 19:23 25.07.2020
267 Clouds 19 1010 88 10000 3.6 200 18:40 25.07.2020
268 Rain 19 1010 88 10000 4.1 210 18:21 25.07.2020
269 Rain 20 1010 88 10000 3.6 250 17:43 25.07.2020
270 Rain 20 1010 82 10000 5.1 250 17:24 25.07.2020
271 Rain 20 1010 82 10000 5.1 250 16:59 25.07.2020
272 Clouds 21 1010 68 10000 5.1 230 16:40 25.07.2020
273 Clouds 22 1010 60 10000 5.1 240 16:20 25.07.2020
274 Clouds 23 1011 60 10000 7.2 240 15:41 25.07.2020
275 Clouds 23 1011 60 10000 7.2 240 15:41 25.07.2020
276 Clouds 23 1011 60 10000 7.2 250 15:21 25.07.2020
277 Clouds 22 1011 60 10000 8.2 230 14:37 25.07.2020
278 Clouds 23 1011 56 10000 7.2 230 13:59 25.07.2020
279 Clouds 22 1011 64 10000 6.7 210 13:37 25.07.2020
280 Clouds 22 1010 60 10000 4.6 200 13:19 25.07.2020
281 Clouds 23 1011 60 10000 5.1 210 12:47 25.07.2020
282 Clouds 22 1011 60 10000 6.2 200 12:18 25.07.2020
283 Clouds 22 1011 60 10000 5.1 220 11:42 25.07.2020
284 Clouds 22 1011 64 10000 5.1 220 11:19 25.07.2020
285 Clouds 21 1011 68 10000 4.1 210 10:39 25.07.2020
286 Clouds 21 1011 68 10000 4.1 210 10:19 25.07.2020
287 Clouds 19 1011 77 10000 3.6 190 09:46 25.07.2020
288 Clouds 18 1011 77 10000 3.6 190 09:23 25.07.2020
289 Clouds 18 1011 82 10000 2.1 160 08:55 25.07.2020
290 Clouds 17 1011 88 10000 2.6 170 08:23 25.07.2020
291 Clouds 16 1011 93 10000 2.1 170 07:51 25.07.2020
292 Clouds 15 1011 100 10000 2.1 180 07:24 25.07.2020
293 Clouds 14 1011 100 10000 1 230 05:28 25.07.2020
294 Clouds 14 1011 100 10000 1.5 120 02:55 25.07.2020
295 Clouds 15 1012 100 10000 1 230 01:58 25.07.2020
296 Clouds 15 1012 100 10000 1 230 01:32 25.07.2020
297 Clouds 15 1012 93 10000 1 0 00:57 25.07.2020
298 Clouds 15 1012 93 10000 1 0 00:39 25.07.2020
299 Clouds 16 1012 82 10000 1.5 90 00:20 25.07.2020
300 Clouds 17 1012 82 10000 2.6 340 23:46 24.07.2020
301 Clouds 18 1012 82 10000 4.1 350 23:27 24.07.2020
302 Clouds 19 1011 77 10000 4.1 360 22:45 24.07.2020
303 Clouds 19 1011 72 10000 4.6 360 22:23 24.07.2020
304 Clouds 20 1011 64 10000 3.1 310 21:55 24.07.2020
305 Clouds 20 1011 64 10000 3.1 310 21:35 24.07.2020
306 Clouds 21 1010 64 10000 3.6 340 20:55 24.07.2020
307 Clouds 21 1010 64 10000 3.6 340 20:36 24.07.2020
308 Clouds 21 1010 64 10000 4.1 330 20:18 24.07.2020
309 Clouds 21 1010 60 10000 4.1 320 19:39 24.07.2020
310 Clouds 22 1010 60 10000 4.6 330 19:20 24.07.2020
311 Clouds 23 1010 53 10000 6.2 310 18:34 24.07.2020
312 Clouds 24 1010 53 10000 6.7 300 17:53 24.07.2020
313 Clouds 24 1010 53 10000 6.2 290 17:19 24.07.2020
314 Clouds 24 1010 56 10000 4.1 280 16:52 24.07.2020
315 Clouds 23 1010 60 10000 5.1 290 16:28 24.07.2020
316 Clouds 23 1010 64 10000 5.1 280 15:51 24.07.2020
317 Clouds 22 1010 64 10000 5.1 280 15:32 24.07.2020
318 Clouds 22 1010 64 10000 5.1 260 14:47 24.07.2020
319 Clouds 22 1010 64 10000 5.1 260 14:29 24.07.2020
320 Clouds 21 1010 72 10000 4.1 270 13:46 24.07.2020
321 Clouds 20 1010 77 10000 5.7 260 13:22 24.07.2020
322 Drizzle 19 1010 88 10000 4.1 260 12:52 24.07.2020
323 Drizzle 19 1010 77 10000 5.7 270 12:28 24.07.2020
324 Clouds 19 1010 68 10000 5.1 280 11:57 24.07.2020
325 Clouds 19 1009 68 10000 5.1 260 11:22 24.07.2020
326 Clouds 18 1009 77 10000 6.2 270 10:49 24.07.2020
327 Rain 18 1009 72 10000 4.1 280 10:22 24.07.2020
328 Rain 18 1009 72 10000 4.1 280 09:59 24.07.2020
329 Clouds 18 1009 68 10000 5.1 270 09:40 24.07.2020
330 Clouds 18 1009 68 10000 4.1 260 09:21 24.07.2020
331 Clouds 18 1009 72 10000 3.1 240 08:47 24.07.2020
332 Clouds 17 1009 77 10000 2.1 240 08:27 24.07.2020
333 Clouds 17 1008 77 10000 2.1 250 07:40 24.07.2020
334 Clouds 17 1009 82 10000 1.5 230 07:22 24.07.2020
335 Clouds 16 1009 82 10000 2.6 230 06:48 24.07.2020
336 Clouds 16 1009 77 10000 2.1 220 05:54 24.07.2020
337 Clouds 16 1009 77 10000 2.1 220 05:31 24.07.2020
338 Clouds 16 1010 82 10000 1.5 160 03:55 24.07.2020
339 Clouds 17 1011 77 10000 2.1 160 01:46 24.07.2020
340 Clouds 17 1012 72 10000 2.1 170 00:43 24.07.2020
341 Rain 18 1012 72 10000 1.5 220 00:19 24.07.2020
342 Rain 18 1012 68 10000 1 240 23:39 23.07.2020
343 Rain 18 1012 72 10000 0.5 220 23:20 23.07.2020
344 Rain 20 1012 68 10000 1 270 22:43 23.07.2020
345 Rain 20 1012 64 10000 1.5 270 22:20 23.07.2020
346 Rain 21 1012 60 10000 2.6 270 21:55 23.07.2020
347 Rain 21 1012 60 10000 2.6 270 21:36 23.07.2020
348 Clouds 21 1013 56 10000 3.6 290 21:18 23.07.2020
349 Clouds 22 1013 53 10000 3.1 250 20:42 23.07.2020
350 Clouds 22 1013 49 10000 3.6 260 20:20 23.07.2020
351 Clouds 23 1013 46 10000 3.6 250 19:59 23.07.2020
352 Clouds 23 1013 46 10000 3.6 250 19:38 23.07.2020
353 Rain 23 1013 46 10000 3.6 240 19:20 23.07.2020
354 Rain 23 1013 46 10000 3.6 240 19:20 23.07.2020
355 Rain 23 1013 43 10000 3.6 230 18:42 23.07.2020
356 Clouds 23 1014 43 10000 5.7 260 18:22 23.07.2020
357 Clouds 23 1014 38 10000 4.6 250 17:56 23.07.2020
358 Clouds 24 1014 38 10000 4.6 250 17:36 23.07.2020
359 Clouds 24 1014 38 10000 5.1 250 17:18 23.07.2020
360 Clouds 23 1014 41 10000 6.7 220 16:41 23.07.2020
361 Clouds 23 1015 38 10000 4.6 250 16:21 23.07.2020
362 Clouds 23 1015 43 10000 3.1 240 15:39 23.07.2020
363 Clouds 22 1015 43 10000 4.1 200 15:19 23.07.2020
364 Clouds 21 1016 40 10000 3.1 250 14:40 23.07.2020
365 Clouds 21 1016 43 10000 2.1 0 14:20 23.07.2020
366 Clouds 21 1017 40 10000 2.6 210 13:58 23.07.2020
367 Clouds 21 1017 40 10000 2.6 210 13:40 23.07.2020
368 Clouds 20 1017 42 10000 3.6 230 13:22 23.07.2020
369 Clouds 20 1017 42 10000 4.1 210 12:44 23.07.2020
370 Clouds 20 1018 40 10000 2.6 200 12:23 23.07.2020
371 Clouds 19 1018 55 10000 3.1 220 11:50 23.07.2020
372 Clouds 18 1018 52 10000 3.1 210 11:26 23.07.2020
373 Clouds 18 1018 52 10000 3.1 210 10:58 23.07.2020
374 Clouds 18 1018 59 10000 3.1 230 10:39 23.07.2020
375 Clouds 17 1018 63 10000 2.1 210 10:19 23.07.2020
376 Clouds 17 1018 59 10000 2.6 210 09:48 23.07.2020
377 Clouds 16 1018 63 10000 2.1 0 09:28 23.07.2020
378 Clouds 15 1019 67 10000 1.5 180 08:52 23.07.2020
379 Clouds 15 1019 67 10000 1.5 180 08:33 23.07.2020
380 Clouds 13 1019 82 10000 0.5 0 07:54 23.07.2020
381 Clouds 13 1019 87 10000 1 0 07:33 23.07.2020
382 Clouds 12 1019 93 10000 1 200 06:47 23.07.2020
383 Clouds 12 1019 87 10000 1.5 220 06:20 23.07.2020
384 Clouds 12 1019 93 10000 1.5 180 05:45 23.07.2020
385 Clouds 13 1020 87 10000 0.5 250 04:47 23.07.2020
386 Clouds 13 1020 87 10000 1 230 04:25 23.07.2020
387 Clouds 13 1020 82 10000 1 240 02:42 23.07.2020
388 Clouds 15 1021 67 10000 3.1 350 00:33 23.07.2020
389 Clouds 15 1021 63 10000 3.6 360 23:57 22.07.2020
390 Clouds 15 1021 63 10000 3.6 360 23:39 22.07.2020
391 Clouds 15 1021 63 10000 2.6 360 23:20 22.07.2020
392 Clouds 16 1021 63 10000 3.1 360 22:40 22.07.2020
393 Clouds 16 1021 59 10000 3.6 360 22:22 22.07.2020
394 Clouds 16 1020 59 10000 3.6 340 21:55 22.07.2020
395 Clouds 16 1020 59 10000 3.6 340 21:37 22.07.2020
396 Clouds 16 1020 63 10000 4.1 10 21:18 22.07.2020
397 Clouds 17 1020 59 10000 4.1 360 20:56 22.07.2020
398 Clouds 17 1020 59 10000 4.1 360 20:37 22.07.2020
399 Clouds 18 1020 52 10000 3.6 360 20:19 22.07.2020
400 Clouds 18 1020 55 10000 4.1 330 19:45 22.07.2020
401 Clouds 19 1021 55 10000 4.1 320 19:27 22.07.2020
402 Clouds 19 1021 52 10000 4.1 320 18:55 22.07.2020
403 Clouds 20 1021 52 10000 3.1 320 18:32 22.07.2020
404 Clouds 20 1021 48 10000 3.1 320 17:57 22.07.2020
405 Clouds 20 1021 48 10000 3.1 320 17:38 22.07.2020
406 Clouds 20 1022 48 10000 4.6 320 17:19 22.07.2020
407 Clouds 19 1022 48 10000 4.1 340 16:55 22.07.2020
408 Clouds 19 1022 48 10000 4.1 340 16:37 22.07.2020
409 Clouds 20 1022 52 10000 4.1 320 16:18 22.07.2020
410 Clouds 21 1022 40 10000 3.1 310 15:42 22.07.2020
411 Clouds 20 1022 48 10000 4.6 310 15:22 22.07.2020
412 Clouds 20 1023 48 10000 5.1 310 14:55 22.07.2020
413 Clouds 19 1023 48 10000 5.1 310 14:37 22.07.2020
414 Clouds 19 1023 48 10000 5.7 320 14:18 22.07.2020
415 Clouds 19 1023 48 10000 5.7 300 13:40 22.07.2020
416 Clouds 20 1023 45 10000 4.1 290 13:22 22.07.2020
417 Clouds 19 1023 52 10000 4.1 300 12:46 22.07.2020
418 Clouds 19 1023 55 10000 4.6 300 12:28 22.07.2020
419 Clouds 19 1023 63 10000 3.1 290 11:56 22.07.2020
420 Clouds 18 1023 63 10000 3.1 290 11:38 22.07.2020
421 Clouds 19 1023 59 10000 3.1 290 11:18 22.07.2020
422 Clouds 18 1023 72 10000 4.6 300 10:42 22.07.2020
423 Clouds 18 1023 72 10000 4.6 300 10:42 22.07.2020
424 Clouds 17 1023 63 10000 4.6 310 10:23 22.07.2020
425 Clouds 16 1023 72 10000 4.6 310 09:58 22.07.2020
426 Clouds 16 1023 72 10000 4.6 310 09:39 22.07.2020
427 Clouds 15 1023 72 10000 3.6 300 09:19 22.07.2020
428 Clouds 14 1023 77 10000 3.1 270 08:39 22.07.2020
429 Clouds 13 1023 87 10000 2.6 270 08:19 22.07.2020
430 Clear 11 1023 93 10000 1 280 07:21 22.07.2020
431 Clear 10 1023 100 10000 2.1 230 06:45 22.07.2020
432 Fog 10 1023 100 800 1.5 230 06:18 22.07.2020
433 Clear 10 1023 100 10000 1 250 05:51 22.07.2020
434 Clear 10 1023 100 10000 0.5 0 05:19 22.07.2020
435 Clear 10 1023 100 10000 1 230 04:24 22.07.2020
436 Clear 11 1024 100 10000 1 240 02:53 22.07.2020
437 Clouds 11 1023 93 10000 1 0 01:44 22.07.2020
438 Clouds 11 1023 93 10000 1 0 01:44 22.07.2020
439 Clouds 12 1023 82 10000 2.1 290 00:33 22.07.2020
440 Clouds 13 1023 76 10000 2.1 300 23:56 21.07.2020
441 Clouds 14 1023 76 10000 2.1 300 23:37 21.07.2020
442 Clouds 15 1023 67 10000 1.5 340 23:18 21.07.2020
443 Clouds 16 1023 67 10000 3.1 350 22:55 21.07.2020
444 Clouds 16 1023 67 10000 3.1 350 22:36 21.07.2020
445 Clouds 16 1023 67 10000 3.1 350 22:18 21.07.2020
446 Clouds 16 1022 63 10000 4.1 350 21:55 21.07.2020
447 Clouds 17 1022 63 10000 4.1 350 21:36 21.07.2020
448 Clouds 17 1022 63 10000 3.6 320 21:18 21.07.2020
449 Clouds 18 1022 55 10000 4.1 330 20:42 21.07.2020
450 Clouds 18 1022 55 10000 3.6 310 20:22 21.07.2020
451 Clouds 19 1022 55 10000 3.6 290 19:45 21.07.2020
452 Clouds 20 1022 52 10000 4.1 330 19:20 21.07.2020
453 Clouds 20 1022 52 10000 3.1 290 18:45 21.07.2020
454 Clouds 20 1023 55 10000 4.1 310 18:26 21.07.2020
455 Clouds 20 1023 55 10000 4.1 310 17:58 21.07.2020
456 Clouds 20 1023 55 10000 4.1 310 17:39 21.07.2020
457 Clouds 20 1023 52 10000 4.6 300 17:19 21.07.2020
458 Clouds 20 1023 52 10000 6.7 310 16:41 21.07.2020
459 Clouds 19 1023 52 10000 4.6 300 16:21 21.07.2020
460 Clouds 19 1023 55 10000 6.7 320 15:46 21.07.2020
461 Clouds 19 1023 55 10000 5.1 290 15:27 21.07.2020
462 Clouds 19 1023 59 10000 7.2 310 14:58 21.07.2020
463 Clouds 19 1023 59 10000 7.2 310 14:39 21.07.2020
464 Clouds 18 1023 55 10000 4.6 310 14:19 21.07.2020
465 Clouds 18 1023 59 10000 3.1 320 13:43 21.07.2020
466 Rain 17 1023 63 10000 3.6 350 13:25 21.07.2020
467 Rain 18 1023 63 10000 5.1 270 12:57 21.07.2020
468 Rain 17 1023 63 10000 5.1 270 12:38 21.07.2020
469 Rain 18 1022 55 10000 5.1 260 12:20 21.07.2020
470 Clouds 19 1022 55 10000 3.6 280 11:55 21.07.2020
471 Clouds 19 1022 55 10000 3.6 280 11:37 21.07.2020
472 Clouds 19 1022 59 10000 4.6 240 11:18 21.07.2020
473 Clouds 18 1022 55 10000 5.1 250 10:42 21.07.2020
474 Clouds 18 1022 55 10000 6.2 270 10:21 21.07.2020
475 Clouds 17 1022 63 10000 4.6 260 09:46 21.07.2020
476 Clouds 16 1022 67 10000 4.6 260 09:25 21.07.2020
477 Clouds 15 1022 72 10000 3.6 260 08:47 21.07.2020
478 Clouds 13 1022 82 10000 3.1 250 08:26 21.07.2020
479 Clouds 13 1022 82 10000 3.1 250 07:58 21.07.2020
480 Clouds 12 1022 87 10000 2.1 240 07:40 21.07.2020
481 Clouds 11 1022 93 10000 1 0 07:21 21.07.2020
482 Clouds 9 1022 100 10000 1 0 06:47 21.07.2020
483 Clouds 9 1022 100 10000 1 220 04:31 21.07.2020
484 Clouds 9 1022 93 10000 1 200 03:35 21.07.2020
485 Clear 10 1022 93 10000 1 220 02:23 21.07.2020
486 Clear 11 1022 93 10000 2.1 290 01:20 21.07.2020
487 Clear 11 1021 81 10000 2.1 290 00:38 21.07.2020
488 Clear 13 1021 81 10000 2.1 290 00:19 21.07.2020
489 Clear 14 1021 67 10000 2.6 330 23:46 20.07.2020
490 Clear 14 1021 72 10000 3.6 340 23:28 20.07.2020
491 Clear 14 1021 72 10000 3.6 340 22:59 20.07.2020
492 Clouds 15 1021 67 10000 3.6 350 22:39 20.07.2020
493 Clouds 15 1021 63 10000 4.6 350 22:19 20.07.2020
494 Clouds 16 1021 63 10000 4.6 350 21:55 20.07.2020
495 Clouds 16 1021 63 10000 4.6 350 21:37 20.07.2020
496 Clouds 17 1020 59 10000 4.1 340 21:18 20.07.2020
497 Clouds 18 1020 63 10000 4.1 350 20:41 20.07.2020
498 Clouds 18 1020 59 10000 4.6 350 20:20 20.07.2020
499 Clouds 19 1020 55 10000 5.1 320 19:39 20.07.2020
500 Clouds 19 1020 55 10000 5.1 330 19:19 20.07.2020
501 Clouds 20 1019 55 10000 5.7 320 18:59 20.07.2020
502 Clouds 20 1019 55 10000 5.7 320 18:41 20.07.2020
503 Clouds 21 1019 52 10000 5.7 330 18:19 20.07.2020
504 Clouds 21 1019 52 10000 5.1 310 17:45 20.07.2020
505 Clouds 21 1019 52 10000 6.2 320 17:24 20.07.2020
506 Clouds 20 1019 52 10000 5.7 320 16:51 20.07.2020
507 Clear 21 1019 43 10000 5.1 310 16:24 20.07.2020
508 Clouds 21 1019 46 10000 4.1 320 15:49 20.07.2020
509 Clouds 21 1019 46 10000 5.1 330 15:21 20.07.2020
510 Clouds 21 1019 46 10000 5.1 330 14:58 20.07.2020
511 Clouds 20 1019 49 10000 4.1 330 14:40 20.07.2020
512 Clouds 21 1019 49 10000 5.7 330 14:19 20.07.2020
513 Clouds 21 1019 49 10000 5.1 330 13:58 20.07.2020
514 Clouds 21 1019 49 10000 5.1 330 13:39 20.07.2020
515 Clouds 20 1019 55 10000 6.2 330 13:20 20.07.2020
516 Clouds 21 1019 52 10000 5.1 350 12:56 20.07.2020
517 Clouds 20 1019 52 10000 5.1 350 12:38 20.07.2020
518 Clouds 20 1019 55 10000 6.2 320 12:19 20.07.2020
519 Clouds 19 1018 55 10000 4.6 310 11:55 20.07.2020
520 Clouds 19 1018 55 10000 4.6 310 11:36 20.07.2020
521 Clouds 18 1018 59 10000 5.1 300 11:18 20.07.2020
522 Clouds 18 1018 63 10000 5.7 320 10:41 20.07.2020
523 Clouds 17 1017 77 10000 4.6 330 10:23 20.07.2020
524 Clouds 16 1017 82 10000 3.6 320 09:43 20.07.2020
525 Clouds 16 1017 82 10000 4.6 320 09:25 20.07.2020
526 Clouds 16 1017 87 10000 4.1 330 08:59 20.07.2020
527 Clouds 16 1017 87 10000 4.1 330 08:39 20.07.2020
528 Clouds 15 1016 87 10000 5.7 320 08:21 20.07.2020
529 Clouds 15 1016 93 10000 4.6 310 07:41 20.07.2020
530 Rain 15 1016 93 10000 4.6 310 07:20 20.07.2020
531 Rain 16 1016 87 10000 5.1 320 06:41 20.07.2020
532 Clouds 17 1015 93 10000 4.1 300 04:30 20.07.2020
533 Clouds 17 1015 88 10000 3.1 320 02:23 20.07.2020
534 Clouds 18 1015 82 10000 3.1 350 00:49 20.07.2020
535 Clouds 18 1015 77 10000 4.1 360 23:58 19.07.2020
536 Clouds 19 1015 77 10000 4.1 360 23:38 19.07.2020
537 Clouds 19 1015 72 10000 4.6 350 23:19 19.07.2020
538 Clouds 21 1014 73 10000 4.1 20 22:44 19.07.2020
539 Clouds 21 1014 73 10000 1.5 30 22:21 19.07.2020
540 Clouds 21 1014 73 10000 1 70 21:59 19.07.2020
541 Clouds 21 1014 73 10000 1 70 21:41 19.07.2020
542 Rain 23 1014 56 10000 1.5 10 21:23 19.07.2020
543 Rain 23 1014 53 10000 2.1 340 20:56 19.07.2020
544 Rain 24 1014 53 10000 2.1 340 20:38 19.07.2020
545 Clouds 24 1014 56 10000 2.6 310 20:18 19.07.2020
546 Clouds 24 1014 53 10000 3.6 320 19:56 19.07.2020
547 Clouds 24 1014 53 10000 3.6 320 19:36 19.07.2020
548 Clouds 24 1014 56 10000 4.6 310 19:18 19.07.2020
549 Clouds 25 1014 56 10000 5.1 310 18:41 19.07.2020
550 Clouds 25 1014 47 10000 6.2 290 18:23 19.07.2020
551 Clouds 25 1014 47 10000 6.2 290 18:23 19.07.2020
552 Clouds 26 1014 50 10000 5.7 270 17:48 19.07.2020
553 Clouds 26 1014 50 10000 5.7 270 17:28 19.07.2020
554 Clouds 26 1014 47 10000 4.1 260 16:58 19.07.2020
555 Clouds 25 1014 54 10000 4.1 280 16:39 19.07.2020
556 Clouds 25 1014 53 10000 5.7 300 16:20 19.07.2020
557 Clouds 25 1014 61 10000 4.6 290 15:49 19.07.2020
558 Clouds 26 1014 61 10000 4.6 290 15:31 19.07.2020
559 Clouds 26 1014 54 10000 4.1 280 14:48 19.07.2020
560 Rain 25 1014 54 10000 4.1 260 14:27 19.07.2020
561 Rain 26 1014 54 10000 4.1 260 13:59 19.07.2020
562 Clouds 25 1014 57 10000 3.6 270 13:41 19.07.2020
563 Clouds 25 1014 50 10000 2.6 210 13:22 19.07.2020
564 Clouds 25 1014 53 10000 2.6 260 12:50 19.07.2020
565 Clouds 25 1014 53 10000 3.6 230 12:25 19.07.2020
566 Clouds 25 1014 53 10000 3.6 230 12:25 19.07.2020
567 Rain 25 1014 53 10000 3.1 210 11:58 19.07.2020
568 Rain 24 1014 53 10000 3.1 210 11:39 19.07.2020
569 Rain 24 1014 53 10000 3.6 190 11:21 19.07.2020
570 Rain 22 1014 60 10000 2.6 180 10:42 19.07.2020
571 Clouds 22 1015 64 10000 2.6 170 10:22 19.07.2020
572 Clouds 21 1015 64 10000 3.1 140 09:47 19.07.2020
573 Clear 20 1015 68 10000 2.6 150 09:22 19.07.2020
574 Clear 18 1015 77 10000 2.6 140 08:54 19.07.2020
575 Clouds 18 1015 77 10000 2.6 140 08:28 19.07.2020
576 Clouds 18 1015 82 10000 1.5 130 07:59 19.07.2020
577 Clouds 17 1015 82 10000 2.1 130 07:28 19.07.2020
578 Clouds 17 1015 82 10000 1.5 140 06:52 19.07.2020
579 Clouds 17 1015 87 10000 1 0 06:22 19.07.2020
580 Clouds 17 1015 87 10000 0.5 0 05:52 19.07.2020
581 Clouds 17 1016 82 10000 2.18 170 05:21 19.07.2020
582 Clouds 18 1017 77 10000 2.22 162 02:48 19.07.2020
583 Clouds 18 1017 77 10000 1.81 158 02:28 19.07.2020
584 Clouds 18 1017 88 10000 1.81 158 01:55 19.07.2020
585 Clouds 19 1017 72 10000 1.7 161 01:21 19.07.2020
586 Clouds 19 1017 77 10000 1.7 161 00:40 19.07.2020
587 Clouds 20 1017 72 10000 1.56 160 00:21 19.07.2020
588 Clouds 20 1017 72 10000 1 150 23:43 18.07.2020
589 Clouds 21 1017 64 10000 1.5 140 23:23 18.07.2020
590 Clouds 21 1017 64 10000 2.1 140 22:45 18.07.2020
591 Clouds 21 1017 60 10000 2.1 130 22:21 18.07.2020
592 Clouds 22 1017 60 10000 1.5 210 21:55 18.07.2020
593 Clouds 23 1017 60 10000 1.5 210 21:36 18.07.2020
594 Clouds 23 1017 60 10000 2.1 240 21:18 18.07.2020
595 Clouds 24 1017 60 10000 2.6 160 20:42 18.07.2020
596 Clouds 24 1017 56 10000 2.1 140 20:21 18.07.2020
597 Clouds 25 1017 53 10000 2.6 160 19:50 18.07.2020
598 Clouds 24 1017 53 10000 2.6 180 19:31 18.07.2020
599 Clouds 24 1017 50 10000 3.6 200 18:59 18.07.2020
600 Clouds 24 1017 50 10000 3.6 200 18:39 18.07.2020
601 Clouds 24 1017 53 10000 3.1 210 18:39 18.07.2020
602 Clouds 25 1017 53 10000 3.1 210 18:19 18.07.2020
603 Clouds 25 1017 47 10000 3.6 210 17:42 18.07.2020
604 Clouds 25 1018 47 10000 4.1 220 17:21 18.07.2020
605 Clouds 25 1018 47 10000 4.6 200 16:57 18.07.2020
606 Clouds 25 1018 47 10000 4.6 200 16:36 18.07.2020
607 Clouds 25 1018 47 10000 4.1 200 16:18 18.07.2020
608 Clouds 26 1018 44 10000 4.6 210 15:44 18.07.2020
609 Clouds 25 1018 53 10000 3.6 160 15:23 18.07.2020
610 Clouds 25 1018 53 10000 3.1 200 14:55 18.07.2020
611 Clouds 25 1018 53 10000 3.1 200 14:37 18.07.2020
612 Clouds 24 1019 56 10000 4.1 210 14:18 18.07.2020
613 Clouds 24 1019 56 10000 4.1 210 14:18 18.07.2020
614 Clouds 24 1019 60 10000 3.6 200 13:41 18.07.2020
615 Clouds 24 1019 56 10000 2.1 210 13:22 18.07.2020
616 Clouds 24 1019 60 10000 2.6 240 12:55 18.07.2020
617 Clouds 24 1019 60 10000 2.6 240 12:37 18.07.2020
618 Clouds 22 1019 64 10000 2.1 250 12:18 18.07.2020
619 Clouds 23 1019 60 10000 1.5 0 11:44 18.07.2020
620 Clouds 23 1020 60 10000 2.1 180 11:19 18.07.2020
621 Clouds 21 1020 68 10000 2.1 190 10:56 18.07.2020
622 Clouds 20 1020 68 10000 2.1 190 10:37 18.07.2020
623 Clouds 20 1020 72 10000 2.1 160 10:19 18.07.2020
624 Clouds 20 1020 77 10000 1 0 09:42 18.07.2020
625 Clouds 16 1020 77 10000 0.5 0 09:23 18.07.2020
626 Clouds 15 1020 87 10000 0.5 0 08:52 18.07.2020
627 Clouds 15 1020 87 10000 0.5 0 08:31 18.07.2020
628 Clouds 16 1020 87 10000 0.5 200 07:57 18.07.2020
629 Clouds 16 1020 87 10000 0.5 200 07:39 18.07.2020
630 Clouds 14 1020 100 10000 0.5 0 07:20 18.07.2020
631 Clouds 12 1020 100 10000 0.5 0 06:44 18.07.2020
632 Clouds 13 1020 93 10000 2.05 150 04:29 18.07.2020
633 Clouds 14 1020 93 10000 1 80 03:38 18.07.2020
634 Clear 16 1020 77 10000 1.5 40 01:46 18.07.2020
635 Clear 17 1020 72 10000 2.6 10 01:19 18.07.2020
636 Clear 17 1020 72 10000 3.6 30 00:35 18.07.2020
637 Clear 17 1020 82 10000 2.1 360 23:56 17.07.2020
638 Clear 17 1020 82 10000 2.1 360 23:38 17.07.2020
639 Clear 18 1020 72 10000 1 0 23:18 17.07.2020
640 Clear 18 1020 77 10000 2.1 290 22:41 17.07.2020
641 Clear 19 1020 68 10000 2.1 270 22:20 17.07.2020
642 Clear 19 1020 68 10000 2.1 270 21:58 17.07.2020
643 Clear 20 1019 68 10000 2.1 280 21:39 17.07.2020
644 Clear 21 1019 60 10000 2.1 240 21:20 17.07.2020
645 Clouds 22 1019 56 10000 2.1 220 20:44 17.07.2020
646 Clouds 22 1019 60 10000 2.1 230 20:26 17.07.2020
647 Clouds 23 1019 56 10000 2.1 230 19:57 17.07.2020
648 Clouds 23 1019 56 10000 2.1 230 19:39 17.07.2020
649 Clouds 24 1019 43 10000 0.5 0 19:20 17.07.2020
650 Clouds 24 1019 43 10000 1.87 345 18:47 17.07.2020
651 Clouds 23 1019 43 10000 1.5 40 18:25 17.07.2020
652 Clouds 23 1019 46 10000 2.6 80 17:45 17.07.2020
653 Clouds 23 1020 46 10000 2.6 50 17:27 17.07.2020
654 Clouds 23 1020 44 10000 3.1 70 16:57 17.07.2020
655 Clouds 23 1020 44 10000 3.1 70 16:39 17.07.2020
656 Clouds 23 1020 43 10000 1.5 0 16:19 17.07.2020
657 Clouds 24 1020 44 10000 2.1 190 15:37 17.07.2020
658 Clouds 23 1020 43 10000 2.1 180 15:18 17.07.2020
659 Clouds 22 1020 46 10000 1.5 240 14:42 17.07.2020
660 Clouds 23 1020 46 10000 3.1 250 14:22 17.07.2020
661 Clouds 23 1020 43 10000 1 0 13:57 17.07.2020
662 Clouds 23 1020 43 10000 1 0 13:39 17.07.2020
663 Clouds 23 1020 40 10000 1.5 0 13:19 17.07.2020
664 Clouds 23 1020 43 10000 1.5 300 12:42 17.07.2020
665 Clouds 23 1020 43 10000 1.5 300 12:42 17.07.2020
666 Clouds 22 1020 46 10000 1.5 0 12:21 17.07.2020
667 Clouds 22 1020 49 10000 2.1 0 11:56 17.07.2020
668 Clouds 22 1020 49 10000 2.1 0 11:38 17.07.2020
669 Clouds 21 1020 49 10000 1.5 0 11:20 17.07.2020
670 Clouds 21 1020 52 10000 1.5 0 10:55 17.07.2020
671 Clouds 20 1020 52 10000 1.5 0 10:37 17.07.2020
672 Clear 20 1020 56 10000 1.5 0 10:18 17.07.2020
673 Clear 19 1020 55 10000 1.5 180 09:55 17.07.2020
674 Clear 18 1020 55 10000 1.5 180 09:36 17.07.2020
675 Clear 17 1020 63 10000 1.5 180 09:18 17.07.2020
676 Clear 16 1020 67 10000 1 0 08:41 17.07.2020
677 Clouds 16 1020 72 10000 1 0 08:19 17.07.2020
678 Clouds 14 1019 87 10000 0.5 0 07:40 17.07.2020
679 Clouds 13 1019 93 10000 1.5 140 07:19 17.07.2020
680 Clouds 13 1019 93 10000 0.5 230 06:48 17.07.2020
681 Clear 10 1019 100 10000 0.71 357 05:50 17.07.2020
682 Clear 11 1019 93 10000 0.5 0 04:48 17.07.2020
683 Clear 12 1019 87 10000 1 0 02:40 17.07.2020
684 Clear 13 1019 82 10000 0.5 0 01:33 17.07.2020
685 Clear 14 1019 77 10000 3.1 30 00:43 17.07.2020
686 Clear 15 1018 72 10000 2.6 40 00:22 17.07.2020
687 Clear 15 1018 72 10000 3.1 30 23:44 16.07.2020
688 Clear 16 1018 67 10000 2.6 30 23:21 16.07.2020
689 Clear 17 1018 63 10000 2.6 40 22:57 16.07.2020
690 Clear 17 1018 63 10000 2.6 40 22:39 16.07.2020
691 Clear 18 1018 59 10000 2.6 20 22:20 16.07.2020
692 Clear 18 1017 63 10000 2.1 310 21:55 16.07.2020
693 Clear 19 1017 63 10000 2.1 310 21:36 16.07.2020
694 Clear 19 1017 59 10000 2.6 300 21:18 16.07.2020
695 Clear 19 1017 59 10000 2.6 280 20:56 16.07.2020
696 Clear 19 1017 59 10000 2.6 280 20:37 16.07.2020
697 Rain 20 1017 56 10000 3.1 290 20:18 16.07.2020
698 Rain 21 1016 52 10000 3.1 290 19:45 16.07.2020
699 Rain 20 1016 49 10000 2.1 0 19:26 16.07.2020
700 Rain 21 1016 52 10000 2.6 250 18:44 16.07.2020
701 Rain 21 1016 52 10000 2.1 260 18:25 16.07.2020
702 Clouds 22 1016 49 10000 1.5 270 17:59 16.07.2020
703 Clouds 22 1016 49 10000 1.5 270 17:37 16.07.2020
704 Clouds 21 1016 52 10000 1 0 17:19 16.07.2020
705 Clouds 21 1016 52 10000 0.5 0 16:57 16.07.2020
706 Clouds 22 1016 52 10000 0.5 0 16:38 16.07.2020
707 Clouds 21 1016 59 10000 1.5 170 16:20 16.07.2020
708 Clouds 21 1016 55 10000 1.5 90 15:44 16.07.2020
709 Clouds 21 1016 55 10000 1 0 15:26 16.07.2020
710 Clouds 21 1016 59 10000 2.1 230 14:57 16.07.2020
711 Clouds 21 1016 59 10000 2.1 230 14:37 16.07.2020
712 Clouds 21 1016 55 10000 1 0 14:19 16.07.2020
713 Clouds 20 1016 55 10000 0.5 0 13:42 16.07.2020
714 Clouds 20 1016 59 10000 1 0 13:23 16.07.2020
715 Clouds 20 1016 49 10000 1.5 0 13:00 16.07.2020
716 Clouds 20 1016 49 10000 1.5 0 12:41 16.07.2020
717 Clouds 20 1016 55 10000 1 0 12:19 16.07.2020
718 Clouds 20 1016 59 10000 2.6 270 11:39 16.07.2020
719 Clouds 19 1016 55 10000 1 0 11:20 16.07.2020
720 Clouds 19 1016 55 10000 1 0 10:59 16.07.2020
721 Clouds 19 1016 63 10000 1 0 10:40 16.07.2020
722 Clouds 19 1016 63 10000 1 0 10:40 16.07.2020
723 Clouds 18 1016 63 10000 1 0 10:20 16.07.2020
724 Clouds 17 1016 72 10000 1 0 09:57 16.07.2020
725 Clouds 16 1016 72 10000 1 0 09:38 16.07.2020
726 Clouds 16 1016 77 10000 0.5 0 09:18 16.07.2020
727 Clouds 15 1016 82 10000 0.5 0 08:41 16.07.2020
728 Clouds 15 1016 87 10000 0.5 0 08:22 16.07.2020
729 Clouds 13 1015 93 10000 0.5 0 07:46 16.07.2020
730 Clouds 12 1015 100 10000 1 0 07:25 16.07.2020
731 Fog 11 1015 100 1300 0.57 217 06:49 16.07.2020
732 Fog 10 1015 100 400 0.69 225 06:20 16.07.2020
733 Fog 10 1015 100 500 1 200 05:55 16.07.2020
734 Fog 10 1015 100 500 1 200 05:29 16.07.2020
735 Fog 11 1015 100 1000 1 230 04:18 16.07.2020
736 Fog 11 1015 100 1000 1 230 04:18 16.07.2020
737 Fog 11 1015 100 6000 0.5 0 03:37 16.07.2020
738 Fog 12 1015 100 10000 1.5 240 03:18 16.07.2020
739 Clouds 12 1015 100 10000 1 250 02:26 16.07.2020
740 Fog 12 1015 93 10000 1 280 01:49 16.07.2020
741 Fog 12 1015 100 10000 1 250 00:59 16.07.2020
742 Clouds 13 1015 93 10000 1.5 280 00:37 16.07.2020
743 Clouds 14 1015 87 10000 2.1 290 23:57 15.07.2020
744 Clouds 14 1015 87 10000 2.1 290 23:39 15.07.2020
745 Clouds 14 1015 87 10000 1.5 280 23:21 15.07.2020
746 Clouds 15 1015 82 10000 1.5 290 22:58 15.07.2020
747 Clouds 15 1015 82 10000 1.5 290 22:38 15.07.2020
748 Clouds 15 1015 82 10000 2.6 290 22:18 15.07.2020
749 Clouds 15 1014 82 10000 2.6 290 21:55 15.07.2020
750 Clouds 15 1014 82 10000 2.6 290 21:37 15.07.2020
751 Clouds 16 1014 67 10000 3.1 330 21:19 15.07.2020
752 Clouds 17 1014 67 10000 3.6 340 20:57 15.07.2020
753 Clouds 17 1014 67 10000 3.6 340 20:36 15.07.2020
754 Clouds 17 1014 72 10000 5.1 340 20:18 15.07.2020
755 Rain 17 1014 67 10000 4.6 320 19:55 15.07.2020
756 Rain 17 1014 67 10000 4.6 320 19:37 15.07.2020
757 Rain 18 1014 67 10000 5.1 290 19:18 15.07.2020
758 Clouds 18 1014 59 10000 4.6 300 18:44 15.07.2020
759 Clouds 19 1013 55 10000 5.7 300 18:25 15.07.2020
760 Clouds 19 1013 59 10000 5.1 290 17:58 15.07.2020
761 Clouds 19 1013 59 10000 5.1 290 17:39 15.07.2020
762 Clouds 20 1014 59 10000 5.7 310 17:20 15.07.2020
763 Clouds 20 1013 52 10000 5.1 320 16:57 15.07.2020
764 Clouds 20 1013 52 10000 5.1 320 16:39 15.07.2020
765 Clouds 20 1013 59 10000 6.2 300 16:20 15.07.2020
766 Clouds 19 1013 55 10000 5.7 310 15:42 15.07.2020
767 Clouds 20 1013 59 10000 7.2 300 15:23 15.07.2020
768 Clouds 20 1013 59 10000 7.2 300 14:58 15.07.2020
769 Clouds 20 1013 56 10000 5.1 320 14:40 15.07.2020
770 Clouds 20 1013 55 10000 6.2 310 14:19 15.07.2020
771 Clouds 20 1013 55 10000 4.1 310 13:58 15.07.2020
772 Clouds 20 1013 55 10000 4.1 310 13:38 15.07.2020
773 Clouds 20 1013 52 10000 2.1 270 13:19 15.07.2020
774 Clouds 19 1013 55 10000 2.6 330 12:39 15.07.2020
775 Clouds 20 1013 59 10000 3.1 290 12:20 15.07.2020
776 Clouds 19 1013 59 10000 3.1 270 11:56 15.07.2020
777 Clouds 19 1013 59 10000 3.1 270 11:38 15.07.2020
778 Clouds 18 1013 68 10000 1.5 0 11:19 15.07.2020
779 Clouds 18 1012 63 10000 2.1 340 10:54 15.07.2020
780 Clouds 18 1012 63 10000 2.1 340 10:36 15.07.2020
781 Clouds 16 1012 77 10000 2.1 310 10:18 15.07.2020
782 Clouds 16 1012 82 10000 2.1 270 09:42 15.07.2020
783 Clouds 15 1012 82 10000 2.6 280 09:24 15.07.2020
784 Clouds 15 1012 87 10000 3.1 280 08:46 15.07.2020
785 Clouds 14 1012 87 10000 3.1 290 08:27 15.07.2020
786 Clouds 14 1012 93 10000 2.1 280 07:48 15.07.2020
787 Clouds 13 1012 93 10000 1.5 280 07:26 15.07.2020
788 Clouds 13 1012 93 10000 2.1 290 06:44 15.07.2020
789 Clouds 14 1012 93 10000 1 250 05:59 15.07.2020
790 Clouds 14 1012 93 10000 1 250 05:40 15.07.2020
791 Clouds 14 1012 93 10000 1.5 290 04:29 15.07.2020
792 Clouds 14 1012 100 8000 1.5 240 03:40 15.07.2020
793 Mist 14 1013 100 3500 1.5 230 01:54 15.07.2020
794 Mist 14 1013 100 3500 1.5 230 01:35 15.07.2020
795 Rain 14 1013 100 4000 1 0 00:57 15.07.2020
796 Mist 14 1013 100 4500 1.5 220 00:29 15.07.2020
797 Clouds 14 1013 100 7000 1.5 230 23:51 14.07.2020
798 Clouds 14 1013 93 9000 1.5 210 23:28 14.07.2020
799 Clouds 14 1013 93 10000 2.6 220 22:56 14.07.2020
800 Clouds 14 1013 93 10000 2.6 220 22:37 14.07.2020
801 Clouds 14 1013 93 10000 1 0 22:19 14.07.2020
802 Clouds 14 1013 93 10000 1 0 22:19 14.07.2020
803 Clouds 14 1013 93 10000 1.5 210 21:55 14.07.2020
804 Clouds 14 1013 93 10000 1.5 210 21:37 14.07.2020
805 Clouds 14 1013 93 10000 2.1 230 21:19 14.07.2020
806 Rain 14 1013 93 10000 1.5 220 20:42 14.07.2020
807 Rain 14 1013 93 10000 2.1 200 20:21 14.07.2020
808 Rain 14 1013 93 10000 1.5 200 19:56 14.07.2020
809 Rain 14 1013 93 10000 1.5 200 19:38 14.07.2020
810 Rain 14 1013 93 10000 2.6 250 19:20 14.07.2020
811 Rain 14 1013 93 10000 3.1 270 18:44 14.07.2020
812 Rain 15 1014 87 10000 3.6 260 18:20 14.07.2020
813 Rain 15 1014 87 10000 4.6 270 17:58 14.07.2020
814 Rain 15 1014 87 10000 4.6 270 17:40 14.07.2020
815 Rain 16 1014 82 10000 5.1 260 17:21 14.07.2020
816 Rain 16 1014 82 10000 3.6 240 16:56 14.07.2020
817 Rain 16 1014 82 10000 3.6 240 16:37 14.07.2020
818 Rain 16 1014 87 10000 2.6 240 16:18 14.07.2020
819 Rain 17 1014 88 10000 3.6 260 15:44 14.07.2020
820 Rain 17 1014 82 10000 3.1 220 15:23 14.07.2020
821 Rain 17 1014 88 10000 4.1 210 14:57 14.07.2020
822 Rain 18 1014 88 10000 4.1 210 14:39 14.07.2020
823 Rain 18 1014 77 10000 4.6 210 14:19 14.07.2020
824 Rain 18 1014 77 10000 4.1 210 13:41 14.07.2020
825 Rain 18 1014 77 10000 4.1 200 13:23 14.07.2020
826 Rain 18 1014 77 10000 3.6 210 12:56 14.07.2020
827 Rain 18 1014 77 10000 3.6 210 12:37 14.07.2020
828 Rain 18 1015 72 10000 2.6 260 12:18 14.07.2020
829 Rain 18 1015 68 10000 4.1 260 11:44 14.07.2020
830 Rain 18 1015 68 10000 4.1 270 11:21 14.07.2020
831 Rain 19 1014 63 10000 3.6 260 10:56 14.07.2020
832 Rain 19 1014 63 10000 3.6 260 10:38 14.07.2020
833 Clouds 19 1014 60 10000 2.6 280 10:18 14.07.2020
834 Clouds 18 1014 68 10000 1.5 250 09:40 14.07.2020
835 Clouds 17 1015 72 10000 1.5 220 09:21 14.07.2020
836 Clouds 16 1015 77 10000 1 0 08:44 14.07.2020
837 Clouds 15 1015 87 10000 1 0 08:25 14.07.2020
838 Clouds 14 1015 87 10000 1 0 07:59 14.07.2020
839 Clouds 14 1015 93 10000 1 0 07:38 14.07.2020
840 Clouds 13 1015 93 10000 1.84 206 07:18 14.07.2020
841 Clouds 12 1015 100 10000 1.84 206 06:47 14.07.2020
842 Clouds 12 1015 100 10000 1.82 188 06:24 14.07.2020
843 Clouds 12 1015 93 10000 1.82 188 05:36 14.07.2020
844 Clouds 11 1016 100 10000 1.97 166 04:38 14.07.2020
845 Clouds 12 1017 93 10000 2.03 160 03:48 14.07.2020
846 Clouds 12 1017 93 10000 0.5 0 02:58 14.07.2020
847 Clouds 13 1017 82 10000 0.5 0 02:26 14.07.2020
848 Clouds 14 1017 82 10000 1 80 01:38 14.07.2020
849 Clouds 15 1018 77 10000 2.1 60 00:58 14.07.2020
850 Clouds 15 1018 77 10000 2.1 60 00:40 14.07.2020
851 Clouds 15 1018 72 10000 2.6 60 00:20 14.07.2020
852 Clouds 16 1018 67 10000 3.1 60 23:38 13.07.2020
853 Clouds 17 1019 68 10000 2.6 40 23:19 13.07.2020
854 Clouds 17 1019 59 10000 3.1 20 22:56 13.07.2020
855 Clouds 18 1019 59 10000 3.1 20 22:38 13.07.2020
856 Clouds 18 1019 59 10000 3.6 20 22:19 13.07.2020
857 Clouds 19 1019 56 10000 3.1 20 21:54 13.07.2020
858 Clouds 20 1019 56 10000 3.1 20 21:36 13.07.2020
859 Clear 21 1019 49 10000 2.1 330 21:18 13.07.2020
860 Clouds 22 1019 46 10000 2.6 340 20:42 13.07.2020
861 Clouds 22 1019 46 10000 2.6 310 20:23 13.07.2020
862 Clouds 23 1019 40 10000 2.6 270 19:59 13.07.2020
863 Clouds 23 1019 40 10000 2.6 270 19:41 13.07.2020
864 Clouds 23 1019 41 10000 2.6 290 19:22 13.07.2020
865 Clouds 23 1020 43 10000 2.6 280 18:56 13.07.2020
866 Clouds 23 1020 43 10000 2.6 280 18:38 13.07.2020
867 Clouds 23 1020 40 10000 1.5 220 18:19 13.07.2020
868 Clouds 23 1020 38 10000 2.6 230 17:43 13.07.2020
869 Clouds 23 1021 40 10000 1 0 17:22 13.07.2020
870 Clouds 23 1021 40 10000 1 0 16:59 13.07.2020
871 Clouds 23 1021 40 10000 3.6 270 16:41 13.07.2020
872 Clouds 23 1021 43 10000 2.6 300 16:20 13.07.2020
873 Clouds 23 1022 41 10000 3.6 270 15:58 13.07.2020
874 Clouds 23 1022 41 10000 3.6 270 15:39 13.07.2020
875 Clouds 22 1022 43 10000 2.1 0 15:20 13.07.2020
876 Clouds 22 1022 43 10000 2.1 0 14:58 13.07.2020
877 Clouds 22 1022 46 10000 2.1 0 14:39 13.07.2020
878 Clouds 22 1023 43 10000 2.6 0 14:20 13.07.2020
879 Clouds 22 1023 49 10000 4.1 250 13:55 13.07.2020
880 Clouds 22 1023 49 10000 4.1 250 13:37 13.07.2020
881 Clouds 22 1023 52 10000 2.1 350 13:19 13.07.2020
882 Clouds 21 1024 56 10000 3.1 300 12:43 13.07.2020
883 Clouds 20 1024 52 10000 2.1 0 12:22 13.07.2020
884 Clouds 20 1024 52 10000 2.1 230 11:56 13.07.2020
885 Clouds 20 1024 52 10000 2.1 230 11:36 13.07.2020
886 Clouds 20 1024 55 10000 1.5 0 11:18 13.07.2020
887 Clouds 18 1025 59 10000 1 0 10:38 13.07.2020
888 Clouds 18 1025 59 10000 1 0 10:20 13.07.2020
889 Clear 17 1025 59 10000 1 0 09:43 13.07.2020
890 Clouds 16 1025 63 10000 0.5 0 09:24 13.07.2020
891 Clouds 15 1025 72 10000 0.5 0 08:53 13.07.2020
892 Clouds 15 1025 72 10000 0.5 0 08:34 13.07.2020
893 Clouds 12 1025 93 10000 0.5 0 07:42 13.07.2020
894 Clouds 11 1025 100 10000 0.5 0 07:19 13.07.2020
895 Fog 9 1025 93 6000 1.37 260 06:42 13.07.2020
896 Fog 8 1026 100 1800 1.39 238 06:22 13.07.2020
897 Mist 9 1026 93 10000 1 210 04:43 13.07.2020
898 Clouds 11 1027 87 10000 0.5 0 01:57 13.07.2020
899 Clouds 11 1027 81 10000 1 0 01:29 13.07.2020
900 Clouds 12 1027 71 10000 2.1 360 00:59 13.07.2020
901 Clouds 12 1027 71 10000 2.1 350 00:28 13.07.2020
902 Clouds 14 1027 62 10000 1.5 360 23:59 12.07.2020
903 Clouds 14 1027 62 10000 1.5 360 23:40 12.07.2020
904 Clouds 14 1027 62 10000 1.5 340 23:22 12.07.2020
905 Clouds 14 1027 59 10000 3.1 340 22:54 12.07.2020
906 Clouds 15 1027 59 10000 3.1 340 22:36 12.07.2020
907 Clouds 15 1027 59 10000 3.1 340 22:36 12.07.2020
908 Clouds 15 1027 59 10000 3.1 340 22:36 12.07.2020
909 Clouds 15 1027 59 10000 3.1 340 22:36 12.07.2020
910 Clouds 15 1027 67 10000 3.6 360 22:18 12.07.2020
911 Clouds 16 1027 67 10000 4.1 360 21:42 12.07.2020
912 Clouds 17 1027 67 10000 4.1 360 21:20 12.07.2020
913 Clouds 17 1027 67 10000 4.1 360 20:59 12.07.2020
914 Clouds 18 1027 63 10000 3.6 10 20:41 12.07.2020
915 Clouds 18 1027 63 10000 3.6 10 20:41 12.07.2020
916 Clouds 19 1027 59 10000 3.6 30 20:20 12.07.2020
917 Clouds 19 1027 59 10000 3.6 30 19:59 12.07.2020
918 Clouds 20 1027 59 10000 4.1 20 19:39 12.07.2020
919 Clouds 20 1027 56 10000 3.6 10 19:19 12.07.2020
920 Clouds 20 1027 52 10000 2.6 350 18:44 12.07.2020
921 Clouds 20 1027 49 10000 3.6 300 18:21 12.07.2020
922 Clouds 20 1027 52 10000 3.1 310 17:59 12.07.2020
923 Clouds 20 1027 52 10000 3.1 310 17:38 12.07.2020
924 Rain 19 1027 55 10000 3.6 310 17:20 12.07.2020
925 Rain 19 1027 52 10000 4.1 300 16:47 12.07.2020
926 Rain 20 1028 49 10000 3.1 310 16:22 12.07.2020
927 Rain 20 1028 45 10000 3.6 300 15:50 12.07.2020
928 Rain 20 1028 45 10000 3.6 300 15:30 12.07.2020
929 Rain 20 1028 45 10000 2.6 300 14:58 12.07.2020
930 Rain 20 1028 45 10000 3.6 280 14:40 12.07.2020
931 Rain 20 1028 45 10000 3.6 280 14:40 12.07.2020
932 Clouds 19 1028 45 10000 3.1 260 14:22 12.07.2020
933 Clouds 19 1028 48 10000 3.6 0 13:40 12.07.2020
934 Clouds 19 1028 48 10000 3.1 280 13:21 12.07.2020
935 Clouds 18 1028 48 10000 3.6 290 12:57 12.07.2020
936 Clouds 18 1028 48 10000 3.6 290 12:57 12.07.2020
937 Clouds 19 1028 48 10000 3.6 290 12:38 12.07.2020
938 Clouds 19 1028 48 10000 3.6 290 12:38 12.07.2020
939 Clouds 19 1028 52 10000 3.1 300 12:18 12.07.2020
940 Clouds 18 1028 51 10000 3.1 280 11:45 12.07.2020
941 Clouds 17 1028 55 10000 3.1 310 11:21 12.07.2020
942 Clouds 18 1028 59 10000 3.6 290 10:57 12.07.2020
943 Clouds 17 1028 59 10000 3.6 290 10:39 12.07.2020
944 Clouds 17 1028 67 10000 4.1 320 10:19 12.07.2020
945 Clouds 15 1028 67 10000 3.6 320 09:43 12.07.2020
946 Clouds 14 1028 72 10000 3.1 310 09:21 12.07.2020
947 Clouds 14 1027 82 10000 1 0 08:57 12.07.2020
948 Clouds 13 1027 82 10000 1 0 08:38 12.07.2020
949 Clear 12 1027 93 10000 1.5 270 08:19 12.07.2020
950 Clear 11 1027 93 10000 0.5 0 07:47 12.07.2020
951 Clear 10 1027 93 10000 0.5 0 07:28 12.07.2020
952 Clear 10 1027 93 10000 0.5 0 07:28 12.07.2020
953 Fog 9 1027 100 900 1 0 06:53 12.07.2020
954 Fog 8 1026 100 500 1 230 06:22 12.07.2020
955 Fog 8 1026 100 500 1.5 230 05:59 12.07.2020
956 Fog 8 1026 100 500 1 260 04:58 12.07.2020
957 Fog 8 1026 100 700 0.5 270 04:29 12.07.2020
958 Fog 9 1026 100 800 0.5 270 03:45 12.07.2020
959 Fog 9 1026 100 900 1.5 250 03:24 12.07.2020
960 Fog 10 1026 100 600 0.5 240 02:21 12.07.2020
961 Fog 10 1026 100 800 1.5 230 01:28 12.07.2020
962 Fog 11 1026 93 800 1 250 00:39 12.07.2020
963 Fog 11 1026 100 10000 0.5 300 00:20 12.07.2020
964 Clouds 12 1026 100 10000 0.5 0 23:41 11.07.2020
965 Clouds 12 1026 100 10000 0.5 240 23:21 11.07.2020
966 Clouds 13 1025 93 10000 0.5 230 22:57 11.07.2020
967 Clouds 13 1025 93 10000 0.5 230 22:38 11.07.2020
968 Clouds 14 1025 87 10000 0.5 0 22:20 11.07.2020
969 Clouds 15 1025 93 10000 1.5 250 21:54 11.07.2020
970 Clouds 15 1025 93 10000 1.5 250 21:36 11.07.2020
971 Rain 16 1025 87 10000 1.5 270 21:18 11.07.2020
972 Rain 16 1025 82 10000 1.5 250 20:54 11.07.2020
973 Rain 16 1025 82 10000 1.5 250 20:36 11.07.2020
974 Clouds 16 1025 82 10000 2.1 280 20:18 11.07.2020
975 Clouds 16 1025 82 10000 2.1 280 20:18 11.07.2020
976 Clouds 16 1024 82 10000 1.5 290 19:44 11.07.2020
977 Clouds 16 1024 87 10000 2.1 280 19:26 11.07.2020
978 Rain 16 1024 82 10000 2.6 270 18:58 11.07.2020
979 Rain 16 1024 82 10000 2.6 270 18:39 11.07.2020
980 Clouds 15 1024 82 10000 1.5 250 18:20 11.07.2020
981 Rain 16 1024 63 10000 7.7 310 17:56 11.07.2020
982 Rain 16 1024 63 10000 7.7 310 17:38 11.07.2020
983 Clouds 17 1024 59 10000 3.1 290 17:19 11.07.2020
984 Clouds 17 1024 67 10000 4.1 340 16:56 11.07.2020
985 Clouds 17 1024 67 10000 4.1 340 16:36 11.07.2020
986 Clouds 17 1024 63 10000 4.6 310 16:18 11.07.2020
987 Clouds 17 1024 67 10000 3.6 310 15:41 11.07.2020
988 Clouds 16 1024 72 10000 3.6 270 15:21 11.07.2020
989 Clouds 16 1024 72 10000 3.6 270 14:58 11.07.2020
990 Clouds 16 1024 87 10000 4.6 290 14:39 11.07.2020
991 Clouds 16 1023 63 10000 5.7 350 14:20 11.07.2020
992 Clouds 17 1023 59 10000 5.7 300 13:44 11.07.2020
993 Clouds 17 1023 55 10000 3.1 300 13:22 11.07.2020
994 Clouds 17 1023 59 10000 4.6 320 12:59 11.07.2020
995 Clouds 17 1023 59 10000 4.6 320 12:40 11.07.2020
996 Clouds 18 1023 59 10000 5.1 280 12:21 11.07.2020
997 Clouds 17 1023 63 10000 5.1 280 11:57 11.07.2020
998 Clouds 17 1023 63 10000 5.1 280 11:39 11.07.2020
999 Clouds 17 1022 67 10000 5.7 270 11:19 11.07.2020
1000 Clouds 17 1022 67 10000 4.6 270 10:44 11.07.2020
1001 Clouds 17 1022 67 10000 4.6 270 10:44 11.07.2020
1002 Clouds 17 1022 67 10000 5.1 280 10:25 11.07.2020
1003 Clouds 16 1022 72 10000 5.7 280 09:55 11.07.2020
1004 Clouds 15 1022 72 10000 5.7 280 09:36 11.07.2020
1005 Clouds 14 1022 76 10000 5.1 290 09:18 11.07.2020
1006 Clouds 14 1021 76 10000 5.1 280 08:37 11.07.2020
1007 Clouds 12 1021 82 10000 4.1 270 08:19 11.07.2020
1008 Clouds 11 1021 87 10000 3.6 260 07:45 11.07.2020
1009 Rain 11 1021 87 10000 3.1 260 07:27 11.07.2020
1010 Rain 10 1021 93 10000 2.6 260 06:56 11.07.2020
1011 Clouds 10 1021 100 10000 1 0 06:22 11.07.2020
1012 Clouds 9 1020 100 10000 2.1 260 05:36 11.07.2020
1013 Clouds 9 1020 93 10000 1 0 04:57 11.07.2020
1014 Clouds 9 1020 93 10000 1 0 04:33 11.07.2020
1015 Clouds 9 1020 93 10000 2.1 250 03:38 11.07.2020
1016 Clouds 9 1019 93 10000 1.5 230 02:48 11.07.2020
1017 Clear 10 1019 87 10000 1.5 220 01:53 11.07.2020
1018 Clear 10 1018 93 10000 1 0 01:20 11.07.2020
1019 Clear 10 1018 93 10000 2.1 250 00:41 11.07.2020
1020 Clear 10 1018 93 10000 2.1 250 00:22 11.07.2020
1021 Clear 10 1018 87 10000 2.6 290 23:58 10.07.2020
1022 Clear 10 1018 87 10000 2.6 290 23:58 10.07.2020
1023 Clear 11 1018 87 10000 2.6 290 23:40 10.07.2020
1024 Clear 10 1017 87 10000 3.1 290 23:21 10.07.2020
1025 Clouds 11 1017 87 10000 3.1 290 22:49 10.07.2020
1026 Clouds 12 1017 81 10000 3.6 300 22:24 10.07.2020
1027 Clouds 12 1017 81 10000 3.6 300 21:59 10.07.2020
1028 Clouds 14 1016 76 10000 4.1 290 21:38 10.07.2020
1029 Clouds 14 1016 82 10000 3.1 300 21:20 10.07.2020
1030 Clouds 15 1016 82 10000 3.6 280 20:54 10.07.2020
1031 Clouds 15 1016 82 10000 3.6 280 20:36 10.07.2020
1032 Clouds 15 1016 72 10000 3.1 290 20:18 10.07.2020
1033 Clouds 14 1015 76 10000 4.1 290 19:43 10.07.2020
1034 Rain 15 1015 72 10000 4.6 320 19:22 10.07.2020
1035 Rain 15 1015 72 10000 6.2 310 18:58 10.07.2020
1036 Rain 15 1015 72 10000 6.2 310 18:58 10.07.2020
1037 Rain 15 1015 72 10000 6.2 310 18:37 10.07.2020
1038 Rain 15 1014 72 10000 5.7 300 18:18 10.07.2020
1039 Rain 16 1014 67 10000 5.1 300 17:55 10.07.2020
1040 Rain 16 1014 67 10000 5.1 300 17:36 10.07.2020
1041 Clouds 16 1014 77 10000 5.1 290 17:18 10.07.2020
1042 Rain 15 1013 77 10000 6.7 310 16:40 10.07.2020
1043 Clouds 15 1013 72 10000 7.2 310 16:19 10.07.2020
1044 Rain 15 1012 77 10000 6.2 330 15:44 10.07.2020
1045 Rain 15 1011 77 10000 5.7 330 15:22 10.07.2020
1046 Clouds 14 1011 82 10000 6.2 340 14:54 10.07.2020
1047 Clouds 14 1011 82 10000 6.2 340 14:36 10.07.2020
1048 Rain 14 1010 87 10000 6.7 340 14:18 10.07.2020
1049 Drizzle 13 1009 93 10000 5.7 330 13:55 10.07.2020
1050 Drizzle 13 1009 93 10000 5.7 330 13:36 10.07.2020
1051 Clouds 13 1009 93 6000 6.7 330 13:18 10.07.2020
1052 Drizzle 13 1008 93 8000 5.7 330 12:42 10.07.2020
1053 Clouds 13 1007 93 10000 5.7 340 12:24 10.07.2020
1054 Drizzle 14 1007 93 10000 4.6 320 11:58 10.07.2020
1055 Drizzle 14 1007 93 10000 4.6 320 11:38 10.07.2020
1056 Drizzle 14 1006 93 4600 5.23 252 11:18 10.07.2020
1057 Drizzle 14 1006 93 4600 5.23 252 10:54 10.07.2020
1058 Drizzle 14 1005 100 4200 4.1 340 10:36 10.07.2020
1059 Drizzle 14 1005 100 4200 4.1 340 10:18 10.07.2020
1060 Drizzle 14 1005 93 4200 3.6 340 09:37 10.07.2020
1061 Drizzle 15 1005 93 3800 4.1 220 09:19 10.07.2020
1062 Clouds 15 1005 93 8000 3.1 210 08:56 10.07.2020
1063 Clouds 15 1005 93 8000 3.1 210 08:38 10.07.2020
1064 Clouds 15 1005 100 8000 2.1 200 08:20 10.07.2020
1065 Clouds 15 1005 100 8000 2.1 210 07:42 10.07.2020
1066 Clouds 15 1006 93 8000 2.1 180 07:22 10.07.2020
1067 Drizzle 14 1006 100 3200 1.5 170 06:49 10.07.2020
1068 Drizzle 13 1006 100 2500 1.5 320 06:24 10.07.2020
1069 Drizzle 13 1007 93 2800 2.6 80 04:43 10.07.2020
1070 Clouds 13 1008 100 7000 1.5 100 03:38 10.07.2020
1071 Drizzle 13 1009 100 3800 3.1 80 02:52 10.07.2020
1072 Drizzle 13 1010 100 2300 3.1 70 01:50 10.07.2020
1073 Drizzle 13 1010 100 4500 2.6 80 00:49 10.07.2020
1074 Drizzle 13 1011 100 4500 2.1 60 00:21 10.07.2020
1075 Drizzle 13 1011 100 2500 2.6 50 23:49 09.07.2020
1076 Drizzle 13 1011 100 3200 2.1 50 23:24 09.07.2020
1077 Drizzle 13 1011 100 3200 2.1 50 22:59 09.07.2020
1078 Drizzle 13 1011 100 4500 2.1 70 22:41 09.07.2020
1079 Drizzle 13 1011 100 3500 2.1 50 22:21 09.07.2020
1080 Drizzle 13 1011 100 3500 2.1 50 21:59 09.07.2020
1081 Drizzle 13 1011 93 3500 1.5 60 21:39 09.07.2020
1082 Drizzle 14 1011 93 7000 2.1 50 21:19 09.07.2020
1083 Drizzle 14 1011 93 7000 2.1 50 20:58 09.07.2020
1084 Drizzle 14 1011 93 4200 2.1 40 20:39 09.07.2020
1085 Drizzle 14 1011 93 4200 2.1 20 20:21 09.07.2020
1086 Drizzle 14 1011 93 3800 1.5 30 19:43 09.07.2020
1087 Drizzle 14 1011 93 4200 1.5 30 19:21 09.07.2020
1088 Drizzle 14 1011 93 3800 2.1 20 18:56 09.07.2020
1089 Drizzle 14 1011 93 3800 2.1 20 18:38 09.07.2020
1090 Drizzle 14 1011 93 3800 2.1 10 18:18 09.07.2020
1091 Drizzle 14 1011 93 4000 2.6 10 17:42 09.07.2020
1092 Drizzle 14 1011 93 5000 2.6 360 17:22 09.07.2020
1093 Drizzle 14 1011 93 4500 2.1 360 16:56 09.07.2020
1094 Drizzle 14 1011 93 4500 2.1 360 16:38 09.07.2020
1095 Clouds 14 1011 93 8000 3.1 10 16:19 09.07.2020
1096 Clouds 14 1011 93 7000 3.1 360 15:57 09.07.2020
1097 Clouds 14 1011 93 7000 3.1 360 15:37 09.07.2020
1098 Drizzle 14 1011 93 4500 2.6 20 15:18 09.07.2020
1099 Clouds 14 1010 93 8000 3.6 20 14:57 09.07.2020
1100 Clouds 14 1010 93 8000 3.6 20 14:39 09.07.2020
1101 Clouds 14 1010 93 8000 3.6 20 14:39 09.07.2020
1102 Clouds 13 1010 93 7000 4.1 10 14:20 09.07.2020
1103 Drizzle 13 1010 93 6000 4.1 30 13:56 09.07.2020
1104 Drizzle 13 1010 93 6000 4.1 30 13:38 09.07.2020
1105 Drizzle 13 1010 93 6000 3.6 40 13:18 09.07.2020
1106 Drizzle 13 1010 100 4000 2.6 50 12:41 09.07.2020
1107 Drizzle 12 1010 100 3600 3.6 50 12:23 09.07.2020
1108 Mist 12 1010 100 5000 3.6 70 11:57 09.07.2020
1109 Drizzle 12 1010 100 5000 3.6 70 11:38 09.07.2020
1110 Rain 12 1011 93 6000 4.1 70 11:18 09.07.2020
1111 Rain 12 1011 100 4800 4.6 70 10:55 09.07.2020
1112 Rain 12 1011 100 4800 4.6 70 10:37 09.07.2020
1113 Rain 12 1011 100 5000 5.1 70 10:19 09.07.2020
1114 Rain 12 1012 100 4800 4.6 60 09:42 09.07.2020
1115 Rain 12 1012 100 5000 3.6 70 09:22 09.07.2020
1116 Drizzle 12 1012 100 4400 4.1 70 08:49 09.07.2020
1117 Drizzle 12 1013 100 2500 4.1 60 08:26 09.07.2020
1118 Drizzle 12 1013 100 3600 3.1 50 07:56 09.07.2020
1119 Mist 12 1013 100 3600 3.1 50 07:37 09.07.2020
1120 Drizzle 12 1013 93 4600 3.6 70 07:19 09.07.2020
1121 Mist 12 1014 100 4000 2.6 70 06:20 09.07.2020
1122 Mist 12 1014 100 4000 3.1 60 05:50 09.07.2020
1123 Drizzle 12 1014 100 7000 2.6 50 04:29 09.07.2020
1124 Clouds 13 1015 93 10000 1 100 02:47 09.07.2020
1125 Clouds 13 1015 93 10000 1.5 150 01:55 09.07.2020
1126 Rain 13 1016 87 10000 1.28 73 00:59 09.07.2020
1127 Clouds 13 1016 87 10000 1.28 73 00:40 09.07.2020
1128 Clouds 14 1016 87 10000 0.5 0 00:21 09.07.2020
1129 Clouds 14 1016 87 10000 0.5 0 23:43 08.07.2020
1130 Clouds 14 1016 87 10000 1 190 23:25 08.07.2020
1131 Clouds 14 1016 87 10000 2.1 180 22:56 08.07.2020
1132 Clouds 14 1016 87 10000 2.1 180 22:38 08.07.2020
1133 Clouds 15 1016 82 10000 1.5 200 22:19 08.07.2020
1134 Clouds 15 1016 82 10000 1.5 180 21:56 08.07.2020
1135 Clouds 15 1016 82 10000 1.5 180 21:36 08.07.2020
1136 Clouds 15 1016 77 10000 1.5 90 21:18 08.07.2020
1137 Clouds 16 1015 77 10000 2.1 70 20:41 08.07.2020
1138 Clouds 16 1015 72 10000 1.5 260 20:23 08.07.2020
1139 Clouds 16 1015 72 10000 1 0 19:56 08.07.2020
1140 Clouds 17 1015 72 10000 1 0 19:37 08.07.2020
1141 Clouds 17 1015 72 10000 1.5 260 19:19 08.07.2020
1142 Clouds 17 1015 72 10000 1.5 220 18:42 08.07.2020
1143 Clouds 17 1015 72 10000 1.5 210 18:21 08.07.2020
1144 Clouds 17 1016 67 10000 1 280 17:58 08.07.2020
1145 Clouds 17 1016 67 10000 1 280 17:39 08.07.2020
1146 Clouds 17 1015 72 10000 3.1 10 17:20 08.07.2020
1147 Clouds 16 1015 72 10000 3.1 10 16:58 08.07.2020
1148 Clouds 16 1015 72 10000 3.1 10 16:38 08.07.2020
1149 Clouds 16 1015 63 10000 2.6 310 16:19 08.07.2020
1150 Clouds 16 1015 63 10000 2.6 310 15:58 08.07.2020
1151 Clouds 16 1015 55 10000 2.6 260 15:38 08.07.2020
1152 Clouds 17 1015 59 10000 3.1 250 15:19 08.07.2020
1153 Clouds 17 1015 59 10000 2.6 240 14:44 08.07.2020
1154 Clouds 17 1015 59 10000 3.1 280 14:25 08.07.2020
1155 Clouds 17 1015 59 10000 3.1 280 13:58 08.07.2020
1156 Clouds 17 1015 55 10000 3.1 230 13:40 08.07.2020
1157 Clouds 18 1015 55 10000 2.6 220 13:19 08.07.2020
1158 Rain 17 1015 59 10000 2.6 0 12:42 08.07.2020
1159 Clouds 17 1015 63 10000 2.6 250 12:21 08.07.2020
1160 Clouds 17 1014 67 10000 2.1 260 11:56 08.07.2020
1161 Clouds 17 1014 67 10000 2.1 260 11:38 08.07.2020
1162 Clouds 16 1015 67 10000 2.6 250 11:20 08.07.2020
1163 Clouds 17 1015 67 10000 2.1 250 10:44 08.07.2020
1164 Clouds 15 1014 72 10000 2.6 260 10:25 08.07.2020
1165 Clouds 15 1014 72 10000 3.1 260 09:46 08.07.2020
1166 Clouds 14 1014 76 10000 2.1 240 09:26 08.07.2020
1167 Clouds 14 1014 76 10000 2.1 240 08:58 08.07.2020
1168 Clouds 14 1014 76 10000 3.1 230 08:39 08.07.2020
1169 Clouds 13 1014 82 10000 2.1 240 08:20 08.07.2020
1170 Clouds 13 1014 82 10000 2.6 250 07:44 08.07.2020
1171 Clouds 12 1014 87 10000 2.6 240 07:22 08.07.2020
1172 Clouds 12 1014 87 10000 1 230 06:53 08.07.2020
1173 Clouds 12 1014 87 10000 1 230 06:31 08.07.2020
1174 Clouds 11 1014 93 10000 1.5 230 05:50 08.07.2020
1175 Clouds 11 1015 93 10000 1.5 230 04:58 08.07.2020
1176 Clouds 11 1015 87 10000 2.1 250 04:20 08.07.2020
1177 Rain 12 1015 87 10000 2.1 230 02:20 08.07.2020
1178 Rain 12 1016 76 10000 2.1 270 01:44 08.07.2020
1179 Rain 13 1016 71 10000 3.6 270 00:59 08.07.2020
1180 Clouds 13 1016 71 10000 4.6 270 00:25 08.07.2020
1181 Clouds 13 1016 71 10000 4.6 260 23:55 07.07.2020
1182 Clouds 13 1016 71 10000 4.6 260 23:37 07.07.2020
1183 Rain 13 1016 76 10000 3.6 260 23:18 07.07.2020
1184 Rain 14 1016 71 10000 3.6 270 22:41 07.07.2020
1185 Clouds 14 1016 71 10000 4.1 280 22:22 07.07.2020
1186 Clouds 14 1016 71 10000 4.1 280 21:59 07.07.2020
1187 Clouds 14 1016 67 10000 4.1 270 21:39 07.07.2020
1188 Clouds 15 1016 62 10000 4.1 280 21:21 07.07.2020
1189 Clouds 15 1016 67 10000 2.6 280 20:57 07.07.2020
1190 Clouds 15 1016 67 10000 2.6 280 20:39 07.07.2020
1191 Clouds 15 1016 62 10000 3.6 290 20:20 07.07.2020
1192 Clouds 16 1016 67 10000 5.1 290 19:41 07.07.2020
1193 Clouds 16 1017 67 10000 6.2 290 19:21 07.07.2020
1194 Clouds 16 1017 67 10000 4.6 300 18:58 07.07.2020
1195 Clouds 16 1017 67 10000 4.6 300 18:40 07.07.2020
1196 Clouds 16 1017 82 10000 3.1 290 18:21 07.07.2020
1197 Clouds 15 1017 82 10000 3.6 260 17:58 07.07.2020
1198 Clouds 15 1017 82 10000 3.6 260 17:38 07.07.2020
1199 Rain 15 1017 87 10000 5.1 260 17:20 07.07.2020
1200 Rain 15 1017 76 10000 6.7 270 16:43 07.07.2020
1201 Rain 15 1017 87 10000 4.6 280 16:24 07.07.2020
1202 Rain 15 1017 87 10000 4.6 280 15:58 07.07.2020
1203 Rain 16 1016 59 10000 6.2 240 15:39 07.07.2020
1204 Clouds 18 1016 52 10000 9.3 230 15:20 07.07.2020
1205 Clouds 18 1017 48 10000 8.7 240 14:47 07.07.2020
1206 Clouds 19 1017 48 10000 8.2 240 14:27 07.07.2020
1207 Clouds 19 1017 48 10000 8.2 240 13:59 07.07.2020
1208 Clouds 19 1017 48 10000 8.2 230 13:38 07.07.2020
1209 Clouds 19 1017 52 10000 7.7 230 13:18 07.07.2020
1210 Clouds 19 1018 52 10000 5.7 240 12:41 07.07.2020
1211 Clouds 18 1018 55 10000 4.1 220 12:22 07.07.2020
1212 Clouds 18 1018 55 10000 4.1 220 12:22 07.07.2020
1213 Clouds 17 1018 55 10000 4.1 240 11:58 07.07.2020
1214 Clouds 17 1018 55 10000 4.1 240 11:40 07.07.2020
1215 Clouds 16 1019 63 10000 4.1 250 11:20 07.07.2020
1216 Clouds 16 1019 63 10000 6.2 250 10:57 07.07.2020
1217 Clouds 16 1019 63 10000 6.2 250 10:37 07.07.2020
1218 Clouds 16 1019 63 10000 5.7 250 10:18 07.07.2020
1219 Clouds 15 1019 67 10000 5.7 270 09:41 07.07.2020
1220 Clouds 14 1019 72 10000 5.1 250 09:21 07.07.2020
1221 Clouds 13 1019 71 10000 4.6 250 08:42 07.07.2020
1222 Clouds 13 1019 82 10000 4.1 250 08:24 07.07.2020
1223 Clouds 12 1019 81 10000 4.1 250 07:47 07.07.2020
1224 Clouds 12 1019 87 10000 4.1 260 07:25 07.07.2020
1225 Clouds 11 1019 93 10000 3.1 260 06:50 07.07.2020
1226 Clouds 11 1019 93 10000 3.1 260 06:50 07.07.2020
1227 Clear 10 1019 93 10000 1 0 06:31 07.07.2020
1228 Clear 10 1018 93 10000 2.1 270 05:54 07.07.2020
1229 Clear 10 1018 93 10000 3.1 250 05:23 07.07.2020
1230 Clouds 10 1018 93 10000 3.6 250 04:42 07.07.2020
1231 Clouds 11 1019 87 10000 4.1 260 03:41 07.07.2020
1232 Clouds 11 1019 87 10000 4.6 270 02:28 07.07.2020
1233 Clear 11 1018 93 10000 3.6 250 01:25 07.07.2020
1234 Clouds 11 1018 93 10000 4.6 260 00:56 07.07.2020
1235 Clouds 11 1018 93 10000 4.6 260 00:38 07.07.2020
1236 Clouds 12 1018 93 10000 3.1 260 00:19 07.07.2020
1237 Clouds 12 1018 87 10000 3.6 270 23:42 06.07.2020
1238 Clouds 12 1017 93 10000 4.1 260 23:23 06.07.2020
1239 Clouds 13 1017 87 10000 4.1 260 22:55 06.07.2020
1240 Clouds 13 1017 87 10000 4.1 260 22:37 06.07.2020
1241 Clouds 13 1017 87 10000 4.1 260 22:18 06.07.2020
1242 Clouds 13 1016 87 10000 3.6 260 21:55 06.07.2020
1243 Clouds 13 1016 87 10000 3.6 260 21:36 06.07.2020
1244 Rain 13 1016 82 10000 4.6 270 21:18 06.07.2020
1245 Rain 14 1016 76 8000 8.2 290 20:40 06.07.2020
1246 Clouds 15 1015 67 10000 7.2 280 20:20 06.07.2020
1247 Rain 16 1015 67 10000 8.7 300 19:58 06.07.2020
1248 Rain 16 1015 67 10000 8.7 300 19:39 06.07.2020
1249 Clouds 16 1014 63 10000 10.8 300 19:21 06.07.2020
1250 Clouds 17 1014 55 10000 9.8 290 18:57 06.07.2020
1251 Clouds 17 1014 55 10000 9.8 290 18:39 06.07.2020
1252 Clouds 17 1014 59 10000 9.3 280 18:21 06.07.2020
1253 Clouds 18 1013 63 10000 7.7 270 17:46 06.07.2020
1254 Rain 16 1013 72 10000 10.3 290 17:28 06.07.2020
1255 Clouds 16 1013 63 10000 10.8 300 16:59 06.07.2020
1256 Clouds 17 1013 63 10000 10.8 300 16:41 06.07.2020
1257 Clouds 18 1012 55 10000 11.3 300 16:22 06.07.2020
1258 Clouds 18 1012 59 10000 11.3 300 15:44 06.07.2020
1259 Clouds 18 1012 67 10000 8.7 300 15:26 06.07.2020
1260 Clouds 17 1012 67 10000 8.7 300 14:57 06.07.2020
1261 Clouds 17 1012 67 10000 8.7 300 14:57 06.07.2020
1262 Clouds 16 1011 72 10000 9.3 300 14:38 06.07.2020
1263 Thunderstorm 16 1011 82 10000 8.7 270 14:20 06.07.2020
1264 Thunderstorm 15 1011 82 10000 8.7 270 13:58 06.07.2020
1265 Clouds 16 1010 59 10000 9.3 250 13:39 06.07.2020
1266 Rain 16 1010 72 10000 11.3 250 13:20 06.07.2020
1267 Clouds 18 1010 59 10000 9.8 250 12:43 06.07.2020
1268 Clouds 18 1009 59 10000 9.8 260 12:20 06.07.2020
1269 Clouds 17 1009 67 10000 9.8 250 11:58 06.07.2020
1270 Clouds 17 1009 67 10000 9.8 250 11:40 06.07.2020
1271 Clouds 17 1009 77 10000 7.2 260 11:22 06.07.2020
1272 Rain 16 1009 72 10000 8.2 260 10:58 06.07.2020
1273 Rain 16 1009 72 10000 8.2 260 10:39 06.07.2020
1274 Clouds 16 1009 67 10000 9.8 250 10:18 06.07.2020
1275 Clouds 16 1008 67 10000 9.3 250 09:45 06.07.2020
1276 Clouds 15 1008 77 10000 7.7 250 09:22 06.07.2020
1277 Clouds 15 1008 77 10000 7.7 250 09:22 06.07.2020
1278 Clouds 15 1008 77 10000 7.7 250 08:59 06.07.2020
1279 Clouds 13 1008 82 10000 7.7 260 08:40 06.07.2020
1280 Clouds 14 1008 72 10000 8.7 240 08:20 06.07.2020
1281 Clear 14 1008 72 10000 7.7 240 07:47 06.07.2020
1282 Clear 13 1008 76 10000 6.7 240 07:29 06.07.2020
1283 Clear 13 1007 82 10000 5.7 230 06:49 06.07.2020
1284 Clear 13 1007 82 10000 4.6 220 06:31 06.07.2020
1285 Clouds 13 1007 82 10000 5.1 230 05:44 06.07.2020
1286 Clouds 13 1007 82 10000 5.7 240 05:25 06.07.2020
1287 Clouds 15 1007 72 10000 6.7 240 03:53 06.07.2020
1288 Clouds 14 1007 82 10000 4.6 230 02:29 06.07.2020
1289 Clouds 15 1007 87 10000 3.1 200 01:54 06.07.2020
1290 Clouds 15 1007 87 10000 3.1 250 00:49 06.07.2020
1291 Clouds 14 1008 93 10000 1.5 270 00:23 06.07.2020
1292 Clouds 15 1007 87 10000 1.5 250 23:56 05.07.2020
1293 Clouds 15 1007 87 10000 1.5 250 23:38 05.07.2020
1294 Clouds 16 1008 82 10000 1.5 290 23:19 05.07.2020
1295 Clouds 16 1008 77 10000 2.6 300 22:42 05.07.2020
1296 Clouds 17 1007 68 10000 3.6 320 22:21 05.07.2020
1297 Clouds 18 1007 72 10000 4.1 310 21:59 05.07.2020
1298 Clouds 18 1007 72 10000 4.1 310 21:41 05.07.2020
1299 Rain 19 1007 60 10000 7.2 270 21:19 05.07.2020
1300 Rain 19 1007 60 10000 7.2 270 20:59 05.07.2020
1301 Clouds 20 1007 56 10000 7.7 270 20:41 05.07.2020
1302 Clouds 20 1007 56 10000 8.2 270 20:22 05.07.2020
1303 Clouds 21 1007 53 10000 8.2 260 19:57 05.07.2020
1304 Clouds 21 1007 53 10000 8.2 260 19:39 05.07.2020
1305 Clouds 21 1007 53 10000 8.2 260 19:19 05.07.2020
1306 Clouds 22 1007 53 10000 8.7 260 18:42 05.07.2020
1307 Clouds 22 1007 56 10000 8.7 260 18:23 05.07.2020
1308 Clouds 22 1007 56 10000 8.2 260 17:59 05.07.2020
1309 Clouds 21 1007 56 10000 8.2 260 17:41 05.07.2020
1310 Clouds 23 1007 50 10000 10.8 250 17:19 05.07.2020
1311 Clouds 21 1008 60 10000 11.3 250 16:45 05.07.2020
1312 Clouds 21 1007 60 10000 11.3 250 16:26 05.07.2020
1313 Clouds 21 1007 60 10000 11.3 250 15:59 05.07.2020
1314 Clouds 21 1007 68 10000 9.3 250 15:39 05.07.2020
1315 Clouds 21 1007 77 10000 9.8 250 15:19 05.07.2020
1316 Rain 20 1007 88 10000 9.8 240 14:43 05.07.2020
1317 Drizzle 20 1007 88 10000 10.3 240 14:23 05.07.2020
1318 Drizzle 19 1007 88 10000 10.3 240 13:59 05.07.2020
1319 Drizzle 19 1007 88 10000 8.7 230 13:40 05.07.2020
1320 Rain 19 1007 88 10000 8.7 230 13:20 05.07.2020
1321 Rain 19 1007 88 10000 7.2 230 12:44 05.07.2020
1322 Rain 18 1007 93 7000 7.7 230 12:20 05.07.2020
1323 Rain 18 1007 88 7000 9.3 240 11:56 05.07.2020
1324 Rain 18 1007 88 7000 9.3 240 11:38 05.07.2020
1325 Rain 19 1007 82 8000 9.3 230 11:18 05.07.2020
1326 Rain 19 1007 82 8000 9.3 230 11:18 05.07.2020
1327 Clouds 19 1007 77 10000 10.3 240 10:54 05.07.2020
1328 Clouds 19 1007 77 10000 10.3 240 10:36 05.07.2020
1329 Clouds 19 1007 77 10000 9.8 230 10:18 05.07.2020
1330 Clouds 19 1006 82 10000 9.8 230 09:41 05.07.2020
1331 Clouds 18 1006 88 10000 8.2 220 09:20 05.07.2020
1332 Clouds 18 1006 82 10000 8.2 230 08:56 05.07.2020
1333 Clouds 18 1006 82 10000 8.2 230 08:37 05.07.2020
1334 Clouds 18 1006 82 10000 8.7 220 08:18 05.07.2020
1335 Clouds 18 1007 82 10000 7.7 240 07:39 05.07.2020
1336 Clouds 18 1007 88 10000 6.2 230 07:21 05.07.2020
1337 Clouds 18 1007 88 10000 6.7 240 06:45 05.07.2020
1338 Clouds 18 1007 93 10000 6.2 220 04:27 05.07.2020
1339 Drizzle 18 1008 93 3500 5.1 220 03:18 05.07.2020
1340 Clouds 18 1008 93 10000 6.2 220 02:40 05.07.2020
1341 Drizzle 18 1009 93 5000 6.2 220 01:59 05.07.2020
1342 Drizzle 18 1009 93 10000 5.7 210 01:28 05.07.2020
1343 Clouds 18 1009 88 10000 6.2 210 00:53 05.07.2020
1344 Clouds 18 1009 88 10000 6.2 210 00:31 05.07.2020
1345 Clouds 18 1010 88 10000 5.7 210 23:58 04.07.2020
1346 Clouds 18 1010 88 10000 5.7 210 23:40 04.07.2020
1347 Clouds 18 1010 88 10000 6.2 220 23:22 04.07.2020
1348 Drizzle 18 1010 88 10000 6.7 210 22:43 04.07.2020
1349 Clouds 18 1010 88 10000 5.7 220 22:25 04.07.2020
1350 Clouds 17 1010 88 10000 5.7 220 21:58 04.07.2020
1351 Drizzle 17 1010 88 10000 6.2 230 21:40 04.07.2020
1352 Drizzle 17 1011 88 10000 6.2 220 21:22 04.07.2020
1353 Drizzle 17 1011 88 10000 6.7 220 20:54 04.07.2020
1354 Drizzle 17 1011 88 10000 6.7 220 20:36 04.07.2020
1355 Clouds 17 1011 88 10000 5.1 220 20:18 04.07.2020
1356 Clouds 17 1011 88 10000 6.7 220 19:41 04.07.2020
1357 Drizzle 17 1011 93 10000 6.2 220 19:21 04.07.2020
1358 Drizzle 17 1011 93 2200 5.1 230 18:55 04.07.2020
1359 Drizzle 17 1011 93 2200 5.1 230 18:36 04.07.2020
1360 Drizzle 17 1012 93 2200 5.1 230 18:18 04.07.2020
1361 Drizzle 17 1011 93 3500 7.7 230 17:42 04.07.2020
1362 Clouds 18 1011 82 10000 8.2 230 17:22 04.07.2020
1363 Clouds 18 1011 82 10000 8.7 220 16:56 04.07.2020
1364 Clouds 18 1011 82 10000 8.7 220 16:37 04.07.2020
1365 Clouds 19 1011 72 10000 8.7 230 16:18 04.07.2020
1366 Clouds 19 1011 68 10000 8.7 230 15:45 04.07.2020
1367 Clouds 19 1011 72 10000 9.3 230 15:26 04.07.2020
1368 Clouds 19 1011 72 10000 9.3 230 14:59 04.07.2020
1369 Clouds 19 1011 72 10000 9.3 230 14:59 04.07.2020
1370 Clouds 19 1011 68 10000 9.8 230 14:37 04.07.2020
1371 Clouds 20 1011 64 10000 8.7 220 14:19 04.07.2020
1372 Clouds 20 1011 64 10000 7.2 210 13:56 04.07.2020
1373 Clouds 20 1011 64 10000 7.2 210 13:37 04.07.2020
1374 Clouds 18 1011 72 10000 6.7 210 13:18 04.07.2020
1375 Clouds 18 1011 72 10000 8.2 210 12:42 04.07.2020
1376 Clouds 18 1012 72 10000 6.7 220 12:20 04.07.2020
1377 Clouds 17 1012 77 10000 7.7 220 11:46 04.07.2020
1378 Clouds 17 1012 77 10000 7.2 220 11:25 04.07.2020
1379 Clouds 17 1012 77 10000 7.2 220 11:00 04.07.2020
1380 Clouds 17 1012 72 10000 8.2 230 10:41 04.07.2020
1381 Clouds 17 1012 72 10000 8.2 230 10:21 04.07.2020
1382 Clouds 16 1012 77 10000 8.7 230 09:58 04.07.2020
1383 Clouds 16 1012 77 10000 8.7 230 09:58 04.07.2020
1384 Clouds 16 1012 77 10000 8.7 230 09:37 04.07.2020
1385 Clouds 16 1012 72 10000 7.2 230 09:18 04.07.2020
1386 Clouds 16 1012 82 10000 7.2 240 08:46 04.07.2020
1387 Clouds 15 1012 82 10000 6.2 230 08:27 04.07.2020
1388 Rain 15 1012 82 10000 3.6 210 07:46 04.07.2020
1389 Rain 15 1013 82 10000 4.1 220 07:28 04.07.2020
1390 Rain 15 1013 77 10000 6.7 230 06:55 04.07.2020
1391 Rain 16 1013 72 10000 6.2 220 06:23 04.07.2020
1392 Rain 16 1013 67 10000 6.2 220 05:36 04.07.2020
1393 Clouds 16 1013 63 10000 6.7 230 04:44 04.07.2020
1394 Clouds 16 1013 72 10000 4.6 220 03:18 04.07.2020
1395 Clouds 16 1014 77 10000 4.1 220 02:26 04.07.2020
1396 Clouds 16 1014 82 10000 3.6 210 01:32 04.07.2020
1397 Clouds 16 1014 87 10000 3.1 200 00:44 04.07.2020
1398 Clouds 17 1014 82 10000 2.6 210 00:25 04.07.2020
1399 Clouds 17 1014 77 10000 2.6 210 23:41 03.07.2020
1400 Clouds 17 1014 87 10000 2.1 200 23:19 03.07.2020
1401 Clouds 17 1014 87 10000 2.1 200 22:59 03.07.2020
1402 Clouds 18 1014 82 10000 2.1 220 22:39 03.07.2020
1403 Clouds 19 1014 77 10000 2.6 210 22:21 03.07.2020
1404 Clouds 18 1014 77 10000 2.1 210 21:54 03.07.2020
1405 Clouds 19 1014 77 10000 2.1 210 21:36 03.07.2020
1406 Clouds 19 1014 72 10000 3.6 230 21:18 03.07.2020
1407 Clouds 20 1014 72 10000 3.6 210 20:42 03.07.2020
1408 Clouds 20 1014 72 10000 3.6 210 20:23 03.07.2020
1409 Rain 19 1014 72 10000 3.6 220 19:42 03.07.2020
1410 Clouds 20 1014 72 10000 3.6 220 19:21 03.07.2020
1411 Clouds 20 1014 77 10000 3.1 210 18:58 03.07.2020
1412 Clouds 20 1014 77 10000 3.1 210 18:40 03.07.2020
1413 Rain 19 1014 82 10000 8.2 230 18:22 03.07.2020
1414 Rain 20 1014 60 10000 6.7 230 17:45 03.07.2020
1415 Clouds 21 1014 56 10000 7.2 230 17:23 03.07.2020
1416 Clouds 22 1014 56 10000 7.2 230 16:59 03.07.2020
1417 Clouds 22 1014 53 10000 7.7 230 16:39 03.07.2020
1418 Clouds 22 1014 53 10000 7.7 230 16:20 03.07.2020
1419 Clouds 21 1014 56 10000 6.7 230 15:42 03.07.2020
1420 Clouds 21 1015 60 10000 8.2 230 15:22 03.07.2020
1421 Clouds 21 1015 60 10000 8.2 230 15:22 03.07.2020
1422 Clouds 21 1015 56 10000 7.7 220 14:55 03.07.2020
1423 Clouds 21 1015 56 10000 7.7 220 14:37 03.07.2020
1424 Clouds 20 1015 60 10000 6.2 230 14:18 03.07.2020
1425 Clouds 20 1015 64 10000 7.2 240 13:41 03.07.2020
1426 Clouds 20 1015 64 10000 6.2 230 13:23 03.07.2020
1427 Clouds 20 1015 68 10000 5.7 250 12:45 03.07.2020
1428 Clouds 19 1015 63 10000 5.7 240 12:23 03.07.2020
1429 Clouds 19 1015 72 10000 4.6 260 11:57 03.07.2020
1430 Clouds 18 1015 72 10000 4.6 260 11:39 03.07.2020
1431 Rain 18 1015 77 10000 5.7 220 11:19 03.07.2020
1432 Clouds 18 1015 77 10000 4.1 250 10:55 03.07.2020
1433 Clouds 17 1015 77 10000 4.1 250 10:36 03.07.2020
1434 Clouds 17 1015 82 10000 4.1 240 10:18 03.07.2020
1435 Clouds 16 1014 87 10000 3.6 250 09:40 03.07.2020
1436 Clouds 15 1014 87 10000 3.1 250 09:22 03.07.2020
1437 Clouds 15 1014 87 10000 3.1 250 08:58 03.07.2020
1438 Clouds 15 1014 87 10000 2.6 250 08:38 03.07.2020
1439 Clouds 14 1014 87 10000 2.1 230 08:18 03.07.2020
1440 Clouds 14 1014 93 10000 1 0 07:47 03.07.2020
1441 Clouds 14 1014 93 10000 3.41 229 07:23 03.07.2020
1442 Clouds 12 1014 93 10000 0.5 0 06:40 03.07.2020
1443 Mist 11 1013 100 3500 1 0 05:56 03.07.2020
1444 Clear 12 1013 93 10000 2.6 210 04:28 03.07.2020
1445 Clear 13 1013 100 10000 1.5 230 02:57 03.07.2020
1446 Clear 13 1013 100 10000 1.5 230 02:32 03.07.2020
1447 Clouds 13 1012 100 8000 2.1 220 01:54 03.07.2020
1448 Clouds 14 1012 100 8000 2.6 220 01:23 03.07.2020
1449 Clouds 14 1012 100 8000 1.5 210 00:44 03.07.2020
1450 Clouds 14 1012 93 10000 1.5 210 00:20 03.07.2020
1451 Clouds 14 1012 93 10000 2.1 270 23:43 02.07.2020
1452 Rain 15 1012 87 10000 3.1 290 23:20 02.07.2020
1453 Thunderstorm 15 1011 93 10000 2.6 280 22:57 02.07.2020
1454 Thunderstorm 15 1011 93 10000 2.6 280 22:39 02.07.2020
1455 Thunderstorm 15 1011 93 4000 4.6 330 22:20 02.07.2020
1456 Thunderstorm 15 1011 93 4000 4.6 330 22:20 02.07.2020
1457 Rain 16 1010 88 10000 1.5 240 21:54 02.07.2020
1458 Rain 16 1010 88 10000 1.5 240 21:36 02.07.2020
1459 Rain 16 1010 88 10000 1.5 240 21:36 02.07.2020
1460 Thunderstorm 17 1010 77 10000 2.6 200 21:18 02.07.2020
1461 Clouds 18 1010 77 10000 2.1 220 20:42 02.07.2020
1462 Clouds 19 1010 72 10000 2.6 220 20:21 02.07.2020
1463 Clouds 19 1010 72 10000 3.1 260 19:57 02.07.2020
1464 Clouds 18 1010 82 10000 2.6 270 19:38 02.07.2020
1465 Clouds 18 1010 82 10000 2.6 270 19:20 02.07.2020
1466 Clouds 18 1010 82 10000 3.1 290 18:57 02.07.2020
1467 Clouds 18 1010 82 10000 3.1 290 18:38 02.07.2020
1468 Clouds 18 1010 82 10000 3.6 290 18:20 02.07.2020
1469 Clouds 18 1009 77 10000 4.6 290 17:40 02.07.2020
1470 Rain 18 1010 82 10000 3.6 290 17:20 02.07.2020
1471 Rain 18 1010 82 7000 7.2 300 16:56 02.07.2020
1472 Rain 18 1010 82 7000 7.2 300 16:38 02.07.2020
1473 Rain 20 1008 53 10000 7.7 230 16:19 02.07.2020
1474 Rain 22 1009 53 10000 5.7 230 15:55 02.07.2020
1475 Rain 22 1009 53 10000 5.7 230 15:36 02.07.2020
1476 Clouds 22 1009 50 10000 6.7 230 15:18 02.07.2020
1477 Rain 21 1009 56 10000 7.2 240 14:43 02.07.2020
1478 Rain 21 1009 64 10000 6.7 240 14:20 02.07.2020
1479 Rain 21 1009 68 10000 5.1 230 13:56 02.07.2020
1480 Rain 21 1009 68 10000 5.1 230 13:37 02.07.2020
1481 Rain 21 1009 64 10000 5.1 240 13:18 02.07.2020
1482 Rain 20 1009 68 10000 6.2 240 12:41 02.07.2020
1483 Rain 19 1009 82 10000 4.6 230 12:22 02.07.2020
1484 Rain 19 1009 82 10000 4.6 230 12:22 02.07.2020
1485 Clouds 19 1009 72 10000 5.1 260 11:55 02.07.2020
1486 Clouds 19 1009 72 10000 5.1 260 11:37 02.07.2020
1487 Clouds 19 1009 72 10000 5.7 240 11:19 02.07.2020
1488 Clouds 18 1008 72 10000 4.1 250 10:42 02.07.2020
1489 Rain 17 1008 82 10000 4.6 230 10:23 02.07.2020
1490 Clouds 17 1008 77 10000 5.1 230 09:44 02.07.2020
1491 Clouds 17 1008 77 10000 5.7 230 09:23 02.07.2020
1492 Clouds 17 1008 77 10000 5.7 230 08:59 02.07.2020
1493 Clouds 16 1008 87 10000 4.6 240 08:40 02.07.2020
1494 Rain 16 1008 82 10000 4.1 240 08:20 02.07.2020
1495 Rain 15 1008 87 10000 4.6 240 07:42 02.07.2020
1496 Rain 14 1007 87 10000 3.1 230 07:22 02.07.2020
1497 Clouds 14 1007 87 10000 2.6 210 06:47 02.07.2020
1498 Clouds 14 1007 87 10000 2.1 200 06:27 02.07.2020
1499 Clouds 14 1007 87 10000 2.1 200 05:49 02.07.2020
1500 Clouds 14 1007 87 10000 2.6 210 04:55 02.07.2020
1501 Clear 14 1007 87 10000 2.6 220 03:34 02.07.2020
1502 Clouds 14 1007 82 10000 3.1 210 01:51 02.07.2020
1503 Clouds 15 1007 82 10000 2.6 220 00:44 02.07.2020
1504 Clouds 15 1007 82 10000 3.1 230 00:19 02.07.2020
1505 Clouds 16 1006 82 10000 3.6 240 23:43 01.07.2020
1506 Clouds 17 1006 77 10000 4.1 260 23:23 01.07.2020
1507 Clouds 18 1006 68 10000 5.1 280 22:55 01.07.2020
1508 Clouds 18 1006 68 10000 5.1 280 22:37 01.07.2020
1509 Clouds 18 1006 68 10000 5.1 280 22:18 01.07.2020
1510 Clouds 18 1005 63 10000 7.7 260 21:57 01.07.2020
1511 Clouds 19 1005 63 10000 7.7 260 21:39 01.07.2020
1512 Clouds 20 1005 60 10000 7.7 260 21:20 01.07.2020
1513 Clouds 20 1005 64 10000 7.7 270 20:46 01.07.2020
1514 Clouds 20 1005 64 10000 7.7 270 20:28 01.07.2020
1515 Clouds 21 1004 73 10000 7.2 220 19:58 01.07.2020
1516 Clouds 21 1004 73 10000 7.2 220 19:40 01.07.2020
1517 Clouds 20 1004 82 10000 5.7 210 19:20 01.07.2020
1518 Clouds 21 1004 82 10000 5.1 210 18:56 01.07.2020
1519 Clouds 21 1004 82 10000 5.1 210 18:38 01.07.2020
1520 Clouds 21 1004 82 10000 6.2 210 18:20 01.07.2020
1521 Clouds 20 1004 82 10000 6.7 210 17:55 01.07.2020
1522 Clouds 20 1004 82 10000 6.7 210 17:37 01.07.2020
1523 Rain 21 1004 82 10000 4.6 220 17:18 01.07.2020
1524 Rain 19 1004 88 10000 5.7 210 16:42 01.07.2020
1525 Clouds 19 1004 88 10000 7.2 210 16:23 01.07.2020
1526 Rain 19 1004 100 10000 6.2 210 15:43 01.07.2020
1527 Rain 19 1004 88 10000 5.7 220 15:23 01.07.2020
1528 Rain 20 1004 88 10000 5.7 220 14:58 01.07.2020
1529 Clouds 20 1005 82 10000 4.1 220 14:39 01.07.2020
1530 Clouds 20 1005 88 10000 3.1 190 14:20 01.07.2020
1531 Rain 19 1005 88 10000 3.6 200 13:55 01.07.2020
1532 Rain 19 1005 88 10000 3.6 200 13:37 01.07.2020
1533 Rain 18 1005 88 10000 4.1 210 13:18 01.07.2020
1534 Rain 19 1005 88 10000 3.1 200 12:41 01.07.2020
1535 Rain 18 1005 93 10000 4.1 200 12:23 01.07.2020
1536 Rain 18 1005 93 10000 4.1 200 11:59 01.07.2020
1537 Rain 18 1005 88 10000 4.1 190 11:40 01.07.2020
1538 Clouds 18 1005 88 10000 4.6 180 11:21 01.07.2020
1539 Rain 17 1005 88 10000 3.6 180 10:57 01.07.2020
1540 Rain 17 1005 88 10000 3.6 180 10:57 01.07.2020
1541 Rain 17 1005 88 10000 3.6 180 10:39 01.07.2020
1542 Clouds 17 1006 93 10000 3.1 220 10:20 01.07.2020
1543 Clouds 17 1005 88 10000 2.6 210 09:39 01.07.2020
1544 Clouds 16 1005 93 10000 3.1 200 09:20 01.07.2020
1545 Clouds 16 1005 93 10000 3.1 200 08:59 01.07.2020
1546 Clouds 16 1005 87 10000 2.1 210 08:40 01.07.2020
1547 Clouds 15 1005 93 10000 3.1 190 08:20 01.07.2020
1548 Clouds 15 1005 93 10000 2.1 210 07:43 01.07.2020
1549 Clouds 15 1005 93 10000 2.1 210 07:25 01.07.2020
1550 Clouds 14 1005 100 10000 2.1 220 06:59 01.07.2020
1551 Clouds 14 1005 100 10000 2.1 220 06:40 01.07.2020
1552 Clouds 14 1005 93 10000 2.6 200 06:20 01.07.2020
1553 Clouds 14 1005 93 10000 3.1 210 04:30 01.07.2020
1554 Clouds 14 1005 93 10000 3.6 250 03:44 01.07.2020
1555 Drizzle 14 1005 93 5000 2.1 250 03:22 01.07.2020
1556 Clouds 14 1005 93 10000 1.5 260 02:33 01.07.2020
1557 Drizzle 14 1005 93 3800 5.7 300 01:25 01.07.2020
1558 Rain 15 1005 93 10000 5.7 220 00:38 01.07.2020
1559 Clouds 15 1005 93 8000 5.7 210 00:20 01.07.2020
1560 Rain 15 1005 93 10000 4.6 200 23:40 30.06.2020
1561 Rain 15 1005 93 10000 4.6 200 23:40 30.06.2020
1562 Rain 15 1006 93 10000 3.6 200 23:20 30.06.2020
1563 Clouds 15 1006 87 10000 3.6 220 22:42 30.06.2020
1564 Clouds 15 1006 87 10000 2.1 210 22:20 30.06.2020
1565 Clouds 15 1006 82 10000 2.1 210 21:55 30.06.2020
1566 Clouds 15 1006 82 10000 2.1 210 21:37 30.06.2020
1567 Clouds 16 1006 82 10000 3.1 240 21:19 30.06.2020
1568 Clouds 15 1007 87 10000 3.1 250 20:43 30.06.2020
1569 Rain 16 1007 82 10000 6.7 240 20:21 30.06.2020
1570 Clouds 16 1007 82 10000 5.1 240 19:55 30.06.2020
1571 Clouds 16 1007 82 10000 5.1 240 19:36 30.06.2020
1572 Clouds 17 1007 63 10000 7.2 250 19:18 30.06.2020
1573 Clouds 17 1007 68 10000 7.2 240 18:42 30.06.2020
1574 Clouds 17 1007 63 10000 8.7 250 18:20 30.06.2020
1575 Clouds 18 1007 63 10000 10.3 240 17:54 30.06.2020
1576 Clouds 18 1007 63 10000 10.3 240 17:36 30.06.2020
1577 Clouds 18 1007 59 10000 8.7 230 17:18 30.06.2020
1578 Rain 17 1007 82 8000 9.8 230 16:41 30.06.2020
1579 Rain 18 1006 59 10000 6.2 230 16:21 30.06.2020
1580 Clouds 18 1007 55 10000 7.2 240 15:57 30.06.2020
1581 Clouds 18 1007 55 10000 7.2 240 15:38 30.06.2020
1582 Clouds 18 1007 59 10000 6.2 240 15:20 30.06.2020
1583 Clouds 17 1007 59 10000 6.7 230 14:44 30.06.2020
1584 Clouds 17 1007 63 10000 7.7 230 14:22 30.06.2020
1585 Clouds 17 1007 63 10000 7.7 230 13:59 30.06.2020
1586 Clouds 16 1007 67 10000 8.7 240 13:38 30.06.2020
1587 Clouds 16 1007 67 10000 9.3 230 13:19 30.06.2020
1588 Clouds 15 1007 67 10000 9.3 240 12:57 30.06.2020
1589 Clouds 15 1007 67 10000 9.3 240 12:39 30.06.2020
1590 Clouds 15 1007 67 10000 8.7 230 12:20 30.06.2020
1591 Clouds 16 1007 67 10000 7.7 220 11:57 30.06.2020
1592 Clouds 15 1007 67 10000 7.7 220 11:38 30.06.2020
1593 Clouds 15 1007 67 10000 9.3 220 11:18 30.06.2020
1594 Clouds 15 1007 72 10000 7.7 220 10:55 30.06.2020
1595 Clouds 22 1012 49 10000 8.2 250 16:38 28.06.2020
1596 Clouds 22 1012 46 10000 6.2 230 16:19 28.06.2020
1597 Clouds 22 1012 49 10000 5.7 210 15:55 28.06.2020
1598 Clouds 22 1012 49 10000 5.7 210 15:37 28.06.2020
1599 Clouds 22 1012 49 10000 6.2 230 15:18 28.06.2020
1600 Clouds 21 1012 49 10000 7.7 220 14:42 28.06.2020
1601 Clouds 21 1012 46 10000 8.2 230 14:24 28.06.2020
1602 Clouds 21 1012 56 10000 6.2 240 13:55 28.06.2020
1603 Clouds 21 1012 56 10000 6.2 240 13:36 28.06.2020
1604 Clouds 20 1011 60 10000 4.6 250 13:18 28.06.2020
1605 Clouds 20 1011 60 10000 6.7 230 12:55 28.06.2020
1606 Clouds 20 1011 60 10000 6.7 230 12:36 28.06.2020
1607 Clouds 20 1011 60 10000 7.2 230 12:18 28.06.2020
1608 Clouds 20 1011 64 10000 6.2 230 11:43 28.06.2020
1609 Clouds 20 1011 64 10000 5.7 240 11:21 28.06.2020
1610 Clouds 20 1011 64 10000 5.7 240 11:21 28.06.2020
1611 Clouds 20 1011 64 10000 5.7 240 10:59 28.06.2020
1612 Clouds 20 1010 64 10000 5.7 240 10:41 28.06.2020
1613 Clouds 20 1010 64 10000 5.7 240 10:41 28.06.2020
1614 Clouds 19 1010 72 10000 4.6 260 10:22 28.06.2020
1615 Rain 19 1010 72 10000 4.1 240 09:42 28.06.2020
1616 Rain 18 1010 72 10000 4.6 260 09:23 28.06.2020
1617 Rain 18 1010 72 10000 4.6 260 09:23 28.06.2020
1618 Rain 19 1010 72 10000 4.6 260 08:57 28.06.2020
1619 Clouds 19 1009 72 10000 3.1 230 08:39 28.06.2020
1620 Clouds 19 1009 72 10000 3.6 270 08:20 28.06.2020
1621 Clouds 18 1009 93 10000 1 0 07:39 28.06.2020
1622 Rain 17 1009 100 10000 1 0 06:58 28.06.2020
1623 Rain 17 1009 93 10000 1 0 06:32 28.06.2020
1624 Rain 17 1009 100 10000 1 120 05:54 28.06.2020
1625 Clouds 17 1009 100 10000 1 270 04:36 28.06.2020
1626 Clouds 17 1009 88 10000 3.1 150 03:18 28.06.2020
1627 Rain 17 1009 93 10000 2.6 150 02:23 28.06.2020
1628 Clouds 18 1009 93 10000 3.1 140 01:46 28.06.2020
1629 Clouds 18 1009 88 10000 2.6 140 01:22 28.06.2020
1630 Clouds 18 1009 93 10000 1.5 150 00:42 28.06.2020
1631 Clouds 18 1009 93 10000 1 0 00:21 28.06.2020
1632 Clouds 18 1009 93 10000 1 240 23:40 27.06.2020
1633 Clouds 18 1009 93 10000 1 0 23:21 27.06.2020
1634 Clouds 18 1009 88 10000 1 0 22:56 27.06.2020
1635 Clouds 18 1009 88 10000 1 0 22:38 27.06.2020
1636 Clouds 18 1009 93 10000 3.1 270 22:19 27.06.2020
1637 Clouds 19 1008 77 10000 2.6 330 21:42 27.06.2020
1638 Rain 20 1008 82 10000 3.1 330 21:20 27.06.2020
1639 Rain 21 1008 82 10000 7.2 310 20:57 27.06.2020
1640 Rain 21 1008 82 10000 7.2 310 20:37 27.06.2020
1641 Thunderstorm 23 1007 64 10000 4.6 10 20:18 27.06.2020
1642 Clouds 23 1007 69 10000 4.1 20 19:54 27.06.2020
1643 Clouds 24 1007 69 10000 4.1 20 19:36 27.06.2020
1644 Clouds 26 1007 51 10000 3.6 210 19:18 27.06.2020
1645 Clouds 27 1007 51 10000 4.6 200 18:43 27.06.2020
1646 Clouds 27 1007 54 10000 2.6 190 18:22 27.06.2020
1647 Clouds 27 1007 61 10000 1.5 190 17:55 27.06.2020
1648 Clouds 26 1007 61 10000 1.5 190 17:37 27.06.2020
1649 Clouds 25 1007 69 10000 2.1 160 17:18 27.06.2020
1650 Clouds 25 1008 69 10000 1 0 16:42 27.06.2020
1651 Thunderstorm 23 1008 82 10000 4.1 200 16:24 27.06.2020
1652 Thunderstorm 25 1008 61 10000 4.1 210 15:54 27.06.2020
1653 Thunderstorm 26 1008 61 10000 4.1 210 15:36 27.06.2020
1654 Clouds 27 1008 54 10000 4.6 210 15:18 27.06.2020
1655 Clouds 28 1008 45 10000 5.1 230 14:41 27.06.2020
1656 Clouds 28 1008 51 10000 4.1 200 14:22 27.06.2020
1657 Clouds 27 1008 54 10000 5.1 200 13:57 27.06.2020
1658 Clouds 27 1008 54 10000 5.1 200 13:37 27.06.2020
1659 Clouds 27 1008 57 10000 5.1 190 13:19 27.06.2020
1660 Clouds 27 1008 61 10000 4.1 190 12:56 27.06.2020
1661 Clouds 27 1008 61 10000 4.1 190 12:37 27.06.2020
1662 Clouds 25 1008 73 10000 3.1 210 12:19 27.06.2020
1663 Clouds 23 1008 83 10000 2.6 180 11:41 27.06.2020
1664 Clouds 22 1009 88 10000 1.5 200 11:23 27.06.2020
1665 Rain 21 1009 88 10000 1 0 10:57 27.06.2020
1666 Rain 21 1009 88 10000 1 0 10:38 27.06.2020
1667 Rain 22 1009 73 10000 5.7 240 10:18 27.06.2020
1668 Clouds 22 1009 73 10000 5.1 210 09:41 27.06.2020
1669 Clouds 22 1009 68 10000 3.6 210 09:21 27.06.2020
1670 Clouds 22 1009 68 10000 3.6 210 09:21 27.06.2020
1671 Clouds 22 1009 68 10000 3.1 190 08:56 27.06.2020
1672 Clouds 22 1009 68 10000 3.1 190 08:38 27.06.2020
1673 Clouds 21 1008 73 10000 3.1 160 08:19 27.06.2020
1674 Clouds 20 1009 72 10000 2.1 120 07:38 27.06.2020
1675 Clouds 20 1009 72 10000 2.1 120 07:19 27.06.2020
1676 Clouds 18 1008 77 10000 2.1 90 06:38 27.06.2020
1677 Clouds 18 1009 82 10000 2.1 110 06:18 27.06.2020
1678 Clouds 18 1009 77 10000 1 0 04:22 27.06.2020
1679 Clouds 19 1009 72 10000 2.1 110 03:51 27.06.2020
1680 Clouds 19 1010 72 10000 3.1 100 02:49 27.06.2020
1681 Clouds 20 1010 72 10000 3.1 100 02:29 27.06.2020
1682 Clouds 19 1010 72 10000 1.5 150 01:41 27.06.2020
1683 Clear 20 1010 64 10000 1.5 140 00:56 27.06.2020
1684 Clear 21 1010 60 10000 3.1 120 00:28 27.06.2020
1685 Clear 22 1010 53 10000 3.1 120 23:41 26.06.2020
1686 Clear 22 1010 53 10000 2.6 120 23:22 26.06.2020
1687 Clear 22 1011 64 10000 3.1 100 22:56 26.06.2020
1688 Clear 23 1011 64 10000 3.1 100 22:38 26.06.2020
1689 Clear 24 1010 50 10000 1.5 130 22:19 26.06.2020
1690 Clear 26 1010 44 10000 1.5 130 21:57 26.06.2020
1691 Clear 26 1010 44 10000 1.5 130 21:37 26.06.2020
1692 Clear 26 1010 44 10000 2.6 150 21:19 26.06.2020
1693 Clear 27 1010 44 10000 3.1 160 20:43 26.06.2020
1694 Rain 28 1010 39 10000 3.6 140 20:21 26.06.2020
1695 Rain 29 1010 35 10000 4.6 130 19:47 26.06.2020
1696 Rain 29 1010 35 10000 3.6 130 19:23 26.06.2020
1697 Rain 29 1010 37 10000 4.1 120 18:57 26.06.2020
1698 Rain 29 1010 37 10000 4.1 120 18:37 26.06.2020
1699 Clear 29 1011 37 10000 5.1 120 18:19 26.06.2020
1700 Clear 28 1011 39 10000 3.6 120 17:44 26.06.2020
1701 Clear 29 1012 37 10000 4.6 110 17:24 26.06.2020
1702 Clear 29 1012 37 10000 5.1 120 16:49 26.06.2020
1703 Clear 29 1012 37 10000 5.1 120 16:27 26.06.2020
1704 Clear 30 1012 33 10000 5.7 130 15:55 26.06.2020
1705 Clear 30 1012 33 10000 5.7 130 15:37 26.06.2020
1706 Clear 29 1012 33 10000 6.2 150 15:19 26.06.2020
1707 Clear 28 1013 35 10000 5.1 120 14:57 26.06.2020
1708 Clear 29 1013 35 10000 5.1 120 14:38 26.06.2020
1709 Clear 28 1013 35 10000 4.6 150 14:20 26.06.2020
1710 Clear 28 1013 34 10000 5.1 140 13:44 26.06.2020
1711 Clear 28 1014 37 10000 6.7 140 13:23 26.06.2020
1712 Clear 27 1014 39 10000 6.7 150 12:56 26.06.2020
1713 Clear 27 1014 39 10000 6.7 150 12:37 26.06.2020
1714 Clear 27 1014 39 10000 6.2 130 12:18 26.06.2020
1715 Clear 27 1015 42 10000 5.7 140 11:55 26.06.2020
1716 Clear 26 1015 42 10000 5.7 140 11:36 26.06.2020
1717 Clear 26 1015 44 10000 6.2 150 11:18 26.06.2020
1718 Clear 25 1015 47 10000 5.7 130 10:55 26.06.2020
1719 Clear 26 1015 47 10000 5.7 130 10:37 26.06.2020
1720 Clear 26 1015 47 10000 4.6 130 10:18 26.06.2020
1721 Clear 24 1016 50 10000 4.1 130 09:41 26.06.2020
1722 Clear 22 1016 56 10000 5.1 140 09:20 26.06.2020
1723 Clear 21 1016 56 10000 3.6 130 08:45 26.06.2020
1724 Clear 20 1016 64 10000 4.1 120 08:27 26.06.2020
1725 Clear 20 1016 64 10000 3.6 100 07:48 26.06.2020
1726 Clear 19 1016 68 10000 3.6 100 07:23 26.06.2020
1727 Clear 17 1016 68 10000 3.1 110 06:52 26.06.2020
1728 Clear 17 1016 72 10000 2.6 110 06:30 26.06.2020
1729 Clear 17 1016 72 10000 2.6 110 05:55 26.06.2020
1730 Clear 18 1016 72 10000 2.6 110 05:29 26.06.2020
1731 Clear 19 1017 72 10000 2.6 100 02:40 26.06.2020
1732 Clear 19 1017 72 10000 2.6 100 01:39 26.06.2020
1733 Clear 20 1017 68 10000 2.1 90 00:55 26.06.2020
1734 Clear 20 1017 68 10000 2.1 90 00:32 26.06.2020
1735 Clear 22 1018 57 10000 2.1 130 23:48 25.06.2020
1736 Clear 22 1018 57 10000 3.1 100 23:23 25.06.2020
1737 Clear 23 1018 57 10000 3.1 100 22:59 25.06.2020
1738 Clear 23 1018 53 10000 3.1 110 22:39 25.06.2020
1739 Clear 23 1018 53 10000 2.1 100 22:20 25.06.2020
1740 Clear 23 1018 53 10000 2.1 100 22:20 25.06.2020
1741 Clear 25 1017 47 10000 2.6 110 21:58 25.06.2020
1742 Clear 26 1017 47 10000 2.6 110 21:40 25.06.2020
1743 Clear 26 1017 47 10000 2.6 110 21:40 25.06.2020
1744 Clouds 26 1017 44 10000 3.1 110 21:21 25.06.2020
1745 Clouds 27 1017 44 10000 3.1 110 20:59 25.06.2020
1746 Clouds 27 1017 44 10000 3.6 130 20:41 25.06.2020
1747 Rain 27 1017 42 10000 5.1 110 20:22 25.06.2020
1748 Rain 28 1018 45 10000 4.6 110 19:56 25.06.2020
1749 Rain 27 1018 45 10000 4.6 110 19:37 25.06.2020
1750 Clouds 27 1018 45 10000 5.1 130 19:18 25.06.2020
1751 Clouds 27 1018 51 10000 5.1 90 18:40 25.06.2020
1752 Clouds 27 1018 51 10000 6.2 90 18:21 25.06.2020
1753 Clouds 27 1018 51 10000 6.7 90 17:55 25.06.2020
1754 Clouds 27 1018 51 10000 6.7 90 17:37 25.06.2020
1755 Clouds 27 1019 48 10000 5.7 100 17:19 25.06.2020
1756 Clouds 27 1019 48 10000 6.2 90 16:41 25.06.2020
1757 Clouds 28 1019 51 10000 6.7 100 16:20 25.06.2020
1758 Clouds 28 1019 51 10000 6.2 100 15:45 25.06.2020
1759 Rain 27 1019 48 10000 5.1 90 15:27 25.06.2020
1760 Rain 28 1019 48 10000 5.1 90 14:58 25.06.2020
1761 Clear 27 1020 47 10000 6.7 90 14:40 25.06.2020
1762 Clouds 27 1020 47 10000 7.7 60 14:22 25.06.2020
1763 Clouds 27 1020 45 10000 6.7 70 13:56 25.06.2020
1764 Clouds 27 1020 45 10000 6.7 70 13:37 25.06.2020
1765 Clear 27 1021 45 10000 5.1 50 13:19 25.06.2020
1766 Clear 27 1021 47 10000 5.1 80 12:44 25.06.2020
1767 Clear 26 1021 50 10000 5.1 60 12:20 25.06.2020
1768 Clear 25 1021 53 10000 5.1 70 11:56 25.06.2020
1769 Clear 25 1021 53 10000 5.1 70 11:38 25.06.2020
1770 Clear 25 1022 53 10000 4.6 60 11:20 25.06.2020
1771 Clear 25 1022 53 10000 3.6 50 10:42 25.06.2020
1772 Clear 24 1022 60 10000 3.1 60 10:23 25.06.2020
1773 Clear 22 1022 60 10000 2.6 40 09:41 25.06.2020
1774 Clear 21 1022 64 10000 3.1 60 09:23 25.06.2020
1775 Clear 20 1022 68 10000 4.1 70 08:47 25.06.2020
1776 Clouds 19 1022 72 10000 3.6 60 08:21 25.06.2020
1777 Clouds 18 1023 72 10000 4.6 60 07:57 25.06.2020
1778 Clouds 18 1023 72 10000 4.6 60 07:38 25.06.2020
1779 Clouds 18 1023 77 10000 4.1 60 07:20 25.06.2020
1780 Clouds 17 1023 82 10000 2.6 50 06:30 25.06.2020
1781 Clouds 16 1023 82 10000 2.6 50 05:55 25.06.2020
1782 Clouds 16 1023 82 10000 2.6 50 05:29 25.06.2020
1783 Clouds 17 1023 77 10000 3.6 70 03:36 25.06.2020
1784 Clouds 18 1024 77 10000 3.6 70 02:45 25.06.2020
1785 Clouds 18 1024 77 10000 3.1 70 02:19 25.06.2020
1786 Clouds 19 1024 72 10000 4.6 80 01:41 25.06.2020
1787 Clouds 19 1024 64 10000 4.1 80 00:50 25.06.2020
1788 Clouds 20 1024 64 10000 4.6 70 00:22 25.06.2020
1789 Clouds 20 1024 68 10000 3.1 70 23:58 24.06.2020
1790 Clouds 19 1024 68 10000 3.1 70 23:38 24.06.2020
1791 Clouds 21 1023 60 10000 2.6 100 23:19 24.06.2020
1792 Clouds 22 1023 56 10000 2.6 110 22:42 24.06.2020
1793 Clouds 22 1023 56 10000 2.6 110 22:42 24.06.2020
1794 Clouds 23 1023 47 10000 4.1 110 22:21 24.06.2020
1795 Clouds 23 1023 47 10000 3.1 90 21:57 24.06.2020
1796 Clouds 24 1023 47 10000 3.1 90 21:37 24.06.2020
1797 Clouds 25 1023 41 10000 4.1 100 21:19 24.06.2020
1798 Clouds 25 1023 41 10000 4.1 100 20:59 24.06.2020
1799 Clouds 25 1023 39 10000 4.6 110 20:40 24.06.2020
1800 Clouds 26 1023 39 10000 5.1 90 20:22 24.06.2020
1801 Clouds 26 1023 39 10000 5.1 90 19:59 24.06.2020
1802 Clouds 27 1023 36 10000 3.6 90 19:39 24.06.2020
1803 Clouds 26 1023 36 10000 4.1 90 19:21 24.06.2020
1804 Clouds 26 1023 36 10000 4.6 90 18:58 24.06.2020
1805 Clouds 26 1023 36 10000 4.6 90 18:58 24.06.2020
1806 Clouds 27 1023 36 10000 4.6 90 18:40 24.06.2020
1807 Clouds 27 1023 36 10000 5.1 90 18:21 24.06.2020
1808 Clouds 27 1023 36 10000 3.6 90 17:56 24.06.2020
1809 Clouds 27 1023 36 10000 3.6 90 17:38 24.06.2020
1810 Clear 27 1023 34 10000 5.1 80 17:19 24.06.2020
1811 Clear 27 1024 34 10000 4.1 100 16:56 24.06.2020
1812 Clear 27 1024 34 10000 4.1 100 16:38 24.06.2020
1813 Clear 27 1024 32 10000 4.1 70 16:20 24.06.2020
1814 Clear 27 1024 30 10000 5.7 90 15:56 24.06.2020
1815 Clear 26 1024 30 10000 5.7 90 15:37 24.06.2020
1816 Clear 26 1024 30 10000 4.1 100 15:19 24.06.2020
1817 Clear 26 1024 29 10000 3.6 90 14:43 24.06.2020
1818 Clear 25 1024 29 10000 4.1 90 14:24 24.06.2020
1819 Clear 26 1025 27 10000 3.6 0 13:43 24.06.2020
1820 Clear 25 1025 31 10000 3.1 90 13:22 24.06.2020
1821 Clear 25 1025 36 10000 3.6 50 12:57 24.06.2020
1822 Clear 25 1025 36 10000 3.6 50 12:38 24.06.2020
1823 Clear 24 1025 38 10000 3.6 60 12:20 24.06.2020
1824 Clear 23 1025 41 10000 3.1 80 11:55 24.06.2020
1825 Clear 24 1025 41 10000 3.1 80 11:37 24.06.2020
1826 Clear 23 1025 40 10000 3.6 80 11:18 24.06.2020
1827 Clear 22 1025 46 10000 3.6 90 10:43 24.06.2020
1828 Clear 23 1026 46 10000 4.6 80 10:19 24.06.2020
1829 Clear 21 1025 49 10000 3.1 100 09:43 24.06.2020
1830 Clear 20 1026 52 10000 3.1 110 09:22 24.06.2020
1831 Clear 19 1025 56 10000 2.6 60 08:44 24.06.2020
1832 Clear 18 1025 59 10000 1.5 70 08:26 24.06.2020
1833 Clear 17 1025 63 10000 1.5 60 07:55 24.06.2020
1834 Clear 16 1025 77 10000 0.5 0 07:37 24.06.2020
1835 Clear 16 1025 77 10000 0.5 0 07:18 24.06.2020
1836 Clear 13 1025 82 10000 2.1 60 06:39 24.06.2020
1837 Clear 13 1025 76 10000 1.5 60 06:21 24.06.2020
1838 Clear 13 1025 71 10000 1.5 70 05:32 24.06.2020
1839 Clear 13 1025 71 10000 2.1 90 04:37 24.06.2020
1840 Clear 13 1025 71 10000 1 0 03:37 24.06.2020
1841 Clear 15 1025 63 10000 1.5 70 02:52 24.06.2020
1842 Clear 15 1025 77 10000 0.5 0 01:59 24.06.2020
1843 Clear 16 1025 63 10000 2.1 40 00:50 24.06.2020
1844 Clear 17 1025 63 10000 2.1 50 00:31 24.06.2020
1845 Clear 17 1025 59 10000 2.6 30 23:47 23.06.2020
1846 Clear 18 1025 59 10000 3.1 30 23:21 23.06.2020
1847 Clear 19 1025 56 10000 4.1 40 22:58 23.06.2020
1848 Clear 19 1025 56 10000 4.1 40 22:40 23.06.2020
1849 Clear 21 1025 52 10000 4.1 40 22:18 23.06.2020
1850 Clear 21 1025 53 10000 4.1 40 21:54 23.06.2020
1851 Clear 22 1025 53 10000 4.1 40 21:36 23.06.2020
1852 Clear 22 1024 46 10000 5.1 30 21:18 23.06.2020
1853 Clear 23 1024 38 10000 3.6 30 20:54 23.06.2020
1854 Clear 23 1024 38 10000 3.6 30 20:36 23.06.2020
1855 Clear 24 1024 36 10000 4.1 30 20:18 23.06.2020
1856 Clear 25 1024 36 10000 3.1 10 19:41 23.06.2020
1857 Clear 25 1024 36 10000 3.1 10 19:23 23.06.2020
1858 Clear 25 1024 34 10000 3.6 0 18:38 23.06.2020
1859 Clear 25 1024 31 10000 2.1 0 18:19 23.06.2020
1860 Clear 25 1024 31 10000 2.6 320 17:43 23.06.2020
1861 Clear 25 1024 29 10000 4.1 320 17:25 23.06.2020
1862 Clear 25 1025 31 10000 3.1 270 16:57 23.06.2020
1863 Clear 25 1025 31 10000 3.1 270 16:38 23.06.2020
1864 Clear 25 1025 29 10000 3.1 0 16:20 23.06.2020
1865 Clear 24 1025 31 10000 3.6 320 15:59 23.06.2020
1866 Clear 24 1025 31 10000 3.6 320 15:41 23.06.2020
1867 Clear 24 1025 33 10000 3.1 320 15:22 23.06.2020
1868 Clear 25 1025 36 10000 3.1 350 14:54 23.06.2020
1869 Clear 25 1025 36 10000 3.1 350 14:36 23.06.2020
1870 Clear 24 1025 36 10000 3.1 330 14:18 23.06.2020
1871 Clear 24 1026 36 10000 2.6 330 13:42 23.06.2020
1872 Clear 24 1026 38 10000 2.1 50 13:23 23.06.2020
1873 Clear 24 1026 40 10000 2.1 0 12:46 23.06.2020
1874 Clouds 22 1026 46 10000 2.1 0 12:23 23.06.2020
1875 Clouds 22 1026 46 10000 1 0 11:59 23.06.2020
1876 Clouds 23 1026 46 10000 1 0 11:40 23.06.2020
1877 Clouds 22 1026 46 10000 2.1 0 11:20 23.06.2020
1878 Clouds 21 1026 53 10000 1.5 0 10:58 23.06.2020
1879 Clouds 22 1026 53 10000 1.5 0 10:39 23.06.2020
1880 Clear 20 1026 56 10000 1.5 0 10:21 23.06.2020
1881 Clear 20 1026 60 10000 2.1 0 09:55 23.06.2020
1882 Clear 20 1026 60 10000 2.1 0 09:37 23.06.2020
1883 Clear 18 1026 68 10000 2.1 120 09:18 23.06.2020
1884 Clear 16 1026 67 10000 1.5 130 08:42 23.06.2020
1885 Clouds 16 1026 72 10000 0.5 0 08:22 23.06.2020
1886 Clouds 14 1026 87 10000 0.5 0 07:45 23.06.2020
1887 Clouds 13 1026 93 10000 0.5 0 07:24 23.06.2020
1888 Clouds 10 1026 100 10000 1 240 06:52 23.06.2020
1889 Fog 10 1026 93 10000 0.69 252 06:32 23.06.2020
1890 Fog 10 1026 100 10000 0.95 235 05:54 23.06.2020
1891 Fog 10 1026 100 10000 0.74 228 04:42 23.06.2020
1892 Clear 12 1026 93 10000 0.19 312 03:21 23.06.2020
1893 Clear 12 1025 100 10000 0.5 220 02:48 23.06.2020
1894 Clouds 12 1025 93 10000 1.5 230 02:29 23.06.2020
1895 Clear 12 1025 87 10000 0.5 240 01:46 23.06.2020
1896 Clear 13 1025 87 10000 0.5 0 01:22 23.06.2020
1897 Clear 14 1025 82 10000 1 60 00:41 23.06.2020
1898 Clear 15 1025 72 10000 1.5 10 00:20 23.06.2020
1899 Clear 16 1025 63 10000 2.1 10 23:54 22.06.2020
1900 Clear 16 1025 63 10000 2.1 10 23:36 22.06.2020
1901 Clear 16 1025 59 10000 3.1 350 23:18 22.06.2020
1902 Clear 17 1025 59 10000 3.6 350 22:54 22.06.2020
1903 Clear 17 1025 59 10000 3.6 350 22:36 22.06.2020
1904 Clear 18 1025 59 10000 3.6 330 22:18 22.06.2020
1905 Clear 18 1025 59 10000 3.6 330 22:18 22.06.2020
1906 Clear 19 1024 52 10000 4.1 340 21:40 22.06.2020
1907 Clear 20 1024 46 10000 4.1 340 21:22 22.06.2020
1908 Clear 21 1024 49 10000 4.1 330 20:59 22.06.2020
1909 Clear 21 1024 49 10000 4.1 330 20:40 22.06.2020
1910 Clouds 21 1024 49 10000 5.1 360 20:20 22.06.2020
1911 Clouds 22 1024 49 10000 4.6 340 19:44 22.06.2020
1912 Clouds 22 1024 49 10000 4.1 350 19:19 22.06.2020
1913 Clouds 22 1024 49 10000 4.1 350 18:57 22.06.2020
1914 Clouds 23 1024 46 10000 4.6 310 18:38 22.06.2020
1915 Clouds 23 1024 46 10000 4.6 310 18:19 22.06.2020
1916 Clouds 23 1024 49 10000 3.6 10 17:56 22.06.2020
1917 Clouds 23 1024 46 10000 4.1 310 17:37 22.06.2020
1918 Clouds 23 1024 46 10000 4.1 310 17:19 22.06.2020
1919 Clouds 23 1024 40 10000 6.2 300 16:43 22.06.2020
1920 Rain 23 1024 40 10000 6.2 300 16:20 22.06.2020
1921 Rain 24 1024 38 10000 5.1 320 15:59 22.06.2020
1922 Rain 25 1024 38 10000 6.2 270 15:40 22.06.2020
1923 Rain 24 1024 38 10000 6.2 270 15:22 22.06.2020
1924 Rain 24 1024 41 10000 4.6 270 14:41 22.06.2020
1925 Rain 24 1024 41 10000 4.6 270 14:22 22.06.2020
1926 Rain 23 1024 46 10000 4.6 300 13:59 22.06.2020
1927 Clouds 24 1023 41 10000 5.1 280 13:39 22.06.2020
1928 Clouds 23 1023 41 10000 5.1 280 13:21 22.06.2020
1929 Clouds 23 1023 46 10000 4.1 320 12:56 22.06.2020
1930 Clouds 23 1023 46 10000 5.1 310 12:37 22.06.2020
1931 Clouds 22 1023 46 10000 5.1 310 12:19 22.06.2020
1932 Clouds 22 1023 52 10000 4.1 300 11:37 22.06.2020
1933 Clouds 21 1023 52 10000 4.1 300 11:19 22.06.2020
1934 Clouds 21 1023 64 10000 4.1 320 10:56 22.06.2020
1935 Clouds 21 1023 68 10000 4.1 310 10:37 22.06.2020
1936 Clouds 21 1023 68 10000 4.1 310 10:37 22.06.2020
1937 Clouds 20 1023 68 10000 4.1 310 10:19 22.06.2020
1938 Clouds 20 1022 72 10000 2.6 290 09:56 22.06.2020
1939 Clouds 19 1022 77 10000 3.6 300 09:38 22.06.2020
1940 Clouds 18 1022 77 10000 3.6 300 09:18 22.06.2020
1941 Clouds 18 1022 77 10000 3.6 270 08:56 22.06.2020
1942 Clouds 17 1022 82 10000 3.6 270 08:37 22.06.2020
1943 Clouds 17 1022 82 10000 3.6 270 08:18 22.06.2020
1944 Clouds 17 1021 82 10000 2.6 250 07:46 22.06.2020
1945 Clouds 16 1021 87 10000 2.6 250 07:25 22.06.2020
1946 Clouds 15 1020 93 10000 2.1 250 06:39 22.06.2020
1947 Clouds 15 1020 93 10000 2.1 250 06:20 22.06.2020
1948 Rain 15 1020 93 10000 1 260 05:42 22.06.2020
1949 Clouds 15 1020 93 10000 1 270 03:47 22.06.2020
1950 Clouds 18 1020 77 10000 2.6 300 01:53 22.06.2020
1951 Rain 18 1019 68 10000 4.1 320 00:58 22.06.2020
1952 Rain 19 1019 68 10000 8.2 320 00:29 22.06.2020
1953 Rain 20 1018 68 10000 2.1 180 23:57 21.06.2020
1954 Rain 20 1018 60 10000 2.6 140 23:38 21.06.2020
1955 Clouds 20 1018 60 10000 2.6 140 23:20 21.06.2020
1956 Clouds 20 1018 60 10000 2.6 140 22:56 21.06.2020
1957 Clouds 21 1018 60 10000 2.1 140 22:36 21.06.2020
1958 Clouds 21 1018 60 10000 2.1 140 22:18 21.06.2020
1959 Clouds 21 1018 60 10000 1.5 150 21:56 21.06.2020
1960 Clouds 22 1017 60 10000 1.5 190 21:37 21.06.2020
1961 Clear 22 1017 60 10000 1.5 190 21:19 21.06.2020
1962 Clear 23 1017 56 10000 2.6 190 20:57 21.06.2020
1963 Clear 24 1017 47 10000 3.1 190 20:36 21.06.2020
1964 Clouds 24 1017 47 10000 3.1 190 20:18 21.06.2020
1965 Clouds 25 1018 41 10000 2.1 190 19:41 21.06.2020
1966 Clouds 25 1018 41 10000 2.1 190 19:22 21.06.2020
1967 Clouds 25 1018 38 10000 3.6 220 18:59 21.06.2020
1968 Clouds 25 1018 44 10000 2.1 170 18:40 21.06.2020
1969 Clouds 25 1018 44 10000 2.1 170 18:21 21.06.2020
1970 Clouds 25 1018 36 10000 2.6 210 17:58 21.06.2020
1971 Clouds 25 1018 38 10000 3.6 180 17:38 21.06.2020
1972 Clouds 25 1018 38 10000 3.6 180 17:19 21.06.2020
1973 Clouds 25 1019 41 10000 4.1 210 16:41 21.06.2020
1974 Clouds 25 1019 41 10000 4.1 210 16:23 21.06.2020
1975 Clouds 25 1019 41 10000 2.6 0 15:57 21.06.2020
1976 Clouds 24 1019 41 10000 3.6 240 15:37 21.06.2020
1977 Clouds 24 1019 41 10000 3.6 240 15:18 21.06.2020
1978 Clouds 24 1019 41 10000 1.5 240 14:39 21.06.2020
1979 Clouds 24 1019 41 10000 1.5 240 14:20 21.06.2020
1980 Clouds 24 1019 43 10000 2.6 0 13:57 21.06.2020
1981 Clouds 23 1019 43 10000 3.1 260 13:39 21.06.2020
1982 Clouds 23 1019 43 10000 3.1 260 13:19 21.06.2020
1983 Clouds 24 1020 46 10000 2.6 200 12:44 21.06.2020
1984 Clouds 24 1020 46 10000 2.6 200 12:44 21.06.2020
1985 Clouds 21 1020 46 10000 2.6 200 12:26 21.06.2020
1986 Clouds 21 1020 46 10000 2.1 0 11:59 21.06.2020
1987 Clouds 21 1020 46 10000 2.1 220 11:41 21.06.2020
1988 Clouds 21 1020 46 10000 2.1 220 11:23 21.06.2020
1989 Clouds 20 1020 52 10000 2.1 200 10:57 21.06.2020
1990 Clouds 18 1020 67 10000 2.1 180 10:38 21.06.2020
1991 Clouds 18 1020 67 10000 2.1 180 10:20 21.06.2020
1992 Clouds 17 1020 82 10000 2.1 230 09:43 21.06.2020
1993 Clouds 16 1020 82 10000 2.1 230 09:22 21.06.2020
1994 Clouds 16 1020 82 10000 2.1 230 09:22 21.06.2020
1995 Clouds 16 1020 82 10000 1.5 220 08:57 21.06.2020
1996 Clouds 15 1020 87 10000 1.5 210 08:39 21.06.2020
1997 Clouds 15 1020 87 10000 1.5 210 08:19 21.06.2020
1998 Clouds 13 1020 100 10000 0.5 0 07:42 21.06.2020
1999 Clouds 12 1020 100 10000 0.5 0 07:23 21.06.2020
2000 Fog 11 1020 100 10000 1 230 06:50 21.06.2020
2001 Fog 11 1020 100 10000 0.5 260 06:28 21.06.2020
2002 Fog 10 1020 100 5000 0.5 0 05:57 21.06.2020
2003 Fog 10 1020 93 10000 0.5 220 04:36 21.06.2020
2004 Clouds 11 1021 93 10000 1 220 03:19 21.06.2020
2005 Clear 11 1020 100 10000 1.5 250 02:36 21.06.2020
2006 Clear 12 1021 93 10000 2.1 280 01:40 21.06.2020
2007 Clear 12 1021 93 10000 2.1 280 01:19 21.06.2020
2008 Clear 13 1021 82 10000 1.5 270 00:46 21.06.2020
2009 Clear 14 1021 77 10000 3.1 350 00:25 21.06.2020
2010 Clear 15 1021 72 10000 3.1 360 23:46 20.06.2020
2011 Clouds 15 1021 72 10000 3.1 360 23:23 20.06.2020
2012 Clouds 16 1020 72 10000 4.1 360 22:59 20.06.2020
2013 Clouds 16 1020 72 10000 4.1 360 22:59 20.06.2020
2014 Clouds 16 1020 67 10000 4.6 350 22:40 20.06.2020
2015 Clouds 17 1020 67 10000 4.6 350 22:20 20.06.2020
2016 Clouds 18 1020 63 10000 5.1 350 21:58 20.06.2020
2017 Clouds 18 1020 63 10000 5.1 360 21:40 20.06.2020
2018 Clouds 18 1020 63 10000 5.1 360 21:21 20.06.2020
2019 Clouds 19 1020 63 10000 6.2 360 20:58 20.06.2020
2020 Clouds 19 1020 60 10000 4.6 340 20:40 20.06.2020
2021 Clouds 20 1020 60 10000 4.6 340 20:21 20.06.2020
2022 Clouds 20 1020 60 10000 5.1 350 19:59 20.06.2020
2023 Clouds 20 1020 60 10000 5.7 340 19:40 20.06.2020
2024 Clouds 21 1020 60 10000 5.7 340 19:20 20.06.2020
2025 Clouds 22 1019 60 10000 6.2 320 18:43 20.06.2020
2026 Clouds 22 1019 60 10000 6.2 320 18:21 20.06.2020
2027 Clouds 22 1019 56 10000 5.7 320 17:58 20.06.2020
2028 Clouds 22 1019 60 10000 4.6 340 17:39 20.06.2020
2029 Clouds 22 1019 60 10000 4.6 340 17:20 20.06.2020
2030 Clouds 22 1020 60 10000 5.7 330 16:56 20.06.2020
2031 Clouds 22 1019 64 10000 5.7 340 16:37 20.06.2020
2032 Clouds 22 1019 64 10000 5.7 340 16:18 20.06.2020
2033 Clouds 22 1019 53 10000 4.6 290 15:42 20.06.2020
2034 Clouds 22 1019 53 10000 4.6 290 15:18 20.06.2020
2035 Clouds 21 1020 64 10000 6.2 290 14:43 20.06.2020
2036 Clouds 22 1020 64 10000 6.2 290 14:21 20.06.2020
2037 Clouds 21 1020 64 10000 4.6 290 13:55 20.06.2020
2038 Clouds 21 1020 64 10000 5.7 290 13:37 20.06.2020
2039 Clouds 21 1020 64 10000 5.7 290 13:19 20.06.2020
2040 Clouds 21 1019 64 10000 5.7 290 12:42 20.06.2020
2041 Clouds 20 1019 64 10000 5.7 290 12:21 20.06.2020
2042 Clouds 20 1019 60 10000 6.2 280 11:58 20.06.2020
2043 Clouds 20 1019 64 10000 6.2 290 11:38 20.06.2020
2044 Clouds 20 1019 64 10000 6.2 290 11:20 20.06.2020
2045 Clouds 19 1019 68 10000 5.1 280 10:55 20.06.2020
2046 Clouds 19 1019 72 10000 6.2 270 10:37 20.06.2020
2047 Clouds 19 1019 72 10000 6.2 270 10:18 20.06.2020
2048 Clouds 18 1019 77 10000 6.2 280 09:40 20.06.2020
2049 Clouds 17 1019 77 10000 6.2 280 09:22 20.06.2020
2050 Clouds 17 1019 77 10000 5.1 270 08:56 20.06.2020
2051 Clouds 16 1019 82 10000 4.6 280 08:37 20.06.2020
2052 Clouds 16 1019 82 10000 4.6 280 08:18 20.06.2020
2053 Clouds 15 1018 93 10000 2.6 270 07:44 20.06.2020
2054 Clouds 15 1018 93 10000 2.6 270 07:25 20.06.2020
2055 Fog 14 1018 100 1200 1 230 06:24 20.06.2020
2056 Fog 13 1018 100 900 1.5 250 05:59 20.06.2020
2057 Fog 13 1018 100 1500 2.1 250 05:40 20.06.2020
2058 Clouds 14 1018 93 10000 2.1 250 03:21 20.06.2020
2059 Clouds 14 1017 93 10000 2.6 250 01:53 20.06.2020
2060 Clouds 14 1017 82 10000 2.1 250 01:35 20.06.2020
2061 Clouds 16 1017 63 10000 3.1 300 00:40 20.06.2020
2062 Clouds 17 1017 63 10000 3.1 300 00:19 20.06.2020
2063 Clouds 17 1016 59 10000 3.6 340 23:40 19.06.2020
2064 Clouds 17 1016 59 10000 3.6 340 23:19 19.06.2020
2065 Clouds 18 1016 59 10000 2.6 340 22:55 19.06.2020
2066 Clouds 18 1016 59 10000 3.1 320 22:37 19.06.2020
2067 Clouds 18 1016 59 10000 3.1 320 22:18 19.06.2020
2068 Clouds 18 1016 68 10000 4.6 290 21:54 19.06.2020
2069 Clouds 20 1015 60 10000 4.6 340 21:36 19.06.2020
2070 Clouds 20 1015 60 10000 4.6 340 21:18 19.06.2020
2071 Clouds 20 1015 60 10000 4.1 350 20:55 19.06.2020
2072 Clouds 21 1015 60 10000 4.6 340 20:37 19.06.2020
2073 Clouds 21 1015 60 10000 4.6 340 20:18 19.06.2020
2074 Clouds 22 1014 60 10000 4.1 340 19:42 19.06.2020
2075 Clouds 22 1014 60 10000 4.1 340 19:42 19.06.2020
2076 Clouds 22 1014 60 10000 4.1 340 19:23 19.06.2020
2077 Clouds 22 1015 60 10000 4.6 330 18:59 19.06.2020
2078 Clouds 22 1014 60 10000 5.1 340 18:39 19.06.2020
2079 Clouds 22 1014 60 10000 5.1 340 18:20 19.06.2020
2080 Clouds 22 1014 60 10000 5.1 340 18:20 19.06.2020
2081 Clouds 23 1014 56 10000 4.6 320 17:42 19.06.2020
2082 Clouds 23 1014 56 10000 4.6 320 17:23 19.06.2020
2083 Clouds 23 1014 56 10000 5.1 350 16:58 19.06.2020
2084 Clouds 23 1014 56 10000 5.1 340 16:40 19.06.2020
2085 Clouds 23 1014 56 10000 5.1 340 16:22 19.06.2020
2086 Clouds 23 1014 53 10000 5.7 320 15:47 19.06.2020
2087 Clouds 23 1014 53 10000 5.1 330 15:27 19.06.2020
2088 Clouds 23 1014 53 10000 5.7 310 14:59 19.06.2020
2089 Clouds 23 1014 56 10000 5.7 310 14:40 19.06.2020
2090 Clouds 23 1014 56 10000 5.7 310 14:21 19.06.2020
2091 Clouds 22 1014 56 10000 5.1 300 13:59 19.06.2020
2092 Clouds 22 1014 60 10000 5.7 310 13:40 19.06.2020
2093 Clouds 22 1014 60 10000 5.7 310 13:22 19.06.2020
2094 Clouds 22 1014 56 10000 5.7 300 12:45 19.06.2020
2095 Clouds 21 1014 56 10000 5.7 300 12:22 19.06.2020
2096 Clouds 20 1014 64 10000 6.2 300 11:57 19.06.2020
2097 Clouds 20 1014 64 10000 5.7 300 11:37 19.06.2020
2098 Clouds 20 1014 64 10000 5.7 300 11:18 19.06.2020
2099 Clouds 18 1014 68 10000 5.1 310 10:45 19.06.2020
2100 Clouds 18 1014 72 10000 4.6 310 10:26 19.06.2020
2101 Clouds 17 1014 77 10000 4.6 300 09:57 19.06.2020
2102 Clouds 16 1013 72 10000 4.1 290 09:39 19.06.2020
2103 Clouds 16 1013 72 10000 4.1 290 09:19 19.06.2020
2104 Clouds 15 1013 87 10000 3.1 280 08:42 19.06.2020
2105 Clouds 15 1013 87 10000 3.1 280 08:42 19.06.2020
2106 Clouds 15 1013 87 10000 3.1 280 08:23 19.06.2020
2107 Clouds 15 1013 87 10000 2.1 280 07:55 19.06.2020
2108 Clouds 15 1013 93 10000 1.5 250 07:36 19.06.2020
2109 Clouds 14 1013 93 10000 1.5 250 07:18 19.06.2020
2110 Clouds 14 1013 93 10000 2.1 290 06:23 19.06.2020
2111 Clouds 14 1013 93 10000 2.1 290 06:23 19.06.2020
2112 Clouds 14 1013 93 10000 3.1 310 05:43 19.06.2020
2113 Rain 14 1013 93 10000 2.6 280 04:23 19.06.2020
2114 Rain 16 1013 100 4500 3.6 270 02:50 19.06.2020
2115 Rain 17 1013 93 4500 2.6 270 00:49 19.06.2020
2116 Rain 16 1013 100 3000 2.1 250 00:22 19.06.2020
2117 Rain 17 1013 100 4500 1.5 250 23:59 18.06.2020
2118 Rain 17 1012 93 5000 2.1 290 23:41 18.06.2020
2119 Rain 17 1012 93 5000 2.1 290 23:23 18.06.2020
2120 Rain 17 1012 93 8000 2.6 310 22:59 18.06.2020
2121 Rain 17 1012 93 8000 1 0 22:37 18.06.2020
2122 Rain 17 1012 93 8000 1 0 22:18 18.06.2020
2123 Rain 17 1012 93 8000 1 0 22:18 18.06.2020
2124 Rain 17 1012 93 10000 1 290 21:39 18.06.2020
2125 Rain 17 1012 93 10000 1 290 21:20 18.06.2020
2126 Rain 17 1012 93 10000 1.5 290 20:57 18.06.2020
2127 Rain 17 1011 93 10000 1.5 300 20:38 18.06.2020
2128 Rain 17 1011 93 10000 1.5 300 20:19 18.06.2020
2129 Rain 17 1012 88 10000 2.1 300 19:42 18.06.2020
2130 Rain 17 1012 88 10000 2.1 300 19:22 18.06.2020
2131 Rain 18 1012 82 10000 2.6 290 18:58 18.06.2020
2132 Rain 18 1011 82 10000 4.6 270 18:37 18.06.2020
2133 Rain 18 1011 82 10000 4.6 270 18:19 18.06.2020
2134 Clouds 18 1011 88 10000 5.7 240 17:45 18.06.2020
2135 Clouds 19 1011 88 10000 5.7 240 17:25 18.06.2020
2136 Clouds 20 1011 82 10000 5.7 250 16:56 18.06.2020
2137 Clouds 20 1011 77 10000 5.1 240 16:37 18.06.2020
2138 Clouds 21 1011 77 10000 5.1 240 16:19 18.06.2020
2139 Clouds 21 1011 77 10000 3.1 260 15:56 18.06.2020
2140 Clouds 20 1011 82 10000 2.6 270 15:38 18.06.2020
2141 Clouds 20 1011 82 10000 2.6 270 15:18 18.06.2020
2142 Clouds 20 1011 82 10000 3.1 260 14:55 18.06.2020
2143 Clouds 20 1011 82 10000 3.1 280 14:36 18.06.2020
2144 Clouds 20 1011 82 10000 3.1 280 14:18 18.06.2020
2145 Clouds 20 1011 77 10000 3.6 280 13:41 18.06.2020
2146 Clouds 20 1011 77 10000 3.6 280 13:23 18.06.2020
2147 Clouds 20 1011 82 10000 3.1 250 12:56 18.06.2020
2148 Clouds 20 1011 82 10000 2.6 240 12:38 18.06.2020
2149 Clouds 20 1011 82 10000 2.6 240 12:19 18.06.2020
2150 Rain 20 1010 77 10000 2.6 230 11:47 18.06.2020
2151 Clouds 20 1010 77 10000 2.1 220 11:21 18.06.2020
2152 Rain 20 1010 77 10000 1.5 230 10:59 18.06.2020
2153 Clouds 20 1010 68 10000 1.5 140 10:39 18.06.2020
2154 Rain 20 1010 68 10000 1.5 140 10:18 18.06.2020
2155 Rain 20 1010 72 10000 2.1 60 09:44 18.06.2020
2156 Rain 19 1010 72 10000 2.1 60 09:26 18.06.2020
2157 Rain 19 1009 72 10000 2.1 70 08:57 18.06.2020
2158 Rain 19 1009 72 10000 2.6 60 08:36 18.06.2020
2159 Clouds 19 1009 72 10000 2.6 60 08:18 18.06.2020
2160 Clouds 19 1009 72 10000 2.6 60 07:44 18.06.2020
2161 Clouds 19 1009 72 10000 2.6 60 07:23 18.06.2020
2162 Clouds 18 1009 72 10000 2.6 50 06:37 18.06.2020
2163 Clouds 18 1009 77 10000 2.1 40 05:25 18.06.2020
2164 Clouds 18 1009 77 10000 2.1 60 04:18 18.06.2020
2165 Clouds 19 1010 60 10000 4.1 70 01:44 18.06.2020
2166 Clouds 20 1010 60 10000 4.1 70 01:22 18.06.2020
2167 Clouds 20 1010 60 10000 4.6 60 00:52 18.06.2020
2168 Clouds 20 1010 64 10000 4.1 60 00:31 18.06.2020
2169 Clouds 20 1010 64 10000 4.6 50 23:56 17.06.2020
2170 Clouds 21 1010 68 10000 3.6 40 23:38 17.06.2020
2171 Clouds 21 1010 68 10000 3.6 40 23:19 17.06.2020
2172 Clouds 21 1010 60 10000 4.1 40 22:57 17.06.2020
2173 Clouds 22 1010 56 10000 5.1 30 22:37 17.06.2020
2174 Clouds 22 1010 56 10000 5.1 30 22:19 17.06.2020
2175 Clouds 24 1009 38 10000 3.6 60 21:40 17.06.2020
2176 Rain 24 1009 38 10000 3.6 60 21:22 17.06.2020
2177 Clouds 25 1009 36 10000 3.1 50 20:57 17.06.2020
2178 Clouds 25 1009 36 10000 3.1 40 20:38 17.06.2020
2179 Clouds 25 1009 36 10000 3.1 40 20:19 17.06.2020
2180 Clouds 26 1009 32 10000 3.1 50 19:44 17.06.2020
2181 Clouds 26 1009 32 10000 3.1 50 19:23 17.06.2020
2182 Clouds 27 1010 34 10000 3.6 60 18:56 17.06.2020
2183 Clouds 26 1010 41 10000 2.6 40 18:38 17.06.2020
2184 Clouds 27 1010 41 10000 2.6 40 18:20 17.06.2020
2185 Clouds 27 1010 42 10000 2.6 70 17:42 17.06.2020
2186 Clouds 27 1010 42 10000 2.6 70 17:22 17.06.2020
2187 Clouds 27 1011 42 10000 3.1 30 16:57 17.06.2020
2188 Clouds 27 1011 42 10000 2.6 100 16:38 17.06.2020
2189 Clouds 27 1011 42 10000 2.6 100 16:20 17.06.2020
2190 Clouds 27 1011 44 10000 3.6 50 15:56 17.06.2020
2191 Clouds 27 1011 39 10000 2.1 90 15:38 17.06.2020
2192 Clouds 26 1011 39 10000 2.1 90 15:18 17.06.2020
2193 Clouds 26 1011 41 10000 2.6 70 14:56 17.06.2020
2194 Clouds 26 1012 41 10000 3.1 0 14:38 17.06.2020
2195 Clouds 26 1012 41 10000 3.1 0 14:19 17.06.2020
2196 Clouds 26 1012 47 10000 2.6 90 13:42 17.06.2020
2197 Clouds 26 1012 47 10000 2.6 90 13:22 17.06.2020
2198 Clouds 25 1012 47 10000 2.1 0 12:59 17.06.2020
2199 Clouds 25 1013 53 10000 2.6 50 12:40 17.06.2020
2200 Clouds 24 1013 57 10000 2.6 80 12:20 17.06.2020
2201 Rain 24 1013 60 10000 1.5 60 11:44 17.06.2020
2202 Rain 23 1013 60 10000 1.5 60 11:26 17.06.2020
2203 Rain 23 1013 68 10000 1.5 0 10:58 17.06.2020
2204 Rain 22 1013 68 10000 1.5 50 10:38 17.06.2020
2205 Clouds 22 1013 68 10000 1.5 50 10:19 17.06.2020
2206 Clouds 19 1013 72 10000 2.1 20 09:55 17.06.2020
2207 Clouds 19 1013 77 10000 2.1 350 09:36 17.06.2020
2208 Clouds 18 1013 77 10000 2.1 350 09:18 17.06.2020
2209 Clouds 18 1013 77 10000 2.1 350 09:18 17.06.2020
2210 Clouds 18 1013 82 7000 2.1 320 08:42 17.06.2020
2211 Clouds 18 1013 82 7000 2.1 320 08:19 17.06.2020
2212 Clouds 16 1013 93 6000 1.5 280 07:44 17.06.2020
2213 Clouds 16 1013 93 6000 1.5 280 07:23 17.06.2020
2214 Clouds 16 1013 93 6000 1.5 290 06:59 17.06.2020
2215 Clouds 15 1013 100 7000 1.5 260 06:41 17.06.2020
2216 Clouds 15 1013 100 7000 1.5 260 06:22 17.06.2020
2217 Clouds 15 1012 93 10000 2.1 290 05:49 17.06.2020
2218 Clouds 16 1013 93 10000 2.6 280 04:39 17.06.2020
2219 Clouds 17 1013 82 10000 2.1 330 02:41 17.06.2020
2220 Clouds 17 1013 82 10000 3.1 350 01:20 17.06.2020
2221 Clouds 17 1014 82 10000 2.1 330 00:37 17.06.2020
2222 Clouds 17 1014 82 10000 2.1 330 00:18 17.06.2020
2223 Clouds 18 1013 88 10000 3.1 290 23:41 16.06.2020
2224 Clouds 18 1013 88 10000 3.1 290 23:23 16.06.2020
2225 Clouds 18 1013 93 10000 1.5 270 22:58 16.06.2020
2226 Rain 19 1013 94 10000 1.5 180 22:39 16.06.2020
2227 Rain 20 1013 94 10000 1.5 180 22:19 16.06.2020
2228 Rain 18 1014 93 6000 2.1 140 21:58 16.06.2020
2229 Rain 19 1014 88 10000 5.1 150 21:40 16.06.2020
2230 Rain 21 1014 88 10000 5.1 150 21:21 16.06.2020
2231 Thunderstorm 22 1013 64 10000 4.6 320 20:55 16.06.2020
2232 Rain 21 1013 64 10000 4.6 20 20:36 16.06.2020
2233 Rain 23 1013 64 10000 4.6 20 20:18 16.06.2020
2234 Rain 22 1012 57 10000 4.6 320 19:56 16.06.2020
2235 Clouds 22 1013 57 10000 4.6 330 19:37 16.06.2020
2236 Clouds 22 1013 57 10000 4.6 330 19:18 16.06.2020
2237 Clouds 24 1013 53 10000 4.6 310 18:41 16.06.2020
2238 Clouds 25 1013 53 10000 4.6 310 18:21 16.06.2020
2239 Clouds 24 1013 53 10000 4.6 310 17:58 16.06.2020
2240 Clouds 24 1013 53 10000 4.6 310 17:38 16.06.2020
2241 Clouds 24 1013 53 10000 4.6 310 17:20 16.06.2020
2242 Clouds 25 1013 53 10000 3.6 300 16:58 16.06.2020
2243 Clouds 25 1013 53 10000 3.6 310 16:39 16.06.2020
2244 Clouds 25 1013 53 10000 3.6 310 16:19 16.06.2020
2245 Clouds 25 1013 53 10000 3.6 310 16:19 16.06.2020
2246 Clouds 25 1014 53 10000 4.1 290 15:56 16.06.2020
2247 Clouds 24 1014 53 10000 3.1 0 15:38 16.06.2020
2248 Clouds 24 1014 53 10000 3.1 0 15:20 16.06.2020
2249 Clouds 24 1014 53 10000 3.1 300 14:55 16.06.2020
2250 Clouds 24 1014 53 10000 3.6 270 14:36 16.06.2020
2251 Clouds 24 1014 53 10000 3.6 270 14:18 16.06.2020
2252 Clouds 23 1014 60 10000 3.6 290 13:44 16.06.2020
2253 Clouds 23 1014 60 10000 3.6 290 13:24 16.06.2020
2254 Clouds 23 1014 60 10000 3.6 290 13:24 16.06.2020
2255 Clouds 23 1015 56 10000 3.1 320 12:42 16.06.2020
2256 Clouds 23 1015 56 10000 3.1 320 12:22 16.06.2020
2257 Clouds 23 1015 60 10000 3.6 300 11:57 16.06.2020
2258 Clouds 22 1015 68 10000 3.1 300 11:39 16.06.2020
2259 Clouds 22 1015 68 10000 3.1 300 11:21 16.06.2020
2260 Clouds 22 1015 68 10000 4.1 300 10:58 16.06.2020
2261 Clouds 22 1015 68 10000 3.1 290 10:38 16.06.2020
2262 Clouds 22 1015 68 10000 3.1 290 10:20 16.06.2020
2263 Clouds 21 1015 68 10000 2.6 290 09:45 16.06.2020
2264 Clear 18 1015 68 10000 2.1 290 09:23 16.06.2020
2265 Clouds 18 1015 72 10000 2.6 310 08:53 16.06.2020
2266 Clouds 18 1015 72 10000 2.6 330 08:33 16.06.2020
2267 Clouds 18 1015 88 10000 2.1 280 07:52 16.06.2020
2268 Clouds 18 1015 77 10000 1.5 300 07:30 16.06.2020
2269 Clouds 16 1015 82 10000 2.6 320 06:57 16.06.2020
2270 Clouds 16 1015 88 10000 3.1 310 06:34 16.06.2020
2271 Clouds 16 1015 88 10000 2.6 310 05:52 16.06.2020
2272 Clouds 16 1015 93 10000 2.1 240 04:58 16.06.2020
2273 Clouds 16 1015 93 10000 2.1 260 04:25 16.06.2020
2274 Clouds 17 1015 77 10000 1.5 320 02:46 16.06.2020
2275 Clear 18 1016 72 10000 2.6 330 01:34 16.06.2020
2276 Clear 17 1016 82 10000 2.6 330 00:58 16.06.2020
2277 Clear 17 1016 88 10000 2.6 300 00:27 16.06.2020
2278 Clear 17 1016 88 10000 2.6 290 23:59 15.06.2020
2279 Clear 18 1016 88 10000 3.1 300 23:41 15.06.2020
2280 Clear 18 1016 88 10000 3.1 300 23:21 15.06.2020
2281 Clear 18 1015 88 10000 2.6 270 22:42 15.06.2020
2282 Clear 18 1015 88 10000 2.6 270 22:42 15.06.2020
2283 Clear 18 1015 88 10000 2.6 270 22:23 15.06.2020
2284 Clear 20 1015 82 10000 3.6 280 21:59 15.06.2020
2285 Clouds 20 1015 77 10000 4.1 280 21:38 15.06.2020
2286 Clouds 21 1015 77 10000 4.1 280 21:20 15.06.2020
2287 Clouds 21 1015 77 10000 4.6 280 20:59 15.06.2020
2288 Clouds 21 1015 77 10000 4.6 280 20:59 15.06.2020
2289 Clouds 22 1015 73 10000 5.1 280 20:39 15.06.2020
2290 Clouds 21 1015 73 10000 5.1 280 20:20 15.06.2020
2291 Clouds 21 1015 73 10000 5.7 270 20:00 15.06.2020
2292 Clouds 22 1015 69 10000 5.1 290 19:40 15.06.2020
2293 Clouds 22 1015 69 10000 5.1 290 19:22 15.06.2020
2294 Clouds 22 1015 69 10000 4.6 290 18:58 15.06.2020
2295 Clouds 23 1015 64 10000 4.6 280 18:40 15.06.2020
2296 Clouds 23 1015 64 10000 4.6 280 18:21 15.06.2020
2297 Clouds 23 1015 64 10000 4.6 270 17:58 15.06.2020
2298 Clouds 22 1015 69 10000 5.1 250 17:40 15.06.2020
2299 Clouds 24 1015 69 10000 5.1 250 17:19 15.06.2020
2300 Clouds 24 1015 64 10000 5.7 250 16:56 15.06.2020
2301 Clouds 24 1014 64 10000 3.1 230 16:38 15.06.2020
2302 Clouds 24 1014 64 10000 3.1 230 16:18 15.06.2020
2303 Clouds 24 1015 53 10000 1.5 0 15:41 15.06.2020
2304 Clouds 24 1015 53 10000 1.5 0 15:20 15.06.2020
2305 Clouds 24 1015 53 10000 1.5 0 14:58 15.06.2020
2306 Clouds 23 1015 56 10000 2.6 300 14:40 15.06.2020
2307 Clouds 23 1015 56 10000 2.6 300 14:19 15.06.2020
2308 Clouds 24 1015 56 10000 1 0 13:56 15.06.2020
2309 Clouds 23 1015 60 10000 1 0 13:38 15.06.2020
2310 Clouds 23 1015 60 10000 1 0 13:18 15.06.2020
2311 Clouds 23 1015 60 10000 1.5 0 12:43 15.06.2020
2312 Clouds 21 1015 60 10000 1.5 0 12:22 15.06.2020
2313 Clouds 20 1015 64 10000 1.5 0 11:58 15.06.2020
2314 Clouds 21 1015 68 10000 1.5 120 11:40 15.06.2020
2315 Clouds 20 1015 68 10000 1.5 120 11:22 15.06.2020
2316 Clouds 19 1015 72 10000 1.5 50 10:42 15.06.2020
2317 Clouds 19 1015 72 10000 1.5 50 10:22 15.06.2020
2318 Clouds 18 1015 77 10000 2.6 70 09:45 15.06.2020
2319 Clouds 16 1015 77 10000 2.6 70 09:23 15.06.2020
2320 Clouds 16 1015 77 10000 2.1 60 08:56 15.06.2020
2321 Clouds 16 1014 77 10000 2.1 30 08:37 15.06.2020
2322 Clouds 16 1014 77 10000 2.1 30 08:18 15.06.2020
2323 Clouds 16 1014 77 10000 2.1 30 07:41 15.06.2020
2324 Clouds 16 1014 77 10000 2.1 30 07:20 15.06.2020
2325 Clouds 15 1014 77 10000 2.1 50 06:38 15.06.2020
2326 Clouds 15 1014 77 10000 2.1 50 06:19 15.06.2020
2327 Clouds 15 1013 87 10000 2.1 50 05:39 15.06.2020
2328 Clouds 15 1013 87 10000 2.1 50 05:20 15.06.2020
2329 Clouds 15 1013 82 10000 2.6 50 04:18 15.06.2020
2330 Clouds 15 1014 87 10000 2.6 50 03:37 15.06.2020
2331 Clouds 15 1013 87 10000 2.6 50 02:34 15.06.2020
2332 Clouds 16 1013 87 10000 3.1 50 01:53 15.06.2020
2333 Clouds 16 1013 88 10000 3.6 60 01:31 15.06.2020
2334 Clouds 16 1013 88 10000 3.1 50 00:58 15.06.2020
2335 Clouds 17 1013 88 10000 3.6 30 00:39 15.06.2020
2336 Clouds 17 1013 88 10000 3.6 30 00:19 15.06.2020
2337 Mist 18 1013 100 4500 3.1 360 23:46 14.06.2020
2338 Rain 18 1013 100 4500 2.6 360 23:24 14.06.2020
2339 Rain 18 1013 100 4500 2.1 360 22:58 14.06.2020
2340 Rain 18 1013 100 4500 1.5 330 22:39 14.06.2020
2341 Rain 18 1013 100 4500 1.5 330 22:19 14.06.2020
2342 Mist 18 1013 100 4500 1.5 340 21:57 14.06.2020
2343 Mist 18 1013 100 4500 2.1 20 21:38 14.06.2020
2344 Mist 18 1013 100 4500 2.1 20 21:19 14.06.2020
2345 Mist 18 1013 100 4500 2.1 20 21:19 14.06.2020
2346 Mist 18 1013 100 5000 1.5 30 20:58 14.06.2020
2347 Mist 18 1013 100 4500 1 0 20:38 14.06.2020
2348 Mist 18 1013 100 4500 1 0 20:20 14.06.2020
2349 Rain 18 1013 100 4800 2.1 60 19:59 14.06.2020
2350 Rain 18 1013 100 4500 2.6 50 19:38 14.06.2020
2351 Rain 18 1013 100 4500 2.6 50 19:19 14.06.2020
2352 Rain 19 1013 93 4500 2.6 60 18:57 14.06.2020
2353 Rain 19 1013 93 4500 2.6 60 18:57 14.06.2020
2354 Rain 18 1013 100 4500 3.1 60 18:38 14.06.2020
2355 Rain 18 1013 100 4500 3.1 60 18:20 14.06.2020
2356 Rain 19 1013 88 8000 3.1 60 17:57 14.06.2020
2357 Clouds 19 1013 88 10000 4.1 50 17:38 14.06.2020
2358 Clouds 19 1013 88 10000 4.1 50 17:19 14.06.2020
2359 Clouds 20 1013 82 10000 4.1 40 16:41 14.06.2020
2360 Clouds 20 1013 82 10000 4.1 40 16:21 14.06.2020
2361 Clouds 19 1013 82 10000 3.6 30 15:59 14.06.2020
2362 Clouds 19 1013 82 10000 2.1 30 15:40 14.06.2020
2363 Clouds 19 1013 82 10000 2.1 30 15:19 14.06.2020
2364 Clouds 18 1013 88 10000 2.6 30 14:59 14.06.2020
2365 Clouds 18 1014 88 10000 2.6 50 14:40 14.06.2020
2366 Clouds 18 1014 88 10000 2.6 50 14:21 14.06.2020
2367 Clouds 18 1014 88 9000 3.1 50 13:56 14.06.2020
2368 Clouds 18 1014 88 9000 3.6 50 13:38 14.06.2020
2369 Clouds 18 1014 88 9000 3.6 50 13:19 14.06.2020
2370 Clouds 17 1014 93 8000 4.1 50 12:55 14.06.2020
2371 Drizzle 17 1013 93 6000 3.1 50 12:37 14.06.2020
2372 Drizzle 18 1013 93 6000 3.1 50 12:18 14.06.2020
2373 Rain 18 1013 93 9000 2.6 30 11:56 14.06.2020
2374 Clouds 18 1013 88 10000 3.1 30 11:37 14.06.2020
2375 Clouds 18 1013 88 10000 3.1 30 11:18 14.06.2020
2376 Clouds 18 1012 93 10000 2.6 30 10:42 14.06.2020
2377 Clouds 18 1012 93 10000 2.6 30 10:19 14.06.2020
2378 Rain 18 1012 93 10000 2.1 30 09:45 14.06.2020
2379 Rain 18 1012 93 10000 2.1 10 09:25 14.06.2020
2380 Clouds 18 1012 88 10000 3.1 30 08:57 14.06.2020
2381 Clouds 18 1012 93 10000 3.1 40 08:39 14.06.2020
2382 Rain 18 1012 93 10000 3.1 40 08:18 14.06.2020
2383 Rain 18 1012 93 10000 2.1 50 07:50 14.06.2020
2384 Clouds 18 1012 93 10000 2.1 50 07:32 14.06.2020
2385 Rain 17 1012 93 9000 3.6 70 06:31 14.06.2020
2386 Rain 17 1012 93 9000 4.6 70 05:43 14.06.2020
2387 Rain 18 1012 93 10000 5.1 70 04:55 14.06.2020
2388 Clouds 18 1011 93 10000 4.1 60 04:30 14.06.2020
2389 Rain 18 1011 93 10000 3.1 70 03:23 14.06.2020
2390 Clouds 19 1011 88 10000 4.6 60 02:30 14.06.2020
2391 Clouds 19 1012 88 10000 4.6 80 01:42 14.06.2020
2392 Rain 19 1012 88 10000 4.6 80 01:18 14.06.2020
2393 Rain 19 1013 88 10000 0.5 0 00:38 14.06.2020
2394 Rain 19 1013 88 10000 0.5 0 00:19 14.06.2020
2395 Rain 19 1013 88 10000 2.1 220 23:43 13.06.2020
2396 Rain 19 1013 88 10000 2.1 220 23:24 13.06.2020
2397 Clouds 19 1013 82 10000 1 0 22:57 13.06.2020
2398 Thunderstorm 20 1013 77 10000 4.1 230 22:37 13.06.2020
2399 Thunderstorm 20 1013 77 10000 4.1 230 22:18 13.06.2020
2400 Thunderstorm 21 1012 73 10000 5.7 70 21:56 13.06.2020
2401 Clouds 21 1011 78 10000 6.2 60 21:37 13.06.2020
2402 Clouds 22 1011 78 10000 6.2 60 21:19 13.06.2020
2403 Clouds 22 1011 73 10000 7.7 70 20:42 13.06.2020
2404 Clouds 22 1011 73 10000 7.7 70 20:42 13.06.2020
2405 Clouds 23 1011 73 10000 7.7 70 20:19 13.06.2020
2406 Clouds 24 1010 69 10000 9.8 80 19:57 13.06.2020
2407 Clouds 24 1010 69 10000 7.7 60 19:36 13.06.2020
2408 Clouds 24 1010 69 10000 7.7 60 19:18 13.06.2020
2409 Clouds 24 1010 73 10000 8.2 60 18:55 13.06.2020
2410 Clouds 25 1010 69 10000 7.7 50 18:37 13.06.2020
2411 Clouds 25 1010 69 10000 7.7 50 18:18 13.06.2020
2412 Clouds 27 1010 65 10000 5.7 60 17:42 13.06.2020
2413 Clouds 27 1010 65 10000 5.7 60 17:23 13.06.2020
2414 Clouds 27 1010 65 10000 4.6 50 16:58 13.06.2020
2415 Clouds 27 1010 65 10000 4.6 50 16:40 13.06.2020
2416 Clouds 27 1010 65 10000 4.6 50 16:19 13.06.2020
2417 Clouds 27 1010 65 10000 4.6 70 15:58 13.06.2020
2418 Clouds 27 1010 61 10000 3.6 70 15:39 13.06.2020
2419 Clouds 26 1010 61 10000 3.6 70 15:20 13.06.2020
2420 Clouds 26 1010 61 10000 3.6 70 15:20 13.06.2020
2421 Clouds 26 1010 61 10000 2.6 80 14:43 13.06.2020
2422 Clouds 26 1010 61 10000 2.6 80 14:22 13.06.2020
2423 Clouds 24 1011 65 10000 3.1 110 13:56 13.06.2020
2424 Clouds 24 1011 65 10000 3.6 100 13:37 13.06.2020
2425 Clouds 24 1011 65 10000 3.6 100 13:18 13.06.2020
2426 Clouds 23 1011 73 10000 4.1 60 12:42 13.06.2020
2427 Clouds 24 1011 73 10000 4.1 60 12:24 13.06.2020
2428 Clouds 23 1011 73 10000 3.1 60 11:55 13.06.2020
2429 Clouds 20 1011 78 10000 3.1 80 11:37 13.06.2020
2430 Clouds 20 1011 78 10000 3.1 80 11:18 13.06.2020
2431 Clouds 20 1011 83 10000 2.6 90 10:49 13.06.2020
2432 Clouds 20 1011 82 10000 3.1 80 10:27 13.06.2020
2433 Clouds 19 1011 88 10000 3.1 90 09:56 13.06.2020
2434 Clouds 19 1011 88 10000 3.1 80 09:38 13.06.2020
2435 Clouds 18 1011 88 10000 3.1 80 09:19 13.06.2020
2436 Clouds 18 1011 88 10000 2.6 100 08:45 13.06.2020
2437 Clouds 17 1011 93 9000 4.6 80 08:26 13.06.2020
2438 Clouds 16 1010 93 8000 4.1 70 07:45 13.06.2020
2439 Clouds 16 1010 93 8000 4.1 70 07:27 13.06.2020
2440 Clouds 16 1010 93 8000 4.6 60 06:45 13.06.2020
2441 Clouds 16 1010 93 8000 4.6 60 06:26 13.06.2020
2442 Clouds 16 1010 93 10000 4.6 70 05:33 13.06.2020
2443 Clouds 16 1010 100 10000 4.1 70 04:46 13.06.2020
2444 Rain 17 1010 93 10000 3.1 70 03:46 13.06.2020
2445 Clouds 18 1010 93 10000 4.6 60 02:53 13.06.2020
2446 Clear 18 1010 88 10000 4.6 70 02:24 13.06.2020
2447 Clear 19 1010 88 10000 4.6 60 01:26 13.06.2020
2448 Clear 19 1010 82 10000 5.1 70 00:58 13.06.2020
2449 Clear 20 1010 82 10000 5.1 60 00:38 13.06.2020
2450 Clear 20 1010 82 10000 5.1 60 00:19 13.06.2020
2451 Clear 20 1009 77 10000 4.6 70 23:40 12.06.2020
2452 Clear 21 1009 77 10000 4.6 70 23:19 12.06.2020
2453 Clear 21 1009 73 10000 3.6 60 22:56 12.06.2020
2454 Clear 20 1009 77 10000 2.6 70 22:38 12.06.2020
2455 Clear 22 1009 68 10000 3.1 80 22:18 12.06.2020
2456 Clear 23 1009 60 10000 3.6 90 21:44 12.06.2020
2457 Clear 23 1009 60 10000 3.6 90 21:24 12.06.2020
2458 Clear 24 1009 60 10000 3.6 110 20:58 12.06.2020
2459 Clear 24 1009 57 10000 5.1 100 20:39 12.06.2020
2460 Clear 24 1009 57 10000 5.1 100 20:21 12.06.2020
2461 Clouds 25 1009 57 10000 4.6 110 19:47 12.06.2020
2462 Clouds 25 1009 57 10000 5.7 90 19:22 12.06.2020
2463 Clouds 25 1009 57 10000 5.7 90 19:22 12.06.2020
2464 Clouds 25 1009 57 10000 5.7 90 19:00 12.06.2020
2465 Clouds 25 1009 57 10000 5.7 120 18:37 12.06.2020
2466 Clouds 25 1009 57 10000 5.7 120 18:37 12.06.2020
2467 Clouds 25 1009 57 10000 5.7 120 18:18 12.06.2020
2468 Clouds 24 1009 64 10000 5.1 100 17:45 12.06.2020
2469 Clouds 24 1009 64 10000 5.1 100 17:26 12.06.2020
2470 Clouds 24 1009 69 10000 5.1 120 16:58 12.06.2020
2471 Clouds 24 1009 68 10000 5.7 110 16:40 12.06.2020
2472 Clouds 24 1009 68 10000 5.7 110 16:19 12.06.2020
2473 Clouds 23 1010 73 10000 6.2 90 15:45 12.06.2020
2474 Clouds 23 1010 73 10000 6.2 90 15:20 12.06.2020
2475 Clouds 21 1010 77 10000 4.6 100 14:55 12.06.2020
2476 Clouds 21 1010 77 9000 4.6 90 14:36 12.06.2020
2477 Clouds 21 1010 77 9000 4.6 90 14:18 12.06.2020
2478 Clouds 20 1011 82 9000 4.6 100 13:41 12.06.2020
2479 Clouds 20 1011 82 9000 4.6 100 13:20 12.06.2020
2480 Clouds 19 1011 82 9000 4.1 100 12:40 12.06.2020
2481 Clouds 19 1011 82 9000 4.1 100 12:20 12.06.2020
2482 Clouds 18 1011 82 9000 3.6 120 11:58 12.06.2020
2483 Clouds 18 1011 82 8000 4.6 130 11:38 12.06.2020
2484 Clouds 18 1011 82 8000 4.6 130 11:19 12.06.2020
2485 Clouds 17 1011 88 7000 4.1 120 10:45 12.06.2020
2486 Clouds 17 1011 88 7000 3.6 110 10:24 12.06.2020
2487 Clouds 16 1011 93 6000 3.1 120 09:46 12.06.2020
2488 Mist 16 1011 100 4800 3.1 110 09:21 12.06.2020
2489 Mist 16 1011 100 1800 3.1 90 08:45 12.06.2020
2490 Mist 16 1011 100 1800 3.1 90 08:25 12.06.2020
2491 Mist 15 1011 93 1800 3.1 80 07:56 12.06.2020
2492 Mist 15 1011 93 3100 3.1 80 07:38 12.06.2020
2493 Mist 15 1011 93 3100 3.1 80 07:19 12.06.2020
2494 Mist 15 1011 100 3800 2.6 60 06:31 12.06.2020
2495 Mist 15 1010 100 4000 2.6 60 05:57 12.06.2020
2496 Clouds 15 1011 100 6000 3.1 40 05:38 12.06.2020
2497 Clouds 15 1011 100 6000 3.1 40 05:19 12.06.2020
2498 Clouds 16 1011 93 10000 3.6 40 03:43 12.06.2020
2499 Clouds 16 1012 93 10000 3.6 60 01:58 12.06.2020
2500 Clouds 16 1012 93 10000 3.1 50 01:32 12.06.2020
2501 Clouds 16 1012 93 10000 3.1 40 00:57 12.06.2020
2502 Clouds 16 1012 93 10000 2.6 50 00:38 12.06.2020
2503 Clouds 16 1012 93 10000 2.6 50 00:19 12.06.2020
2504 Clouds 16 1012 100 10000 2.6 40 23:56 11.06.2020
2505 Clouds 16 1012 100 9000 2.1 40 23:36 11.06.2020
2506 Clouds 16 1012 100 9000 2.1 40 23:18 11.06.2020
2507 Drizzle 16 1012 100 6000 3.1 50 22:40 11.06.2020
2508 Drizzle 16 1012 100 6000 3.1 50 22:21 11.06.2020
2509 Clouds 16 1012 100 8000 2.1 50 21:57 11.06.2020
2510 Clouds 16 1012 100 8000 2.6 60 21:38 11.06.2020
2511 Clouds 16 1012 100 8000 2.6 60 21:20 11.06.2020
2512 Clouds 16 1012 100 7000 3.1 60 20:56 11.06.2020
2513 Clouds 16 1012 100 6000 3.6 70 20:38 11.06.2020
2514 Clouds 16 1012 100 6000 3.6 70 20:20 11.06.2020
2515 Drizzle 16 1011 93 3300 4.6 70 19:42 11.06.2020
2516 Drizzle 16 1011 93 3300 4.6 70 19:22 11.06.2020
2517 Drizzle 16 1011 100 1800 4.1 50 18:44 11.06.2020
2518 Mist 16 1011 100 1800 4.1 70 18:26 11.06.2020
2519 Drizzle 16 1011 100 2000 4.6 60 17:59 11.06.2020
2520 Drizzle 16 1011 100 2000 4.6 60 17:39 11.06.2020
2521 Drizzle 16 1011 100 2800 2.6 60 17:20 11.06.2020
2522 Drizzle 16 1011 100 2800 2.6 60 17:20 11.06.2020
2523 Rain 16 1011 100 10000 3.6 70 16:59 11.06.2020
2524 Rain 16 1011 100 10000 3.6 70 16:41 11.06.2020
2525 Rain 16 1011 93 10000 2.6 60 16:23 11.06.2020
2526 Rain 16 1011 88 9000 3.6 70 15:57 11.06.2020
2527 Rain 16 1011 88 9000 3.6 70 15:38 11.06.2020
2528 Rain 16 1012 93 10000 3.6 80 15:20 11.06.2020
2529 Rain 16 1012 93 10000 3.1 70 14:44 11.06.2020
2530 Rain 16 1012 93 10000 3.1 70 14:21 11.06.2020
2531 Rain 16 1012 93 10000 2.1 60 13:57 11.06.2020
2532 Rain 16 1012 93 10000 2.1 60 13:39 11.06.2020
2533 Rain 16 1012 93 10000 2.6 70 13:20 11.06.2020
2534 Rain 16 1012 93 10000 3.1 60 12:56 11.06.2020
2535 Rain 15 1012 93 10000 3.1 60 12:38 11.06.2020
2536 Rain 15 1012 93 4500 1.5 50 12:19 11.06.2020
2537 Drizzle 15 1012 93 8000 2.1 50 11:57 11.06.2020
2538 Drizzle 15 1012 93 8000 2.1 50 11:38 11.06.2020
2539 Drizzle 15 1012 93 8000 2.1 50 11:38 11.06.2020
2540 Rain 15 1012 93 5000 2.6 50 11:20 11.06.2020
2541 Drizzle 15 1012 100 5000 2.6 50 10:57 11.06.2020
2542 Drizzle 15 1012 100 5000 2.6 50 10:38 11.06.2020
2543 Drizzle 15 1012 93 4500 3.1 40 10:18 11.06.2020
2544 Drizzle 15 1012 93 10000 2.6 60 09:42 11.06.2020
2545 Rain 14 1012 93 10000 2.6 50 09:23 11.06.2020
2546 Rain 15 1012 93 10000 3.1 60 08:44 11.06.2020
2547 Rain 15 1012 87 9000 3.6 50 08:20 11.06.2020
2548 Rain 15 1012 87 10000 3.1 50 07:57 11.06.2020
2549 Rain 15 1012 87 10000 3.1 50 07:39 11.06.2020
2550 Clouds 15 1012 87 10000 2.6 50 07:20 11.06.2020
2551 Clouds 14 1012 93 10000 2.1 40 06:28 11.06.2020
2552 Clouds 14 1012 93 10000 2.6 30 05:36 11.06.2020
2553 Clouds 14 1013 87 10000 3.1 10 03:54 11.06.2020
2554 Clouds 14 1013 87 10000 4.6 10 03:23 11.06.2020
2555 Rain 15 1014 87 10000 5.7 20 02:32 11.06.2020
2556 Clouds 16 1014 59 10000 4.6 20 01:51 11.06.2020
2557 Clouds 16 1014 59 10000 3.6 20 01:25 11.06.2020
2558 Clouds 16 1014 51 10000 3.1 40 00:50 11.06.2020
2559 Clouds 16 1014 51 10000 4.1 40 00:29 11.06.2020
2560 Clouds 16 1014 48 10000 3.6 40 23:47 10.06.2020
2561 Clouds 16 1014 48 10000 4.1 50 23:27 10.06.2020
2562 Clouds 17 1014 42 10000 5.1 40 22:59 10.06.2020
2563 Clouds 17 1014 42 10000 5.1 40 22:38 10.06.2020
2564 Clouds 17 1014 48 10000 4.6 50 22:20 10.06.2020
2565 Clouds 18 1014 45 10000 5.1 50 21:58 10.06.2020
2566 Clouds 18 1014 45 10000 5.1 50 21:58 10.06.2020
2567 Clouds 18 1014 45 10000 5.1 50 21:40 10.06.2020
2568 Clouds 19 1013 42 10000 5.7 50 21:19 10.06.2020
2569 Clouds 19 1013 42 10000 5.7 50 20:57 10.06.2020
2570 Clouds 19 1013 42 10000 5.7 50 20:39 10.06.2020
2571 Clouds 19 1014 42 10000 6.7 40 20:21 10.06.2020
2572 Clouds 19 1014 42 10000 6.7 40 20:21 10.06.2020
2573 Clouds 21 1014 43 10000 7.2 50 19:56 10.06.2020
2574 Clouds 21 1014 43 10000 7.2 50 19:37 10.06.2020
2575 Clouds 21 1014 42 10000 4.6 50 19:18 10.06.2020
2576 Clouds 20 1014 40 10000 5.1 50 18:42 10.06.2020
2577 Rain 20 1014 43 10000 5.1 50 18:20 10.06.2020
2578 Rain 20 1014 43 10000 4.6 60 17:59 10.06.2020
2579 Rain 20 1014 43 10000 4.6 60 17:41 10.06.2020
2580 Rain 20 1014 43 10000 4.6 60 17:20 10.06.2020
2581 Rain 21 1014 43 10000 3.6 50 16:58 10.06.2020
2582 Rain 20 1014 43 10000 3.6 50 16:40 10.06.2020
2583 Rain 20 1015 46 10000 3.6 60 16:20 10.06.2020
2584 Rain 21 1015 46 10000 4.6 20 15:57 10.06.2020
2585 Rain 21 1015 46 10000 4.6 20 15:37 10.06.2020
2586 Clouds 21 1015 52 10000 4.1 40 15:19 10.06.2020
2587 Clouds 21 1015 56 10000 4.1 40 14:40 10.06.2020
2588 Clouds 21 1015 52 10000 3.1 60 14:21 10.06.2020
2589 Clouds 20 1015 52 10000 4.1 50 13:57 10.06.2020
2590 Clouds 20 1015 52 10000 4.1 50 13:39 10.06.2020
2591 Clouds 20 1016 55 10000 2.6 30 13:21 10.06.2020
2592 Clouds 20 1016 59 10000 3.1 20 12:41 10.06.2020
2593 Clouds 19 1016 59 10000 3.1 60 12:19 10.06.2020
2594 Clouds 18 1017 63 10000 2.6 40 11:56 10.06.2020
2595 Clouds 19 1017 63 10000 2.6 40 11:38 10.06.2020
2596 Clouds 17 1017 72 10000 2.6 60 11:19 10.06.2020
2597 Rain 17 1017 72 10000 2.1 60 10:44 10.06.2020
2598 Clouds 16 1017 72 10000 2.1 40 10:25 10.06.2020
2599 Rain 14 1017 76 10000 3.1 30 09:59 10.06.2020
2600 Rain 14 1017 76 10000 3.1 30 09:39 10.06.2020
2601 Rain 13 1017 82 10000 2.6 30 09:21 10.06.2020
2602 Rain 13 1017 82 10000 2.6 40 08:44 10.06.2020
2603 Rain 12 1017 87 10000 3.1 30 08:23 10.06.2020
2604 Rain 12 1017 81 10000 3.1 40 07:43 10.06.2020
2605 Rain 12 1017 81 10000 3.1 20 07:24 10.06.2020
2606 Clouds 12 1017 81 10000 3.6 30 06:59 10.06.2020
2607 Clouds 12 1017 81 10000 3.6 30 06:40 10.06.2020
2608 Rain 12 1017 81 10000 3.1 10 06:19 10.06.2020
2609 Rain 12 1017 81 10000 3.1 10 05:54 10.06.2020
2610 Rain 12 1017 76 10000 2.6 360 05:19 10.06.2020
2611 Rain 12 1017 76 10000 2.6 10 04:30 10.06.2020
2612 Clouds 12 1018 76 10000 4.1 360 02:50 10.06.2020
2613 Clouds 12 1018 76 10000 3.6 360 01:54 10.06.2020
2614 Clouds 12 1018 71 10000 3.6 360 01:31 10.06.2020
2615 Clouds 12 1019 71 10000 3.1 350 00:39 10.06.2020
2616 Clouds 12 1019 66 10000 3.6 360 00:21 10.06.2020
2617 Clouds 12 1019 62 10000 3.6 10 23:55 09.06.2020
2618 Clouds 13 1019 62 10000 3.6 10 23:37 09.06.2020
2619 Clouds 12 1018 62 10000 4.1 340 23:18 09.06.2020
2620 Clouds 13 1018 62 10000 5.1 350 22:55 09.06.2020
2621 Clouds 13 1018 62 10000 5.1 350 22:36 09.06.2020
2622 Clouds 14 1018 58 10000 4.6 350 22:18 09.06.2020
2623 Clouds 14 1018 58 10000 5.7 340 21:55 09.06.2020
2624 Clouds 14 1018 58 10000 5.7 340 21:36 09.06.2020
2625 Clouds 15 1018 54 10000 5.1 330 21:18 09.06.2020
2626 Clouds 15 1018 55 10000 5.1 330 20:55 09.06.2020
2627 Clouds 16 1018 55 10000 5.1 330 20:37 09.06.2020
2628 Clouds 17 1018 51 10000 5.7 340 20:18 09.06.2020
2629 Clouds 17 1017 51 10000 6.2 350 19:55 09.06.2020
2630 Clouds 17 1017 51 10000 6.2 350 19:36 09.06.2020
2631 Clouds 17 1017 55 10000 5.7 340 19:18 09.06.2020
2632 Clouds 17 1017 55 10000 6.2 340 18:44 09.06.2020
2633 Clouds 18 1017 55 10000 5.1 350 18:25 09.06.2020
2634 Clouds 18 1018 55 10000 6.2 10 17:57 09.06.2020
2635 Clouds 18 1018 55 10000 6.2 10 17:39 09.06.2020
2636 Clouds 19 1018 55 10000 4.6 360 17:21 09.06.2020
2637 Clouds 19 1018 55 10000 4.6 20 16:56 09.06.2020
2638 Clouds 19 1018 55 10000 4.6 20 16:37 09.06.2020
2639 Clouds 19 1018 55 10000 4.6 360 16:19 09.06.2020
2640 Clouds 19 1018 55 10000 3.6 10 15:40 09.06.2020
2641 Clouds 18 1018 59 10000 4.1 10 15:21 09.06.2020
2642 Clouds 18 1018 59 10000 4.1 360 14:57 09.06.2020
2643 Clouds 18 1018 59 10000 4.1 360 14:39 09.06.2020
2644 Clouds 18 1018 59 10000 4.6 360 14:19 09.06.2020
2645 Clouds 17 1019 63 10000 4.1 30 13:54 09.06.2020
2646 Clouds 17 1019 63 10000 4.1 30 13:36 09.06.2020
2647 Clouds 17 1019 63 10000 4.6 20 13:18 09.06.2020
2648 Clouds 16 1019 62 10000 4.6 360 12:42 09.06.2020
2649 Clouds 15 1019 67 10000 4.6 20 12:20 09.06.2020
2650 Clouds 15 1019 62 10000 4.1 10 11:58 09.06.2020
2651 Clouds 15 1019 62 10000 4.1 10 11:40 09.06.2020
2652 Clouds 14 1019 66 10000 4.1 360 11:20 09.06.2020
2653 Clouds 14 1019 71 10000 3.1 10 10:55 09.06.2020
2654 Clouds 14 1019 71 10000 3.1 10 10:36 09.06.2020
2655 Clouds 14 1019 71 10000 4.1 30 10:18 09.06.2020
2656 Clouds 13 1019 71 10000 4.1 30 09:41 09.06.2020
2657 Clouds 13 1018 71 10000 4.1 30 09:22 09.06.2020
2658 Clouds 12 1018 71 10000 3.1 20 08:55 09.06.2020
2659 Clouds 12 1018 71 10000 3.1 20 08:37 09.06.2020
2660 Clouds 11 1018 76 10000 4.1 20 08:19 09.06.2020
2661 Clouds 11 1018 76 10000 4.6 30 07:37 09.06.2020
2662 Clouds 11 1018 76 10000 4.1 10 07:19 09.06.2020
2663 Rain 11 1017 76 10000 3.1 10 06:52 09.06.2020
2664 Clouds 11 1017 76 10000 3.6 30 06:33 09.06.2020
2665 Clouds 11 1017 76 10000 4.6 10 04:57 09.06.2020
2666 Clear 11 1017 81 10000 4.6 360 02:56 09.06.2020
2667 Clouds 12 1017 81 10000 4.1 360 01:41 09.06.2020
2668 Clouds 12 1017 81 10000 3.6 360 01:19 09.06.2020
2669 Clouds 13 1017 76 10000 5.7 350 00:45 09.06.2020
2670 Clouds 12 1016 76 10000 3.6 10 00:20 09.06.2020
2671 Clouds 13 1016 76 10000 4.1 350 23:58 08.06.2020
2672 Clouds 13 1016 76 10000 4.1 350 23:37 08.06.2020
2673 Clouds 13 1016 71 10000 3.6 360 23:19 08.06.2020
2674 Clouds 13 1016 76 10000 3.6 360 22:42 08.06.2020
2675 Clouds 15 1015 77 10000 3.6 330 22:22 08.06.2020
2676 Clouds 15 1015 67 10000 4.6 350 21:58 08.06.2020
2677 Clouds 15 1015 67 10000 4.6 350 21:40 08.06.2020
2678 Clouds 16 1015 67 10000 4.6 350 21:21 08.06.2020
2679 Clouds 16 1014 63 10000 3.6 20 20:57 08.06.2020
2680 Clouds 17 1014 63 10000 3.6 20 20:39 08.06.2020
2681 Clouds 17 1014 67 10000 3.1 350 20:20 08.06.2020
2682 Clouds 17 1014 72 10000 1.5 40 19:55 08.06.2020
2683 Clouds 17 1014 72 10000 1.5 40 19:37 08.06.2020
2684 Clouds 17 1014 67 10000 3.1 350 19:19 08.06.2020
2685 Clouds 17 1014 67 10000 4.1 20 18:41 08.06.2020
2686 Clouds 17 1014 63 10000 0.5 250 18:18 08.06.2020
2687 Clouds 17 1014 63 10000 1 0 17:56 08.06.2020
2688 Clouds 17 1014 63 10000 1 0 17:38 08.06.2020
2689 Clouds 18 1014 63 10000 1.5 160 17:19 08.06.2020
2690 Clouds 18 1014 63 10000 1 0 16:45 08.06.2020
2691 Clouds 18 1014 63 10000 0.5 150 16:25 08.06.2020
2692 Clouds 18 1014 63 10000 1 0 15:58 08.06.2020
2693 Clouds 18 1014 63 10000 1 0 15:40 08.06.2020
2694 Clouds 18 1014 63 10000 0.5 0 15:20 08.06.2020
2695 Clouds 17 1014 67 10000 1.5 290 14:56 08.06.2020
2696 Clouds 17 1014 67 10000 1.5 290 14:36 08.06.2020
2697 Clouds 17 1014 63 10000 2.1 280 14:18 08.06.2020
2698 Clouds 17 1014 67 10000 2.1 310 13:42 08.06.2020
2699 Clouds 17 1013 67 10000 2.1 260 13:21 08.06.2020
2700 Rain 16 1013 72 10000 1.5 230 12:42 08.06.2020
2701 Rain 15 1014 82 10000 1 0 12:19 08.06.2020
2702 Rain 15 1014 82 10000 3.6 220 11:58 08.06.2020
2703 Rain 14 1014 82 10000 3.6 220 11:39 08.06.2020
2704 Clouds 15 1013 67 10000 1 0 11:20 08.06.2020
2705 Clouds 15 1013 72 10000 2.1 230 10:56 08.06.2020
2706 Clouds 15 1013 72 10000 2.1 230 10:37 08.06.2020
2707 Clouds 15 1013 72 10000 1 0 10:19 08.06.2020
2708 Clouds 15 1013 82 10000 2.1 220 09:46 08.06.2020
2709 Clouds 14 1013 76 10000 2.1 230 09:23 08.06.2020
2710 Clouds 14 1013 76 10000 2.1 230 08:50 08.06.2020
2711 Clouds 13 1012 82 10000 2.6 250 08:24 08.06.2020
2712 Clouds 13 1012 82 10000 2.6 220 07:59 08.06.2020
2713 Clouds 13 1012 82 10000 2.6 220 07:39 08.06.2020
2714 Clouds 12 1012 82 10000 1.5 260 07:20 08.06.2020
2715 Clouds 12 1011 87 10000 0.5 0 06:39 08.06.2020
2716 Clouds 10 1011 93 10000 1 0 05:55 08.06.2020
2717 Clouds 11 1011 93 10000 1 260 05:23 08.06.2020
2718 Clouds 10 1011 93 10000 1 180 03:26 08.06.2020
2719 Clear 10 1011 93 10000 1.5 160 02:26 08.06.2020
2720 Clear 11 1011 93 10000 1 190 01:44 08.06.2020
2721 Clear 11 1011 87 10000 0.5 0 01:20 08.06.2020
2722 Clear 11 1011 87 10000 1 270 00:28 08.06.2020
2723 Clouds 11 1011 87 10000 2.6 220 23:40 07.06.2020
2724 Clouds 12 1010 87 10000 2.1 220 23:19 07.06.2020
2725 Clouds 12 1010 87 10000 1.5 210 22:58 07.06.2020
2726 Clouds 12 1010 87 10000 1.5 210 22:38 07.06.2020
2727 Clouds 13 1010 82 10000 1 270 22:19 07.06.2020
2728 Clouds 13 1010 82 10000 1.5 260 21:58 07.06.2020
2729 Clouds 13 1010 82 10000 1.5 260 21:37 07.06.2020
2730 Clear 14 1009 76 10000 2.6 280 21:19 07.06.2020
2731 Clouds 14 1009 71 10000 3.6 270 20:54 07.06.2020
2732 Clouds 14 1009 71 10000 3.6 270 20:36 07.06.2020
2733 Clouds 15 1009 67 10000 4.1 230 20:18 07.06.2020
2734 Clear 15 1008 67 10000 3.6 250 19:54 07.06.2020
2735 Clear 15 1008 67 10000 3.6 250 19:36 07.06.2020
2736 Clear 14 1008 71 10000 4.1 230 19:18 07.06.2020
2737 Clouds 14 1008 76 10000 5.7 240 18:40 07.06.2020
2738 Clouds 15 1008 62 10000 6.7 240 18:21 07.06.2020
2739 Clouds 15 1007 63 10000 6.7 230 17:58 07.06.2020
2740 Clouds 15 1007 63 10000 6.7 230 17:40 07.06.2020
2741 Clouds 15 1007 67 10000 6.2 240 17:21 07.06.2020
2742 Clouds 14 1007 76 10000 5.1 230 16:44 07.06.2020
2743 Clouds 14 1007 82 10000 5.1 220 16:22 07.06.2020
2744 Clouds 14 1006 81 10000 5.1 260 15:44 07.06.2020
2745 Rain 15 1006 76 10000 5.7 280 15:22 07.06.2020
2746 Rain 15 1006 76 10000 5.7 280 14:59 07.06.2020
2747 Rain 15 1006 76 10000 5.7 280 14:59 07.06.2020
2748 Clouds 16 1005 55 10000 6.2 210 14:36 07.06.2020
2749 Clouds 15 1005 59 10000 7.7 220 14:18 07.06.2020
2750 Clouds 16 1005 67 10000 8.7 210 13:43 07.06.2020
2751 Clouds 16 1005 67 10000 8.7 210 13:43 07.06.2020
2752 Clouds 16 1005 67 10000 8.7 210 13:43 07.06.2020
2753 Clouds 16 1005 67 10000 8.7 210 13:43 07.06.2020
2754 Clouds 15 1005 58 10000 7.7 230 13:19 07.06.2020
2755 Clouds 16 1004 58 10000 7.2 210 12:44 07.06.2020
2756 Clouds 17 1004 51 10000 8.2 200 12:25 07.06.2020
2757 Clouds 16 1004 58 10000 6.7 210 11:55 07.06.2020
2758 Clouds 16 1004 58 10000 6.7 210 11:55 07.06.2020
2759 Clouds 15 1004 58 10000 6.7 210 11:37 07.06.2020
2760 Clouds 15 1003 58 10000 6.7 210 11:19 07.06.2020
2761 Clouds 15 1003 58 10000 6.2 210 10:54 07.06.2020
2762 Clouds 16 1003 58 10000 6.2 210 10:36 07.06.2020
2763 Clouds 15 1003 58 10000 6.7 200 10:18 07.06.2020
2764 Clouds 15 1003 62 10000 6.2 210 09:54 07.06.2020
2765 Clouds 14 1003 62 10000 6.2 210 09:36 07.06.2020
2766 Clouds 13 1002 62 10000 6.2 200 09:18 07.06.2020
2767 Clouds 13 1002 62 10000 5.1 190 08:41 07.06.2020
2768 Clouds 13 1002 62 10000 5.1 190 08:41 07.06.2020
2769 Clouds 12 1002 66 10000 5.1 190 08:23 07.06.2020
2770 Clouds 12 1002 66 10000 4.1 190 07:44 07.06.2020
2771 Clouds 12 1002 71 10000 3.1 180 07:26 07.06.2020
2772 Clouds 10 1002 71 10000 4.1 170 06:25 07.06.2020
2773 Clouds 10 1001 76 10000 3.6 170 05:34 07.06.2020
2774 Clouds 10 1001 76 10000 3.1 160 04:19 07.06.2020
2775 Clear 10 1001 71 10000 3.1 190 02:30 07.06.2020
2776 Clouds 9 1001 76 10000 3.1 180 01:44 07.06.2020
2777 Clouds 10 1001 76 10000 3.1 180 01:24 07.06.2020
2778 Clouds 9 1001 76 10000 3.6 160 00:41 07.06.2020
2779 Clouds 10 1001 76 10000 3.1 170 00:18 07.06.2020
2780 Clouds 10 1001 76 10000 3.1 170 23:56 06.06.2020
2781 Clouds 10 1001 76 10000 3.1 170 23:36 06.06.2020
2782 Clouds 11 1001 71 10000 3.1 170 23:18 06.06.2020
2783 Clouds 11 1001 76 10000 3.1 170 22:55 06.06.2020
2784 Clouds 13 1001 76 10000 3.1 170 22:37 06.06.2020
2785 Clouds 14 1001 71 10000 3.1 150 22:18 06.06.2020
2786 Clouds 14 1000 62 10000 3.1 150 21:43 06.06.2020
2787 Clouds 15 1000 62 10000 2.6 170 21:22 06.06.2020
2788 Clouds 15 1000 54 10000 2.6 220 20:55 06.06.2020
2789 Clouds 15 1000 54 10000 2.6 220 20:36 06.06.2020
2790 Clouds 15 1000 58 10000 2.1 220 20:18 06.06.2020
2791 Clouds 16 1000 54 10000 3.1 200 19:56 06.06.2020
2792 Clouds 15 1000 54 10000 3.1 200 19:36 06.06.2020
2793 Clouds 16 1000 51 10000 5.1 190 19:18 06.06.2020
2794 Clouds 16 1000 54 10000 5.7 220 18:42 06.06.2020
2795 Rain 15 1000 51 10000 6.2 230 18:24 06.06.2020
2796 Clouds 15 1000 51 10000 4.6 250 17:57 06.06.2020
2797 Clouds 15 1000 51 10000 4.6 250 17:39 06.06.2020
2798 Clouds 13 1000 58 10000 5.7 270 17:18 06.06.2020
2799 Clouds 14 999 58 10000 12.9 260 16:40 06.06.2020
2800 Clouds 16 999 48 10000 6.7 210 16:21 06.06.2020
2801 Clouds 16 999 48 10000 7.2 210 15:55 06.06.2020
2802 Clouds 17 999 48 10000 7.2 210 15:37 06.06.2020
2803 Clouds 15 999 62 10000 2.1 0 15:18 06.06.2020
2804 Clouds 14 999 67 10000 3.6 0 14:40 06.06.2020
2805 Clouds 13 999 76 10000 6.7 180 14:22 06.06.2020
2806 Clouds 13 999 66 10000 8.2 190 13:55 06.06.2020
2807 Clouds 14 999 66 10000 8.2 190 13:37 06.06.2020
2808 Clouds 15 998 50 10000 6.2 230 13:18 06.06.2020
2809 Clouds 15 998 44 10000 7.2 220 12:42 06.06.2020
2810 Clouds 15 998 51 10000 7.7 230 12:23 06.06.2020
2811 Clouds 15 998 50 10000 7.7 230 11:58 06.06.2020
2812 Clouds 14 998 50 10000 7.7 230 11:38 06.06.2020
2813 Clouds 15 997 51 10000 7.7 230 11:20 06.06.2020
2814 Clouds 15 997 54 10000 7.7 230 10:58 06.06.2020
2815 Clouds 14 997 54 10000 7.7 230 10:39 06.06.2020
2816 Clouds 13 997 62 10000 8.2 220 10:21 06.06.2020
2817 Clouds 12 997 66 10000 7.2 220 09:46 06.06.2020
2818 Clouds 12 997 66 10000 7.2 220 09:27 06.06.2020
2819 Clouds 11 997 71 10000 8.2 230 08:58 06.06.2020
2820 Clouds 11 997 71 10000 8.2 230 08:40 06.06.2020
2821 Clouds 10 996 76 10000 6.7 220 08:20 06.06.2020
2822 Clouds 10 996 76 10000 5.7 220 07:45 06.06.2020
2823 Clouds 9 996 81 10000 5.7 220 07:22 06.06.2020
2824 Clouds 8 996 87 10000 4.1 210 06:48 06.06.2020
2825 Clouds 7 996 93 10000 3.6 200 06:30 06.06.2020
2826 Clouds 7 996 87 10000 3.1 200 05:58 06.06.2020
2827 Clouds 7 996 87 10000 3.1 200 05:30 06.06.2020
2828 Clouds 8 995 87 10000 4.1 210 04:46 06.06.2020
2829 Clouds 8 995 87 10000 5.7 220 03:21 06.06.2020
2830 Clouds 8 995 93 10000 4.6 220 01:58 06.06.2020
2831 Clouds 8 995 93 10000 4.1 230 01:20 06.06.2020
2832 Clouds 8 994 87 10000 5.1 230 00:47 06.06.2020
2833 Clouds 8 994 87 10000 5.1 230 00:27 06.06.2020
2834 Clouds 8 993 87 10000 6.2 240 23:59 05.06.2020
2835 Clouds 9 993 87 10000 6.2 240 23:39 05.06.2020
2836 Rain 9 993 81 10000 5.7 240 23:19 05.06.2020
2837 Clouds 9 993 81 10000 5.7 250 22:56 05.06.2020
2838 Clouds 9 993 81 10000 5.7 250 22:37 05.06.2020
2839 Clouds 9 992 81 10000 7.2 260 22:19 05.06.2020
2840 Clouds 10 991 76 10000 8.7 260 21:43 05.06.2020
2841 Rain 10 990 87 10000 7.7 240 21:23 05.06.2020
2842 Clouds 10 990 81 10000 7.7 230 20:58 05.06.2020
2843 Clouds 10 990 81 10000 7.7 230 20:39 05.06.2020
2844 Rain 10 990 87 10000 6.2 220 20:21 05.06.2020
2845 Clouds 11 989 81 10000 5.7 210 19:44 05.06.2020
2846 Clouds 11 990 81 10000 5.1 200 19:24 05.06.2020
2847 Clouds 11 990 81 10000 5.7 190 18:58 05.06.2020
2848 Clouds 11 990 81 10000 5.7 190 18:58 05.06.2020
2849 Clouds 11 990 81 10000 5.7 190 18:39 05.06.2020
2850 Clouds 11 990 81 10000 6.2 190 18:20 05.06.2020
2851 Rain 11 990 87 10000 6.7 190 17:58 05.06.2020
2852 Rain 11 990 87 10000 6.7 190 17:40 05.06.2020
2853 Rain 11 989 87 10000 7.2 170 17:19 05.06.2020
2854 Rain 13 990 71 10000 7.7 180 16:40 05.06.2020
2855 Rain 15 990 62 10000 8.7 180 16:22 05.06.2020
2856 Clouds 15 990 58 10000 8.7 160 15:57 05.06.2020
2857 Clouds 15 990 58 10000 8.7 160 15:37 05.06.2020
2858 Clouds 16 990 54 10000 7.7 170 15:19 05.06.2020
2859 Clouds 16 991 51 10000 7.7 160 14:56 05.06.2020
2860 Clouds 16 991 51 10000 7.7 160 14:38 05.06.2020
2861 Clouds 16 991 54 10000 6.2 180 14:19 05.06.2020
2862 Clouds 17 992 51 10000 7.7 190 13:43 05.06.2020
2863 Clouds 16 993 54 10000 6.7 210 13:24 05.06.2020
2864 Clouds 16 993 58 0 7.2 200 12:55 05.06.2020
2865 Clouds 15 993 58 0 7.2 200 12:37 05.06.2020
2866 Clouds 15 993 58 10000 6.2 200 12:18 05.06.2020
2867 Clouds 14 994 62 10000 5.7 210 11:42 05.06.2020
2868 Clouds 13 994 66 10000 5.1 210 11:23 05.06.2020
2869 Clouds 13 994 58 10000 6.2 210 10:57 05.06.2020
2870 Clouds 13 994 58 10000 6.2 210 10:38 05.06.2020
2871 Clouds 13 994 66 10000 5.1 210 10:19 05.06.2020
2872 Clouds 13 994 76 10000 5.1 230 09:56 05.06.2020
2873 Clouds 13 994 76 10000 5.1 230 09:37 05.06.2020
2874 Clouds 12 994 76 10000 4.6 230 09:18 05.06.2020
2875 Clouds 11 995 76 10000 5.7 240 08:56 05.06.2020
2876 Clouds 11 995 76 10000 5.7 240 08:38 05.06.2020
2877 Clouds 11 995 76 10000 5.7 240 08:38 05.06.2020
2878 Clouds 10 995 81 10000 5.1 240 08:18 05.06.2020
2879 Clouds 10 994 87 10000 5.1 240 07:44 05.06.2020
2880 Clouds 10 994 93 10000 4.6 240 07:25 05.06.2020
2881 Clouds 9 994 93 10000 4.1 250 06:36 05.06.2020
2882 Rain 10 994 93 10000 3.6 240 05:22 05.06.2020
2883 Clouds 10 994 93 10000 4.1 250 04:27 05.06.2020
2884 Clouds 10 994 93 10000 3.6 250 03:29 05.06.2020
2885 Rain 10 994 93 10000 3.6 280 02:28 05.06.2020
2886 Rain 11 994 93 10000 4.6 270 01:57 05.06.2020
2887 Rain 11 994 93 10000 3.6 270 01:30 05.06.2020
2888 Rain 11 994 93 10000 4.6 280 00:43 05.06.2020
2889 Rain 11 994 93 10000 4.6 290 00:21 05.06.2020
2890 Rain 11 994 93 10000 3.1 290 23:47 04.06.2020
2891 Rain 11 994 93 10000 4.6 290 23:29 04.06.2020
2892 Drizzle 12 993 93 3000 3.6 260 22:57 04.06.2020
2893 Drizzle 12 993 93 3000 3.6 260 22:37 04.06.2020
2894 Rain 12 993 93 10000 3.1 260 22:18 04.06.2020
2895 Rain 12 993 93 10000 3.1 280 21:56 04.06.2020
2896 Rain 12 993 93 10000 3.1 280 21:38 04.06.2020
2897 Rain 12 993 93 10000 4.1 280 21:19 04.06.2020
2898 Rain 12 993 93 10000 3.6 280 20:55 04.06.2020
2899 Rain 12 993 93 10000 3.6 280 20:37 04.06.2020
2900 Rain 12 993 93 10000 5.1 300 20:18 04.06.2020
2901 Rain 12 993 93 10000 6.7 310 19:40 04.06.2020
2902 Rain 12 993 93 10000 6.7 310 19:21 04.06.2020
2903 Rain 12 993 93 6000 6.2 310 18:57 04.06.2020
2904 Rain 12 993 93 6000 6.2 310 18:38 04.06.2020
2905 Rain 13 993 93 6000 9.3 300 18:20 04.06.2020
2906 Rain 14 992 93 9000 2.6 260 17:43 04.06.2020
2907 Rain 15 993 87 10000 2.6 290 17:22 04.06.2020
2908 Rain 15 993 87 10000 4.1 310 16:57 04.06.2020
2909 Rain 15 993 87 10000 4.1 310 16:39 04.06.2020
2910 Rain 15 992 93 4500 4.1 270 16:19 04.06.2020
2911 Rain 16 992 82 6000 3.6 290 15:44 04.06.2020
2912 Clouds 16 993 82 8000 4.6 240 15:26 04.06.2020
2913 Rain 17 993 82 7000 4.6 240 14:42 04.06.2020
2914 Clouds 16 993 87 7000 4.6 240 14:22 04.06.2020
2915 Rain 16 993 87 6000 4.1 230 13:58 04.06.2020
2916 Rain 16 993 87 6000 4.1 230 13:40 04.06.2020
2917 Rain 16 994 93 5000 4.6 240 13:20 04.06.2020
2918 Rain 16 994 93 7000 3.6 220 12:59 04.06.2020
2919 Rain 16 994 93 7000 3.6 220 12:40 04.06.2020
2920 Rain 16 994 87 7000 4.6 230 12:22 04.06.2020
2921 Rain 16 994 82 8000 5.7 220 11:55 04.06.2020
2922 Rain 16 994 82 8000 5.7 220 11:37 04.06.2020
2923 Clouds 17 994 82 8000 5.7 220 11:19 04.06.2020
2924 Clouds 18 994 77 10000 5.1 190 10:41 04.06.2020
2925 Clouds 18 994 72 10000 3.6 170 10:23 04.06.2020
2926 Clouds 18 994 72 10000 3.1 160 09:58 04.06.2020
2927 Clouds 18 994 72 10000 3.1 160 09:40 04.06.2020
2928 Clouds 16 994 77 10000 2.6 140 09:21 04.06.2020
2929 Clouds 17 994 77 10000 2.1 170 08:44 04.06.2020
2930 Clouds 15 995 82 10000 2.6 160 08:25 04.06.2020
2931 Clouds 15 995 82 10000 2.6 160 08:25 04.06.2020
2932 Clouds 15 995 82 10000 2.1 160 07:47 04.06.2020
2933 Clouds 14 995 87 10000 1.5 140 07:26 04.06.2020
2934 Clouds 14 995 87 10000 1 100 06:43 04.06.2020
2935 Clouds 13 996 87 10000 1 90 06:24 04.06.2020
2936 Clouds 13 996 87 10000 1.5 60 05:34 04.06.2020
2937 Clouds 13 996 87 10000 1 70 04:31 04.06.2020
2938 Rain 14 997 77 10000 2.1 60 03:24 04.06.2020
2939 Clouds 16 998 72 10000 2.6 110 01:56 04.06.2020
2940 Clouds 16 999 67 10000 2.1 120 01:19 04.06.2020
2941 Clouds 17 999 67 10000 2.1 120 00:40 04.06.2020
2942 Clouds 17 1000 63 10000 3.6 110 23:44 03.06.2020
2943 Clouds 17 1000 63 10000 4.1 110 23:21 03.06.2020
2944 Clouds 18 1001 63 10000 2.1 90 22:59 03.06.2020
2945 Clouds 18 1001 63 10000 2.1 90 22:39 03.06.2020
2946 Clouds 18 1001 68 10000 4.1 80 22:19 03.06.2020
2947 Clouds 18 1001 68 10000 4.1 80 22:19 03.06.2020
2948 Clouds 17 1001 68 10000 3.6 80 21:57 03.06.2020
2949 Clouds 18 1001 68 10000 3.6 80 21:39 03.06.2020
2950 Clouds 19 1000 63 10000 4.6 90 21:21 03.06.2020
2951 Clouds 20 1000 56 10000 5.1 100 20:56 03.06.2020
2952 Clouds 20 1000 56 10000 5.1 100 20:37 03.06.2020
2953 Clouds 20 1000 56 10000 5.7 90 20:19 03.06.2020
2954 Clouds 21 1000 52 10000 5.7 80 19:56 03.06.2020
2955 Clouds 21 1000 52 10000 5.7 80 19:37 03.06.2020
2956 Clouds 21 1001 52 10000 6.2 80 19:19 03.06.2020
2957 Rain 22 1001 52 10000 6.2 90 18:54 03.06.2020
2958 Rain 22 1001 52 10000 6.2 90 18:36 03.06.2020
2959 Thunderstorm 23 1001 53 10000 5.7 80 18:18 03.06.2020
2960 Clouds 24 1001 43 10000 7.7 80 17:41 03.06.2020
2961 Clouds 25 1001 41 10000 7.2 60 17:21 03.06.2020
2962 Clouds 26 1001 30 10000 4.1 170 16:55 03.06.2020
2963 Clouds 26 1001 30 10000 4.1 170 16:37 03.06.2020
2964 Clouds 26 1001 32 10000 4.1 210 16:18 03.06.2020
2965 Thunderstorm 25 1001 28 10000 4.6 220 15:41 03.06.2020
2966 Clouds 27 1002 32 10000 4.1 200 15:21 03.06.2020
2967 Clouds 26 1002 36 10000 3.6 210 14:57 03.06.2020
2968 Clouds 26 1002 36 10000 3.6 210 14:37 03.06.2020
2969 Clouds 26 1003 36 10000 3.1 180 14:19 03.06.2020
2970 Clouds 26 1003 34 10000 3.1 180 13:38 03.06.2020
2971 Rain 26 1003 36 10000 4.1 190 13:19 03.06.2020
2972 Rain 25 1004 34 10000 3.6 130 12:43 03.06.2020
2973 Rain 26 1004 39 10000 3.6 110 12:22 03.06.2020
2974 Rain 25 1004 38 10000 3.1 120 11:57 03.06.2020
2975 Rain 25 1004 38 10000 3.1 120 11:38 03.06.2020
2976 Clouds 25 1005 41 10000 3.1 140 11:20 03.06.2020
2977 Clouds 23 1005 44 10000 3.6 140 10:41 03.06.2020
2978 Clouds 22 1005 46 10000 2.6 150 10:22 03.06.2020
2979 Clouds 22 1005 49 10000 3.1 150 09:45 03.06.2020
2980 Clouds 20 1005 52 10000 2.1 100 09:21 03.06.2020
2981 Clouds 20 1005 52 10000 2.1 100 08:59 03.06.2020
2982 Clouds 19 1006 56 10000 2.6 100 08:40 03.06.2020
2983 Clouds 19 1006 52 10000 2.1 120 08:19 03.06.2020
2984 Clouds 18 1006 59 10000 2.1 100 07:43 03.06.2020
2985 Rain 17 1006 67 10000 0.5 0 07:20 03.06.2020
2986 Rain 17 1007 67 10000 1 0 06:54 03.06.2020
2987 Rain 15 1007 67 10000 1 0 06:32 03.06.2020
2988 Clouds 14 1007 67 10000 1.5 150 05:47 03.06.2020
2989 Clouds 15 1008 63 10000 1.5 140 04:57 03.06.2020
2990 Clouds 16 1008 67 10000 2.6 110 03:51 03.06.2020
2991 Clouds 16 1009 67 10000 2.6 90 03:20 03.06.2020
2992 Clouds 16 1009 67 10000 2.6 90 02:23 03.06.2020
2993 Clouds 18 1010 63 10000 2.6 50 00:47 03.06.2020
2994 Clouds 18 1011 59 10000 3.1 50 00:25 03.06.2020
2995 Clouds 18 1011 59 10000 3.1 40 23:52 02.06.2020
2996 Clouds 18 1011 59 10000 3.1 40 23:52 02.06.2020
2997 Clouds 18 1011 56 10000 3.6 30 23:28 02.06.2020
2998 Clouds 19 1012 52 10000 2.1 30 22:58 02.06.2020
2999 Clouds 19 1012 52 10000 2.1 30 22:39 02.06.2020
3000 Clouds 19 1012 52 10000 2.1 30 22:39 02.06.2020
3001 Clouds 20 1012 49 10000 1 80 22:19 02.06.2020
3002 Clouds 21 1012 46 10000 1.5 80 21:57 02.06.2020
3003 Clouds 21 1012 46 10000 1.5 80 21:38 02.06.2020
3004 Clouds 24 1012 36 10000 1 0 21:20 02.06.2020
3005 Clouds 23 1012 38 10000 1 120 20:58 02.06.2020
3006 Clouds 24 1012 38 10000 1 120 20:40 02.06.2020
3007 Clouds 24 1012 33 10000 1 140 20:21 02.06.2020
3008 Clouds 25 1013 33 10000 2.1 120 19:44 02.06.2020
3009 Clouds 25 1013 31 10000 1.5 140 19:26 02.06.2020
3010 Clouds 25 1013 31 10000 1.5 140 19:26 02.06.2020
3011 Clouds 26 1013 29 10000 2.1 140 18:58 02.06.2020
3012 Clouds 26 1013 29 10000 2.1 140 18:58 02.06.2020
3013 Clouds 26 1013 29 10000 2.1 140 18:40 02.06.2020
3014 Clouds 26 1014 27 10000 2.6 150 18:20 02.06.2020
3015 Clouds 26 1014 29 10000 2.6 180 17:57 02.06.2020
3016 Clouds 26 1014 29 10000 2.6 180 17:39 02.06.2020
3017 Clouds 26 1015 29 10000 3.1 0 17:20 02.06.2020
3018 Clouds 26 1015 29 10000 2.6 150 16:55 02.06.2020
3019 Clouds 26 1015 29 10000 2.6 150 16:37 02.06.2020
3020 Clouds 26 1016 29 10000 1.5 0 16:19 02.06.2020
3021 Clouds 26 1016 29 10000 1.5 0 16:19 02.06.2020
3022 Clouds 25 1016 33 10000 3.1 100 15:40 02.06.2020
3023 Clouds 25 1016 31 10000 2.1 120 15:21 02.06.2020
3024 Clouds 25 1017 31 10000 3.1 0 14:48 02.06.2020
3025 Clouds 24 1017 36 10000 3.1 130 14:28 02.06.2020
3026 Clouds 24 1018 33 10000 3.6 120 13:57 02.06.2020
3027 Clouds 24 1018 33 10000 3.6 120 13:37 02.06.2020
3028 Clouds 24 1018 33 10000 3.6 120 13:37 02.06.2020
3029 Clouds 24 1018 35 10000 3.6 140 13:18 02.06.2020
3030 Clouds 24 1019 35 10000 3.6 110 12:57 02.06.2020
3031 Clouds 24 1019 35 10000 3.6 110 12:38 02.06.2020
3032 Clouds 23 1019 35 10000 4.1 110 12:20 02.06.2020
3033 Clouds 23 1019 38 10000 3.6 130 11:43 02.06.2020
3034 Clouds 22 1020 40 10000 4.1 120 11:24 02.06.2020
3035 Clouds 22 1020 40 10000 4.1 120 10:59 02.06.2020
3036 Clouds 21 1020 40 10000 4.6 140 10:41 02.06.2020
3037 Clouds 21 1020 40 10000 4.6 140 10:41 02.06.2020
3038 Clouds 20 1020 42 10000 4.1 120 10:22 02.06.2020
3039 Clouds 20 1021 45 10000 4.6 110 09:43 02.06.2020
3040 Clouds 17 1021 48 10000 5.1 120 09:22 02.06.2020
3041 Clouds 17 1021 51 10000 3.6 120 08:57 02.06.2020
3042 Clouds 17 1021 51 10000 4.6 110 08:29 02.06.2020
3043 Clouds 16 1021 55 10000 4.1 110 07:59 02.06.2020
3044 Clouds 16 1021 55 10000 4.1 110 07:39 02.06.2020
3045 Clouds 15 1021 62 10000 2.1 80 07:19 02.06.2020
3046 Clouds 12 1021 71 10000 1.5 70 06:43 02.06.2020
3047 Clouds 11 1021 81 10000 3.1 80 05:46 02.06.2020
3048 Clouds 12 1021 76 10000 1 0 04:54 02.06.2020
3049 Clouds 13 1022 71 10000 3.1 80 03:20 02.06.2020
3050 Clouds 14 1022 67 10000 2.6 70 02:20 02.06.2020
3051 Clouds 15 1022 59 10000 4.1 80 00:57 02.06.2020
3052 Clouds 16 1022 55 0 4.1 70 00:23 02.06.2020
3053 Clouds 17 1022 52 10000 5.1 70 23:54 01.06.2020
3054 Clouds 18 1022 52 10000 5.1 70 23:36 01.06.2020
3055 Clouds 18 1022 52 10000 5.1 70 23:36 01.06.2020
3056 Clouds 18 1022 52 10000 5.7 60 23:18 01.06.2020
3057 Clouds 19 1022 48 10000 5.1 60 22:40 01.06.2020
3058 Clouds 20 1022 45 10000 5.7 60 22:20 01.06.2020
3059 Clouds 20 1021 43 10000 5.1 60 21:57 01.06.2020
3060 Clouds 21 1021 43 10000 5.1 60 21:37 01.06.2020
3061 Clouds 21 1021 40 10000 5.7 60 21:18 01.06.2020
3062 Clouds 22 1021 40 10000 4.6 60 20:55 01.06.2020
3063 Clouds 22 1021 40 10000 4.6 60 20:55 01.06.2020
3064 Clouds 22 1021 40 10000 4.6 60 20:37 01.06.2020
3065 Clouds 23 1021 35 10000 4.6 70 20:18 01.06.2020
3066 Clouds 23 1021 35 10000 4.6 70 19:43 01.06.2020
3067 Clear 24 1021 33 10000 5.7 70 19:21 01.06.2020
3068 Clear 24 1022 31 10000 5.7 60 18:59 01.06.2020
3069 Clear 24 1022 31 10000 5.7 60 18:39 01.06.2020
3070 Clear 25 1022 29 10000 6.2 60 18:20 01.06.2020
3071 Clear 25 1022 31 10000 5.7 80 17:58 01.06.2020
3072 Clear 25 1022 31 10000 5.7 80 17:40 01.06.2020
3073 Clear 24 1022 31 10000 5.7 70 17:19 01.06.2020
3074 Clear 24 1023 33 10000 5.7 50 16:42 01.06.2020
3075 Clear 24 1023 33 10000 6.7 60 16:22 01.06.2020
3076 Clear 23 1023 33 10000 5.7 70 15:56 01.06.2020
3077 Clear 23 1023 33 10000 5.7 70 15:37 01.06.2020
3078 Clear 23 1023 35 10000 5.1 60 15:19 01.06.2020
3079 Clear 23 1024 36 10000 4.1 80 14:57 01.06.2020
3080 Clear 23 1024 36 10000 4.1 80 14:38 01.06.2020
3081 Clouds 22 1024 37 10000 5.7 80 14:20 01.06.2020
3082 Clouds 22 1024 40 10000 5.7 80 13:44 01.06.2020
3083 Clouds 22 1024 40 10000 5.7 80 13:22 01.06.2020
3084 Clouds 22 1025 40 10000 5.7 90 12:59 01.06.2020
3085 Clouds 21 1025 45 10000 4.6 60 12:40 01.06.2020
3086 Clouds 19 1025 45 10000 4.6 60 12:22 01.06.2020
3087 Clouds 18 1025 45 10000 5.1 60 11:59 01.06.2020
3088 Clouds 18 1025 52 10000 4.1 60 11:38 01.06.2020
3089 Clouds 18 1025 52 10000 4.1 60 11:19 01.06.2020
3090 Clouds 17 1025 55 10000 4.6 50 10:56 01.06.2020
3091 Clouds 17 1025 59 10000 4.1 60 10:37 01.06.2020
3092 Clear 17 1025 59 10000 4.1 60 10:18 01.06.2020
3093 Clear 16 1025 58 10000 4.1 70 09:46 01.06.2020
3094 Clear 13 1025 62 10000 4.1 80 09:26 01.06.2020
3095 Clear 13 1025 58 10000 4.6 80 08:57 01.06.2020
3096 Clear 12 1025 62 10000 5.1 70 08:37 01.06.2020
3097 Clear 12 1025 62 10000 5.1 70 08:19 01.06.2020
3098 Clear 11 1025 62 10000 4.1 60 07:41 01.06.2020
3099 Clear 12 1025 62 10000 4.1 60 07:22 01.06.2020
3100 Clear 11 1025 62 10000 3.6 50 06:49 01.06.2020
3101 Clear 9 1025 66 10000 3.6 50 05:57 01.06.2020
3102 Clear 9 1025 66 10000 2.6 50 05:18 01.06.2020
3103 Clear 11 1025 57 10000 2.1 40 03:57 01.06.2020
3104 Clear 11 1025 57 10000 3.1 60 03:39 01.06.2020
3105 Clear 12 1025 54 10000 3.6 60 02:56 01.06.2020
3106 Clouds 13 1025 54 10000 4.1 60 01:40 01.06.2020
3107 Clouds 13 1025 54 10000 4.1 60 01:18 01.06.2020
3108 Clouds 14 1025 54 10000 4.6 60 00:56 01.06.2020
3109 Clouds 15 1025 58 10000 5.1 70 00:37 01.06.2020
3110 Clouds 15 1025 58 10000 5.1 70 00:19 01.06.2020
3111 Clouds 16 1024 63 10000 4.6 50 23:41 31.05.2020
3112 Clouds 16 1024 63 10000 4.6 50 23:22 31.05.2020
3113 Clouds 16 1024 55 10000 4.1 50 22:59 31.05.2020
3114 Clouds 18 1024 52 10000 5.1 50 22:40 31.05.2020
3115 Clouds 17 1024 52 10000 5.1 50 22:22 31.05.2020
3116 Clouds 17 1024 48 10000 4.6 50 21:57 31.05.2020
3117 Clouds 18 1023 42 10000 4.1 50 21:39 31.05.2020
3118 Clouds 18 1023 42 10000 4.1 50 21:20 31.05.2020
3119 Clouds 19 1023 39 10000 5.7 50 20:45 31.05.2020
3120 Clouds 20 1023 37 10000 6.2 50 20:25 31.05.2020
3121 Clouds 20 1023 37 10000 5.7 50 19:56 31.05.2020
3122 Clouds 21 1023 37 10000 5.7 50 19:38 31.05.2020
3123 Clouds 21 1023 37 10000 5.7 50 19:20 31.05.2020
3124 Clouds 21 1023 37 10000 5.7 50 19:20 31.05.2020
3125 Clouds 21 1023 37 10000 7.2 30 18:56 31.05.2020
3126 Clouds 21 1023 37 10000 6.7 60 18:37 31.05.2020
3127 Clouds 21 1023 37 10000 6.7 60 18:19 31.05.2020
3128 Clouds 21 1023 40 10000 4.6 50 17:42 31.05.2020
3129 Clouds 21 1023 40 10000 4.6 50 17:24 31.05.2020
3130 Clouds 21 1023 40 10000 6.2 80 16:42 31.05.2020
3131 Clouds 21 1023 40 10000 6.2 80 16:22 31.05.2020
3132 Clouds 21 1023 40 10000 5.1 60 15:57 31.05.2020
3133 Clouds 21 1024 40 10000 6.7 60 15:37 31.05.2020
3134 Clouds 21 1024 40 10000 6.7 60 15:19 31.05.2020
3135 Clouds 21 1024 42 10000 7.2 70 14:42 31.05.2020
3136 Clouds 20 1024 42 10000 7.2 70 14:19 31.05.2020
3137 Clouds 20 1024 42 10000 6.7 40 13:56 31.05.2020
3138 Clouds 20 1024 42 10000 8.2 40 13:37 31.05.2020
3139 Clouds 20 1024 42 10000 8.2 40 13:19 31.05.2020
3140 Clouds 20 1024 45 10000 5.7 40 12:55 31.05.2020
3141 Clouds 20 1024 45 10000 6.7 40 12:36 31.05.2020
3142 Clouds 18 1024 45 10000 6.7 40 12:18 31.05.2020
3143 Clouds 18 1025 48 10000 5.7 40 11:42 31.05.2020
3144 Clouds 18 1025 48 10000 5.7 40 11:21 31.05.2020
3145 Clouds 18 1025 48 10000 5.7 50 10:55 31.05.2020
3146 Clouds 17 1025 48 10000 6.2 20 10:37 31.05.2020
3147 Clouds 18 1025 48 10000 6.2 20 10:18 31.05.2020
3148 Clouds 16 1025 54 10000 4.6 60 09:42 31.05.2020
3149 Clouds 14 1025 54 10000 4.6 60 09:22 31.05.2020
3150 Clouds 14 1025 62 10000 3.6 40 08:56 31.05.2020
3151 Clouds 13 1025 66 10000 4.1 40 08:36 31.05.2020
3152 Clouds 13 1025 66 10000 4.1 40 08:18 31.05.2020
3153 Clouds 12 1025 66 10000 3.1 50 07:39 31.05.2020
3154 Clouds 12 1025 66 10000 3.1 50 07:18 31.05.2020
3155 Clouds 11 1025 71 10000 2.6 50 06:49 31.05.2020
3156 Clouds 10 1025 76 10000 3.1 40 06:31 31.05.2020
3157 Clouds 10 1025 76 10000 2.6 40 05:40 31.05.2020
3158 Clouds 10 1025 71 10000 2.6 50 04:22 31.05.2020
3159 Clouds 10 1025 71 10000 3.1 70 03:48 31.05.2020
3160 Clouds 10 1025 66 10000 2.6 60 02:59 31.05.2020
3161 Clouds 12 1025 58 10000 2.6 50 01:48 31.05.2020
3162 Clouds 13 1025 50 10000 3.6 50 00:59 31.05.2020
3163 Clouds 13 1024 50 10000 3.6 60 00:29 31.05.2020
3164 Clear 13 1024 54 10000 2.6 60 23:55 30.05.2020
3165 Clear 13 1024 54 10000 2.6 60 23:36 30.05.2020
3166 Clear 13 1024 54 10000 2.6 60 23:18 30.05.2020
3167 Clear 16 1024 48 10000 4.1 50 22:41 30.05.2020
3168 Clear 16 1024 48 10000 4.1 50 22:22 30.05.2020
3169 Clear 16 1024 48 10000 4.1 50 22:22 30.05.2020
3170 Clear 16 1024 45 10000 4.1 50 21:56 30.05.2020
3171 Clear 16 1024 45 10000 4.1 50 21:56 30.05.2020
3172 Clear 17 1024 39 10000 4.6 50 21:37 30.05.2020
3173 Clear 18 1024 39 10000 4.6 50 21:19 30.05.2020
3174 Clear 18 1024 39 10000 7.2 50 20:56 30.05.2020
3175 Clear 19 1023 39 10000 4.6 50 20:37 30.05.2020
3176 Clear 19 1023 39 10000 4.6 50 20:37 30.05.2020
3177 Rain 19 1023 39 10000 4.6 50 20:19 30.05.2020
3178 Rain 20 1023 40 10000 5.7 50 19:42 30.05.2020
3179 Rain 20 1023 40 10000 5.7 50 19:22 30.05.2020
3180 Rain 20 1023 40 10000 6.2 80 18:46 30.05.2020
3181 Rain 21 1023 37 10000 6.2 60 18:24 30.05.2020
3182 Rain 20 1024 32 10000 5.7 50 17:55 30.05.2020
3183 Rain 21 1024 33 10000 5.7 60 17:37 30.05.2020
3184 Rain 22 1024 33 10000 5.7 60 17:18 30.05.2020
3185 Rain 21 1024 35 10000 5.7 60 16:43 30.05.2020
3186 Clouds 22 1024 35 10000 5.7 60 16:22 30.05.2020
3187 Clouds 21 1024 35 10000 5.1 70 15:55 30.05.2020
3188 Clouds 22 1024 30 10000 3.6 60 15:37 30.05.2020
3189 Clouds 21 1024 30 10000 3.6 60 15:19 30.05.2020
3190 Clouds 21 1025 32 10000 4.1 80 14:42 30.05.2020
3191 Clear 21 1025 32 10000 4.1 80 14:20 30.05.2020
3192 Clear 21 1026 32 10000 2.6 0 13:41 30.05.2020
3193 Clear 20 1026 32 10000 2.6 0 13:18 30.05.2020
3194 Clear 20 1026 37 10000 2.1 0 12:40 30.05.2020
3195 Clear 19 1026 37 10000 2.1 0 12:20 30.05.2020
3196 Clear 19 1026 39 10000 2.6 100 11:55 30.05.2020
3197 Clear 19 1026 39 10000 2.6 0 11:37 30.05.2020
3198 Clear 19 1026 39 10000 2.6 0 11:19 30.05.2020
3199 Clear 18 1027 52 10000 2.6 130 10:39 30.05.2020
3200 Clear 19 1027 52 10000 2.6 130 10:20 30.05.2020
3201 Clear 17 1027 55 10000 3.1 100 09:46 30.05.2020
3202 Clear 14 1027 55 10000 2.6 80 09:28 30.05.2020
3203 Clear 14 1027 62 10000 3.1 80 08:46 30.05.2020
3204 Clear 13 1027 62 10000 2.6 80 08:28 30.05.2020
3205 Clear 12 1027 66 10000 3.1 60 07:44 30.05.2020
3206 Clear 12 1027 71 10000 2.1 70 07:21 30.05.2020
3207 Clear 8 1027 81 10000 1.5 50 06:33 30.05.2020
3208 Clear 8 1027 81 10000 1.5 60 05:58 30.05.2020
3209 Clear 8 1027 81 10000 2.1 50 05:34 30.05.2020
3210 Clear 10 1027 76 10000 2.1 50 03:39 30.05.2020
3211 Clouds 11 1027 71 10000 2.1 70 02:30 30.05.2020
3212 Clear 11 1027 66 10000 2.6 60 01:46 30.05.2020
3213 Clear 12 1026 54 10000 3.6 40 00:38 30.05.2020
3214 Clear 13 1026 54 10000 3.6 40 00:19 30.05.2020
3215 Clear 13 1026 54 10000 4.1 40 23:57 29.05.2020
3216 Clear 14 1026 54 10000 3.6 30 23:37 29.05.2020
3217 Clear 14 1026 54 10000 3.6 30 23:18 29.05.2020
3218 Clear 15 1026 55 10000 5.7 20 22:40 29.05.2020
3219 Clear 16 1026 55 10000 5.7 20 22:19 29.05.2020
3220 Clear 16 1026 55 10000 6.2 10 21:58 29.05.2020
3221 Clear 17 1026 52 10000 6.2 10 21:38 29.05.2020
3222 Clear 17 1026 52 10000 6.2 10 21:20 29.05.2020
3223 Clear 18 1026 45 10000 6.7 20 20:45 29.05.2020
3224 Clear 20 1026 30 10000 2.6 50 20:21 29.05.2020
3225 Clear 21 1026 28 10000 2.6 90 19:59 29.05.2020
3226 Clear 21 1026 26 10000 3.1 40 19:41 29.05.2020
3227 Clear 22 1026 26 10000 3.1 40 19:23 29.05.2020
3228 Clear 22 1026 27 10000 1.5 0 18:47 29.05.2020
3229 Clear 22 1026 27 10000 1.5 0 18:47 29.05.2020
3230 Clear 21 1026 28 10000 3.6 50 18:21 29.05.2020
3231 Clear 22 1026 26 10000 2.6 70 17:57 29.05.2020
3232 Clear 22 1027 28 10000 3.1 110 17:38 29.05.2020
3233 Clear 22 1027 28 10000 3.1 110 17:19 29.05.2020
3234 Clear 22 1027 28 10000 2.6 140 16:45 29.05.2020
3235 Clear 22 1027 26 10000 1.5 0 16:27 29.05.2020
3236 Clear 22 1028 28 10000 2.1 0 15:57 29.05.2020
3237 Clear 22 1028 30 10000 3.6 80 15:39 29.05.2020
3238 Clear 21 1028 30 10000 3.6 80 15:20 29.05.2020
3239 Clear 21 1028 30 10000 2.1 0 14:51 29.05.2020
3240 Clear 21 1029 30 10000 2.6 40 14:24 29.05.2020
3241 Clear 20 1029 37 10000 2.6 120 13:59 29.05.2020
3242 Clear 21 1029 40 10000 3.1 0 13:41 29.05.2020
3243 Clear 20 1029 40 10000 3.1 0 13:21 29.05.2020
3244 Clear 19 1030 42 10000 2.1 0 12:45 29.05.2020
3245 Clear 19 1030 45 10000 2.6 0 12:26 29.05.2020
3246 Clear 18 1030 48 10000 2.6 100 11:59 29.05.2020
3247 Clear 18 1031 51 10000 2.1 70 11:41 29.05.2020
3248 Clear 17 1031 51 10000 2.1 70 11:22 29.05.2020
3249 Clear 17 1031 55 10000 2.1 160 10:43 29.05.2020
3250 Clear 16 1031 55 10000 2.1 160 10:23 29.05.2020
3251 Clear 16 1031 58 10000 1.5 0 09:56 29.05.2020
3252 Clear 15 1031 67 10000 2.1 120 09:38 29.05.2020
3253 Clear 13 1031 67 10000 2.1 120 09:19 29.05.2020
3254 Clear 13 1031 71 10000 2.1 100 08:46 29.05.2020
3255 Clear 11 1031 76 10000 1.5 50 08:22 29.05.2020
3256 Clear 9 1031 81 10000 1.5 80 07:47 29.05.2020
3257 Clear 10 1031 81 10000 1.5 50 07:29 29.05.2020
3258 Clear 9 1031 93 10000 2.1 40 06:55 29.05.2020
3259 Clear 8 1031 93 10000 2.1 40 06:37 29.05.2020
3260 Clear 7 1031 93 10000 2.1 40 06:18 29.05.2020
3261 Clear 6 1031 100 10000 0.5 0 05:36 29.05.2020
3262 Clear 9 1031 81 10000 2.6 360 01:48 29.05.2020
3263 Clear 9 1031 81 10000 3.1 340 01:27 29.05.2020
3264 Clear 9 1031 81 10000 3.1 340 01:27 29.05.2020
3265 Clear 9 1031 81 10000 3.1 330 00:50 29.05.2020
3266 Clear 9 1031 76 10000 3.1 340 00:28 29.05.2020
3267 Clear 9 1031 76 10000 4.1 350 23:56 28.05.2020
3268 Clear 10 1031 76 10000 3.6 350 23:38 28.05.2020
3269 Clear 10 1031 76 10000 3.6 350 23:18 28.05.2020
3270 Clear 11 1031 71 10000 4.6 330 22:41 28.05.2020
3271 Clear 11 1031 71 10000 4.6 330 22:21 28.05.2020
3272 Clear 12 1031 71 10000 5.7 330 21:55 28.05.2020
3273 Clear 12 1031 62 10000 5.1 330 21:37 28.05.2020
3274 Clear 12 1031 62 10000 5.1 330 21:18 28.05.2020
3275 Clouds 13 1031 62 10000 5.1 340 20:55 28.05.2020
3276 Clouds 14 1031 58 10000 5.7 340 20:36 28.05.2020
3277 Clear 14 1031 58 10000 5.7 340 20:18 28.05.2020
3278 Clear 14 1031 58 10000 5.7 340 20:18 28.05.2020
3279 Clouds 16 1031 55 10000 6.2 340 19:43 28.05.2020
3280 Clouds 17 1031 55 10000 6.2 340 19:20 28.05.2020
3281 Clouds 17 1032 51 10000 5.7 350 18:57 28.05.2020
3282 Clouds 17 1032 51 10000 5.7 330 18:39 28.05.2020
3283 Clouds 17 1032 51 10000 5.7 330 18:21 28.05.2020
3284 Clouds 18 1032 48 10000 5.7 330 17:41 28.05.2020
3285 Clouds 18 1032 48 10000 5.7 330 17:22 28.05.2020
3286 Clouds 18 1032 48 10000 5.1 330 16:56 28.05.2020
3287 Clouds 18 1032 48 10000 5.7 340 16:37 28.05.2020
3288 Clouds 18 1032 48 10000 5.7 340 16:18 28.05.2020
3289 Clouds 18 1032 45 10000 5.1 360 15:42 28.05.2020
3290 Clouds 18 1032 45 10000 5.1 360 15:23 28.05.2020
3291 Clouds 18 1032 42 10000 5.7 340 14:44 28.05.2020
3292 Clouds 18 1033 48 10000 5.1 340 14:25 28.05.2020
3293 Clouds 18 1033 42 10000 3.6 0 13:58 28.05.2020
3294 Clouds 18 1033 48 10000 5.7 340 13:39 28.05.2020
3295 Clouds 18 1033 48 10000 5.7 340 13:20 28.05.2020
3296 Clouds 17 1033 51 10000 4.6 330 12:42 28.05.2020
3297 Clouds 17 1033 51 10000 4.6 330 12:19 28.05.2020
3298 Clouds 17 1034 55 10000 5.1 330 11:43 28.05.2020
3299 Clouds 17 1034 55 10000 5.1 330 11:24 28.05.2020
3300 Clouds 16 1034 54 10000 5.1 350 10:57 28.05.2020
3301 Clouds 16 1034 54 10000 5.7 350 10:39 28.05.2020
3302 Clouds 15 1034 54 10000 5.7 350 10:19 28.05.2020
3303 Clouds 14 1034 62 10000 5.1 350 09:39 28.05.2020
3304 Clouds 13 1034 62 10000 5.1 350 09:20 28.05.2020
3305 Clouds 13 1034 66 10000 4.6 350 08:50 28.05.2020
3306 Clear 12 1034 71 10000 4.1 360 08:26 28.05.2020
3307 Clear 11 1034 81 10000 3.1 310 07:45 28.05.2020
3308 Clear 10 1034 87 10000 3.1 290 07:26 28.05.2020
3309 Clouds 9 1034 87 10000 2.6 290 06:59 28.05.2020
3310 Clouds 9 1034 81 10000 3.1 330 06:38 28.05.2020
3311 Clouds 9 1034 81 10000 3.1 330 06:19 28.05.2020
3312 Clear 9 1034 81 10000 3.1 330 05:36 28.05.2020
3313 Clear 9 1034 81 10000 3.6 340 04:32 28.05.2020
3314 Clear 9 1034 81 10000 4.6 350 03:48 28.05.2020
3315 Clear 10 1034 76 10000 4.6 340 02:47 28.05.2020
3316 Clouds 10 1034 76 10000 5.1 350 01:54 28.05.2020
3317 Clouds 11 1034 76 10000 5.1 350 01:27 28.05.2020
3318 Clouds 11 1034 71 10000 5.7 350 00:46 28.05.2020
3319 Clouds 12 1034 71 10000 5.7 350 00:19 28.05.2020
3320 Clouds 12 1034 71 10000 5.1 340 23:40 27.05.2020
3321 Clouds 13 1034 71 10000 5.1 340 23:21 27.05.2020
3322 Clouds 13 1034 71 10000 5.1 340 23:21 27.05.2020
3323 Clouds 13 1033 71 10000 6.2 340 22:59 27.05.2020
3324 Clouds 13 1033 67 10000 4.6 340 22:40 27.05.2020
3325 Clouds 13 1033 67 10000 4.6 340 22:22 27.05.2020
3326 Clouds 13 1033 67 10000 4.6 340 22:22 27.05.2020
3327 Clouds 14 1032 67 10000 5.1 340 21:55 27.05.2020
3328 Clouds 14 1032 67 10000 5.7 350 21:37 27.05.2020
3329 Clouds 14 1032 67 10000 5.7 350 21:18 27.05.2020
3330 Clouds 14 1032 67 10000 6.7 340 20:54 27.05.2020
3331 Clouds 14 1032 62 10000 6.7 320 20:36 27.05.2020
3332 Clouds 15 1032 62 10000 6.7 320 20:18 27.05.2020
3333 Clouds 16 1032 51 10000 8.2 330 19:41 27.05.2020
3334 Clouds 16 1032 51 10000 8.2 330 19:20 27.05.2020
3335 Clouds 17 1032 55 10000 7.7 340 18:44 27.05.2020
3336 Clouds 18 1032 55 10000 7.7 320 18:20 27.05.2020
3337 Clouds 19 1032 55 10000 7.2 330 17:58 27.05.2020
3338 Clouds 20 1032 55 10000 6.7 340 17:39 27.05.2020
3339 Clouds 20 1032 55 10000 6.7 340 17:20 27.05.2020
3340 Clouds 20 1032 52 10000 6.7 340 16:56 27.05.2020
3341 Clouds 20 1032 52 10000 6.7 340 16:38 27.05.2020
3342 Clouds 20 1032 52 10000 6.7 340 16:19 27.05.2020
3343 Clouds 21 1032 49 10000 5.1 330 15:47 27.05.2020
3344 Clouds 21 1032 49 10000 5.1 330 15:22 27.05.2020
3345 Clouds 21 1032 49 10000 5.1 320 14:46 27.05.2020
3346 Clouds 21 1032 45 10000 4.6 310 14:22 27.05.2020
3347 Clouds 21 1032 49 10000 4.1 300 13:58 27.05.2020
3348 Clouds 21 1033 45 10000 3.6 320 13:39 27.05.2020
3349 Clouds 21 1033 45 10000 3.6 320 13:21 27.05.2020
3350 Rain 21 1033 52 10000 3.1 310 12:42 27.05.2020
3351 Rain 20 1033 52 10000 3.1 310 12:23 27.05.2020
3352 Rain 20 1033 52 10000 3.1 300 11:55 27.05.2020
3353 Rain 19 1033 52 10000 2.1 310 11:36 27.05.2020
3354 Clouds 19 1033 52 10000 2.1 310 11:18 27.05.2020
3355 Clouds 19 1033 59 10000 2.6 320 10:43 27.05.2020
3356 Clouds 19 1033 59 10000 2.6 320 10:24 27.05.2020
3357 Clouds 17 1033 63 10000 2.6 330 09:56 27.05.2020
3358 Clouds 17 1033 63 10000 2.1 270 09:38 27.05.2020
3359 Clouds 16 1033 63 10000 2.1 270 09:20 27.05.2020
3360 Clouds 13 1033 93 10000 1 0 08:42 27.05.2020
3361 Clouds 13 1033 93 10000 1 0 08:24 27.05.2020
3362 Clouds 12 1033 100 10000 0.5 250 07:53 27.05.2020
3363 Clouds 11 1033 100 10000 1 0 07:34 27.05.2020
3364 Mist 9 1033 100 2300 0.5 0 06:56 27.05.2020
3365 Fog 7 1033 100 600 1 220 06:30 27.05.2020
3366 Fog 7 1034 100 800 1 0 05:50 27.05.2020
3367 Fog 7 1034 100 800 1 240 05:30 27.05.2020
3368 Clouds 9 1034 100 7000 1 290 04:18 27.05.2020
3369 Clouds 10 1034 93 10000 1 240 02:30 27.05.2020
3370 Clouds 10 1034 87 10000 1 0 01:45 27.05.2020
3371 Clouds 12 1034 81 10000 0.5 0 00:59 27.05.2020
3372 Clouds 12 1034 87 10000 2.1 290 00:41 27.05.2020
3373 Clouds 12 1034 87 10000 2.1 290 00:19 27.05.2020
3374 Clouds 14 1034 71 10000 0.5 0 23:42 26.05.2020
3375 Clouds 14 1034 71 10000 0.5 0 23:24 26.05.2020
3376 Clouds 14 1034 67 10000 1 140 22:59 26.05.2020
3377 Clouds 14 1034 67 10000 1 140 22:58 26.05.2020
3378 Clouds 15 1034 63 10000 1.5 140 22:38 26.05.2020
3379 Clouds 16 1034 63 10000 1.5 140 22:20 26.05.2020
3380 Clouds 17 1034 59 10000 1.5 140 21:56 26.05.2020
3381 Clouds 17 1034 59 10000 1.5 140 21:56 26.05.2020
3382 Clouds 18 1034 59 10000 1.5 140 21:38 26.05.2020
3383 Clouds 19 1034 59 10000 1.5 140 21:19 26.05.2020
3384 Clouds 19 1034 52 10000 3.1 150 20:42 26.05.2020
3385 Clouds 19 1034 52 10000 3.1 150 20:21 26.05.2020
3386 Clouds 20 1034 45 10000 2.1 150 19:56 26.05.2020
3387 Clouds 20 1034 42 10000 1.5 260 19:37 26.05.2020
3388 Clouds 21 1034 42 10000 1.5 260 19:18 26.05.2020
3389 Clouds 21 1034 40 10000 2.1 40 18:42 26.05.2020
3390 Clouds 21 1034 40 10000 2.1 40 18:22 26.05.2020
3391 Clouds 21 1034 43 10000 2.1 0 17:55 26.05.2020
3392 Clouds 21 1035 43 10000 2.1 200 17:37 26.05.2020
3393 Clouds 21 1035 43 10000 2.1 200 17:19 26.05.2020
3394 Clouds 20 1035 45 10000 1.5 0 16:41 26.05.2020
3395 Clouds 20 1035 45 10000 1.5 0 16:19 26.05.2020
3396 Clouds 19 1035 45 10000 1.5 0 15:54 26.05.2020
3397 Clouds 19 1035 45 10000 2.1 70 15:36 26.05.2020
3398 Clouds 19 1035 45 10000 2.1 70 15:18 26.05.2020
3399 Clouds 20 1036 52 10000 1.5 0 14:43 26.05.2020
3400 Clouds 19 1036 52 10000 1.5 0 14:22 26.05.2020
3401 Clouds 19 1036 59 10000 1.5 0 13:55 26.05.2020
3402 Clouds 19 1036 59 10000 1.5 0 13:37 26.05.2020
3403 Clouds 19 1036 59 10000 1.5 0 13:18 26.05.2020
3404 Clouds 17 1036 67 10000 2.1 330 12:41 26.05.2020
3405 Clouds 15 1036 71 10000 2.6 310 12:20 26.05.2020
3406 Clouds 14 1036 71 10000 2.6 310 11:57 26.05.2020
3407 Clouds 14 1036 76 10000 2.1 310 11:39 26.05.2020
3408 Clouds 13 1036 76 10000 2.1 310 11:18 26.05.2020
3409 Clouds 12 1036 81 8000 1.09 247 10:41 26.05.2020
3410 Clouds 12 1036 81 8000 1.09 247 10:41 26.05.2020
3411 Clouds 12 1036 81 8000 1.03 267 10:19 26.05.2020
3412 Clouds 11 1036 87 8000 1.5 210 09:40 26.05.2020
3413 Clouds 11 1036 87 8000 1.5 210 09:20 26.05.2020
3414 Clouds 10 1036 87 10000 2.1 270 08:43 26.05.2020
3415 Clouds 10 1036 87 10000 2.1 270 08:43 26.05.2020
3416 Clouds 10 1036 87 10000 2.1 270 08:22 26.05.2020
3417 Clouds 10 1035 87 10000 0.5 0 07:57 26.05.2020
3418 Clouds 9 1035 87 10000 0.5 210 07:37 26.05.2020
3419 Clouds 9 1035 87 10000 0.5 210 07:18 26.05.2020
3420 Clouds 10 1035 87 10000 2.6 320 06:45 26.05.2020
3421 Clouds 9 1035 87 10000 2.6 320 06:19 26.05.2020
3422 Clouds 9 1035 87 10000 2.1 290 05:35 26.05.2020
3423 Clouds 9 1035 87 10000 2.1 320 04:56 26.05.2020
3424 Clouds 9 1035 87 10000 3.1 310 04:37 26.05.2020
3425 Clouds 9 1035 87 10000 3.1 310 04:18 26.05.2020
3426 Clouds 9 1035 87 10000 3.1 340 02:51 26.05.2020
3427 Clouds 9 1034 87 10000 2.1 10 02:21 26.05.2020
3428 Clouds 9 1034 81 10000 2.6 350 01:40 26.05.2020
3429 Clouds 9 1034 81 10000 3.1 350 00:39 26.05.2020
3430 Clouds 10 1034 81 10000 3.1 350 00:20 26.05.2020
3431 Clouds 10 1034 81 10000 4.1 350 23:58 25.05.2020
3432 Clouds 10 1034 71 10000 5.1 350 23:38 25.05.2020
3433 Clouds 11 1034 71 10000 5.1 350 23:19 25.05.2020
3434 Clouds 11 1034 76 10000 5.1 340 22:55 25.05.2020
3435 Clouds 11 1034 71 10000 4.1 330 22:37 25.05.2020
3436 Clouds 11 1034 71 10000 4.1 330 22:19 25.05.2020
3437 Clouds 11 1034 71 10000 5.1 340 21:57 25.05.2020
3438 Clouds 11 1034 71 10000 4.6 330 21:37 25.05.2020
3439 Clouds 11 1034 71 10000 4.6 330 21:18 25.05.2020
3440 Clouds 11 1034 71 10000 4.6 330 21:18 25.05.2020
3441 Clouds 12 1033 71 10000 4.6 320 20:57 25.05.2020
3442 Clouds 12 1033 71 10000 5.1 340 20:38 25.05.2020
3443 Clouds 12 1033 71 10000 5.1 340 20:19 25.05.2020
3444 Clouds 12 1033 66 10000 6.7 340 19:41 25.05.2020
3445 Clouds 12 1033 66 10000 6.7 340 19:20 25.05.2020
3446 Clouds 13 1033 66 10000 6.2 340 18:58 25.05.2020
3447 Clouds 14 1033 62 10000 6.2 330 18:40 25.05.2020
3448 Clouds 14 1033 62 10000 6.2 330 18:21 25.05.2020
3449 Clouds 14 1032 66 10000 6.2 350 17:44 25.05.2020
3450 Clouds 14 1032 66 10000 6.2 350 17:25 25.05.2020
3451 Clouds 14 1032 62 10000 6.7 350 16:59 25.05.2020
3452 Clouds 15 1032 62 10000 6.7 320 16:40 25.05.2020
3453 Clouds 15 1032 62 10000 6.7 320 16:40 25.05.2020
3454 Clouds 15 1032 62 10000 6.7 320 16:22 25.05.2020
3455 Clouds 15 1032 62 10000 6.7 320 16:22 25.05.2020
3456 Clouds 15 1032 62 10000 8.2 310 15:58 25.05.2020
3457 Clouds 15 1032 62 10000 8.2 310 15:58 25.05.2020
3458 Clouds 15 1032 62 10000 6.7 320 15:39 25.05.2020
3459 Clouds 15 1032 62 10000 6.7 320 15:18 25.05.2020
3460 Clouds 14 1032 62 10000 7.2 310 14:43 25.05.2020
3461 Clouds 15 1032 62 10000 7.2 310 14:24 25.05.2020
3462 Clouds 14 1032 66 10000 7.2 310 13:57 25.05.2020
3463 Clouds 14 1032 71 10000 6.7 310 13:37 25.05.2020
3464 Clouds 14 1032 71 10000 6.7 310 13:19 25.05.2020
3465 Clouds 13 1031 66 10000 8.2 310 12:54 25.05.2020
3466 Clouds 13 1031 71 10000 7.2 320 12:36 25.05.2020
3467 Clouds 13 1031 71 10000 7.2 320 12:18 25.05.2020
3468 Clouds 13 1031 66 10000 8.2 310 11:38 25.05.2020
3469 Clouds 13 1031 66 10000 8.2 310 11:19 25.05.2020
3470 Clouds 12 1030 71 10000 7.2 300 10:43 25.05.2020
3471 Clouds 12 1030 71 10000 6.7 300 10:21 25.05.2020
3472 Clouds 12 1030 71 10000 6.7 300 09:57 25.05.2020
3473 Clouds 12 1030 66 10000 7.2 300 09:39 25.05.2020
3474 Clouds 12 1030 66 10000 7.2 300 09:19 25.05.2020
3475 Clouds 12 1029 71 10000 7.2 310 08:58 25.05.2020
3476 Rain 12 1029 71 10000 7.2 300 08:36 25.05.2020
3477 Rain 12 1029 71 10000 7.2 300 08:18 25.05.2020
3478 Clouds 12 1029 71 10000 6.7 310 07:43 25.05.2020
3479 Clouds 12 1029 71 10000 6.7 310 07:21 25.05.2020
3480 Clouds 12 1028 76 10000 7.2 310 06:52 25.05.2020
3481 Clouds 12 1028 76 10000 7.7 300 06:31 25.05.2020
3482 Clouds 12 1027 82 10000 6.7 290 04:18 25.05.2020
3483 Clouds 12 1027 87 10000 5.7 270 03:23 25.05.2020
3484 Clouds 12 1027 87 10000 6.2 270 02:45 25.05.2020
3485 Clouds 12 1027 87 10000 5.1 270 01:57 25.05.2020
3486 Clouds 12 1027 87 10000 5.1 270 01:29 25.05.2020
3487 Clouds 12 1027 87 10000 4.6 270 00:42 25.05.2020
3488 Clouds 12 1027 87 10000 4.6 270 00:20 25.05.2020
3489 Clouds 12 1027 87 10000 4.1 270 23:57 24.05.2020
3490 Clouds 12 1027 87 10000 4.6 280 23:37 24.05.2020
3491 Clouds 12 1027 87 10000 4.6 280 23:18 24.05.2020
3492 Clouds 13 1026 76 10000 4.6 280 22:41 24.05.2020
3493 Clouds 13 1026 76 10000 4.6 280 22:19 24.05.2020
3494 Clouds 13 1026 76 10000 4.6 290 21:57 24.05.2020
3495 Clouds 14 1026 71 10000 7.2 300 21:39 24.05.2020
3496 Clouds 14 1026 71 10000 7.2 300 21:20 24.05.2020
3497 Clouds 15 1026 67 10000 7.2 300 20:56 24.05.2020
3498 Clouds 15 1025 67 10000 7.2 300 20:38 24.05.2020
3499 Clouds 15 1025 67 10000 7.2 300 20:18 24.05.2020
3500 Clouds 15 1025 67 10000 7.7 300 19:55 24.05.2020
3501 Clouds 15 1025 62 10000 7.7 300 19:36 24.05.2020
3502 Clouds 15 1025 62 10000 7.7 300 19:18 24.05.2020
3503 Clouds 16 1024 67 10000 8.2 300 18:41 24.05.2020
3504 Clouds 16 1024 67 10000 8.2 300 18:23 24.05.2020
3505 Clouds 16 1024 67 10000 6.7 300 17:56 24.05.2020
3506 Clouds 16 1024 77 10000 5.7 270 17:37 24.05.2020
3507 Clouds 16 1024 77 10000 5.7 270 17:19 24.05.2020
3508 Clouds 15 1024 82 10000 6.2 260 16:54 24.05.2020
3509 Rain 15 1025 87 10000 6.7 250 16:36 24.05.2020
3510 Rain 15 1025 87 10000 6.7 250 16:18 24.05.2020
3511 Clouds 14 1024 87 10000 4.6 260 15:40 24.05.2020
3512 Clouds 14 1024 87 10000 4.6 260 15:20 24.05.2020
3513 Rain 14 1024 87 10000 5.7 250 14:58 24.05.2020
3514 Rain 13 1024 82 10000 6.7 260 14:40 24.05.2020
3515 Rain 13 1024 82 10000 6.7 260 14:21 24.05.2020
3516 Rain 13 1024 76 10000 7.7 260 13:55 24.05.2020
3517 Clouds 14 1024 67 10000 8.2 280 13:37 24.05.2020
3518 Clouds 14 1024 67 10000 8.2 280 13:18 24.05.2020
3519 Clouds 14 1024 67 10000 8.2 260 12:55 24.05.2020
3520 Clouds 16 1023 55 10000 7.7 260 12:37 24.05.2020
3521 Clouds 16 1023 55 10000 7.7 260 12:18 24.05.2020
3522 Clouds 16 1023 59 10000 9.8 260 11:54 24.05.2020
3523 Clouds 15 1023 67 10000 7.2 260 11:36 24.05.2020
3524 Clouds 14 1023 67 10000 7.2 260 11:18 24.05.2020
3525 Clouds 15 1023 62 10000 8.7 260 10:41 24.05.2020
3526 Clouds 15 1023 62 10000 8.7 260 10:23 24.05.2020
3527 Clouds 14 1023 71 10000 6.7 250 09:56 24.05.2020
3528 -273 0 0 0 0 0 09:38 24.05.2020
3529 Clouds 13 1023 71 10000 7.7 250 09:18 24.05.2020
3530 Clouds 13 1023 76 10000 7.2 250 08:42 24.05.2020
3531 Clouds 13 1023 76 10000 7.2 250 08:24 24.05.2020
3532 Clouds 13 1023 81 10000 6.2 240 07:58 24.05.2020
3533 Clouds 12 1022 81 10000 5.7 230 07:40 24.05.2020
3534 Clouds 12 1022 81 10000 5.7 230 07:21 24.05.2020
3535 Clouds 12 1022 81 10000 4.6 230 06:39 24.05.2020
3536 Rain 11 1022 81 10000 5.7 240 05:50 24.05.2020
3537 Clouds 11 1022 76 10000 4.6 240 03:57 24.05.2020
3538 Clouds 11 1022 71 10000 5.7 240 03:37 24.05.2020
3539 Clouds 11 1022 76 10000 4.1 220 02:26 24.05.2020
3540 Clouds 11 1022 71 10000 3.6 220 01:21 24.05.2020
3541 Clouds 10 1022 76 10000 3.6 200 00:38 24.05.2020
3542 Clouds 11 1022 76 10000 3.6 200 00:20 24.05.2020
3543 Rain 12 1022 66 10000 2.1 270 23:40 23.05.2020
3544 Rain 12 1022 66 10000 2.1 270 23:20 23.05.2020
3545 Rain 12 1022 66 10000 2.6 270 22:56 23.05.2020
3546 Rain 12 1022 62 10000 3.1 260 22:37 23.05.2020
3547 Rain 12 1022 62 10000 3.1 260 22:19 23.05.2020
3548 Clouds 13 1021 58 10000 4.1 250 21:57 23.05.2020
3549 Clouds 14 1021 51 10000 5.1 250 21:37 23.05.2020
3550 Clouds 15 1021 51 10000 5.1 250 21:19 23.05.2020
3551 Clouds 15 1021 48 10000 4.6 250 20:56 23.05.2020
3552 Clouds 15 1020 44 10000 6.7 270 20:37 23.05.2020
3553 Clouds 15 1020 44 10000 6.7 270 20:18 23.05.2020
3554 Clouds 17 1020 36 10000 7.7 270 19:41 23.05.2020
3555 Clouds 17 1020 36 10000 7.7 270 19:19 23.05.2020
3556 Clouds 18 1020 36 10000 9.8 270 18:57 23.05.2020
3557 Clouds 18 1020 36 10000 10.3 270 18:39 23.05.2020
3558 Clouds 19 1020 36 10000 10.3 270 18:21 23.05.2020
3559 Rain 19 1019 34 10000 9.8 260 17:55 23.05.2020
3560 Rain 19 1019 37 10000 9.3 250 17:37 23.05.2020
3561 Rain 19 1019 37 10000 9.3 250 17:19 23.05.2020
3562 Clouds 19 1019 42 10000 7.2 270 16:56 23.05.2020
3563 Clouds 19 1019 45 10000 7.2 250 16:37 23.05.2020
3564 Clouds 19 1019 45 10000 7.2 250 16:19 23.05.2020
3565 Clouds 18 1019 59 10000 5.7 250 15:42 23.05.2020
3566 Clouds 18 1019 59 10000 5.7 250 15:24 23.05.2020
3567 Clouds 18 1019 59 10000 5.7 250 15:24 23.05.2020
3568 Clouds 17 1019 71 10000 4.1 230 14:58 23.05.2020
3569 Thunderstorm 15 1019 71 10000 3.6 230 14:39 23.05.2020
3570 Thunderstorm 15 1019 71 10000 3.6 230 14:20 23.05.2020
3571 Thunderstorm 15 1019 76 10000 4.1 270 13:40 23.05.2020
3572 Thunderstorm 16 1019 76 10000 4.1 270 13:19 23.05.2020
3573 Rain 16 1019 76 9000 11.8 270 12:56 23.05.2020
3574 Clouds 17 1019 67 10000 6.2 250 12:38 23.05.2020
3575 Clouds 16 1019 67 10000 6.2 250 12:18 23.05.2020
3576 Rain 16 1019 67 10000 5.7 250 11:43 23.05.2020
3577 Rain 16 1019 67 10000 5.7 250 11:22 23.05.2020
3578 Rain 16 1019 67 10000 6.2 260 10:57 23.05.2020
3579 Rain 16 1018 67 10000 5.1 260 10:39 23.05.2020
3580 Rain 16 1018 67 10000 5.1 260 10:20 23.05.2020
3581 Rain 15 1018 67 10000 5.1 250 09:58 23.05.2020
3582 Rain 14 1018 71 10000 4.1 240 09:40 23.05.2020
3583 Clouds 13 1018 71 10000 4.1 240 09:21 23.05.2020
3584 Clouds 13 1018 71 10000 4.6 240 08:44 23.05.2020
3585 Clouds 13 1018 71 10000 4.6 240 08:20 23.05.2020
3586 Clouds 13 1018 76 10000 4.1 240 07:59 23.05.2020
3587 Clouds 12 1018 71 10000 2.6 220 07:39 23.05.2020
3588 Clouds 12 1018 71 10000 2.6 220 07:21 23.05.2020
3589 Clouds 11 1018 71 10000 2.1 240 06:39 23.05.2020
3590 Clouds 10 1017 93 10000 1 180 05:46 23.05.2020
3591 Clouds 11 1017 93 10000 2.1 230 03:48 23.05.2020
3592 Clouds 12 1017 93 10000 3.1 230 03:21 23.05.2020
3593 Clouds 13 1017 100 10000 2.1 220 01:59 23.05.2020
3594 Clouds 13 1017 100 10000 2.1 220 01:59 23.05.2020
3595 Clouds 14 1017 100 10000 2.6 230 01:27 23.05.2020
3596 Clouds 14 1017 100 10000 1 230 00:47 23.05.2020
3597 Clouds 14 1017 100 10000 1 230 00:47 23.05.2020
3598 Clouds 15 1017 93 10000 1.5 220 00:29 23.05.2020
3599 Clouds 15 1017 100 10000 2.6 210 23:58 22.05.2020
3600 Clouds 15 1017 100 10000 2.1 200 23:39 22.05.2020
3601 Clouds 15 1017 100 10000 2.1 200 23:19 22.05.2020
3602 Clouds 15 1017 100 10000 1.5 220 22:56 22.05.2020
3603 Clouds 16 1017 93 10000 1 0 22:38 22.05.2020
3604 Clouds 16 1017 93 10000 1 0 22:18 22.05.2020
3605 Clouds 17 1016 82 10000 2.6 310 21:44 22.05.2020
3606 Clouds 17 1016 82 10000 2.6 310 21:21 22.05.2020
3607 Clouds 17 1016 88 10000 2.1 300 20:55 22.05.2020
3608 Clouds 17 1016 88 10000 4.1 300 20:36 22.05.2020
3609 Clouds 18 1016 88 10000 4.1 300 20:18 22.05.2020
3610 Rain 18 1015 93 10000 1.5 0 19:43 22.05.2020
3611 Rain 18 1015 93 10000 1.5 0 19:24 22.05.2020
3612 Rain 18 1015 93 10000 2.1 0 18:40 22.05.2020
3613 Rain 18 1015 93 10000 2.1 0 18:21 22.05.2020
3614 Rain 18 1015 88 8000 3.1 140 17:59 22.05.2020
3615 Rain 18 1014 77 10000 5.7 130 17:39 22.05.2020
3616 Rain 19 1014 77 10000 5.7 130 17:19 22.05.2020
3617 Clouds 19 1015 72 10000 5.7 120 16:55 22.05.2020
3618 Rain 19 1015 72 10000 5.7 120 16:37 22.05.2020
3619 Rain 18 1015 72 10000 5.7 120 16:19 22.05.2020
3620 Rain 18 1016 77 10000 5.1 100 15:42 22.05.2020
3621 Rain 18 1016 77 10000 5.1 100 15:42 22.05.2020
3622 Rain 18 1016 77 10000 5.1 100 15:21 22.05.2020
3623 Rain 18 1017 82 10000 4.1 90 14:45 22.05.2020
3624 Rain 18 1017 82 10000 4.1 90 14:45 22.05.2020
3625 Rain 18 1018 82 10000 3.1 70 14:26 22.05.2020
3626 Rain 18 1018 82 10000 3.1 70 14:26 22.05.2020
3627 Rain 19 1018 63 9000 1 0 13:50 22.05.2020
3628 Rain 19 1018 56 10000 1 0 13:22 22.05.2020
3629 Rain 19 1018 56 10000 1 0 13:22 22.05.2020
3630 Rain 20 1017 56 10000 3.6 350 12:59 22.05.2020
3631 Clouds 19 1017 59 10000 4.1 150 12:39 22.05.2020
3632 Clouds 20 1017 59 10000 4.1 150 12:21 22.05.2020
3633 Clouds 20 1017 59 10000 3.6 140 11:45 22.05.2020
3634 Clouds 19 1017 59 10000 4.1 140 11:22 22.05.2020
3635 Clouds 19 1017 59 10000 4.1 130 10:58 22.05.2020
3636 Clouds 18 1017 63 10000 4.1 140 10:38 22.05.2020
3637 Clouds 18 1017 63 10000 4.1 140 10:20 22.05.2020
3638 Clouds 18 1017 63 10000 3.1 140 09:55 22.05.2020
3639 Clouds 18 1018 59 10000 2.1 130 09:36 22.05.2020
3640 Clouds 17 1018 59 10000 2.1 130 09:18 22.05.2020
3641 Clouds 16 1018 58 10000 3.1 140 08:41 22.05.2020
3642 Clouds 16 1018 58 10000 3.1 140 08:19 22.05.2020
3643 Clouds 15 1018 58 10000 3.6 140 07:52 22.05.2020
3644 Clouds 14 1018 62 10000 2.6 130 07:23 22.05.2020
3645 Clouds 14 1018 62 10000 2.6 130 06:52 22.05.2020
3646 Clouds 13 1018 58 10000 2.6 140 06:29 22.05.2020
3647 Clouds 13 1019 62 10000 3.1 120 05:37 22.05.2020
3648 Clouds 13 1019 62 10000 3.1 120 05:37 22.05.2020
3649 Clouds 13 1019 62 10000 4.1 120 04:50 22.05.2020
3650 Clouds 13 1019 67 10000 2.6 110 03:57 22.05.2020
3651 Clouds 13 1020 67 10000 3.1 110 03:39 22.05.2020
3652 Clouds 14 1020 62 10000 3.6 130 02:55 22.05.2020
3653 Clouds 16 1020 55 10000 3.1 120 01:48 22.05.2020
3654 Clouds 16 1020 55 10000 3.1 120 01:22 22.05.2020
3655 Clouds 16 1021 59 10000 3.1 100 00:34 22.05.2020
3656 -273 0 0 0 0 0 23:59 21.05.2020
3657 Clouds 17 1020 52 10000 3.6 120 23:40 21.05.2020
3658 Clouds 17 1020 52 10000 3.6 120 23:22 21.05.2020
3659 Clouds 17 1020 52 10000 3.1 120 22:57 21.05.2020
3660 Clouds 18 1020 49 10000 2.1 120 22:37 21.05.2020
3661 Clouds 19 1020 49 10000 2.1 120 22:19 21.05.2020
3662 Clouds 19 1020 46 10000 2.1 120 21:48 21.05.2020
3663 Clouds 21 1020 43 10000 2.6 130 21:27 21.05.2020
3664 Clouds 21 1020 43 10000 2.1 120 20:58 21.05.2020
3665 Clouds 22 1020 38 10000 2.6 110 20:40 21.05.2020
3666 Clouds 22 1020 38 10000 2.6 110 20:21 21.05.2020
3667 Clouds 23 1020 38 10000 3.6 110 19:40 21.05.2020
3668 Clouds 23 1020 38 10000 3.6 110 19:20 21.05.2020
3669 Clouds 23 1020 38 10000 3.6 120 18:58 21.05.2020
3670 Clouds 24 1020 36 10000 2.1 130 18:37 21.05.2020
3671 Clouds 24 1020 36 10000 2.1 130 18:18 21.05.2020
3672 Clouds 24 1021 36 10000 2.6 190 17:55 21.05.2020
3673 Clouds 24 1021 38 10000 2.1 360 17:36 21.05.2020
3674 Clouds 24 1021 38 10000 2.1 360 17:18 21.05.2020
3675 Clouds 23 1022 38 10000 1.5 0 16:41 21.05.2020
3676 Clouds 23 1022 38 10000 1.5 0 16:22 21.05.2020
3677 Clouds 22 1022 38 10000 2.6 0 15:41 21.05.2020
3678 Clouds 23 1022 38 10000 2.6 0 15:22 21.05.2020
3679 Clouds 22 1022 40 10000 1.5 0 14:42 21.05.2020
3680 Clouds 22 1022 40 10000 1.5 0 14:23 21.05.2020
3681 Clear 22 1022 43 10000 2.6 210 13:58 21.05.2020
3682 Clear 22 1023 40 10000 2.1 0 13:38 21.05.2020
3683 Clear 22 1023 40 10000 2.1 0 13:19 21.05.2020
3684 Clear 20 1023 45 10000 3.6 120 12:40 21.05.2020
3685 Clear 20 1023 45 10000 3.6 120 12:22 21.05.2020
3686 Clear 20 1023 45 10000 2.6 120 11:58 21.05.2020
3687 Clear 20 1023 45 10000 2.1 150 11:39 21.05.2020
3688 Clear 20 1023 45 10000 2.1 150 11:21 21.05.2020
3689 Clear 20 1023 48 10000 2.1 140 10:54 21.05.2020
3690 Clear 19 1023 48 10000 3.1 130 10:36 21.05.2020
3691 Clear 19 1023 48 10000 3.1 130 10:18 21.05.2020
3692 Clear 17 1023 55 10000 2.6 140 09:42 21.05.2020
3693 Clear 15 1023 55 10000 2.6 140 09:24 21.05.2020
3694 Clear 14 1023 67 10000 2.6 160 08:58 21.05.2020
3695 Clear 13 1023 66 10000 1.5 160 08:39 21.05.2020
3696 Clouds 13 1023 66 10000 1.5 160 08:21 21.05.2020
3697 Clouds 12 1023 81 10000 1 80 07:43 21.05.2020
3698 Clouds 11 1023 81 10000 1 80 07:22 21.05.2020
3699 Clouds 9 1023 93 10000 1.5 70 06:44 21.05.2020
3700 Clouds 8 1023 93 10000 2.1 70 05:50 21.05.2020
3701 Clouds 9 1023 100 7000 1 0 04:25 21.05.2020
3702 Clouds 10 1023 100 10000 1 70 03:21 21.05.2020
3703 Clouds 10 1023 100 10000 1 70 03:21 21.05.2020
3704 Clouds 10 1023 87 10000 1.5 50 02:31 21.05.2020
3705 Clouds 11 1023 87 10000 1 0 01:58 21.05.2020
3706 Clouds 11 1023 82 10000 1 60 01:39 21.05.2020
3707 Clouds 12 1023 82 10000 1 60 01:18 21.05.2020
3708 Clouds 13 1023 76 10000 2.6 30 00:41 21.05.2020
3709 Clouds 13 1023 76 10000 2.6 30 00:21 21.05.2020
3710 Clouds 14 1023 72 10000 2.6 30 23:40 20.05.2020
3711 Clouds 14 1023 72 10000 2.6 30 23:19 20.05.2020
3712 Clouds 14 1023 67 10000 3.1 10 22:55 20.05.2020
3713 Clouds 15 1023 63 10000 2.6 320 22:37 20.05.2020
3714 Clouds 15 1023 63 10000 2.6 320 22:19 20.05.2020
3715 Clouds 17 1023 63 10000 2.6 290 21:40 20.05.2020
3716 Clear 18 1023 63 10000 2.6 290 21:20 20.05.2020
3717 Clear 18 1023 59 10000 2.6 320 20:44 20.05.2020
3718 Clouds 18 1023 59 10000 2.6 320 20:24 20.05.2020
3719 Clouds 19 1022 55 10000 2.1 330 19:55 20.05.2020
3720 Clouds 19 1022 55 10000 1.5 0 19:37 20.05.2020
3721 Clouds 20 1022 55 10000 1.5 0 19:18 20.05.2020
3722 Clouds 19 1023 52 10000 2.6 300 18:42 20.05.2020
3723 Clouds 20 1023 52 10000 2.6 300 18:22 20.05.2020
3724 Clouds 19 1023 59 10000 3.6 300 17:42 20.05.2020
3725 Clouds 19 1023 59 10000 3.6 300 17:22 20.05.2020
3726 Clouds 19 1023 59 10000 3.6 300 17:22 20.05.2020
3727 Clouds 19 1023 55 10000 3.1 300 16:57 20.05.2020
3728 Clouds 19 1023 55 10000 2.6 300 16:39 20.05.2020
3729 Clouds 19 1023 55 10000 2.6 300 16:20 20.05.2020
3730 Clouds 19 1023 55 10000 2.1 350 15:44 20.05.2020
3731 Clouds 19 1023 55 10000 2.1 350 15:25 20.05.2020
3732 Clouds 19 1023 52 10000 2.6 30 14:59 20.05.2020
3733 Clouds 19 1023 52 10000 1 0 14:37 20.05.2020
3734 Clouds 19 1023 52 10000 1 0 14:19 20.05.2020
3735 Clouds 20 1023 52 10000 2.6 0 13:39 20.05.2020
3736 Clouds 20 1023 52 10000 2.6 0 13:18 20.05.2020
3737 Clouds 18 1023 55 10000 2.1 0 12:42 20.05.2020
3738 Clouds 18 1023 55 10000 2.1 0 12:21 20.05.2020
3739 Clouds 17 1023 51 10000 1 0 11:39 20.05.2020
3740 Clouds 17 1023 51 10000 1 0 11:20 20.05.2020
3741 Clouds 16 1023 59 10000 1.5 0 10:58 20.05.2020
3742 Clouds 16 1023 58 10000 1.5 0 10:40 20.05.2020
3743 Clouds 16 1023 58 10000 1.5 0 10:19 20.05.2020
3744 Clouds 15 1023 67 10000 2.1 70 09:41 20.05.2020
3745 Clouds 14 1023 67 10000 2.1 70 09:21 20.05.2020
3746 Drizzle 13 1023 76 10000 2.1 60 08:42 20.05.2020
3747 Drizzle 13 1023 76 10000 2.1 60 08:42 20.05.2020
3748 Drizzle 13 1023 76 10000 2.1 60 08:20 20.05.2020
3749 Drizzle 12 1023 76 10000 1.5 10 07:55 20.05.2020
3750 Clouds 12 1022 82 10000 1.5 30 07:37 20.05.2020
3751 Clouds 12 1022 82 10000 1.5 30 07:19 20.05.2020
3752 Rain 12 1022 87 10000 2.1 30 06:28 20.05.2020
3753 Clouds 13 1022 82 10000 2.1 30 05:19 20.05.2020
3754 Clouds 13 1022 82 10000 1.5 360 04:25 20.05.2020
3755 Clouds 12 1022 82 10000 2.1 360 03:38 20.05.2020
3756 Clouds 13 1022 76 10000 2.6 330 01:58 20.05.2020
3757 Clouds 12 1022 82 10000 2.1 300 01:26 20.05.2020
3758 Clouds 13 1022 76 10000 2.6 340 00:42 20.05.2020
3759 Clouds 13 1022 76 10000 2.6 340 00:23 20.05.2020
3760 Clouds 14 1022 76 10000 2.6 350 23:40 19.05.2020
3761 Clouds 14 1022 76 10000 2.6 350 23:19 19.05.2020
3762 Clouds 15 1022 72 10000 3.6 340 22:56 19.05.2020
3763 Clouds 15 1022 72 10000 3.1 330 22:38 19.05.2020
3764 Clouds 15 1022 72 10000 3.1 330 22:18 19.05.2020
3765 Clouds 15 1021 72 10000 3.1 300 21:56 19.05.2020
3766 Clouds 15 1021 72 10000 3.1 290 21:37 19.05.2020
3767 Clouds 15 1021 72 10000 3.1 290 21:19 19.05.2020
3768 Clouds 15 1021 67 10000 3.1 320 20:56 19.05.2020
3769 Clouds 16 1021 67 10000 3.1 340 20:38 19.05.2020
3770 Clouds 16 1021 67 10000 3.1 340 20:19 19.05.2020
3771 Clouds 16 1021 72 10000 4.6 350 19:39 19.05.2020
3772 Clouds 16 1021 72 10000 4.6 350 19:21 19.05.2020
3773 Clouds 17 1021 67 10000 4.6 340 18:58 19.05.2020
3774 Clouds 18 1021 59 10000 5.1 340 18:40 19.05.2020
3775 Clouds 17 1021 59 10000 5.1 340 18:20 19.05.2020
3776 Clouds 19 1020 55 10000 4.1 330 17:43 19.05.2020
3777 Clouds 18 1020 55 10000 4.1 330 17:21 19.05.2020
3778 Clouds 18 1020 59 10000 4.6 320 16:59 19.05.2020
3779 Clouds 18 1020 59 10000 4.6 320 16:59 19.05.2020
3780 Clouds 18 1021 59 10000 4.1 330 16:38 19.05.2020
3781 Clouds 17 1021 59 10000 4.1 330 16:19 19.05.2020
3782 Clouds 17 1021 59 10000 5.1 330 15:47 19.05.2020
3783 Clouds 17 1021 59 10000 5.7 320 15:22 19.05.2020
3784 Clouds 17 1021 63 10000 5.1 330 14:57 19.05.2020
3785 Clouds 19 1021 59 10000 5.7 300 14:39 19.05.2020
3786 Clouds 19 1021 59 10000 5.7 300 14:20 19.05.2020
3787 Clouds 17 1021 63 10000 5.1 310 13:57 19.05.2020
3788 Clouds 18 1020 59 10000 4.1 300 13:39 19.05.2020
3789 Clouds 18 1020 59 10000 4.1 300 13:20 19.05.2020
3790 Clouds 18 1020 59 10000 4.6 310 12:56 19.05.2020
3791 Clouds 18 1021 59 10000 5.1 300 12:37 19.05.2020
3792 Clouds 18 1021 59 10000 5.1 300 12:19 19.05.2020
3793 Clouds 16 1021 63 10000 5.1 290 11:54 19.05.2020
3794 Clouds 15 1020 67 10000 3.6 260 11:36 19.05.2020
3795 Clouds 15 1020 67 10000 3.6 260 11:36 19.05.2020
3796 Clouds 15 1020 67 10000 3.6 260 11:18 19.05.2020
3797 Clouds 15 1020 67 10000 3.6 270 10:42 19.05.2020
3798 Clouds 15 1020 67 10000 3.6 270 10:23 19.05.2020
3799 Clouds 15 1020 72 10000 3.6 240 09:55 19.05.2020
3800 Clouds 14 1020 76 10000 3.6 240 09:37 19.05.2020
3801 Clouds 13 1020 76 10000 3.6 240 09:18 19.05.2020
3802 Clouds 12 1020 87 10000 2.6 260 08:41 19.05.2020
3803 Clouds 12 1020 87 10000 2.6 260 08:23 19.05.2020
3804 Clouds 12 1020 87 10000 2.1 230 07:42 19.05.2020
3805 Clouds 12 1020 87 10000 2.1 230 07:24 19.05.2020
3806 Clouds 12 1020 93 10000 2.1 230 06:41 19.05.2020
3807 Clouds 12 1020 93 10000 2.1 230 06:22 19.05.2020
3808 Clouds 12 1020 87 10000 2.1 240 05:40 19.05.2020
3809 Clouds 12 1020 87 10000 1.5 240 04:54 19.05.2020
3810 Clouds 12 1021 81 10000 2.1 270 02:59 19.05.2020
3811 Clouds 12 1021 81 10000 2.6 300 01:22 19.05.2020
3812 Clouds 11 1021 87 10000 2.6 290 00:41 19.05.2020
3813 Clouds 11 1021 87 10000 2.6 290 00:21 19.05.2020
3814 Clouds 12 1021 82 10000 3.1 300 23:40 18.05.2020
3815 Clouds 13 1021 82 10000 3.1 300 23:21 18.05.2020
3816 Clouds 13 1021 76 10000 4.1 310 22:59 18.05.2020
3817 Clouds 14 1020 72 10000 5.1 310 22:40 18.05.2020
3818 Clouds 14 1020 72 10000 5.1 310 22:21 18.05.2020
3819 Clouds 16 1020 63 10000 5.1 310 21:43 18.05.2020
3820 Clouds 16 1020 63 10000 5.1 310 21:22 18.05.2020
3821 Clouds 17 1020 63 10000 5.7 310 20:59 18.05.2020
3822 Clouds 18 1020 63 10000 5.7 310 20:41 18.05.2020
3823 Clouds 19 1020 55 10000 6.2 310 20:21 18.05.2020
3824 Clouds 19 1020 55 10000 6.2 310 19:57 18.05.2020
3825 Clouds 19 1020 55 10000 6.7 320 19:39 18.05.2020
3826 Clouds 19 1020 55 10000 6.7 320 19:19 18.05.2020
3827 Clouds 20 1019 52 10000 7.2 310 18:45 18.05.2020
3828 Clouds 20 1019 52 10000 7.2 310 18:24 18.05.2020
3829 Clouds 21 1020 49 10000 6.7 290 17:54 18.05.2020
3830 Clouds 21 1020 49 10000 6.2 280 17:36 18.05.2020
3831 Clouds 21 1020 49 10000 6.2 280 17:18 18.05.2020
3832 Clouds 20 1020 52 10000 7.2 260 16:43 18.05.2020
3833 Clouds 20 1020 52 10000 7.2 260 16:21 18.05.2020
3834 Clouds 20 1020 52 10000 6.2 270 15:57 18.05.2020
3835 Clouds 20 1020 49 10000 7.2 280 15:39 18.05.2020
3836 Clouds 19 1020 49 10000 7.2 280 15:20 18.05.2020
3837 Clouds 19 1020 49 10000 7.2 280 14:56 18.05.2020
3838 Clouds 19 1020 49 10000 6.7 270 14:38 18.05.2020
3839 Clouds 20 1020 49 10000 6.7 270 14:19 18.05.2020
3840 Clouds 20 1020 49 10000 6.7 260 13:41 18.05.2020
3841 Clouds 19 1020 49 10000 6.7 260 13:20 18.05.2020
3842 Clouds 19 1020 45 10000 6.7 260 12:58 18.05.2020
3843 Clouds 18 1020 48 10000 5.7 270 12:40 18.05.2020
3844 Clouds 18 1020 48 10000 5.7 270 12:19 18.05.2020
3845 Clouds 17 1020 48 10000 6.7 250 11:58 18.05.2020
3846 Clouds 17 1020 48 10000 6.7 240 11:40 18.05.2020
3847 Clouds 17 1020 48 10000 6.7 240 11:21 18.05.2020
3848 Clouds 16 1021 55 10000 5.1 240 10:46 18.05.2020
3849 Clouds 16 1021 55 10000 5.1 240 10:23 18.05.2020
3850 Clouds 16 1021 55 10000 5.1 240 10:23 18.05.2020
3851 Clouds 15 1020 54 10000 5.1 240 09:45 18.05.2020
3852 Clouds 14 1020 54 10000 5.1 240 09:26 18.05.2020
3853 Clouds 12 1020 58 10000 5.7 240 08:57 18.05.2020
3854 Clouds 12 1020 66 10000 4.1 230 08:39 18.05.2020
3855 Clouds 12 1020 66 10000 4.1 230 08:20 18.05.2020
3856 Clouds 12 1020 71 10000 3.1 220 07:42 18.05.2020
3857 Clouds 11 1020 71 10000 3.1 220 07:21 18.05.2020
3858 Clouds 11 1020 71 10000 3.6 220 06:47 18.05.2020
3859 Clouds 10 1020 71 10000 3.1 220 06:22 18.05.2020
3860 Clouds 9 1021 81 10000 2.1 220 05:42 18.05.2020
3861 Clouds 8 1021 93 0 1.5 200 03:39 18.05.2020
3862 Clouds 8 1021 93 10000 1.5 210 02:56 18.05.2020
3863 Clouds 8 1021 93 10000 1 0 01:45 18.05.2020
3864 Clouds 10 1022 87 10000 1.5 240 00:41 18.05.2020
3865 Clouds 10 1022 87 10000 1.5 240 00:18 18.05.2020
3866 Clouds 10 1022 81 10000 2.1 280 23:55 17.05.2020
3867 Clouds 11 1022 76 10000 2.6 310 23:36 17.05.2020
3868 Clouds 11 1022 76 10000 2.6 310 23:18 17.05.2020
3869 Clouds 13 1022 67 10000 4.1 310 22:40 17.05.2020
3870 Clear 14 1022 67 10000 4.1 310 22:22 17.05.2020
3871 Clear 14 1021 58 10000 5.1 300 21:59 17.05.2020
3872 Clear 15 1021 51 10000 5.1 280 21:41 17.05.2020
3873 Clouds 15 1021 51 10000 5.1 280 21:19 17.05.2020
3874 Clouds 16 1021 48 10000 6.2 300 20:56 17.05.2020
3875 Clouds 17 1021 45 10000 6.7 280 20:37 17.05.2020
3876 Clouds 17 1021 45 10000 6.7 280 20:18 17.05.2020
3877 Clouds 17 1021 45 10000 6.2 270 19:42 17.05.2020
3878 Rain 17 1021 45 10000 6.2 270 19:24 17.05.2020
3879 Rain 17 1021 45 10000 6.7 270 18:57 17.05.2020
3880 Rain 17 1021 45 10000 7.7 270 18:38 17.05.2020
3881 Rain 17 1021 45 10000 7.7 270 18:20 17.05.2020
3882 Rain 17 1021 42 10000 7.2 270 17:41 17.05.2020
3883 Clouds 17 1021 42 10000 7.2 270 17:23 17.05.2020
3884 Clouds 18 1021 39 10000 7.7 260 16:57 17.05.2020
3885 Clouds 18 1021 39 10000 6.2 260 16:39 17.05.2020
3886 Rain 18 1021 39 10000 6.2 260 16:20 17.05.2020
3887 Rain 18 1021 39 10000 6.2 260 16:20 17.05.2020
3888 Rain 18 1021 42 10000 6.2 250 15:47 17.05.2020
3889 Rain 18 1022 39 10000 6.2 250 15:25 17.05.2020
3890 Rain 17 1022 42 10000 6.2 270 14:58 17.05.2020
3891 Rain 18 1022 45 10000 5.7 250 14:40 17.05.2020
3892 Clouds 18 1022 45 10000 5.7 250 14:22 17.05.2020
3893 Clouds 17 1022 48 10000 5.1 260 13:43 17.05.2020
3894 Clouds 17 1022 48 10000 5.1 260 13:21 17.05.2020
3895 Clouds 15 1022 58 10000 4.1 270 10:50 17.05.2020
3896 Clouds 6 1021 100 10000 2.1 250 03:55 17.05.2020
3897 Clouds 7 1021 87 10000 2.6 280 02:28 17.05.2020
3898 Clouds 8 1021 87 10000 3.1 290 01:55 17.05.2020
3899 Clouds 10 1021 71 10000 4.1 300 00:56 17.05.2020
3900 Clouds 10 1020 81 10000 2.6 290 00:38 17.05.2020
3901 Clouds 10 1020 76 10000 3.1 300 23:57 16.05.2020
3902 Clouds 10 1020 71 10000 2.6 300 23:39 16.05.2020
3903 Clouds 11 1020 71 10000 2.6 300 23:19 16.05.2020
3904 Clouds 11 1020 66 10000 3.6 330 22:57 16.05.2020
3905 Clouds 11 1020 66 10000 4.1 330 22:39 16.05.2020
3906 Clouds 11 1020 66 10000 4.1 330 22:19 16.05.2020
3907 Clouds 12 1020 62 10000 3.6 330 21:44 16.05.2020
3908 Clouds 13 1019 62 10000 3.1 330 21:25 16.05.2020
3909 Clouds 13 1019 62 10000 4.1 340 20:57 16.05.2020
3910 Clouds 14 1019 58 10000 5.1 340 20:39 16.05.2020
3911 Clouds 14 1019 58 10000 5.1 340 20:20 16.05.2020
3912 Clouds 14 1019 58 10000 5.7 340 19:57 16.05.2020
3913 Clouds 15 1019 54 10000 5.7 340 19:39 16.05.2020
3914 Clouds 15 1019 54 10000 5.7 340 19:21 16.05.2020
3915 Clouds 15 1019 51 10000 4.1 290 18:42 16.05.2020
3916 Clouds 15 1019 51 10000 4.1 290 18:22 16.05.2020
3917 Clouds 15 1019 51 10000 4.6 280 17:56 16.05.2020
3918 Clouds 16 1019 48 10000 5.1 260 17:38 16.05.2020
3919 Clouds 16 1019 48 10000 5.1 260 17:19 16.05.2020
3920 Clouds 16 1019 48 10000 5.1 260 17:19 16.05.2020
3921 Clouds 15 1020 51 10000 4.6 250 16:39 16.05.2020
3922 Clouds 15 1020 51 10000 4.6 250 16:20 16.05.2020
3923 Clouds 16 1020 47 10000 7.2 260 15:57 16.05.2020
3924 Clouds 16 1020 44 10000 6.7 250 15:38 16.05.2020
3925 Clouds 16 1020 44 10000 6.7 250 15:19 16.05.2020
3926 Clouds 16 1020 41 10000 5.7 260 14:43 16.05.2020
3927 Clouds 16 1020 41 10000 5.7 260 14:20 16.05.2020
3928 Clouds 16 1020 44 10000 5.1 260 13:57 16.05.2020
3929 Clouds 16 1020 38 10000 5.1 250 13:39 16.05.2020
3930 Clouds 16 1020 38 10000 5.1 250 13:21 16.05.2020
3931 Clouds 15 1021 44 10000 5.7 260 12:45 16.05.2020
3932 Clouds 15 1021 47 10000 6.2 260 12:22 16.05.2020
3933 Clouds 14 1021 54 10000 6.2 270 11:59 16.05.2020
3934 Clouds 14 1021 62 10000 5.1 220 11:38 16.05.2020
3935 Clouds 14 1021 62 10000 5.1 220 11:20 16.05.2020
3936 Clouds 13 1021 76 10000 4.6 230 10:56 16.05.2020
3937 Clouds 13 1021 76 10000 4.6 250 10:37 16.05.2020
3938 Clouds 13 1021 76 10000 4.6 250 10:18 16.05.2020
3939 Clouds 12 1022 76 10000 5.1 250 09:44 16.05.2020
3940 Clouds 10 1021 76 10000 3.6 250 09:26 16.05.2020
3941 Clouds 8 1021 87 10000 3.1 240 08:43 16.05.2020
3942 Clear 8 1021 87 10000 3.1 240 08:22 16.05.2020
3943 Clear 8 1021 87 10000 1 0 07:55 16.05.2020
3944 Clear 7 1021 93 10000 1.5 230 07:37 16.05.2020
3945 Clear 6 1021 93 10000 1.5 230 07:18 16.05.2020
3946 Clear 5 1021 100 10000 1 210 06:43 16.05.2020
3947 Clear 4 1021 100 10000 1 210 06:18 16.05.2020
3948 Clear 5 1021 93 10000 1 250 05:39 16.05.2020
3949 Clear 4 1021 93 10000 1.5 240 04:31 16.05.2020
3950 Clear 5 1021 86 10000 2.1 230 03:21 16.05.2020
3951 Clear 5 1022 93 10000 1 0 02:38 16.05.2020
3952 Clear 5 1022 86 10000 2.1 240 01:56 16.05.2020
3953 Clear 5 1022 86 10000 2.1 240 01:35 16.05.2020
3954 Clouds 6 1022 80 10000 2.1 240 00:56 16.05.2020
3955 Clouds 6 1022 81 10000 3.1 260 00:38 16.05.2020
3956 Clouds 6 1022 81 10000 3.1 260 00:18 16.05.2020
3957 Clouds 8 1022 70 10000 3.1 290 23:38 15.05.2020
3958 Clouds 8 1022 70 10000 3.1 290 23:18 15.05.2020
3959 Clouds 10 1021 61 10000 4.1 300 22:41 15.05.2020
3960 Clouds 10 1021 61 10000 4.1 300 22:20 15.05.2020
3961 Clouds 10 1021 61 10000 4.1 300 22:20 15.05.2020
3962 Clouds 10 1021 57 10000 4.1 300 21:56 15.05.2020
3963 Clouds 11 1021 57 10000 3.6 300 21:38 15.05.2020
3964 Clouds 11 1021 57 10000 3.6 300 21:20 15.05.2020
3965 Clouds 11 1021 57 10000 4.6 300 20:54 15.05.2020
3966 Clouds 12 1021 50 10000 5.7 300 20:36 15.05.2020
3967 Clouds 12 1021 50 10000 5.7 300 20:18 15.05.2020
3968 Clouds 12 1021 54 10000 5.7 310 19:42 15.05.2020
3969 Clouds 12 1021 54 10000 5.7 310 19:23 15.05.2020
3970 Clouds 13 1020 46 10000 6.7 310 18:48 15.05.2020
3971 Clouds 13 1020 47 10000 5.1 310 18:28 15.05.2020
3972 Clouds 13 1020 50 10000 6.2 310 17:59 15.05.2020
3973 Clouds 14 1020 47 10000 6.7 310 17:37 15.05.2020
3974 Clouds 14 1020 47 10000 6.7 310 17:18 15.05.2020
3975 Clouds 14 1020 58 10000 4.1 280 16:56 15.05.2020
3976 Rain 13 1020 66 10000 4.1 280 16:37 15.05.2020
3977 Rain 13 1020 66 10000 4.1 280 16:18 15.05.2020
3978 Clouds 13 1020 58 10000 5.1 280 15:41 15.05.2020
3979 Clouds 12 1020 58 10000 5.1 280 15:20 15.05.2020
3980 Clouds 12 1020 58 10000 6.2 290 14:57 15.05.2020
3981 Clouds 12 1020 58 10000 4.6 280 14:39 15.05.2020
3982 Clouds 12 1020 58 10000 4.6 280 14:21 15.05.2020
3983 Clouds 12 1020 58 10000 4.6 280 14:21 15.05.2020
3984 Clouds 12 1020 62 10000 5.7 300 13:42 15.05.2020
3985 Clouds 11 1020 62 10000 5.7 300 13:22 15.05.2020
3986 Clouds 12 1020 62 10000 6.2 290 12:56 15.05.2020
3987 Clouds 12 1020 58 10000 5.1 290 12:37 15.05.2020
3988 Clouds 12 1020 58 10000 5.1 290 12:18 15.05.2020
3989 Clouds 12 1020 62 10000 4.1 300 11:56 15.05.2020
3990 Clouds 12 1020 62 10000 5.7 290 11:37 15.05.2020
3991 Clouds 12 1020 62 10000 5.7 290 11:19 15.05.2020
3992 Clouds 12 1021 62 10000 4.1 250 10:56 15.05.2020
3993 Clouds 11 1021 61 10000 3.6 260 10:38 15.05.2020
3994 Clouds 10 1021 61 10000 3.6 260 10:19 15.05.2020
3995 Clouds 9 1021 65 10000 3.6 250 09:40 15.05.2020
3996 Clouds 8 1021 65 10000 3.6 250 09:20 15.05.2020
3997 -273 0 0 0 0 0 08:59 15.05.2020
3998 Clouds 6 1021 80 10000 1.5 240 08:38 15.05.2020
3999 Clouds 6 1021 80 10000 1.5 240 08:38 15.05.2020
4000 Clouds 6 1021 80 10000 1.5 240 08:38 15.05.2020
4001 Clouds 6 1021 80 10000 1.5 240 08:19 15.05.2020
4002 Clouds 2 1020 75 10000 1.5 230 07:46 15.05.2020
4003 Clouds 2 1020 83 10000 1.5 230 07:28 15.05.2020
4004 Clouds 1 1020 83 10000 1.5 220 06:58 15.05.2020
4005 Clear 0 1020 95 10000 2.1 280 05:56 15.05.2020
4006 Clear 1 1020 96 10000 2.6 300 04:38 15.05.2020
4007 Clear 1 1020 95 10000 2.6 290 03:49 15.05.2020
4008 Clear 2 1020 93 10000 2.1 300 02:44 15.05.2020
4009 Clear 2 1021 90 10000 2.1 290 01:32 15.05.2020
4010 Clear 4 1021 70 10000 1.5 360 00:58 15.05.2020
4011 Clear 4 1021 70 10000 2.6 350 00:39 15.05.2020
4012 Clear 5 1021 70 10000 2.6 350 00:21 15.05.2020
4013 Clear 5 1021 65 10000 4.1 350 23:41 14.05.2020
4014 Clear 5 1021 65 10000 4.1 350 23:41 14.05.2020
4015 Clear 5 1021 65 10000 4.1 350 23:18 14.05.2020
4016 Clear 6 1021 61 10000 3.6 340 22:42 14.05.2020
4017 Clear 7 1021 61 10000 3.6 340 22:23 14.05.2020
4018 Clear 7 1021 61 10000 4.1 340 21:58 14.05.2020
4019 Clear 7 1020 57 10000 4.1 340 21:40 14.05.2020
4020 Clear 7 1020 57 10000 4.1 340 21:40 14.05.2020
4021 Clear 8 1020 57 10000 4.1 340 21:20 14.05.2020
4022 Clear 9 1020 77 10000 4.6 340 20:57 14.05.2020
4023 Clear 10 1020 77 10000 5.1 340 20:39 14.05.2020
4024 Clouds 10 1020 71 10000 5.1 340 20:19 14.05.2020
4025 Clouds 10 1020 71 10000 5.1 340 20:19 14.05.2020
4026 Clouds 11 1020 43 10000 5.1 360 19:56 14.05.2020
4027 Clouds 11 1020 71 10000 5.7 360 19:37 14.05.2020
4028 Clouds 12 1020 62 10000 5.7 360 19:19 14.05.2020
4029 Clouds 11 1020 46 10000 5.1 350 18:56 14.05.2020
4030 Clouds 11 1020 62 10000 6.7 10 18:38 14.05.2020
4031 Clouds 11 1020 58 10000 6.7 10 18:19 14.05.2020
4032 Clouds 12 1020 43 10000 5.7 350 17:56 14.05.2020
4033 Clouds 12 1020 43 10000 5.7 350 17:56 14.05.2020
4034 Clouds 12 1020 43 10000 4.1 340 17:37 14.05.2020
4035 Clouds 12 1020 43 10000 4.1 340 17:18 14.05.2020
4036 Clouds 12 1020 37 10000 4.1 320 16:41 14.05.2020
4037 Clouds 13 1020 37 10000 4.1 320 16:23 14.05.2020
4038 Clouds 12 1020 43 10000 4.1 340 15:59 14.05.2020
4039 Clouds 12 1020 43 10000 5.1 310 15:40 14.05.2020
4040 Clouds 12 1020 43 10000 5.1 310 15:40 14.05.2020
4041 Clouds 12 1020 43 10000 5.1 310 15:21 14.05.2020
4042 Clouds 13 1020 53 10000 5.7 350 14:57 14.05.2020
4043 Clouds 13 1020 40 10000 4.6 320 14:39 14.05.2020
4044 Clouds 12 1020 40 10000 4.6 320 14:20 14.05.2020
4045 Clouds 12 1020 40 10000 3.6 320 13:57 14.05.2020
4046 Clouds 12 1021 55 10000 5.7 330 13:38 14.05.2020
4047 Clouds 12 1021 55 10000 5.7 330 13:38 14.05.2020
4048 Clouds 13 1021 57 10000 5.7 330 13:19 14.05.2020
4049 Clouds 11 1020 46 10000 4.1 340 12:57 14.05.2020
4050 Clouds 12 1020 43 10000 5.1 320 12:38 14.05.2020
4051 Clouds 12 1020 43 10000 5.1 320 12:38 14.05.2020
4052 Clouds 11 1020 43 10000 5.1 320 12:19 14.05.2020
4053 Clouds 11 1020 46 10000 4.1 360 11:57 14.05.2020
4054 Clouds 10 1020 57 10000 5.1 340 11:38 14.05.2020
4055 Clouds 10 1020 57 10000 5.1 340 11:38 14.05.2020
4056 Clouds 11 1020 57 10000 5.1 340 11:19 14.05.2020
4057 Clouds 11 1020 57 10000 5.1 360 10:45 14.05.2020
4058 Clouds 10 1020 57 10000 5.1 360 10:26 14.05.2020
4059 Clouds 9 1020 61 10000 4.6 30 09:57 14.05.2020
4060 Clouds 9 1020 58 10000 5.1 30 09:38 14.05.2020
4061 Clouds 8 1020 68 10000 5.1 30 09:19 14.05.2020
4062 Clouds 7 1019 67 10000 5.1 20 08:41 14.05.2020
4063 Clouds 6 1019 74 10000 5.1 20 08:20 14.05.2020
4064 Clouds 5 1019 74 10000 4.6 30 07:45 14.05.2020
4065 Clouds 5 1018 65 10000 3.6 10 07:24 14.05.2020
4066 Clouds 3 1018 69 10000 3.6 360 06:54 14.05.2020
4067 Clouds 3 1018 69 10000 3.1 360 06:29 14.05.2020
4068 Clear 3 1017 69 10000 4.1 360 05:46 14.05.2020
4069 Clear 4 1017 65 10000 5.1 360 05:23 14.05.2020
4070 Clear 4 1017 93 10000 4.6 350 04:25 14.05.2020
4071 Clouds 4 1016 75 10000 4.1 350 03:23 14.05.2020
4072 Clouds 4 1016 75 10000 3.6 350 02:41 14.05.2020
4073 Clouds 4 1016 75 10000 3.1 350 01:56 14.05.2020
4074 Clouds 5 1015 75 10000 3.6 350 01:23 14.05.2020
4075 Clouds 5 1015 75 10000 3.6 350 00:44 14.05.2020
4076 Clouds 5 1015 75 10000 4.1 340 00:23 14.05.2020
4077 Clouds 6 1014 70 10000 4.6 350 23:42 13.05.2020
4078 Clouds 6 1014 70 10000 4.6 350 23:21 13.05.2020
4079 Clouds 6 1014 70 10000 5.7 350 22:54 13.05.2020
4080 Clouds 7 1014 65 10000 4.6 340 22:36 13.05.2020
4081 Clouds 7 1014 65 10000 4.6 340 22:18 13.05.2020
4082 Clouds 7 1013 61 10000 5.7 350 21:55 13.05.2020
4083 Clouds 8 1013 57 10000 4.1 340 21:36 13.05.2020
4084 Clouds 8 1013 57 10000 4.1 340 21:18 13.05.2020
4085 Rain 9 1012 57 10000 5.7 360 20:40 13.05.2020
4086 Rain 10 1012 57 10000 5.7 360 20:22 13.05.2020
4087 Clouds 10 1012 57 10000 4.6 330 19:43 13.05.2020
4088 Clouds 10 1012 57 10000 4.6 330 19:24 13.05.2020
4089 Clouds 11 1012 57 10000 4.6 330 18:55 13.05.2020
4090 Clouds 11 1012 57 10000 4.1 320 18:37 13.05.2020
4091 Clouds 11 1012 57 10000 4.1 320 18:18 13.05.2020
4092 Clouds 11 1012 57 10000 4.6 320 17:38 13.05.2020
4093 Clouds 11 1012 57 10000 4.6 320 17:19 13.05.2020
4094 Clouds 11 1012 61 10000 3.1 300 16:55 13.05.2020
4095 Clouds 11 1012 66 10000 3.1 330 16:37 13.05.2020
4096 Clouds 11 1012 66 10000 3.1 330 16:18 13.05.2020
4097 Clouds 10 1012 70 10000 5.1 320 15:42 13.05.2020
4098 Clouds 10 1012 70 10000 5.1 320 15:19 13.05.2020
4099 Clouds 10 1013 71 10000 5.7 300 14:57 13.05.2020
4100 Clouds 10 1012 71 10000 5.7 310 14:39 13.05.2020
4101 Clouds 10 1012 71 10000 5.7 310 14:21 13.05.2020
4102 Clouds 9 1013 70 10000 4.6 320 13:56 13.05.2020
4103 Clouds 9 1012 70 10000 5.7 290 13:38 13.05.2020
4104 Clouds 10 1012 70 10000 5.7 290 13:19 13.05.2020
4105 Rain 10 1012 66 10000 3.6 250 12:43 13.05.2020
4106 Rain 10 1012 66 10000 3.6 250 12:22 13.05.2020
4107 Rain 9 1012 70 10000 4.1 270 11:57 13.05.2020
4108 Rain 9 1012 70 10000 5.1 280 11:39 13.05.2020
4109 Rain 9 1012 70 10000 5.1 280 11:20 13.05.2020
4110 Clouds 9 1012 70 10000 5.7 250 10:59 13.05.2020
4111 Clouds 9 1012 70 10000 5.1 250 10:39 13.05.2020
4112 Clouds 10 1012 70 10000 5.1 250 10:20 13.05.2020
4113 Clouds 10 1012 70 10000 5.1 250 10:20 13.05.2020
4114 Clouds 10 1013 66 10000 4.6 250 09:58 13.05.2020
4115 Clouds 10 1012 70 10000 4.6 240 09:39 13.05.2020
4116 Clouds 8 1012 70 10000 4.6 240 09:21 13.05.2020
4117 Clouds 7 1013 81 10000 3.1 220 08:41 13.05.2020
4118 Clouds 7 1013 81 10000 3.1 220 08:22 13.05.2020
4119 -273 0 0 0 0 0 07:59 13.05.2020
4120 Clouds 6 1013 81 10000 2.1 230 07:59 13.05.2020
4121 Clouds 5 1012 93 10000 1.5 230 07:36 13.05.2020
4122 Clouds 4 1012 93 10000 1 210 06:58 13.05.2020
4123 Clouds 3 1012 100 10000 0.5 0 06:40 13.05.2020
4124 Clouds 3 1013 100 10000 1.5 250 05:50 13.05.2020
4125 Clouds 5 1013 86 10000 2.6 260 04:22 13.05.2020
4126 Clouds 6 1013 81 10000 2.6 240 02:59 13.05.2020
4127 Clouds 6 1013 81 10000 3.1 250 02:20 13.05.2020
4128 Clouds 6 1013 81 10000 3.1 230 01:21 13.05.2020
4129 Clouds 6 1014 87 10000 2.1 220 00:41 13.05.2020
4130 Clouds 6 1014 87 10000 2.1 220 00:19 13.05.2020
4131 Rain 6 1014 87 10000 2.6 220 23:40 12.05.2020
4132 Rain 6 1014 87 10000 2.6 220 23:21 12.05.2020
4133 Clouds 6 1014 87 10000 2.6 220 22:57 12.05.2020
4134 Clouds 6 1014 87 10000 2.6 220 22:39 12.05.2020
4135 Clouds 6 1014 87 10000 2.6 220 22:20 12.05.2020
4136 Clouds 6 1014 87 10000 3.1 220 21:55 12.05.2020
4137 Rain 7 1014 87 10000 3.1 250 21:37 12.05.2020
4138 Rain 7 1014 87 10000 3.1 250 21:18 12.05.2020
4139 Rain 7 1014 75 10000 6.2 260 20:56 12.05.2020
4140 Rain 7 1015 81 10000 6.2 300 20:38 12.05.2020
4141 Rain 7 1015 81 10000 6.2 300 20:20 12.05.2020
4142 Rain 8 1015 75 10000 3.6 240 19:56 12.05.2020
4143 Clouds 8 1015 75 10000 4.6 240 19:37 12.05.2020
4144 Clouds 9 1015 75 10000 4.6 240 19:18 12.05.2020
4145 Rain 8 1015 81 10000 3.1 280 18:42 12.05.2020
4146 Rain 8 1015 81 10000 3.1 280 18:23 12.05.2020
4147 Rain 9 1015 70 10000 2.6 290 17:58 12.05.2020
4148 Rain 9 1015 70 10000 6.2 240 17:39 12.05.2020
4149 Rain 9 1015 70 10000 6.2 240 17:21 12.05.2020
4150 Rain 8 1016 87 10000 4.6 250 16:43 12.05.2020
4151 Rain 8 1016 87 10000 4.6 250 16:23 12.05.2020
4152 Rain 8 1016 87 10000 6.2 290 15:56 12.05.2020
4153 Rain 8 1016 87 10000 5.1 300 15:37 12.05.2020
4154 Rain 8 1016 87 10000 5.1 300 15:18 12.05.2020
4155 Rain 9 1016 57 10000 6.2 260 14:55 12.05.2020
4156 Rain 9 1016 57 10000 6.7 260 14:36 12.05.2020
4157 Rain 9 1016 57 10000 6.7 260 14:18 12.05.2020
4158 Clouds 10 1016 57 10000 7.7 250 13:55 12.05.2020
4159 Rain 11 1013 70 0 6.4 274 13:37 12.05.2020
4160 Rain 11 1013 72 0 6.11 276 13:18 12.05.2020
4161 Rain 11 1013 71 0 0.89 315 12:56 12.05.2020
4162 Rain 10 1015 63 0 4.02 243 12:38 12.05.2020
4163 Rain 10 1016 65 0 3.13 246 12:20 12.05.2020
4164 Clouds 9 1017 61 10000 6.7 280 11:57 12.05.2020
4165 Clouds 9 1017 61 10000 6.7 280 11:37 12.05.2020
4166 Clouds 9 1017 61 10000 6.7 280 11:19 12.05.2020
4167 Clouds 9 1017 61 10000 6.7 280 10:55 12.05.2020
4168 Clouds 9 1017 67 10000 6.7 270 10:37 12.05.2020
4169 Clouds 9 1017 72 10000 6.7 270 10:18 12.05.2020
4170 Clouds 9 1017 65 10000 6.2 270 09:57 12.05.2020
4171 Clouds 9 1017 65 10000 5.7 270 09:38 12.05.2020
4172 Clouds 8 1017 65 10000 5.7 270 09:19 12.05.2020
4173 Clouds 7 1017 75 10000 5.1 280 08:41 12.05.2020
4174 Clouds 6 1017 75 10000 5.1 280 08:21 12.05.2020
4175 Clouds 5 1017 80 10000 4.1 260 07:55 12.05.2020
4176 Clouds 4 1017 86 10000 3.6 270 07:37 12.05.2020
4177 Clouds 4 1017 86 10000 3.6 270 07:18 12.05.2020
4178 Clouds 3 1017 83 10000 3.1 280 06:37 12.05.2020
4179 Clouds 3 1017 91 10000 3.1 280 06:19 12.05.2020
4180 Clouds 3 1017 86 10000 3.1 280 05:45 12.05.2020
4181 Clouds 3 1017 85 10000 3.6 300 03:55 12.05.2020
4182 Clouds 3 1017 87 10000 3.1 290 03:19 12.05.2020
4183 Clouds 3 1017 80 10000 3.1 290 02:27 12.05.2020
4184 Clouds 3 1017 80 10000 3.1 290 02:27 12.05.2020
4185 Clouds 3 1016 89 10000 3.1 290 01:35 12.05.2020
4186 Clouds 4 1016 80 10000 3.6 280 00:58 12.05.2020
4187 Clouds 4 1016 84 10000 2.6 280 00:24 12.05.2020
4188 Clouds 4 1016 84 10000 3.6 290 23:57 11.05.2020
4189 Clouds 6 1015 84 10000 4.6 320 23:37 11.05.2020
4190 Clouds 6 1015 81 10000 4.6 320 23:19 11.05.2020
4191 Clouds 6 1015 81 10000 4.6 330 22:56 11.05.2020
4192 Clouds 7 1015 52 10000 5.7 340 22:38 11.05.2020
4193 Clouds 7 1015 52 10000 5.7 340 22:19 11.05.2020
4194 Clouds 8 1014 52 10000 6.2 340 21:55 11.05.2020
4195 Clouds 8 1014 49 10000 7.7 340 21:36 11.05.2020
4196 Clouds 8 1014 49 10000 7.7 340 21:18 11.05.2020
4197 Clouds 8 1014 45 10000 6.2 340 20:54 11.05.2020
4198 Clouds 9 1013 49 10000 9.8 340 20:36 11.05.2020
4199 Clouds 9 1013 49 10000 9.8 340 20:18 11.05.2020
4200 Clouds 9 1013 49 10000 8.2 340 19:41 11.05.2020
4201 Clouds 9 1013 49 10000 8.2 340 19:22 11.05.2020
4202 Clouds 11 1013 58 10000 6.7 340 18:57 11.05.2020
4203 Clouds 11 1013 43 10000 7.2 340 18:39 11.05.2020
4204 Clouds 11 1013 43 10000 7.2 340 18:20 11.05.2020
4205 Clouds 11 1013 39 10000 8.7 10 17:57 11.05.2020
4206 Clouds 11 1012 34 10000 9.3 360 17:39 11.05.2020
4207 Clouds 12 1012 34 10000 9.3 360 17:21 11.05.2020
4208 Clouds 11 1012 43 10000 9.8 360 16:57 11.05.2020
4209 Clouds 11 1012 37 10000 10.3 360 16:38 11.05.2020
4210 Rain 12 1012 37 10000 10.3 360 16:19 11.05.2020
4211 Rain 12 1012 40 10000 6.7 10 15:42 11.05.2020
4212 Rain 12 1012 40 10000 6.7 10 15:21 11.05.2020
4213 Rain 12 1012 40 10000 7.7 20 14:59 11.05.2020
4214 Rain 12 1012 40 10000 7.7 10 14:41 11.05.2020
4215 Rain 12 1012 40 10000 7.7 10 14:22 11.05.2020
4216 Clouds 12 1012 43 10000 8.7 10 13:58 11.05.2020
4217 Clouds 11 1012 49 10000 8.7 10 13:39 11.05.2020
4218 Clouds 11 1012 49 10000 8.7 10 13:18 11.05.2020
4219 Clouds 11 1012 54 10000 7.7 10 12:56 11.05.2020
4220 Clouds 11 1012 49 10000 8.7 10 12:38 11.05.2020
4221 Clouds 10 1012 49 10000 8.7 10 12:19 11.05.2020
4222 Clouds 10 1012 61 10000 7.2 30 11:54 11.05.2020
4223 Clouds 9 1012 65 10000 7.7 10 11:36 11.05.2020
4224 Clouds 9 1012 65 10000 7.7 10 11:18 11.05.2020
4225 Clouds 9 1011 65 10000 6.7 360 10:54 11.05.2020
4226 Clouds 9 1011 61 10000 8.2 360 10:36 11.05.2020
4227 Clouds 9 1011 61 10000 8.2 360 10:18 11.05.2020
4228 Clouds 9 1011 65 10000 6.7 350 09:41 11.05.2020
4229 Clouds 8 1011 65 10000 6.7 350 09:20 11.05.2020
4230 Clouds 7 1011 65 10000 7.7 360 08:57 11.05.2020
4231 Clouds 7 1010 65 10000 6.7 350 08:38 11.05.2020
4232 Clouds 7 1010 65 10000 6.7 350 08:18 11.05.2020
4233 Clouds 7 1010 63 10000 6.7 350 07:47 11.05.2020
4234 Clouds 7 1010 65 10000 5.1 350 07:28 11.05.2020
4235 Clouds 7 1010 65 10000 4.6 350 06:51 11.05.2020
4236 Clouds 7 1010 65 10000 4.1 350 06:18 11.05.2020
4237 Clouds 7 1010 70 10000 4.6 350 05:28 11.05.2020
4238 Rain 7 1010 75 10000 4.6 350 04:35 11.05.2020
4239 Rain 6 1010 81 10000 4.6 350 03:33 11.05.2020
4240 Rain 6 1010 70 10000 5.7 350 02:33 11.05.2020
4241 Rain 7 1010 70 10000 5.7 360 01:46 11.05.2020
4242 Rain 8 1010 70 10000 7.2 360 00:53 11.05.2020
4243 Rain 8 1010 61 10000 7.7 360 00:21 11.05.2020
4244 Rain 8 1010 61 10000 9.3 350 23:45 10.05.2020
4245 Clouds 9 1009 61 10000 7.2 350 23:26 10.05.2020
4246 Clouds 9 1009 61 10000 7.7 350 22:58 10.05.2020
4247 Rain 9 1009 61 10000 8.2 350 22:40 10.05.2020
4248 Rain 9 1009 61 10000 8.2 350 22:22 10.05.2020
4249 Clouds 10 1008 61 10000 8.7 350 21:44 10.05.2020
4250 Clouds 10 1008 61 10000 8.7 350 21:20 10.05.2020
4251 Clouds 10 1007 62 10000 10.3 350 20:56 10.05.2020
4252 Clouds 11 1007 62 10000 9.3 360 20:38 10.05.2020
4253 Clouds 11 1007 62 10000 9.3 360 20:20 10.05.2020
4254 Clouds 12 1006 66 10000 8.7 360 19:54 10.05.2020
4255 Clouds 13 1006 67 10000 8.2 330 19:36 10.05.2020
4256 Rain 13 1006 67 10000 8.2 330 19:18 10.05.2020
4257 Rain 14 1006 72 10000 8.2 320 18:54 10.05.2020
4258 Rain 14 1006 72 10000 8.2 320 18:54 10.05.2020
4259 Rain 15 1005 67 10000 8.2 320 18:36 10.05.2020
4260 Rain 15 1005 67 10000 8.2 320 18:36 10.05.2020
4261 Rain 16 1005 67 10000 8.2 320 18:18 10.05.2020
4262 Rain 16 1005 67 10000 8.2 310 17:56 10.05.2020
4263 Rain 16 1005 68 10000 7.7 310 17:36 10.05.2020
4264 Rain 16 1005 68 10000 7.7 310 17:18 10.05.2020
4265 Rain 19 1004 56 10000 7.2 310 16:43 10.05.2020
4266 Rain 19 1004 56 10000 7.2 310 16:43 10.05.2020
4267 Rain 19 1004 56 10000 7.2 310 16:21 10.05.2020
4268 Rain 22 1004 49 10000 4.6 330 15:58 10.05.2020
4269 Rain 22 1004 46 10000 5.7 310 15:39 10.05.2020
4270 Rain 23 1004 46 10000 5.7 310 15:20 10.05.2020
4271 Rain 24 1004 31 10000 1 0 14:55 10.05.2020
4272 Rain 23 1004 35 10000 0.5 240 14:37 10.05.2020
4273 Rain 23 1004 35 10000 0.5 240 14:18 10.05.2020
4274 Rain 23 1004 38 10000 2.1 0 13:57 10.05.2020
4275 Rain 24 1005 33 10000 1.5 0 13:36 10.05.2020
4276 Clouds 24 1005 33 10000 1.5 0 13:18 10.05.2020
4277 Clouds 23 1005 37 10000 1.5 330 12:42 10.05.2020
4278 Clouds 22 1005 37 10000 1.5 330 12:23 10.05.2020
4279 Clouds 22 1005 35 10000 0.5 0 11:59 10.05.2020
4280 Clouds 21 1006 46 10000 1 160 11:40 10.05.2020
4281 Clouds 21 1006 46 10000 1 160 11:21 10.05.2020
4282 Clouds 20 1006 52 10000 1.5 170 10:58 10.05.2020
4283 Clouds 20 1006 52 10000 2.1 140 10:40 10.05.2020
4284 Clouds 19 1006 52 10000 2.1 140 10:22 10.05.2020
4285 Clouds 16 1006 59 10000 1.5 140 09:42 10.05.2020
4286 Clouds 16 1006 59 10000 1.5 140 09:23 10.05.2020
4287 Clouds 15 1006 67 10000 1 0 08:59 10.05.2020
4288 Clouds 14 1007 66 10000 1.5 120 08:40 10.05.2020
4289 Clouds 12 1007 66 10000 1.5 120 08:22 10.05.2020
4290 Clouds 12 1007 81 10000 1.5 120 07:42 10.05.2020
4291 Clouds 11 1007 81 10000 1.5 120 07:19 10.05.2020
4292 Clouds 10 1007 81 10000 1.5 120 06:50 10.05.2020
4293 Clouds 10 1007 87 10000 1.5 90 06:26 10.05.2020
4294 Clouds 10 1007 93 10000 0.5 0 05:46 10.05.2020
4295 Clouds 9 1008 93 10000 1 70 04:48 10.05.2020
4296 Clouds 9 1008 93 10000 1 70 04:29 10.05.2020
4297 Clouds 9 1008 100 10000 0.5 0 03:51 10.05.2020
4298 Clouds 10 1009 93 10000 0.5 100 02:59 10.05.2020
4299 Clouds 11 1009 87 10000 0.5 0 02:25 10.05.2020
4300 Clouds 11 1009 87 10000 1 50 01:59 10.05.2020
4301 Clouds 12 1010 67 10000 1.5 20 01:39 10.05.2020
4302 Clouds 13 1010 67 10000 1.5 20 01:18 10.05.2020
4303 Clouds 13 1010 71 10000 1.5 60 00:52 10.05.2020
4304 Clear 13 1010 71 10000 2.1 30 00:22 10.05.2020
4305 Clear 14 1010 63 10000 4.1 30 23:40 09.05.2020
4306 Clear 15 1010 63 10000 4.1 30 23:22 09.05.2020
4307 Clear 15 1010 59 10000 4.6 30 22:59 09.05.2020
4308 Clear 16 1011 55 10000 4.6 30 22:41 09.05.2020
4309 Clear 16 1011 55 10000 4.6 30 22:22 09.05.2020
4310 Clear 18 1011 55 10000 4.1 30 21:57 09.05.2020
4311 Clear 18 1011 52 10000 5.7 30 21:39 09.05.2020
4312 Clear 18 1011 52 10000 5.7 30 21:20 09.05.2020
4313 Clear 20 1010 49 10000 6.7 30 20:57 09.05.2020
4314 Clear 20 1010 49 10000 5.1 30 20:38 09.05.2020
4315 Clear 20 1010 49 10000 5.1 30 20:19 09.05.2020
4316 Clear 22 1011 29 10000 1 80 19:55 09.05.2020
4317 Clear 23 1011 27 10000 1 0 19:37 09.05.2020
4318 Clear 23 1011 27 10000 1 0 19:18 09.05.2020
4319 Clear 23 1011 28 10000 2.1 80 18:42 09.05.2020
4320 Clear 23 1011 28 10000 2.1 80 18:42 09.05.2020
4321 Clear 23 1011 28 10000 2.1 80 18:21 09.05.2020
4322 Clear 23 1012 31 10000 2.6 0 17:45 09.05.2020
4323 Clear 23 1012 28 10000 2.6 0 17:23 09.05.2020
4324 Clear 23 1012 31 10000 2.1 140 16:57 09.05.2020
4325 Clear 24 1013 28 10000 2.6 0 16:38 09.05.2020
4326 Clear 24 1013 28 10000 2.6 0 16:38 09.05.2020
4327 Clear 23 1013 28 10000 2.6 0 16:19 09.05.2020
4328 Clear 22 1013 30 10000 3.6 60 15:43 09.05.2020
4329 Clear 22 1013 30 10000 3.6 60 15:22 09.05.2020
4330 Clear 23 1014 33 10000 2.6 70 14:56 09.05.2020
4331 Clear 23 1014 35 10000 2.1 0 14:38 09.05.2020
4332 Clear 22 1014 35 10000 2.1 0 14:18 09.05.2020
4333 Clear 22 1014 35 10000 2.1 0 14:18 09.05.2020
4334 Clear 22 1014 35 10000 2.1 0 13:56 09.05.2020
4335 Clear 22 1015 37 10000 3.1 70 13:38 09.05.2020
4336 Clear 22 1015 37 10000 3.1 70 13:18 09.05.2020
4337 Clear 22 1015 37 10000 3.1 70 13:18 09.05.2020
4338 Clear 22 1015 42 10000 2.1 120 12:41 09.05.2020
4339 Clear 20 1015 42 10000 2.1 120 12:22 09.05.2020
4340 Clear 20 1015 42 10000 2.6 150 11:55 09.05.2020
4341 Clear 20 1016 42 10000 3.6 110 11:37 09.05.2020
4342 Clear 20 1016 42 10000 3.6 110 11:18 09.05.2020
4343 Clear 20 1016 42 10000 3.6 110 11:18 09.05.2020
4344 Clear 19 1016 48 10000 3.1 140 10:42 09.05.2020
4345 Clear 18 1016 48 10000 3.1 140 10:23 09.05.2020
4346 Clear 17 1016 55 10000 3.1 140 09:56 09.05.2020
4347 Clear 16 1016 62 10000 2.6 140 09:37 09.05.2020
4348 Clear 14 1016 62 10000 2.6 140 09:18 09.05.2020
4349 Clear 12 1016 62 10000 1 0 08:51 09.05.2020
4350 Clear 11 1016 66 10000 0.5 90 08:31 09.05.2020
4351 Clouds 9 1016 81 10000 0.5 0 07:49 09.05.2020
4352 Clouds 9 1016 87 10000 0.5 0 07:31 09.05.2020
4353 Clouds 8 1016 100 10000 0.5 0 06:47 09.05.2020
4354 Clouds 8 1016 93 10000 0.5 0 06:23 09.05.2020
4355 Clouds 8 1016 93 10000 0.5 0 05:45 09.05.2020
4356 Clouds 8 1016 93 10000 1 150 03:54 09.05.2020
4357 Clouds 8 1017 93 10000 1.46 134 03:36 09.05.2020
4358 Clouds 9 1017 87 10000 1 210 02:32 09.05.2020
4359 Clouds 9 1017 87 10000 0.5 290 01:52 09.05.2020
4360 Clouds 9 1017 93 10000 0.5 0 01:24 09.05.2020
4361 Clouds 11 1017 81 10000 1.71 107 00:54 09.05.2020
4362 Clouds 11 1017 81 10000 1 80 00:36 09.05.2020
4363 Clouds 12 1017 76 10000 1.5 70 23:54 08.05.2020
4364 Clouds 13 1017 62 10000 1.5 60 23:36 08.05.2020
4365 Clouds 13 1017 62 10000 1.5 60 23:18 08.05.2020
4366 Clouds 14 1017 58 10000 2.1 30 22:42 08.05.2020
4367 Clouds 14 1017 58 10000 2.1 30 22:20 08.05.2020
4368 Clouds 15 1017 55 10000 1 40 21:59 08.05.2020
4369 Clouds 15 1017 48 10000 2.1 40 21:41 08.05.2020
4370 Clouds 18 1017 48 10000 2.1 40 21:19 08.05.2020
4371 Clouds 18 1017 48 10000 2.1 40 20:59 08.05.2020
4372 Clouds 18 1017 48 10000 2.6 10 20:40 08.05.2020
4373 Clouds 18 1017 48 10000 2.6 10 20:22 08.05.2020
4374 Clouds 18 1017 48 10000 2.6 360 19:45 08.05.2020
4375 Clouds 19 1017 45 10000 3.6 20 19:24 08.05.2020
4376 Clouds 19 1017 45 10000 3.6 20 19:24 08.05.2020
4377 Clouds 20 1017 42 10000 2.6 20 18:58 08.05.2020
4378 Clouds 20 1017 40 10000 3.6 30 18:40 08.05.2020
4379 Clouds 20 1017 40 10000 3.6 30 18:22 08.05.2020
4380 Clouds 20 1018 34 10000 2.6 320 17:42 08.05.2020
4381 Clouds 20 1018 34 10000 2.6 320 17:19 08.05.2020
4382 Clouds 20 1018 30 10000 3.1 330 16:48 08.05.2020
4383 Clouds 20 1018 32 10000 3.1 0 16:27 08.05.2020
4384 Clouds 19 1018 32 10000 3.1 290 15:59 08.05.2020
4385 Clouds 19 1018 31 10000 2.6 0 15:41 08.05.2020
4386 Clouds 19 1018 31 10000 2.6 0 15:19 08.05.2020
4387 Clouds 19 1018 34 10000 3.1 280 14:54 08.05.2020
4388 Clouds 18 1019 33 10000 3.6 310 14:36 08.05.2020
4389 Clouds 18 1019 33 10000 3.6 310 14:18 08.05.2020
4390 Clouds 18 1019 36 10000 3.1 300 13:41 08.05.2020
4391 Clouds 18 1019 36 10000 3.1 300 13:20 08.05.2020
4392 Clouds 17 1019 36 10000 3.6 270 12:55 08.05.2020
4393 Clouds 17 1019 41 10000 3.1 280 12:37 08.05.2020
4394 Clouds 16 1019 41 10000 3.1 280 12:18 08.05.2020
4395 Clouds 15 1019 44 10000 3.6 290 11:44 08.05.2020
4396 Clouds 15 1019 44 10000 3.6 290 11:23 08.05.2020
4397 Clouds 15 1019 47 10000 2.6 300 10:58 08.05.2020
4398 Clouds 14 1019 54 10000 2.6 300 10:40 08.05.2020
4399 Clouds 14 1019 54 10000 2.6 300 10:19 08.05.2020
4400 Clouds 14 1019 43 10000 2.6 300 09:54 08.05.2020
4401 Clouds 13 1019 62 10000 1 0 09:36 08.05.2020
4402 Clouds 11 1019 62 10000 1 0 09:18 08.05.2020
4403 Clouds 9 1019 81 10000 1 0 08:40 08.05.2020
4404 Clouds 8 1019 81 10000 1 0 08:21 08.05.2020
4405 Clouds 6 1019 93 10000 1 0 07:43 08.05.2020
4406 Clouds 5 1019 93 10000 1 0 07:23 08.05.2020
4407 Clouds 3 1019 100 10000 1 0 06:51 08.05.2020
4408 Clouds 4 1019 93 10000 1 290 06:23 08.05.2020
4409 Clouds 4 1019 86 10000 1 0 05:42 08.05.2020
4410 Clouds 4 1019 93 10000 1 240 04:38 08.05.2020
4411 Clouds 5 1020 93 10000 1 180 02:34 08.05.2020
4412 Clouds 6 1020 81 10000 1 280 01:53 08.05.2020
4413 Clouds 6 1020 81 10000 0.5 0 01:28 08.05.2020
4414 Clouds 7 1020 75 10000 0.5 0 00:53 08.05.2020
4415 Clouds 8 1020 66 10000 1 0 00:30 08.05.2020
4416 Clouds 9 1020 61 10000 1 0 23:59 07.05.2020
4417 Clouds 9 1020 57 10000 1.5 30 23:40 07.05.2020
4418 Clouds 9 1020 57 10000 1.5 30 23:22 07.05.2020
4419 Clouds 10 1020 58 10000 2.6 40 22:56 07.05.2020
4420 Clouds 10 1021 66 10000 3.1 30 22:38 07.05.2020
4421 Clouds 10 1021 66 10000 3.1 30 22:38 07.05.2020
4422 Clouds 11 1021 66 10000 3.1 30 22:19 07.05.2020
4423 Clouds 12 1021 66 10000 4.1 30 21:55 07.05.2020
4424 Clouds 12 1021 62 10000 4.6 20 21:36 07.05.2020
4425 Clouds 13 1021 62 10000 4.6 20 21:18 07.05.2020
4426 Clouds 14 1021 54 10000 3.1 80 20:42 07.05.2020
4427 Clouds 15 1021 54 10000 3.1 80 20:23 07.05.2020
4428 Clouds 16 1021 45 10000 2.1 50 19:58 07.05.2020
4429 Clouds 17 1021 39 10000 1 0 19:38 07.05.2020
4430 Clouds 18 1021 39 10000 1 0 19:20 07.05.2020
4431 Clouds 18 1021 42 10000 1 0 18:45 07.05.2020
4432 Clear 18 1022 39 10000 2.1 310 18:26 07.05.2020
4433 Clear 19 1022 42 10000 0.5 0 17:57 07.05.2020
4434 Clear 19 1022 42 10000 1.5 0 17:36 07.05.2020
4435 Clear 19 1022 42 10000 1.5 0 17:18 07.05.2020
4436 Clear 18 1023 48 10000 3.1 310 16:40 07.05.2020
4437 Clear 18 1023 48 10000 3.1 310 16:18 07.05.2020
4438 Clear 17 1023 48 10000 2.1 310 15:56 07.05.2020
4439 Clear 17 1024 55 10000 4.1 310 15:37 07.05.2020
4440 Clear 17 1024 55 10000 4.1 310 15:18 07.05.2020
4441 Clouds 17 1024 62 10000 3.1 310 14:44 07.05.2020
4442 Clouds 16 1024 62 10000 3.1 310 14:21 07.05.2020
4443 Clouds 16 1024 66 10000 4.1 310 13:45 07.05.2020
4444 Clouds 16 1025 66 10000 5.1 310 13:26 07.05.2020
4445 Clouds 15 1025 66 10000 5.7 320 12:58 07.05.2020
4446 Clouds 13 1025 71 10000 5.1 310 12:39 07.05.2020
4447 Clouds 13 1025 71 10000 5.1 310 12:19 07.05.2020
4448 Clouds 12 1025 71 10000 5.7 280 11:39 07.05.2020
4449 Clouds 11 1025 71 10000 5.7 280 11:21 07.05.2020
4450 Clouds 11 1025 71 10000 5.1 300 10:54 07.05.2020
4451 Clouds 10 1025 76 10000 4.6 300 10:36 07.05.2020
4452 Clouds 10 1024 81 10000 3.6 290 10:18 07.05.2020
4453 Clouds 9 1024 87 10000 3.1 280 09:39 07.05.2020
4454 Clouds 9 1024 87 10000 3.1 280 09:18 07.05.2020
4455 Clouds 8 1024 93 10000 2.1 260 08:44 07.05.2020
4456 Clouds 7 1024 93 10000 2.1 260 08:23 07.05.2020
4457 Clouds 5 1024 100 10000 0.5 0 07:58 07.05.2020
4458 Clouds 5 1024 100 10000 2.1 250 07:40 07.05.2020
4459 Clouds 5 1024 100 10000 2.1 250 07:20 07.05.2020
4460 Clouds 3 1024 100 10000 1.5 260 06:37 07.05.2020
4461 Clouds 3 1024 100 10000 1.5 260 06:18 07.05.2020
4462 Clouds 4 1025 93 10000 2.1 260 04:41 07.05.2020
4463 Clouds 4 1025 93 10000 2.1 260 03:40 07.05.2020
4464 Clouds 4 1025 93 10000 2.1 260 03:18 07.05.2020
4465 Clouds 4 1025 93 10000 2.1 260 02:35 07.05.2020
4466 Clouds 5 1025 93 10000 2.1 280 01:38 07.05.2020
4467 Clouds 5 1025 93 10000 2.1 280 01:20 07.05.2020
4468 Clouds 5 1025 86 10000 3.1 290 00:43 07.05.2020
4469 Clouds 5 1025 86 10000 3.1 290 00:23 07.05.2020
4470 Clouds 6 1025 87 10000 3.1 290 23:45 06.05.2020
4471 Clouds 7 1025 75 10000 3.6 330 23:23 06.05.2020
4472 Clouds 7 1025 75 10000 4.6 340 22:56 06.05.2020
4473 Clouds 8 1025 70 10000 4.6 340 22:38 06.05.2020
4474 Clouds 8 1025 70 10000 4.6 340 22:38 06.05.2020
4475 Clouds 8 1025 70 10000 4.6 340 22:19 06.05.2020
4476 Clouds 8 1025 70 10000 4.6 340 21:56 06.05.2020
4477 Clouds 9 1025 66 10000 5.7 340 21:37 06.05.2020
4478 Clear 10 1025 66 10000 5.7 340 21:18 06.05.2020
4479 Clear 10 1024 62 10000 5.7 340 20:42 06.05.2020
4480 Clouds 11 1024 62 10000 5.7 340 20:22 06.05.2020
4481 Clouds 11 1024 62 10000 5.7 340 20:22 06.05.2020
4482 Clouds 11 1024 58 10000 6.2 340 19:57 06.05.2020
4483 Clouds 13 1024 50 10000 6.7 340 19:38 06.05.2020
4484 Clouds 13 1024 50 10000 6.7 340 19:19 06.05.2020
4485 Clouds 13 1025 54 10000 6.7 320 18:58 06.05.2020
4486 Clouds 14 1024 50 10000 5.7 340 18:38 06.05.2020
4487 Clouds 14 1024 50 10000 5.7 340 18:20 06.05.2020
4488 Clouds 14 1024 50 10000 5.7 340 18:20 06.05.2020
4489 Clouds 15 1024 47 10000 6.2 340 17:56 06.05.2020
4490 Clouds 15 1024 47 10000 6.2 340 17:56 06.05.2020
4491 Clouds 15 1024 47 10000 5.7 330 17:38 06.05.2020
4492 Clouds 15 1024 47 10000 5.7 330 17:20 06.05.2020
4493 Clouds 16 1025 47 10000 5.1 310 16:58 06.05.2020
4494 Clouds 16 1025 47 10000 5.7 310 16:40 06.05.2020
4495 Clouds 16 1025 47 10000 5.7 310 16:20 06.05.2020
4496 Clouds 15 1025 47 10000 4.6 320 15:57 06.05.2020
4497 Clouds 15 1025 44 10000 4.6 340 15:39 06.05.2020
4498 Clouds 15 1025 44 10000 4.6 340 15:20 06.05.2020
4499 Clouds 16 1025 38 10000 5.1 310 14:42 06.05.2020
4500 Clouds 16 1025 38 10000 5.1 310 14:42 06.05.2020
4501 Clouds 16 1025 38 10000 5.1 310 14:42 06.05.2020
4502 Clouds 15 1025 38 10000 5.1 310 14:19 06.05.2020
4503 Clouds 15 1025 44 10000 4.6 300 13:59 06.05.2020
4504 Clouds 15 1025 47 10000 4.6 300 13:40 06.05.2020
4505 Clouds 16 1025 47 10000 4.6 300 13:22 06.05.2020
4506 Clouds 15 1025 47 10000 4.6 320 12:54 06.05.2020
4507 Clouds 15 1025 50 10000 4.6 310 12:36 06.05.2020
4508 Clouds 14 1025 50 10000 4.6 310 12:18 06.05.2020
4509 Clouds 14 1025 50 10000 4.6 310 11:40 06.05.2020
4510 Clouds 14 1025 50 10000 4.6 310 11:21 06.05.2020
4511 Clouds 14 1025 58 10000 3.6 290 10:56 06.05.2020
4512 Clouds 13 1025 66 10000 3.1 310 10:37 06.05.2020
4513 Clouds 12 1025 66 10000 3.1 310 10:18 06.05.2020
4514 Clear 10 1025 81 10000 2.6 310 09:41 06.05.2020
4515 Clear 8 1025 81 10000 2.6 310 09:22 06.05.2020
4516 Clear 7 1025 87 10000 2.6 300 08:45 06.05.2020
4517 Clear 7 1025 87 10000 2.6 300 08:23 06.05.2020
4518 Clear 7 1025 87 10000 2.6 300 08:23 06.05.2020
4519 Clear 5 1025 93 10000 1 240 07:59 06.05.2020
4520 Clear 4 1025 93 10000 1.5 250 07:39 06.05.2020
4521 Clear 3 1025 93 10000 1.5 250 07:20 06.05.2020
4522 Clear 2 1025 100 10000 2.1 250 06:51 06.05.2020
4523 Clear 2 1024 100 10000 1.5 240 06:22 06.05.2020
4524 Clear 2 1024 92 10000 1 240 05:55 06.05.2020
4525 Clear 2 1024 100 10000 1.5 270 05:37 06.05.2020
4526 Clear 3 1024 93 10000 1 280 04:38 06.05.2020
4527 Clear 3 1024 93 10000 1 220 03:40 06.05.2020
4528 Clear 3 1024 93 10000 1 220 03:20 06.05.2020
4529 Clear 4 1024 86 10000 2.1 280 02:30 06.05.2020
4530 Clouds 3 1024 88 10000 2.1 270 01:54 06.05.2020
4531 Clouds 4 1024 80 10000 1.5 260 01:32 06.05.2020
4532 Clouds 6 1024 65 10000 1.5 340 00:54 06.05.2020
4533 Clouds 6 1024 65 10000 2.1 350 00:27 06.05.2020
4534 Clouds 7 1023 65 10000 2.6 330 23:57 05.05.2020
4535 Clouds 7 1023 65 10000 3.6 340 23:38 05.05.2020
4536 Clouds 7 1023 65 10000 3.6 340 23:18 05.05.2020
4537 Clouds 8 1023 57 10000 3.6 350 22:42 05.05.2020
4538 Clouds 8 1023 57 10000 3.6 350 22:20 05.05.2020
4539 Clouds 9 1023 57 10000 4.6 350 21:58 05.05.2020
4540 Clouds 9 1023 57 10000 4.6 350 21:58 05.05.2020
4541 Clouds 9 1023 57 10000 4.6 350 21:58 05.05.2020
4542 Clouds 10 1022 53 10000 4.6 340 21:39 05.05.2020
4543 Clouds 10 1022 53 10000 4.6 340 21:21 05.05.2020
4544 Clouds 10 1022 53 10000 6.7 350 20:58 05.05.2020
4545 Clouds 11 1022 50 10000 5.7 340 20:39 05.05.2020
4546 Clouds 11 1022 50 10000 5.7 340 20:19 05.05.2020
4547 Clouds 12 1021 50 10000 6.2 330 19:57 05.05.2020
4548 Clouds 13 1021 47 10000 5.1 330 19:37 05.05.2020
4549 Clouds 13 1021 47 10000 5.1 330 19:18 05.05.2020
4550 Clouds 13 1021 47 10000 5.1 330 19:18 05.05.2020
4551 Clouds 13 1021 47 10000 5.1 350 18:54 05.05.2020
4552 Clouds 14 1021 47 10000 5.1 340 18:36 05.05.2020
4553 Clouds 14 1021 47 10000 5.1 340 18:18 05.05.2020
4554 Clouds 13 1021 50 10000 4.6 340 17:42 05.05.2020
4555 Clouds 14 1021 50 10000 4.6 340 17:24 05.05.2020
4556 Clouds 13 1021 47 10000 4.6 340 16:57 05.05.2020
4557 Clouds 13 1021 47 10000 5.7 340 16:37 05.05.2020
4558 Clouds 13 1021 47 10000 5.7 340 16:18 05.05.2020
4559 Clouds 13 1021 50 10000 6.7 320 15:56 05.05.2020
4560 Clouds 14 1021 46 10000 6.7 330 15:38 05.05.2020
4561 Clouds 14 1021 46 10000 6.7 330 15:19 05.05.2020
4562 Clouds 13 1021 50 10000 5.7 330 14:43 05.05.2020
4563 Clouds 13 1021 50 10000 5.7 330 14:25 05.05.2020
4564 Clouds 14 1021 54 10000 4.1 340 13:59 05.05.2020
4565 Clouds 13 1021 50 10000 5.7 340 13:41 05.05.2020
4566 Clouds 13 1021 50 10000 5.7 340 13:21 05.05.2020
4567 Clouds 12 1021 53 10000 5.1 310 12:59 05.05.2020
4568 Rain 12 1021 53 10000 6.7 340 12:40 05.05.2020
4569 Rain 12 1021 53 10000 6.7 340 12:20 05.05.2020
4570 Clouds 12 1021 53 10000 6.2 340 11:59 05.05.2020
4571 Clouds 12 1021 53 10000 6.2 350 11:40 05.05.2020
4572 Clouds 12 1021 53 10000 6.2 350 11:19 05.05.2020
4573 Clouds 11 1021 53 10000 6.2 340 10:54 05.05.2020
4574 Clouds 11 1021 57 10000 6.2 350 10:36 05.05.2020
4575 Clouds 10 1021 57 10000 6.2 350 10:18 05.05.2020
4576 Clouds 9 1021 70 10000 2.6 300 09:44 05.05.2020
4577 Clouds 8 1021 70 10000 2.6 300 09:26 05.05.2020
4578 Clouds 8 1021 75 10000 3.6 310 08:58 05.05.2020
4579 Clouds 7 1021 81 10000 3.1 310 08:38 05.05.2020
4580 Clouds 6 1021 81 10000 3.1 310 08:18 05.05.2020
4581 Clouds 5 1021 86 10000 3.1 310 07:43 05.05.2020
4582 Clouds 3 1021 86 10000 3.1 310 07:21 05.05.2020
4583 Clear 2 1021 93 10000 3.6 300 06:54 05.05.2020
4584 Clouds 2 1021 93 10000 3.1 300 06:31 05.05.2020
4585 Clear 2 1021 93 10000 3.1 310 05:53 05.05.2020
4586 Clear 3 1021 86 10000 3.6 310 04:58 05.05.2020
4587 Clear 4 1021 86 10000 3.6 310 02:37 05.05.2020
4588 Clear 4 1021 86 10000 3.1 300 00:56 05.05.2020
4589 Clear 4 1021 86 10000 2.6 290 00:33 05.05.2020
4590 Clear 6 1021 75 10000 3.1 310 23:55 04.05.2020
4591 Clear 6 1021 75 10000 3.1 320 23:36 04.05.2020
4592 Clear 6 1021 75 10000 3.1 320 23:18 04.05.2020
4593 Clouds 7 1021 70 10000 4.6 340 22:42 04.05.2020
4594 Clouds 8 1021 70 10000 4.6 340 22:22 04.05.2020
4595 Clouds 8 1020 70 10000 4.6 330 21:59 04.05.2020
4596 Clouds 8 1020 61 10000 6.2 330 21:40 04.05.2020
4597 Clouds 8 1020 61 10000 6.2 330 21:19 04.05.2020
4598 Clouds 8 1020 61 10000 6.2 330 21:19 04.05.2020
4599 Clouds 10 1020 57 10000 6.2 330 20:41 04.05.2020
4600 Clouds 10 1020 57 10000 6.2 330 20:41 04.05.2020
4601 Clouds 10 1020 57 10000 6.2 330 20:21 04.05.2020
4602 Clouds 10 1020 57 10000 6.7 330 19:58 04.05.2020
4603 Clouds 11 1020 53 10000 6.7 340 19:40 04.05.2020
4604 Clouds 11 1020 53 10000 6.7 340 19:40 04.05.2020
4605 Clouds 11 1020 53 10000 6.7 340 19:18 04.05.2020
4606 Clouds 12 1020 54 10000 6.7 330 18:39 04.05.2020
4607 Clouds 12 1020 54 10000 6.7 330 18:20 04.05.2020
4608 Clouds 13 1019 50 10000 6.2 340 17:57 04.05.2020
4609 Clouds 14 1019 47 10000 6.2 340 17:39 04.05.2020
4610 Clouds 14 1019 47 10000 6.2 340 17:20 04.05.2020
4611 Clouds 14 1019 47 10000 7.2 340 16:58 04.05.2020
4612 Clouds 14 1019 54 10000 6.7 340 16:40 04.05.2020
4613 Clouds 14 1019 54 10000 6.7 340 16:19 04.05.2020
4614 Clouds 14 1019 50 10000 5.7 340 15:42 04.05.2020
4615 Clouds 14 1019 50 10000 5.7 340 15:22 04.05.2020
4616 Clouds 14 1019 50 10000 5.7 340 14:53 04.05.2020
4617 Clouds 14 1019 50 10000 5.7 340 14:53 04.05.2020
4618 Clouds 15 1019 50 10000 5.7 340 14:53 04.05.2020
4619 Clouds 14 1019 50 10000 5.7 340 14:53 04.05.2020
4620 Clouds 14 1019 50 10000 5.7 340 14:53 04.05.2020
4621 Clouds 14 1018 54 10000 4.1 330 14:25 04.05.2020
4622 Clouds 14 1018 54 10000 4.1 330 14:25 04.05.2020
4623 Clouds 14 1018 54 10000 4.1 350 13:23 04.05.2020
4624 Clouds 14 1018 54 10000 4.1 350 13:23 04.05.2020
4625 Clouds 14 1018 54 10000 4.1 350 13:23 04.05.2020
4626 Clouds 14 1018 54 10000 4.1 350 13:23 04.05.2020
4627 Clouds 13 1019 57 10000 5.1 350 12:44 04.05.2020
4628 Clouds 13 1019 57 10000 5.1 350 12:44 04.05.2020
4629 Clouds 13 1019 57 10000 5.1 350 12:44 04.05.2020
4630 Clouds 13 1019 57 10000 5.1 350 12:44 04.05.2020
4631 Clouds 13 1018 62 10000 4.6 350 11:28 04.05.2020
4632 Clouds 13 1018 62 10000 4.6 350 11:28 04.05.2020
4633 Clouds 13 1018 62 10000 4.6 350 11:28 04.05.2020
4634 Clouds 13 1018 62 10000 4.6 350 11:28 04.05.2020
4635 Clouds 10 1018 71 10000 3.6 40 09:31 04.05.2020
4636 Clouds 8 1018 81 10000 3.1 340 07:54 04.05.2020
4637 Clouds 8 1017 81 10000 3.1 350 07:35 04.05.2020
4638 Clouds 6 1017 81 10000 1.5 360 06:20 04.05.2020
4639 Clouds 6 1017 81 10000 1.5 20 04:53 04.05.2020
4640 Clouds 8 1017 76 10000 3.1 20 02:57 04.05.2020
4641 Clouds 8 1017 81 10000 3.6 20 02:19 04.05.2020
4642 Clouds 9 1018 76 10000 3.1 20 00:33 04.05.2020
4643 Clouds 9 1018 76 10000 3.1 20 00:33 04.05.2020
4644 Clouds 9 1018 76 10000 3.1 20 00:31 04.05.2020
4645 Clouds 9 1018 76 10000 3.1 360 23:45 03.05.2020
4646 Clouds 9 1017 76 10000 2.6 350 23:24 03.05.2020
4647 Clouds 9 1017 76 10000 3.6 360 22:45 03.05.2020
4648 Clouds 10 1017 71 10000 3.1 360 22:25 03.05.2020
4649 Clouds 9 1017 76 10000 3.6 10 21:58 03.05.2020
4650 Clouds 11 1017 66 10000 3.1 10 21:40 03.05.2020
4651 Clouds 11 1017 66 10000 3.1 10 21:20 03.05.2020
4652 Clouds 11 1017 71 10000 3.1 20 20:46 03.05.2020
4653 Clouds 11 1017 71 10000 3.1 20 20:46 03.05.2020
4654 Clouds 11 1017 71 10000 3.1 20 20:46 03.05.2020
4655 Clouds 13 1017 66 10000 2.6 340 20:22 03.05.2020
4656 Clouds 13 1017 62 10000 2.1 360 19:51 03.05.2020
4657 Clouds 13 1017 62 10000 2.1 340 19:32 03.05.2020
4658 Clouds 14 1017 62 10000 3.1 320 19:00 03.05.2020
4659 Clouds 14 1017 66 10000 3.6 310 18:38 03.05.2020
4660 Clouds 14 1017 66 10000 3.6 310 18:38 03.05.2020
4661 Clouds 14 1017 66 10000 3.6 310 18:19 03.05.2020
4662 Clouds 14 1017 71 10000 3.6 320 17:42 03.05.2020
4663 Clouds 14 1017 71 10000 3.6 320 17:22 03.05.2020
4664 Clouds 14 1017 71 10000 3.6 320 17:22 03.05.2020
4665 Clouds 14 1017 71 10000 3.6 320 17:22 03.05.2020
4666 Clouds 14 1017 66 10000 4.1 300 16:55 03.05.2020
4667 Clouds 14 1017 66 10000 4.6 320 16:37 03.05.2020
4668 Clouds 13 1017 66 10000 4.6 320 16:18 03.05.2020
4669 Clouds 14 1017 62 10000 3.1 290 15:55 03.05.2020
4670 Clouds 13 1017 66 10000 3.1 300 15:36 03.05.2020
4671 Clouds 13 1017 66 10000 3.1 300 15:18 03.05.2020
4672 Clouds 13 1017 66 10000 3.1 300 15:18 03.05.2020
4673 Clouds 13 1016 66 10000 3.1 260 14:41 03.05.2020
4674 Clouds 13 1016 66 10000 3.1 260 14:41 03.05.2020
4675 Clouds 13 1016 66 10000 3.1 260 14:22 03.05.2020
4676 Clouds 13 1016 66 10000 3.1 260 14:22 03.05.2020
4677 Clouds 13 1016 66 10000 3.1 260 14:22 03.05.2020
4678 Clouds 14 1016 66 10000 3.6 250 13:57 03.05.2020
4679 Clouds 14 1016 62 10000 4.1 270 13:33 03.05.2020
4680 Clouds 14 1016 62 10000 4.1 270 13:33 03.05.2020
4681 Clouds 14 1016 62 10000 4.1 270 13:33 03.05.2020
4682 Clouds 14 1016 62 10000 4.1 270 13:33 03.05.2020
4683 Clouds 13 1016 71 10000 3.6 270 12:47 03.05.2020
4684 Clouds 12 1016 71 10000 3.6 290 12:25 03.05.2020
4685 Clouds 12 1016 71 10000 3.6 290 12:25 03.05.2020
4686 Clouds 12 1016 71 10000 3.6 290 12:25 03.05.2020
4687 Clouds 12 1016 71 10000 4.6 270 11:57 03.05.2020
4688 Clouds 11 1016 76 10000 4.1 280 11:39 03.05.2020
4689 Clouds 11 1016 76 10000 4.1 280 11:20 03.05.2020
4690 Clouds 11 1016 76 10000 4.1 280 11:20 03.05.2020
4691 Clouds 11 1016 76 10000 3.6 270 10:52 03.05.2020
4692 Clouds 11 1016 76 10000 3.6 270 10:52 03.05.2020
4693 Clouds 11 1016 81 10000 3.6 270 10:24 03.05.2020
4694 Clouds 10 1015 93 10000 2.6 240 09:39 03.05.2020
4695 Clouds 9 1015 93 10000 2.1 230 08:57 03.05.2020
4696 Clouds 9 1015 93 10000 2.1 240 08:32 03.05.2020
4697 Clouds 8 1014 93 10000 2.6 230 07:41 03.05.2020
4698 Clouds 8 1014 93 10000 2.6 230 07:40 03.05.2020
4699 Clouds 7 1014 100 10000 2.6 240 06:35 03.05.2020
4700 Clear 7 1014 100 10000 2.1 240 05:49 03.05.2020
4701 Clear 7 1013 93 10000 2.6 250 05:31 03.05.2020
4702 Clouds 6 1013 100 8000 2.6 240 04:27 03.05.2020
4703 Clouds 6 1013 93 10000 3.1 260 03:31 03.05.2020
4704 Clouds 6 1013 93 10000 3.1 260 02:31 03.05.2020
4705 Clouds 7 1012 93 10000 2.1 260 01:59 03.05.2020
4706 Clouds 8 1012 93 10000 1.5 250 01:39 03.05.2020
4707 Clouds 8 1012 93 10000 1.5 250 01:20 03.05.2020
4708 Clouds 7 1012 93 10000 3.1 270 00:38 03.05.2020
4709 Clouds 7 1012 93 10000 3.1 270 00:20 03.05.2020
4710 Clouds 7 1012 93 10000 2.6 270 23:46 02.05.2020
4711 Clouds 8 1011 87 10000 2.6 280 23:27 02.05.2020
4712 Clouds 9 1011 81 10000 3.6 290 22:56 02.05.2020
4713 Clouds 9 1011 81 10000 4.6 300 22:38 02.05.2020
4714 Clouds 10 1011 81 10000 4.6 300 22:19 02.05.2020
4715 Clouds 10 1010 76 10000 5.1 300 21:41 02.05.2020
4716 Clouds 11 1010 76 10000 5.1 300 21:20 02.05.2020
4717 Clouds 11 1009 76 10000 4.1 300 20:58 02.05.2020
4718 Clouds 11 1009 76 10000 4.1 300 20:58 02.05.2020
4719 Clouds 11 1009 76 10000 5.7 300 20:38 02.05.2020
4720 Clouds 11 1009 76 10000 5.7 300 20:20 02.05.2020
4721 Clouds 11 1009 71 10000 6.7 310 19:59 02.05.2020
4722 Rain 12 1008 71 10000 4.6 310 19:39 02.05.2020
4723 Rain 12 1008 71 10000 4.6 310 19:20 02.05.2020
4724 Rain 12 1008 66 10000 6.7 310 18:56 02.05.2020
4725 Clouds 12 1007 62 10000 6.7 300 18:38 02.05.2020
4726 Clouds 13 1007 62 10000 6.7 300 18:20 02.05.2020
4727 Clouds 13 1007 66 10000 5.7 300 17:56 02.05.2020
4728 Clouds 11 1006 87 10000 2.6 240 17:38 02.05.2020
4729 Clouds 12 1006 87 10000 2.6 240 17:19 02.05.2020
4730 Clouds 12 1006 81 10000 5.1 260 16:54 02.05.2020
4731 Rain 12 1006 76 10000 8.2 290 16:36 02.05.2020
4732 Rain 12 1006 76 10000 8.2 290 16:18 02.05.2020
4733 Clouds 13 1005 71 10000 6.7 280 15:41 02.05.2020
4734 Clouds 13 1005 71 10000 6.7 280 15:20 02.05.2020
4735 Rain 12 1005 87 10000 3.1 290 14:44 02.05.2020
4736 Rain 12 1005 87 10000 3.1 290 14:26 02.05.2020
4737 Clouds 11 1005 76 10000 9.8 290 13:59 02.05.2020
4738 Rain 11 1004 76 10000 7.2 260 13:39 02.05.2020
4739 Rain 11 1004 76 10000 7.2 260 13:19 02.05.2020
4740 Clouds 13 1004 76 10000 7.2 250 12:42 02.05.2020
4741 Clouds 13 1004 76 10000 7.2 250 12:23 02.05.2020
4742 Rain 13 1004 76 10000 5.7 240 11:58 02.05.2020
4743 Clouds 13 1003 76 10000 4.6 250 11:39 02.05.2020
4744 Clouds 13 1003 76 10000 4.6 250 11:21 02.05.2020
4745 Clouds 12 1003 81 10000 4.1 260 10:56 02.05.2020
4746 Clouds 11 1003 87 10000 4.6 240 10:38 02.05.2020
4747 Clouds 11 1003 87 10000 4.6 240 10:20 02.05.2020
4748 Clouds 10 1003 87 10000 5.1 250 09:54 02.05.2020
4749 Clouds 10 1003 87 10000 4.6 240 09:36 02.05.2020
4750 Clouds 10 1003 87 10000 4.6 240 09:18 02.05.2020
4751 Clouds 10 1002 93 10000 4.6 230 08:44 02.05.2020
4752 Clouds 9 1002 93 10000 4.6 230 08:25 02.05.2020
4753 Clouds 8 1002 93 10000 4.6 230 07:47 02.05.2020
4754 Clouds 8 1002 93 10000 3.6 230 07:27 02.05.2020
4755 Clouds 8 1002 100 9000 3.1 230 06:50 02.05.2020
4756 Clouds 8 1001 100 10000 3.6 230 05:28 02.05.2020
4757 Clear 8 1001 93 10000 3.6 240 04:47 02.05.2020
4758 Clear 7 1001 100 10000 3.6 220 04:23 02.05.2020
4759 Clouds 8 1001 93 10000 3.1 200 02:44 02.05.2020
4760 Clouds 8 1001 93 10000 3.1 200 02:22 02.05.2020
4761 Clouds 8 1001 93 10000 3.1 200 01:33 02.05.2020
4762 Clouds 7 1000 93 10000 3.6 180 00:46 02.05.2020
4763 Clouds 8 1000 87 10000 3.1 200 00:25 02.05.2020
4764 Clouds 8 1001 93 10000 5.7 250 23:58 01.05.2020
4765 Rain 8 1000 93 10000 2.6 210 23:39 01.05.2020
4766 Rain 8 1000 93 10000 2.6 210 23:19 01.05.2020
4767 Rain 8 1000 93 10000 2.1 210 22:55 01.05.2020
4768 Clouds 8 1000 93 10000 2.1 200 22:37 01.05.2020
4769 Clouds 8 1000 93 10000 2.1 200 22:18 01.05.2020
4770 Clouds 8 1000 87 10000 1.5 200 21:55 01.05.2020
4771 Clouds 9 1000 93 10000 2.1 210 21:36 01.05.2020
4772 Clouds 9 1000 93 10000 2.1 210 21:18 01.05.2020
4773 Clouds 9 999 87 10000 3.6 210 20:54 01.05.2020
4774 Clouds 9 999 87 10000 4.1 210 20:36 01.05.2020
4775 Rain 9 999 87 10000 4.1 210 20:18 01.05.2020
4776 Rain 10 999 87 10000 4.1 210 19:41 01.05.2020
4777 Rain 10 999 87 10000 4.1 210 19:22 01.05.2020
4778 Rain 10 999 87 10000 5.1 220 18:57 01.05.2020
4779 Rain 10 999 87 10000 3.6 210 18:39 01.05.2020
4780 Rain 10 999 87 10000 3.6 210 18:20 01.05.2020
4781 Rain 10 999 87 10000 3.1 240 17:57 01.05.2020
4782 Rain 10 999 81 10000 6.2 280 17:38 01.05.2020
4783 Rain 10 999 81 10000 6.2 280 17:20 01.05.2020
4784 Rain 10 999 87 10000 4.6 290 16:55 01.05.2020
4785 Rain 10 998 76 8000 12.3 280 16:37 01.05.2020
4786 Rain 10 998 76 8000 12.3 280 16:18 01.05.2020
4787 Rain 11 998 71 10000 7.7 210 15:42 01.05.2020
4788 Rain 12 998 71 10000 7.7 210 15:24 01.05.2020
4789 Clouds 15 998 62 10000 7.7 220 14:59 01.05.2020
4790 Clouds 14 998 62 10000 7.7 210 14:40 01.05.2020
4791 Clouds 14 998 62 10000 7.7 210 14:22 01.05.2020
4792 Clouds 13 998 76 10000 6.2 190 13:41 01.05.2020
4793 Clouds 13 998 76 10000 6.2 190 13:22 01.05.2020
4794 Clouds 13 998 76 10000 6.2 190 13:22 01.05.2020
4795 Rain 13 999 71 10000 6.7 180 12:58 01.05.2020
4796 Clouds 13 999 62 10000 6.7 210 12:40 01.05.2020
4797 Clouds 12 999 62 10000 6.7 210 12:20 01.05.2020
4798 Clouds 12 999 62 10000 5.7 210 11:59 01.05.2020
4799 Clouds 13 999 62 10000 6.7 220 11:40 01.05.2020
4800 Clouds 13 999 62 10000 6.7 220 11:19 01.05.2020
4801 Clouds 12 999 71 10000 7.2 230 10:41 01.05.2020
4802 Clouds 12 999 71 10000 7.2 230 10:20 01.05.2020
4803 Clouds 12 999 71 10000 6.2 220 09:59 01.05.2020
4804 Clouds 11 999 81 10000 5.7 220 09:41 01.05.2020
4805 Clouds 10 999 81 10000 5.7 220 09:19 01.05.2020
4806 Clouds 9 999 81 10000 5.7 210 08:46 01.05.2020
4807 Clouds 9 999 87 10000 5.1 200 08:28 01.05.2020
4808 Clouds 9 999 87 10000 4.6 190 07:58 01.05.2020
4809 Clouds 9 999 81 10000 4.1 190 07:38 01.05.2020
4810 Clouds 9 999 87 10000 4.1 200 06:59 01.05.2020
4811 Clouds 9 998 81 10000 3.6 200 06:18 01.05.2020
4812 Clouds 10 998 81 10000 4.6 200 05:21 01.05.2020
4813 Clouds 9 998 87 10000 4.6 190 03:44 01.05.2020
4814 Rain 9 998 81 10000 4.1 190 02:53 01.05.2020
4815 Clouds 9 998 81 10000 4.1 180 02:34 01.05.2020
4816 Clouds 9 999 81 10000 4.1 170 01:53 01.05.2020
4817 Rain 10 999 81 10000 4.6 180 01:27 01.05.2020
4818 Clouds 11 999 76 10000 6.2 180 00:40 01.05.2020
4819 Clouds 11 999 76 10000 6.2 180 00:21 01.05.2020
4820 Rain 12 999 71 10000 6.2 180 23:57 30.04.2020
4821 Rain 12 998 66 10000 7.7 170 23:39 30.04.2020
4822 Rain 12 998 66 10000 7.7 170 23:21 30.04.2020
4823 Rain 12 998 62 10000 2.1 140 22:59 30.04.2020
4824 Rain 13 999 58 10000 2.6 130 22:39 30.04.2020
4825 Clouds 12 999 58 10000 2.6 130 22:19 30.04.2020
4826 Clouds 13 999 62 10000 1.5 100 21:43 30.04.2020
4827 Clouds 13 999 62 10000 1.5 100 21:23 30.04.2020
4828 Clouds 14 999 50 10000 1 140 20:58 30.04.2020
4829 Clouds 14 999 58 10000 2.6 180 20:40 30.04.2020
4830 Clouds 14 999 58 10000 2.6 180 20:19 30.04.2020
4831 Clouds 14 999 58 10000 2.6 180 20:19 30.04.2020
4832 Clouds 15 999 50 10000 2.6 200 19:47 30.04.2020
4833 Clear 15 999 44 10000 4.1 200 19:27 30.04.2020
4834 Clear 16 1000 44 10000 5.7 230 18:59 30.04.2020
4835 Clear 17 1000 44 10000 5.1 220 18:39 30.04.2020
4836 Clear 17 1000 44 10000 5.1 220 18:21 30.04.2020
4837 Clear 17 1000 44 10000 5.1 210 17:59 30.04.2020
4838 Clear 17 1000 47 10000 6.2 240 17:40 30.04.2020
4839 Clear 17 1000 47 10000 6.2 240 17:21 30.04.2020
4840 Clouds 17 1000 44 10000 6.2 230 16:57 30.04.2020
4841 Clouds 17 1000 48 10000 7.2 230 16:39 30.04.2020
4842 Clouds 17 1000 48 10000 7.2 230 16:19 30.04.2020
4843 Clouds 16 1000 51 10000 7.7 250 15:48 30.04.2020
4844 Clouds 16 1000 48 10000 9.3 250 15:25 30.04.2020
4845 Clouds 16 1000 58 10000 8.2 240 14:59 30.04.2020
4846 Rain 14 1000 71 10000 8.2 240 14:39 30.04.2020
4847 Rain 14 1000 71 10000 8.2 240 14:19 30.04.2020
4848 Clouds 15 999 67 10000 7.2 220 13:56 30.04.2020
4849 Clouds 15 999 67 10000 7.2 220 13:56 30.04.2020
4850 Clouds 14 999 71 10000 6.2 210 13:38 30.04.2020
4851 Clouds 14 999 71 10000 6.2 210 13:19 30.04.2020
4852 Clouds 14 999 76 10000 4.6 230 12:41 30.04.2020
4853 Clouds 13 999 76 10000 4.6 230 12:21 30.04.2020
4854 Clouds 13 999 76 10000 6.7 200 11:59 30.04.2020
4855 Clouds 12 999 82 10000 5.7 200 11:37 30.04.2020
4856 Clouds 12 999 82 10000 5.7 200 11:18 30.04.2020
4857 Clouds 12 999 81 10000 5.1 190 10:54 30.04.2020
4858 Clouds 12 999 81 10000 4.6 190 10:36 30.04.2020
4859 Clouds 11 1000 87 10000 5.1 190 10:18 30.04.2020
4860 Clouds 11 1000 87 10000 4.6 180 09:41 30.04.2020
4861 Clouds 11 1000 87 10000 4.6 180 09:22 30.04.2020
4862 Clouds 11 1000 87 10000 4.1 180 08:49 30.04.2020
4863 Clouds 10 1000 93 10000 3.6 170 08:27 30.04.2020
4864 Clouds 10 1000 93 10000 3.6 170 08:27 30.04.2020
4865 Rain 10 1000 93 10000 4.6 200 07:59 30.04.2020
4866 Rain 11 1000 93 10000 3.1 170 07:40 30.04.2020
4867 Rain 11 1000 93 10000 3.1 170 07:22 30.04.2020
4868 Rain 11 1000 93 6000 4.1 190 06:39 30.04.2020
4869 Rain 11 1000 93 7000 5.1 150 05:49 30.04.2020
4870 Rain 11 1000 87 9000 4.6 140 05:27 30.04.2020
4871 Rain 10 1001 87 10000 3.6 150 04:30 30.04.2020
4872 Rain 10 1002 87 9000 5.1 150 02:59 30.04.2020
4873 Rain 10 1002 87 10000 4.1 130 02:29 30.04.2020
4874 Clouds 10 1002 87 10000 4.1 130 01:58 30.04.2020
4875 Clouds 10 1003 87 9000 5.7 120 01:20 30.04.2020
4876 Mist 9 1003 93 4800 3.1 130 00:40 30.04.2020
4877 Mist 9 1003 93 4800 3.1 130 00:18 30.04.2020
4878 Mist 9 1003 93 4800 3.1 130 00:18 30.04.2020
4879 Mist 9 1003 93 4500 3.1 130 23:56 29.04.2020
4880 Mist 8 1004 93 4500 2.1 130 23:36 29.04.2020
4881 Mist 9 1004 93 4500 2.1 130 23:18 29.04.2020
4882 Mist 9 1004 93 4500 2.1 130 23:18 29.04.2020
4883 Mist 9 1004 100 5000 1 140 22:40 29.04.2020
4884 Mist 9 1004 100 5000 1 140 22:21 29.04.2020
4885 Clouds 10 1004 93 10000 0.5 140 21:57 29.04.2020
4886 Clouds 10 1004 87 10000 0.5 270 21:36 29.04.2020
4887 Clouds 11 1004 87 10000 0.5 270 21:18 29.04.2020
4888 Clouds 13 1004 76 10000 2.6 280 20:40 29.04.2020
4889 Clouds 13 1004 76 10000 2.6 280 20:20 29.04.2020
4890 Clouds 13 1004 82 10000 4.1 260 19:59 29.04.2020
4891 Clouds 14 1004 76 10000 6.2 260 19:41 29.04.2020
4892 Clouds 14 1004 76 10000 6.2 260 19:20 29.04.2020
4893 Rain 13 1004 87 10000 5.1 240 18:43 29.04.2020
4894 Rain 13 1004 87 10000 5.1 240 18:25 29.04.2020
4895 Rain 13 1004 82 10000 4.6 270 17:58 29.04.2020
4896 Clouds 12 1004 82 10000 5.7 230 17:40 29.04.2020
4897 Clouds 12 1004 82 10000 5.7 230 17:21 29.04.2020
4898 Rain 13 1003 76 10000 5.7 210 16:39 29.04.2020
4899 Rain 14 1003 76 10000 5.7 210 16:20 29.04.2020
4900 Clouds 15 1003 72 10000 6.7 230 15:58 29.04.2020
4901 Clouds 15 1003 72 10000 6.7 230 15:39 29.04.2020
4902 Clouds 14 1003 72 10000 6.7 230 15:21 29.04.2020
4903 Clouds 14 1003 76 10000 6.2 230 14:57 29.04.2020
4904 Clouds 13 1003 82 10000 5.7 240 14:39 29.04.2020
4905 Clouds 13 1003 82 10000 5.7 240 14:20 29.04.2020
4906 Clouds 13 1003 82 6000 1 0 13:42 29.04.2020
4907 Clouds 13 1003 82 6000 1 0 13:21 29.04.2020
4908 Drizzle 12 1003 87 6000 1 0 12:59 29.04.2020
4909 Clouds 11 1003 93 6000 5.39 237 12:40 29.04.2020
4910 Clouds 11 1003 93 6000 5 227 12:19 29.04.2020
4911 Drizzle 11 1003 93 4000 1 0 11:58 29.04.2020
4912 Clouds 11 1003 87 9000 1.5 210 11:36 29.04.2020
4913 Clouds 11 1003 87 9000 1.5 210 11:18 29.04.2020
4914 Clouds 10 1003 87 10000 2.1 190 10:38 29.04.2020
4915 Clouds 10 1003 87 10000 2.1 190 10:20 29.04.2020
4916 Clouds 10 1003 93 10000 1.5 180 09:58 29.04.2020
4917 Drizzle 10 1003 81 10000 1.5 200 09:40 29.04.2020
4918 Drizzle 10 1003 81 10000 1.5 200 09:18 29.04.2020
4919 Clouds 10 1003 81 10000 1.5 140 08:43 29.04.2020
4920 Clouds 10 1003 81 10000 1.5 140 08:24 29.04.2020
4921 Clouds 9 1003 87 10000 1 0 07:51 29.04.2020
4922 Clouds 9 1003 87 10000 1 0 07:27 29.04.2020
4923 Clouds 8 1003 93 10000 1 0 06:52 29.04.2020
4924 Clouds 8 1003 87 10000 2.1 80 06:31 29.04.2020
4925 Clouds 8 1003 81 10000 2.6 60 05:42 29.04.2020
4926 Clouds 8 1003 81 10000 2.6 60 05:18 29.04.2020
4927 Clouds 8 1003 87 10000 3.1 60 04:19 29.04.2020
4928 Clouds 8 1003 81 10000 3.6 50 02:56 29.04.2020
4929 Clouds 8 1003 81 10000 3.6 50 01:54 29.04.2020
4930 Clouds 8 1003 81 10000 4.1 50 01:28 29.04.2020
4931 Clouds 8 1003 87 10000 4.1 50 00:55 29.04.2020
4932 Rain 9 1003 93 10000 3.6 60 00:36 29.04.2020
4933 Rain 9 1003 93 10000 3.6 60 00:18 29.04.2020
4934 Rain 9 1003 93 10000 4.1 40 23:43 28.04.2020
4935 Rain 9 1003 93 10000 4.1 40 23:20 28.04.2020
4936 Rain 9 1004 87 10000 4.1 20 22:38 28.04.2020
4937 Rain 9 1004 87 10000 4.1 20 22:20 28.04.2020
4938 Rain 10 1004 87 10000 4.6 10 21:59 28.04.2020
4939 Rain 10 1003 76 10000 4.1 30 21:40 28.04.2020
4940 Rain 10 1003 76 10000 4.1 30 21:22 28.04.2020
4941 Rain 10 1003 71 10000 5.1 20 20:58 28.04.2020
4942 Rain 11 1003 62 10000 3.6 10 20:40 28.04.2020
4943 Rain 11 1003 62 10000 3.6 10 20:40 28.04.2020
4944 Rain 11 1003 62 10000 3.6 10 20:20 28.04.2020
4945 Rain 12 1003 71 10000 3.6 20 19:56 28.04.2020
4946 Rain 13 1003 58 10000 4.6 50 19:38 28.04.2020
4947 Rain 13 1003 58 10000 4.6 50 19:19 28.04.2020
4948 Rain 13 1003 50 10000 6.2 30 18:42 28.04.2020
4949 Rain 14 1003 50 10000 6.2 30 18:20 28.04.2020
4950 Rain 13 1003 50 10000 5.7 20 17:59 28.04.2020
4951 Rain 14 1004 47 10000 5.7 20 17:37 28.04.2020
4952 Clouds 15 1004 47 10000 5.7 20 17:19 28.04.2020
4953 Clouds 15 1004 47 10000 5.7 20 17:19 28.04.2020
4954 Clouds 15 1004 47 10000 6.2 20 16:57 28.04.2020
4955 Clouds 15 1004 47 10000 5.7 10 16:39 28.04.2020
4956 Clouds 16 1004 47 10000 5.7 10 16:21 28.04.2020
4957 Clouds 16 1004 44 10000 4.6 20 15:55 28.04.2020
4958 Clouds 17 1004 44 10000 4.6 10 15:37 28.04.2020
4959 Clouds 16 1004 44 10000 4.6 10 15:19 28.04.2020
4960 Clouds 16 1004 48 10000 4.6 360 14:54 28.04.2020
4961 Clouds 15 1004 51 10000 4.6 20 14:36 28.04.2020
4962 Clouds 16 1004 51 10000 4.1 30 14:18 28.04.2020
4963 Clouds 15 1005 54 10000 3.1 40 13:41 28.04.2020
4964 Clouds 16 1005 54 10000 3.1 40 13:23 28.04.2020
4965 Clouds 16 1005 51 10000 4.1 40 12:59 28.04.2020
4966 Clouds 16 1005 54 10000 3.6 50 12:41 28.04.2020
4967 Clouds 14 1005 54 10000 3.6 50 12:22 28.04.2020
4968 Clouds 14 1006 62 10000 3.1 30 11:42 28.04.2020
4969 Clouds 14 1006 62 10000 3.1 30 11:22 28.04.2020
4970 Clouds 13 1005 66 10000 4.1 30 10:58 28.04.2020
4971 Clouds 13 1006 71 10000 3.6 10 10:38 28.04.2020
4972 Clouds 12 1006 76 10000 4.1 40 10:18 28.04.2020
4973 Clouds 11 1006 76 10000 4.1 360 09:44 28.04.2020
4974 Clouds 11 1006 76 10000 4.1 360 09:25 28.04.2020
4975 Clouds 11 1006 76 10000 4.1 20 08:57 28.04.2020
4976 Clouds 10 1006 76 10000 3.6 360 08:38 28.04.2020
4977 Clouds 10 1006 76 10000 3.6 360 08:20 28.04.2020
4978 Clouds 10 1006 81 8000 3.6 350 07:44 28.04.2020
4979 Clouds 10 1006 81 8000 3.6 350 07:19 28.04.2020
4980 Clouds 10 1005 87 6000 3.1 360 06:44 28.04.2020
4981 Clouds 9 1005 87 7000 3.1 360 05:56 28.04.2020
4982 Clouds 9 1005 87 8000 4.1 330 05:37 28.04.2020
4983 Clouds 10 1006 76 10000 3.6 320 04:39 28.04.2020
4984 -273 0 0 0 0 0 02:59 28.04.2020
4985 Clouds 11 1005 54 10000 2.6 330 02:25 28.04.2020
4986 Clouds 11 1005 58 10000 1 0 01:23 28.04.2020
4987 Clouds 11 1005 54 10000 2.6 350 00:49 28.04.2020
4988 Clouds 12 1006 54 10000 2.6 340 00:19 28.04.2020
4989 Clouds 13 1006 58 10000 3.1 350 23:43 27.04.2020
4990 Clouds 13 1006 58 10000 3.1 350 23:43 27.04.2020
4991 Clouds 13 1006 58 10000 3.1 350 23:21 27.04.2020
4992 Clouds 13 1005 58 10000 3.6 360 22:55 27.04.2020
4993 Clouds 13 1005 58 10000 3.6 360 22:55 27.04.2020
4994 Clouds 13 1005 51 10000 4.6 340 22:37 27.04.2020
4995 Clouds 13 1005 51 10000 4.6 340 22:18 27.04.2020
4996 Clouds 14 1005 51 10000 4.6 320 21:54 27.04.2020
4997 Clouds 14 1005 54 10000 2.6 240 21:36 27.04.2020
4998 Clouds 15 1005 54 10000 2.6 240 21:18 27.04.2020
4999 Clouds 18 1004 45 10000 3.1 240 20:42 27.04.2020
5000 Clouds 18 1004 45 10000 3.1 240 20:21 27.04.2020
5001 Clouds 19 1005 39 10000 3.6 250 19:57 27.04.2020
5002 Clouds 20 1005 37 10000 5.1 250 19:38 27.04.2020
5003 Clouds 19 1005 37 10000 5.1 250 19:19 27.04.2020
5004 Clouds 19 1005 30 10000 3.6 230 18:56 27.04.2020
5005 Clouds 20 1005 28 10000 5.7 250 18:38 27.04.2020
5006 Clear 20 1005 28 10000 5.7 250 18:19 27.04.2020
5007 Clear 20 1005 30 10000 4.6 220 17:43 27.04.2020
5008 Clear 20 1005 30 10000 4.6 220 17:21 27.04.2020
5009 Clear 20 1005 28 10000 4.1 240 16:58 27.04.2020
5010 Clear 20 1005 32 10000 5.1 250 16:39 27.04.2020
5011 Clear 20 1005 32 10000 5.1 250 16:39 27.04.2020
5012 Clear 20 1005 32 10000 5.1 250 16:20 27.04.2020
5013 Clear 20 1006 32 10000 2.6 260 15:56 27.04.2020
5014 Clear 20 1006 32 10000 2.1 260 15:38 27.04.2020
5015 Clouds 20 1006 32 10000 2.1 260 15:18 27.04.2020
5016 Clouds 20 1006 34 10000 3.1 230 14:42 27.04.2020
5017 Clouds 20 1006 34 10000 3.1 230 14:23 27.04.2020
5018 Clouds 19 1007 34 10000 4.1 230 13:59 27.04.2020
5019 Clouds 19 1007 36 10000 3.1 200 13:41 27.04.2020
5020 Clouds 19 1007 36 10000 3.1 200 13:20 27.04.2020
5021 Clouds 18 1007 39 10000 4.1 190 12:56 27.04.2020
5022 Clouds 19 1007 39 10000 3.6 210 12:38 27.04.2020
5023 Clouds 16 1007 39 10000 3.6 210 12:18 27.04.2020
5024 Clouds 17 1008 48 10000 2.6 220 11:41 27.04.2020
5025 Clouds 16 1008 48 10000 2.6 220 11:19 27.04.2020
5026 Clouds 15 1008 54 10000 2.1 170 10:57 27.04.2020
5027 Clouds 14 1008 62 10000 2.1 170 10:38 27.04.2020
5028 Clouds 13 1008 62 10000 2.1 170 10:19 27.04.2020
5029 Clouds 11 1009 66 10000 1.5 180 09:43 27.04.2020
5030 Clouds 11 1009 66 10000 1.5 180 09:43 27.04.2020
5031 Clear 10 1009 66 10000 1.5 180 09:19 27.04.2020
5032 Clear 9 1009 75 10000 1.5 150 08:57 27.04.2020
5033 Clear 6 1009 75 10000 1.5 130 08:38 27.04.2020
5034 Clear 5 1009 75 10000 1.5 130 08:19 27.04.2020
5035 Clear 4 1009 86 10000 1 80 07:44 27.04.2020
5036 Clear 4 1009 86 10000 1 80 07:20 27.04.2020
5037 Clear 4 1009 86 10000 1 100 06:47 27.04.2020
5038 Clear 3 1009 93 10000 1.96 171 06:25 27.04.2020
5039 Clear 3 1009 93 10000 1.96 171 05:50 27.04.2020
5040 Clear 4 1010 86 10000 1.96 171 04:49 27.04.2020
5041 Clear 4 1010 93 10000 1 150 03:49 27.04.2020
5042 Clear 5 1010 86 10000 1 80 02:58 27.04.2020
5043 Clear 5 1010 81 10000 1 70 01:35 27.04.2020
5044 Clear 5 1010 81 10000 1.5 80 00:58 27.04.2020
5045 Clear 6 1011 75 10000 1.5 50 00:20 27.04.2020
5046 Clear 7 1011 70 10000 2.1 50 23:56 26.04.2020
5047 Clear 7 1010 66 10000 2.1 20 23:38 26.04.2020
5048 Clear 7 1010 66 10000 2.1 20 23:19 26.04.2020
5049 Clear 8 1010 61 10000 2.1 40 22:58 26.04.2020
5050 Clear 8 1010 61 10000 3.1 30 22:39 26.04.2020
5051 Clear 9 1010 61 10000 3.1 30 22:20 26.04.2020
5052 Clear 9 1010 57 10000 3.6 20 21:57 26.04.2020
5053 Clear 11 1010 54 10000 3.6 30 21:38 26.04.2020
5054 Clouds 11 1010 54 10000 3.6 30 21:18 26.04.2020
5055 Clouds 12 1010 50 10000 2.1 330 20:55 26.04.2020
5056 Clouds 12 1010 50 10000 3.1 310 20:36 26.04.2020
5057 Clouds 13 1010 50 10000 3.1 310 20:18 26.04.2020
5058 Clouds 13 1010 50 10000 2.6 300 19:56 26.04.2020
5059 Clouds 14 1010 44 10000 2.1 310 19:36 26.04.2020
5060 Clouds 14 1010 44 10000 2.1 310 19:18 26.04.2020
5061 Clouds 14 1010 47 10000 1.5 0 18:43 26.04.2020
5062 Clouds 15 1010 47 10000 1.5 0 18:24 26.04.2020
5063 Clouds 15 1011 47 10000 3.1 350 17:43 26.04.2020
5064 Clouds 15 1011 47 10000 3.1 350 17:23 26.04.2020
5065 Clouds 14 1011 47 10000 3.1 350 16:58 26.04.2020
5066 Clouds 14 1011 50 10000 2.6 310 16:39 26.04.2020
5067 Clouds 14 1011 50 10000 2.6 310 16:20 26.04.2020
5068 Clouds 14 1011 50 10000 3.1 0 15:57 26.04.2020
5069 Clouds 13 1011 54 10000 4.1 310 15:37 26.04.2020
5070 Clouds 12 1011 54 10000 4.1 310 15:18 26.04.2020
5071 Clouds 12 1012 54 10000 2.1 0 14:41 26.04.2020
5072 Clouds 12 1012 54 10000 2.1 0 14:19 26.04.2020
5073 Clouds 12 1012 58 10000 3.1 290 13:59 26.04.2020
5074 Clouds 12 1012 62 10000 2.6 320 13:40 26.04.2020
5075 Clouds 11 1012 62 10000 2.6 320 13:22 26.04.2020
5076 Clouds 12 1013 58 10000 2.6 300 12:57 26.04.2020
5077 Clouds 12 1013 62 10000 2.6 0 12:39 26.04.2020
5078 Clouds 12 1013 62 10000 2.6 0 12:39 26.04.2020
5079 Clouds 11 1013 62 10000 2.6 0 12:20 26.04.2020
5080 Clouds 11 1013 66 10000 2.6 300 11:55 26.04.2020
5081 Clouds 10 1013 61 10000 2.6 290 11:37 26.04.2020
5082 Clouds 10 1013 61 10000 2.6 290 11:19 26.04.2020
5083 Clouds 10 1013 66 10000 2.1 300 10:55 26.04.2020
5084 Clouds 10 1013 76 10000 2.6 300 10:36 26.04.2020
5085 Clouds 10 1013 76 10000 2.6 300 10:18 26.04.2020
5086 Clouds 9 1012 81 10000 1 0 09:39 26.04.2020
5087 Clouds 8 1012 81 10000 1 0 09:20 26.04.2020
5088 Clouds 6 1012 93 10000 0.5 0 08:43 26.04.2020
5089 Clouds 6 1012 93 10000 0.5 0 08:23 26.04.2020
5090 Clouds 5 1012 93 10000 1.5 290 07:58 26.04.2020
5091 Clouds 4 1012 100 10000 1.5 300 07:40 26.04.2020
5092 Clouds 4 1012 100 10000 1.5 300 07:18 26.04.2020
5093 Fog 3 1012 100 10000 1 260 06:39 26.04.2020
5094 Fog 3 1012 100 10000 1.5 250 05:55 26.04.2020
5095 Fog 3 1013 100 10000 1 260 05:36 26.04.2020
5096 Clouds 4 1013 93 10000 1.5 270 04:55 26.04.2020
5097 Clear 4 1013 93 10000 2.6 300 03:56 26.04.2020
5098 Clouds 4 1013 93 10000 2.1 290 02:46 26.04.2020
5099 Clouds 5 1013 93 10000 2.1 300 02:26 26.04.2020
5100 Clouds 4 1013 93 10000 2.6 290 01:46 26.04.2020
5101 Clear 5 1013 93 10000 2.1 290 01:25 26.04.2020
5102 Clouds 6 1012 87 10000 2.1 320 00:39 26.04.2020
5103 Clouds 7 1012 87 10000 2.1 320 00:19 26.04.2020
5104 Clear 7 1012 87 10000 2.6 340 23:39 25.04.2020
5105 Clear 8 1012 87 10000 2.6 340 23:20 25.04.2020
5106 Clear 8 1013 87 10000 4.1 350 22:57 25.04.2020
5107 Clear 8 1012 81 10000 4.6 360 22:39 25.04.2020
5108 Clear 8 1012 81 10000 4.6 360 22:19 25.04.2020
5109 Clear 8 1012 81 10000 4.6 360 22:19 25.04.2020
5110 Clear 10 1012 66 10000 4.6 330 21:40 25.04.2020
5111 Clouds 10 1012 66 10000 4.6 330 21:21 25.04.2020
5112 Clouds 11 1012 58 10000 4.6 330 20:58 25.04.2020
5113 Clouds 12 1012 50 10000 5.1 340 20:40 25.04.2020
5114 Clouds 12 1012 50 10000 5.1 340 20:22 25.04.2020
5115 Clouds 13 1012 50 10000 5.7 350 19:55 25.04.2020
5116 Clouds 13 1011 47 10000 4.6 330 19:37 25.04.2020
5117 Clouds 14 1011 47 10000 4.6 330 19:19 25.04.2020
5118 Clouds 15 1012 41 10000 3.1 310 18:41 25.04.2020
5119 Clouds 15 1012 41 10000 3.1 310 18:21 25.04.2020
5120 Clouds 16 1012 44 10000 5.1 310 17:58 25.04.2020
5121 Clouds 16 1012 44 10000 5.7 290 17:38 25.04.2020
5122 Clouds 16 1012 44 10000 5.7 290 17:19 25.04.2020
5123 Clouds 17 1012 38 10000 4.6 290 16:57 25.04.2020
5124 Clouds 17 1012 41 10000 4.1 290 16:38 25.04.2020
5125 Clouds 16 1012 41 10000 4.1 290 16:19 25.04.2020
5126 Clouds 16 1013 47 10000 3.6 330 15:41 25.04.2020
5127 Clouds 16 1013 47 10000 3.6 330 15:21 25.04.2020
5128 Clouds 16 1013 51 10000 3.1 320 14:58 25.04.2020
5129 Clouds 16 1013 51 10000 3.1 320 14:58 25.04.2020
5130 Clouds 16 1013 50 10000 4.1 290 14:39 25.04.2020
5131 Clouds 16 1013 50 10000 4.1 290 14:20 25.04.2020
5132 Clouds 16 1013 50 10000 4.1 290 14:20 25.04.2020
5133 Clouds 16 1013 51 10000 3.6 310 13:54 25.04.2020
5134 Clouds 16 1013 58 10000 5.7 300 13:36 25.04.2020
5135 Clouds 15 1013 58 10000 5.7 300 13:18 25.04.2020
5136 Clouds 15 1014 62 10000 5.7 290 12:42 25.04.2020
5137 Clouds 14 1014 62 10000 5.7 290 12:21 25.04.2020
5138 Clouds 14 1014 66 10000 5.7 290 11:59 25.04.2020
5139 Clouds 13 1014 71 10000 6.2 300 11:41 25.04.2020
5140 Clouds 13 1014 71 10000 6.2 300 11:23 25.04.2020
5141 Clouds 12 1014 76 10000 6.2 290 10:54 25.04.2020
5142 Clouds 12 1013 76 10000 6.2 310 10:36 25.04.2020
5143 Clouds 12 1013 76 10000 6.2 310 10:18 25.04.2020
5144 Clouds 10 1013 76 10000 5.7 290 09:41 25.04.2020
5145 Clouds 10 1013 76 10000 5.7 290 09:21 25.04.2020
5146 Clouds 9 1013 81 10000 5.1 290 08:41 25.04.2020
5147 Clouds 9 1013 81 10000 5.1 290 08:22 25.04.2020
5148 Clouds 9 1012 81 10000 5.1 300 07:59 25.04.2020
5149 Clouds 8 1012 75 10000 4.6 300 07:41 25.04.2020
5150 Clouds 8 1012 75 10000 5.1 300 06:57 25.04.2020
5151 Clouds 8 1012 75 10000 4.1 290 06:38 25.04.2020
5152 Clouds 8 1012 70 10000 5.1 300 05:42 25.04.2020
5153 Clouds 8 1012 70 10000 5.1 300 05:24 25.04.2020
5154 Clouds 8 1012 65 10000 6.7 320 03:56 25.04.2020
5155 Clouds 8 1012 70 10000 5.7 320 02:36 25.04.2020
5156 Clouds 8 1011 70 10000 7.2 310 01:56 25.04.2020
5157 Clouds 8 1011 75 10000 7.2 300 01:38 25.04.2020
5158 Clouds 8 1011 75 10000 7.2 300 01:19 25.04.2020
5159 Clouds 8 1011 75 10000 6.7 300 00:39 25.04.2020
5160 Clouds 8 1011 75 10000 6.7 300 00:18 25.04.2020
5161 Clouds 9 1011 70 10000 8.7 320 23:40 24.04.2020
5162 Clouds 9 1011 70 10000 8.7 320 23:20 24.04.2020
5163 Clouds 9 1011 70 10000 6.2 300 22:41 24.04.2020
5164 Clouds 9 1011 70 10000 6.2 300 22:21 24.04.2020
5165 Clouds 9 1011 75 10000 6.7 300 21:59 24.04.2020
5166 Clouds 9 1011 75 10000 6.7 300 21:40 24.04.2020
5167 Clouds 9 1011 75 10000 6.7 300 21:22 24.04.2020
5168 Clouds 9 1011 70 10000 7.2 300 20:59 24.04.2020
5169 Clouds 9 1011 71 10000 7.2 320 20:40 24.04.2020
5170 Clouds 10 1011 71 10000 7.2 320 20:19 24.04.2020
5171 Clouds 10 1011 66 10000 7.2 330 19:54 24.04.2020
5172 Clouds 11 1011 66 10000 8.2 320 19:36 24.04.2020
5173 Clouds 11 1011 66 10000 8.2 320 19:18 24.04.2020
5174 Clouds 13 1011 62 10000 6.7 330 18:40 24.04.2020
5175 Clear 13 1011 62 10000 6.7 330 18:22 24.04.2020
5176 Clear 13 1011 62 10000 6.7 330 18:22 24.04.2020
5177 Clear 14 1011 54 10000 7.7 320 17:44 24.04.2020
5178 Clear 15 1011 54 10000 7.7 320 17:25 24.04.2020
5179 Clear 15 1011 51 10000 7.2 330 16:59 24.04.2020
5180 Clear 16 1011 48 10000 8.2 320 16:41 24.04.2020
5181 Clear 17 1011 48 10000 8.2 320 16:22 24.04.2020
5182 Clear 17 1011 42 10000 8.2 320 15:59 24.04.2020
5183 Clear 17 1011 36 10000 8.7 330 15:39 24.04.2020
5184 Clouds 17 1011 36 10000 8.7 330 15:19 24.04.2020
5185 Clouds 17 1011 42 10000 7.7 310 14:40 24.04.2020
5186 Clouds 17 1011 42 10000 7.7 310 14:22 24.04.2020
5187 Clouds 18 1011 36 10000 8.7 300 13:58 24.04.2020
5188 Clouds 18 1011 36 10000 6.2 320 13:39 24.04.2020
5189 Clouds 18 1011 36 10000 6.2 320 13:20 24.04.2020
5190 Clouds 18 1012 36 10000 7.7 320 12:46 24.04.2020
5191 Clouds 16 1012 38 10000 5.7 330 12:26 24.04.2020
5192 Clouds 16 1011 42 10000 5.1 310 11:59 24.04.2020
5193 Clouds 16 1012 38 10000 6.2 340 11:40 24.04.2020
5194 Clouds 16 1012 38 10000 6.2 340 11:21 24.04.2020
5195 Clouds 16 1012 41 10000 4.6 330 10:57 24.04.2020
5196 Clouds 16 1012 44 10000 4.6 350 10:38 24.04.2020
5197 Clouds 16 1012 44 10000 4.6 350 10:19 24.04.2020
5198 Clouds 16 1012 44 10000 4.6 350 10:19 24.04.2020
5199 Clouds 15 1012 44 10000 5.1 340 09:54 24.04.2020
5200 Clouds 15 1012 54 10000 2.6 350 09:36 24.04.2020
5201 Clouds 13 1012 54 10000 2.6 350 09:18 24.04.2020
5202 Clouds 11 1012 62 10000 3.6 340 08:41 24.04.2020
5203 Clouds 12 1012 62 10000 3.6 340 08:19 24.04.2020
5204 Clouds 11 1012 87 10000 2.6 290 07:47 24.04.2020
5205 Clouds 10 1011 87 10000 3.1 290 07:27 24.04.2020
5206 Clouds 10 1011 87 10000 2.1 270 06:59 24.04.2020
5207 Clouds 10 1012 81 10000 1.5 300 06:41 24.04.2020
5208 Clouds 9 1012 87 10000 2.6 280 05:50 24.04.2020
5209 Clouds 10 1013 81 10000 2.1 310 04:48 24.04.2020
5210 Clouds 9 1013 81 10000 1.5 250 03:28 24.04.2020
5211 Clouds 9 1014 87 10000 0.5 0 02:49 24.04.2020
5212 Clouds 10 1014 87 10000 1 250 02:24 24.04.2020
5213 Clouds 10 1015 76 10000 0.5 0 01:37 24.04.2020
5214 Clouds 11 1015 71 10000 0.5 0 00:50 24.04.2020
5215 Clouds 11 1015 81 10000 1 310 00:19 24.04.2020
5216 Clouds 11 1016 76 10000 0.5 230 23:46 23.04.2020
5217 Clouds 12 1016 62 10000 0.5 70 23:27 23.04.2020
5218 Clouds 12 1016 54 10000 0.5 80 22:57 23.04.2020
5219 Clouds 13 1016 50 10000 1.04 128 22:38 23.04.2020
5220 Clouds 13 1016 50 10000 1.04 128 22:19 23.04.2020
5221 Clouds 13 1016 44 10000 0.5 0 21:57 23.04.2020
5222 Clouds 16 1017 41 10000 1 220 21:39 23.04.2020
5223 Clouds 17 1017 41 10000 1 220 21:20 23.04.2020
5224 Clouds 17 1017 42 10000 1 230 20:56 23.04.2020
5225 Clouds 18 1017 42 10000 1.5 190 20:38 23.04.2020
5226 Clouds 19 1017 42 10000 1.5 190 20:18 23.04.2020
5227 Clouds 19 1017 37 10000 2.6 180 19:55 23.04.2020
5228 Clouds 20 1017 28 10000 2.1 170 19:37 23.04.2020
5229 Clouds 21 1017 28 10000 2.1 170 19:19 23.04.2020
5230 Clouds 21 1018 30 10000 2.6 160 18:40 23.04.2020
5231 Clouds 21 1018 30 10000 2.6 160 18:22 23.04.2020
5232 Clouds 21 1018 28 10000 3.1 140 17:58 23.04.2020
5233 Clouds 21 1019 30 10000 3.1 130 17:39 23.04.2020
5234 Clouds 21 1019 30 10000 3.1 130 17:21 23.04.2020
5235 Clouds 21 1019 28 10000 3.1 140 16:55 23.04.2020
5236 Clouds 21 1020 30 10000 3.1 120 16:37 23.04.2020
5237 Clouds 21 1020 30 10000 3.1 120 16:18 23.04.2020
5238 Clouds 21 1021 32 10000 4.1 140 15:41 23.04.2020
5239 Clouds 21 1021 32 10000 4.1 140 15:41 23.04.2020
5240 Clear 20 1021 32 10000 4.1 140 15:22 23.04.2020
5241 Clear 20 1021 30 10000 5.1 140 14:56 23.04.2020
5242 Clear 20 1021 30 10000 5.1 140 14:37 23.04.2020
5243 Clear 20 1021 30 10000 5.1 140 14:18 23.04.2020
5244 Clear 20 1022 32 10000 5.1 130 13:40 23.04.2020
5245 Clear 20 1022 32 10000 5.1 130 13:22 23.04.2020
5246 Clear 19 1022 36 10000 5.1 140 12:58 23.04.2020
5247 Clear 19 1023 34 10000 7.2 150 12:40 23.04.2020
5248 Clear 18 1023 34 10000 7.2 150 12:21 23.04.2020
5249 Clear 18 1023 36 10000 6.7 140 11:47 23.04.2020
5250 Clear 16 1023 39 10000 6.2 130 11:28 23.04.2020
5251 Clear 16 1023 44 10000 4.6 120 10:59 23.04.2020
5252 Clear 15 1024 50 10000 4.6 120 10:40 23.04.2020
5253 Clear 15 1024 50 10000 4.6 120 10:20 23.04.2020
5254 Clear 14 1024 58 10000 4.6 120 09:41 23.04.2020
5255 Clear 12 1024 58 10000 4.6 120 09:19 23.04.2020
5256 Clear 11 1024 66 10000 3.6 100 08:54 23.04.2020
5257 Clear 9 1024 76 10000 4.1 80 08:36 23.04.2020
5258 Clear 8 1024 76 10000 4.1 80 08:18 23.04.2020
5259 Clear 7 1024 86 10000 2.6 70 07:41 23.04.2020
5260 Clear 6 1024 86 10000 2.6 70 07:22 23.04.2020
5261 Clear 6 1024 86 10000 3.1 70 06:46 23.04.2020
5262 Clear 6 1024 75 10000 2.6 70 05:56 23.04.2020
5263 Clear 7 1024 81 10000 2.6 90 05:22 23.04.2020
5264 Clear 7 1024 81 10000 2.6 90 04:50 23.04.2020
5265 Clear 9 1024 70 10000 3.6 70 02:24 23.04.2020
5266 Clear 10 1024 66 10000 4.6 70 01:41 23.04.2020
5267 Clear 10 1024 66 10000 4.6 70 01:18 23.04.2020
5268 Clear 10 1024 66 10000 4.6 70 00:36 23.04.2020
5269 Clear 11 1024 66 10000 4.6 70 00:18 23.04.2020
5270 Clear 11 1024 46 10000 3.6 50 23:42 22.04.2020
5271 Clear 12 1024 46 10000 3.6 50 23:22 22.04.2020
5272 Clear 13 1023 40 10000 4.1 60 22:55 22.04.2020
5273 Clear 13 1023 35 10000 4.1 60 22:36 22.04.2020
5274 Clear 13 1023 35 10000 4.1 60 22:18 22.04.2020
5275 Clear 14 1023 33 10000 5.7 60 21:55 22.04.2020
5276 Clear 14 1023 33 10000 5.7 60 21:55 22.04.2020
5277 Clear 15 1023 79 10000 5.1 60 21:36 22.04.2020
5278 Clear 15 1023 69 10000 5.1 60 21:18 22.04.2020
5279 Clear 16 1023 36 10000 7.7 70 20:43 22.04.2020
5280 Clear 17 1023 36 10000 7.7 70 20:19 22.04.2020
5281 Clear 17 1022 36 10000 7.2 70 19:57 22.04.2020
5282 Clear 18 1022 36 10000 7.2 70 19:38 22.04.2020
5283 Clear 18 1022 36 10000 7.2 70 19:18 22.04.2020
5284 Clear 18 1022 36 10000 7.2 70 19:18 22.04.2020
5285 Clear 19 1022 34 10000 6.7 70 18:58 22.04.2020
5286 Clear 19 1022 34 10000 6.7 70 18:40 22.04.2020
5287 Clear 20 1022 34 10000 6.7 70 18:22 22.04.2020
5288 Clear 20 1023 34 10000 6.7 80 17:55 22.04.2020
5289 Clear 20 1023 32 10000 6.2 70 17:37 22.04.2020
5290 Clear 20 1023 32 10000 6.7 70 17:18 22.04.2020
5291 Clear 20 1023 34 10000 7.2 80 16:42 22.04.2020
5292 Clear 19 1023 34 10000 7.2 80 16:22 22.04.2020
5293 Clear 19 1024 37 10000 7.2 100 15:43 22.04.2020
5294 Clear 19 1024 37 10000 7.2 100 15:25 22.04.2020
5295 Clear 19 1024 34 10000 6.7 90 14:59 22.04.2020
5296 Clear 19 1024 34 10000 6.7 100 14:40 22.04.2020
5297 Clear 19 1024 34 10000 6.7 100 14:20 22.04.2020
5298 Clear 19 1025 34 10000 6.7 100 13:56 22.04.2020
5299 Clear 19 1025 34 10000 7.7 80 13:38 22.04.2020
5300 Clear 19 1025 34 10000 7.7 80 13:19 22.04.2020
5301 Clear 18 1025 38 10000 6.7 90 12:42 22.04.2020
5302 Clear 16 1025 38 10000 6.7 90 12:23 22.04.2020
5303 Clear 16 1026 36 10000 6.2 90 11:57 22.04.2020
5304 Clear 15 1026 41 10000 6.7 80 11:36 22.04.2020
5305 Clear 15 1026 41 10000 6.7 80 11:18 22.04.2020
5306 Clear 14 1026 47 10000 5.7 80 10:41 22.04.2020
5307 Clear 14 1026 47 10000 5.7 80 10:21 22.04.2020
5308 Clear 12 1026 57 10000 5.1 70 09:41 22.04.2020
5309 Clear 10 1026 57 10000 5.1 70 09:23 22.04.2020
5310 Clear 10 1026 61 10000 5.7 70 08:59 22.04.2020
5311 Clear 9 1026 65 10000 6.2 70 08:41 22.04.2020
5312 Clear 8 1026 65 10000 6.2 70 08:22 22.04.2020
5313 Clear 8 1026 70 10000 5.1 70 07:53 22.04.2020
5314 Clear 7 1025 65 10000 6.2 70 07:33 22.04.2020
5315 Clear 7 1025 65 10000 7.7 70 06:53 22.04.2020
5316 Clear 7 1025 65 10000 6.2 70 06:34 22.04.2020
5317 Clear 7 1025 65 10000 6.7 60 05:39 22.04.2020
5318 Clear 8 1025 61 10000 6.7 70 04:34 22.04.2020
5319 Clear 9 1025 61 10000 6.2 70 02:59 22.04.2020
5320 Clear 10 1025 57 10000 6.2 70 01:55 22.04.2020
5321 Clear 11 1025 53 10000 6.2 70 01:28 22.04.2020
5322 Clear 11 1024 57 10000 6.7 70 00:59 22.04.2020
5323 Clear 11 1024 53 10000 7.2 70 00:41 22.04.2020
5324 Clear 11 1024 53 10000 7.2 70 00:20 22.04.2020
5325 Clear 12 1024 43 10000 5.1 60 23:44 21.04.2020
5326 Clear 12 1024 43 10000 5.1 60 23:21 21.04.2020
5327 Clear 13 1024 43 10000 4.6 80 22:55 21.04.2020
5328 Clear 13 1023 43 10000 4.6 80 22:37 21.04.2020
5329 Clear 13 1023 43 10000 4.6 80 22:19 21.04.2020
5330 Clear 14 1023 69 10000 5.7 80 21:43 21.04.2020
5331 Clear 14 1023 68 10000 5.7 80 21:24 21.04.2020
5332 -273 0 0 0 0 0 20:59 21.04.2020
5333 Clear 15 1022 68 10000 7.7 90 20:40 21.04.2020
5334 Clear 16 1022 68 10000 7.7 90 20:22 21.04.2020
5335 Clear 16 1022 68 10000 7.7 90 19:56 21.04.2020
5336 Clear 17 1022 68 10000 8.7 80 19:36 21.04.2020
5337 Clear 17 1022 68 10000 8.7 80 19:18 21.04.2020
5338 Clear 17 1022 33 10000 9.3 90 18:54 21.04.2020
5339 Clear 17 1022 68 10000 9.8 80 18:36 21.04.2020
5340 Clear 17 1022 53 10000 9.8 80 18:18 21.04.2020
5341 Clear 18 1022 31 10000 9.8 80 17:39 21.04.2020
5342 Clear 18 1022 31 10000 9.8 80 17:19 21.04.2020
5343 Clear 17 1023 33 10000 9.3 90 16:54 21.04.2020
5344 Clear 17 1023 53 10000 10.8 70 16:36 21.04.2020
5345 Clear 18 1023 53 10000 10.8 70 16:18 21.04.2020
5346 Clear 17 1023 33 10000 9.3 90 15:55 21.04.2020
5347 Clear 18 1023 33 10000 8.7 80 15:36 21.04.2020
5348 Clear 17 1023 33 10000 8.7 80 15:18 21.04.2020
5349 Clear 17 1024 47 10000 9.3 90 14:44 21.04.2020
5350 Clear 16 1024 47 10000 9.3 90 14:23 21.04.2020
5351 Clear 16 1024 36 10000 8.7 90 13:55 21.04.2020
5352 Clear 16 1024 47 10000 8.7 100 13:37 21.04.2020
5353 Clear 16 1024 47 10000 8.7 100 13:18 21.04.2020
5354 Clear 15 1025 41 10000 9.3 80 12:38 21.04.2020
5355 Clear 14 1025 41 10000 9.3 80 12:19 21.04.2020
5356 Clear 14 1025 57 10000 9.8 80 11:57 21.04.2020
5357 Clear 14 1025 57 10000 8.7 90 11:38 21.04.2020
5358 Clear 13 1025 57 10000 8.7 90 11:19 21.04.2020
5359 Clear 13 1025 46 10000 8.2 80 10:59 21.04.2020
5360 Clear 13 1025 46 10000 7.2 90 10:39 21.04.2020
5361 Clear 13 1025 46 10000 7.2 90 10:21 21.04.2020
5362 Clear 11 1025 53 10000 6.7 90 09:58 21.04.2020
5363 Clear 10 1025 57 10000 7.2 80 09:36 21.04.2020
5364 Clear 9 1025 70 10000 7.2 80 09:18 21.04.2020
5365 Clear 8 1025 56 10000 7.2 80 08:43 21.04.2020
5366 Clear 8 1025 56 10000 7.2 80 08:25 21.04.2020
5367 Clear 7 1025 60 10000 6.7 70 07:52 21.04.2020
5368 Clear 6 1024 60 10000 6.7 70 07:27 21.04.2020
5369 Clear 6 1024 56 10000 6.7 70 06:54 21.04.2020
5370 Clear 6 1024 56 10000 6.2 70 06:36 21.04.2020
5371 Clear 6 1024 60 10000 5.7 70 05:51 21.04.2020
5372 Clear 7 1024 56 10000 5.7 70 05:20 21.04.2020
5373 Clear 8 1024 52 10000 6.2 70 03:47 21.04.2020
5374 Clear 8 1024 73 10000 5.7 80 02:47 21.04.2020
5375 Clear 9 1024 72 10000 7.2 80 01:32 21.04.2020
5376 Clear 10 1024 72 10000 6.2 70 00:47 21.04.2020
5377 Clear 10 1024 70 10000 6.7 70 00:23 21.04.2020
5378 Clear 10 1024 70 10000 6.2 70 23:44 20.04.2020
5379 Clear 11 1024 70 10000 6.2 70 23:23 20.04.2020
5380 Clear 11 1024 70 10000 5.7 70 22:57 20.04.2020
5381 Clear 12 1024 70 10000 6.7 70 22:37 20.04.2020
5382 Clear 12 1024 70 10000 6.7 70 22:19 20.04.2020
5383 Clear 12 1024 70 10000 6.7 70 22:19 20.04.2020
5384 Clear 13 1023 70 10000 5.1 80 21:55 20.04.2020
5385 Clear 13 1023 43 10000 6.2 80 21:37 20.04.2020
5386 Clear 13 1023 43 10000 6.2 80 21:18 20.04.2020
5387 Clear 14 1023 66 10000 6.7 80 20:55 20.04.2020
5388 Clear 14 1022 66 10000 6.7 80 20:36 20.04.2020
5389 Clear 15 1022 66 10000 6.7 80 20:18 20.04.2020
5390 Clear 15 1023 31 10000 7.7 80 19:41 20.04.2020
5391 Clear 16 1023 31 10000 7.7 80 19:23 20.04.2020
5392 Clear 16 1022 31 10000 8.7 80 18:59 20.04.2020
5393 Clear 16 1022 31 10000 8.7 80 18:41 20.04.2020
5394 Clear 16 1022 31 10000 8.7 80 18:21 20.04.2020
5395 Clear 17 1023 48 10000 8.2 70 17:55 20.04.2020
5396 Clear 17 1023 29 10000 9.3 70 17:37 20.04.2020
5397 Clear 17 1023 29 10000 9.3 70 17:19 20.04.2020
5398 Clear 17 1024 27 10000 7.7 80 16:43 20.04.2020
5399 Clear 17 1024 27 10000 7.7 80 16:21 20.04.2020
5400 Clear 17 1024 29 10000 8.7 80 15:58 20.04.2020
5401 Clear 17 1024 31 10000 8.2 90 15:39 20.04.2020
5402 Clear 16 1024 31 10000 8.2 90 15:21 20.04.2020
5403 Clear 16 1024 33 10000 8.2 80 14:55 20.04.2020
5404 Clear 16 1025 33 10000 8.7 90 14:36 20.04.2020
5405 Clear 16 1025 33 10000 8.7 90 14:18 20.04.2020
5406 Clear 16 1025 33 10000 9.3 80 13:40 20.04.2020
5407 Clear 15 1025 33 10000 9.3 80 13:22 20.04.2020
5408 Clear 14 1026 50 10000 7.7 100 12:45 20.04.2020
5409 Clear 14 1026 56 10000 7.7 100 12:26 20.04.2020
5410 Clear 13 1025 37 10000 7.7 90 11:59 20.04.2020
5411 Clear 12 1025 56 10000 6.2 70 11:40 20.04.2020
5412 Clear 13 1025 56 10000 6.2 70 11:21 20.04.2020
5413 Clear 12 1026 43 10000 6.2 90 10:57 20.04.2020
5414 Clear 12 1026 43 10000 6.2 90 10:57 20.04.2020
5415 Clear 11 1026 45 10000 4.6 80 10:38 20.04.2020
5416 Clear 11 1026 45 10000 4.6 80 10:19 20.04.2020
5417 Clear 9 1026 52 10000 4.1 70 09:55 20.04.2020
5418 Clear 8 1026 52 10000 3.6 80 09:36 20.04.2020
5419 Clear 7 1026 52 10000 3.6 80 09:18 20.04.2020
5420 Clear 5 1026 60 10000 4.6 80 08:41 20.04.2020
5421 Clear 5 1026 60 10000 4.6 80 08:22 20.04.2020
5422 Clear 4 1026 60 10000 3.6 70 07:52 20.04.2020
5423 Clear 4 1026 60 10000 3.6 70 07:52 20.04.2020
5424 Clear 4 1026 64 10000 3.1 70 07:29 20.04.2020
5425 Clear 2 1025 69 10000 3.1 80 06:58 20.04.2020
5426 Clear 3 1025 64 10000 4.6 70 06:36 20.04.2020
5427 Clear 3 1025 64 10000 3.6 70 05:43 20.04.2020
5428 Clear 4 1025 60 10000 4.1 60 04:18 20.04.2020
5429 Clear 5 1025 56 10000 4.6 70 02:46 20.04.2020
5430 Clear 5 1025 56 10000 4.6 70 02:46 20.04.2020
5431 Clear 5 1025 52 10000 5.1 70 01:54 20.04.2020
5432 Clear 6 1025 48 10000 6.2 60 01:28 20.04.2020
5433 Clear 6 1025 48 10000 5.1 60 00:37 20.04.2020
5434 Clear 7 1025 45 10000 5.1 60 23:59 19.04.2020
5435 Clear 7 1024 45 10000 4.1 60 23:39 19.04.2020
5436 Clear 8 1024 45 10000 4.1 60 23:20 19.04.2020
5437 Clear 9 1024 37 10000 5.7 60 22:44 19.04.2020
5438 Clear 9 1024 37 10000 5.7 60 22:24 19.04.2020
5439 Clear 10 1023 37 10000 5.7 60 21:59 19.04.2020
5440 Clear 10 1023 34 10000 6.2 70 21:41 19.04.2020
5441 Clear 10 1023 34 10000 6.2 70 21:41 19.04.2020
5442 Clear 10 1023 34 10000 6.2 70 21:41 19.04.2020
5443 Clear 11 1023 34 10000 6.2 70 21:22 19.04.2020
5444 Clear 11 1023 34 10000 6.7 60 20:56 19.04.2020
5445 Clear 12 1022 32 10000 7.2 60 20:38 19.04.2020
5446 Clear 12 1022 32 10000 7.2 60 20:20 19.04.2020
5447 Clear 12 1022 32 10000 7.2 60 20:20 19.04.2020
5448 Clear 13 1022 35 10000 6.7 60 19:55 19.04.2020
5449 Clear 13 1022 30 10000 8.2 60 19:37 19.04.2020
5450 Clear 14 1022 30 10000 8.2 60 19:19 19.04.2020
5451 Clear 14 1022 33 10000 7.7 60 18:54 19.04.2020
5452 Clear 15 1022 30 10000 8.2 70 18:36 19.04.2020
5453 Clear 15 1022 30 10000 8.2 70 18:18 19.04.2020
5454 Clear 15 1022 30 10000 8.7 60 17:42 19.04.2020
5455 Clear 15 1022 30 10000 8.7 60 17:23 19.04.2020
5456 Clear 16 1022 29 10000 5.7 80 17:00 19.04.2020
5457 Clear 15 1022 28 10000 5.7 80 16:39 19.04.2020
5458 Clear 15 1022 28 10000 5.7 80 16:21 19.04.2020
5459 Clear 15 1022 26 10000 6.7 90 15:55 19.04.2020
5460 Clear 15 1022 28 10000 7.2 80 15:36 19.04.2020
5461 Clear 15 1022 28 10000 7.2 80 15:18 19.04.2020
5462 Clear 15 1022 30 10000 7.7 90 14:39 19.04.2020
5463 Clear 15 1022 30 10000 7.7 90 14:20 19.04.2020
5464 Clear 15 1022 33 10000 7.7 70 13:56 19.04.2020
5465 Clear 14 1022 33 10000 7.7 80 13:36 19.04.2020
5466 Clear 14 1022 33 10000 7.7 80 13:18 19.04.2020
5467 Clear 14 1022 37 10000 7.7 70 12:43 19.04.2020
5468 Clear 13 1022 37 10000 7.7 70 12:24 19.04.2020
5469 Clear 12 1022 37 10000 7.2 80 11:54 19.04.2020
5470 Clear 13 1022 37 10000 7.7 70 11:36 19.04.2020
5471 Clear 13 1022 37 10000 7.7 70 11:36 19.04.2020
5472 Clear 12 1022 37 10000 7.7 70 11:18 19.04.2020
5473 Clear 12 1022 43 10000 5.7 60 10:41 19.04.2020
5474 Clear 11 1022 43 10000 5.7 60 10:21 19.04.2020
5475 Clear 9 1022 45 10000 5.7 60 09:59 19.04.2020
5476 Clear 8 1022 49 10000 5.7 70 09:41 19.04.2020
5477 Clear 8 1022 49 10000 5.7 70 09:41 19.04.2020
5478 Clear 8 1022 49 10000 5.7 70 09:19 19.04.2020
5479 Clear 7 1022 56 10000 4.1 50 08:40 19.04.2020
5480 Clear 6 1022 56 10000 4.1 50 08:21 19.04.2020
5481 Clear 5 1021 60 10000 3.6 60 07:56 19.04.2020
5482 Clear 4 1021 64 10000 4.1 50 07:38 19.04.2020
5483 Clear 4 1020 69 10000 3.6 50 07:19 19.04.2020
5484 Clear 4 1020 60 10000 3.6 40 06:26 19.04.2020
5485 Clear 5 1020 52 10000 4.1 50 05:35 19.04.2020
5486 Clear 6 1019 52 10000 4.1 60 03:55 19.04.2020
5487 Clear 6 1019 52 10000 4.6 50 02:52 19.04.2020
5488 Clear 7 1019 48 10000 4.1 50 02:19 19.04.2020
5489 Clear 8 1019 45 10000 5.7 50 01:31 19.04.2020
5490 Clear 8 1018 45 10000 5.7 50 00:41 19.04.2020
5491 Clear 9 1018 45 10000 5.7 50 00:20 19.04.2020
5492 Clear 9 1018 46 10000 6.2 50 23:44 18.04.2020
5493 Clear 10 1018 46 10000 6.2 50 23:21 18.04.2020
5494 Clear 10 1018 43 10000 6.7 60 22:56 18.04.2020
5495 Clear 12 1018 40 10000 6.7 50 22:38 18.04.2020
5496 Clear 11 1018 40 10000 6.7 50 22:19 18.04.2020
5497 Clear 12 1017 37 10000 7.2 50 21:55 18.04.2020
5498 Clear 14 1017 33 10000 5.7 50 21:37 18.04.2020
5499 Clouds 13 1017 33 10000 5.7 50 21:19 18.04.2020
5500 Clouds 14 1016 38 10000 5.1 50 20:40 18.04.2020
5501 Clouds 15 1016 38 10000 5.1 50 20:21 18.04.2020
5502 Clouds 16 1016 36 10000 5.1 70 19:44 18.04.2020
5503 Clouds 17 1016 36 10000 5.1 70 19:25 18.04.2020
5504 Clouds 18 1016 31 10000 6.2 40 18:59 18.04.2020
5505 Clouds 18 1016 31 10000 5.7 50 18:37 18.04.2020
5506 Clouds 18 1016 31 10000 5.7 50 18:37 18.04.2020
5507 Clear 18 1016 31 10000 5.7 50 18:19 18.04.2020
5508 Clear 19 1016 29 10000 6.2 50 17:43 18.04.2020
5509 Clear 19 1016 29 10000 6.2 50 17:21 18.04.2020
5510 Clear 19 1016 32 10000 4.6 70 16:58 18.04.2020
5511 Clear 19 1016 32 10000 4.6 80 16:38 18.04.2020
5512 Clear 19 1016 32 10000 4.6 80 16:20 18.04.2020
5513 Clear 18 1016 31 10000 4.6 70 15:40 18.04.2020
5514 Clouds 18 1016 31 10000 4.6 70 15:22 18.04.2020
5515 Clouds 18 1016 34 10000 5.1 70 14:48 18.04.2020
5516 Clouds 18 1017 36 10000 4.1 80 14:29 18.04.2020
5517 Clouds 18 1017 36 10000 4.6 80 13:59 18.04.2020
5518 Clouds 18 1017 36 10000 5.1 80 13:41 18.04.2020
5519 Clouds 18 1017 36 10000 5.1 80 13:20 18.04.2020
5520 Clouds 15 1018 44 10000 4.6 60 12:42 18.04.2020
5521 Clouds 15 1018 44 10000 4.6 60 12:42 18.04.2020
5522 Clouds 14 1018 44 10000 4.6 60 12:24 18.04.2020
5523 Clouds 14 1018 47 10000 5.1 60 11:57 18.04.2020
5524 Clouds 13 1018 50 10000 4.6 70 11:38 18.04.2020
5525 Clouds 13 1018 50 10000 4.6 70 11:20 18.04.2020
5526 Clouds 11 1018 53 10000 4.1 80 10:42 18.04.2020
5527 Clouds 11 1018 53 10000 4.1 80 10:22 18.04.2020
5528 Clouds 11 1018 53 10000 4.1 80 10:22 18.04.2020
5529 Clouds 10 1018 57 10000 3.6 90 09:59 18.04.2020
5530 Clouds 9 1018 61 10000 4.6 80 09:39 18.04.2020
5531 Clouds 8 1018 61 10000 4.6 80 09:20 18.04.2020
5532 Clouds 6 1018 76 10000 5.1 70 08:43 18.04.2020
5533 Clouds 7 1018 76 10000 5.1 70 08:22 18.04.2020
5534 Clouds 5 1018 75 10000 4.1 50 07:48 18.04.2020
5535 Clouds 5 1018 75 10000 3.1 50 07:28 18.04.2020
5536 Clouds 5 1017 75 10000 3.6 50 06:42 18.04.2020
5537 Clear 5 1017 80 10000 3.6 60 05:49 18.04.2020
5538 Clear 5 1017 75 10000 3.1 70 04:55 18.04.2020
5539 Clear 5 1017 75 10000 3.1 60 04:31 18.04.2020
5540 Clear 6 1018 75 10000 3.1 60 03:34 18.04.2020
5541 Clear 5 1018 87 10000 2.6 50 02:42 18.04.2020
5542 Clear 5 1018 87 10000 2.6 50 02:21 18.04.2020
5543 Clear 5 1018 87 10000 2.6 50 02:21 18.04.2020
5544 Clear 5 1018 87 10000 3.1 50 01:45 18.04.2020
5545 Clear 6 1018 87 10000 3.1 50 01:22 18.04.2020
5546 Clear 7 1018 81 10000 4.1 40 00:38 18.04.2020
5547 Clear 7 1018 81 10000 4.1 40 00:18 18.04.2020
5548 Clear 8 1018 81 10000 4.6 30 23:41 17.04.2020
5549 Clear 8 1018 81 10000 4.6 30 23:20 17.04.2020
5550 Clear 9 1018 76 10000 4.6 20 22:59 17.04.2020
5551 Clear 9 1018 76 10000 3.6 360 22:40 17.04.2020
5552 Clear 8 1018 76 10000 3.6 360 22:21 17.04.2020
5553 Clear 10 1017 71 10000 3.1 330 21:58 17.04.2020
5554 Clear 11 1017 66 10000 4.1 340 21:40 17.04.2020
5555 Clouds 11 1017 66 10000 4.1 340 21:20 17.04.2020
5556 Clouds 11 1017 62 10000 4.1 320 20:56 17.04.2020
5557 Clouds 12 1017 62 10000 4.6 310 20:37 17.04.2020
5558 Clouds 12 1017 62 10000 4.6 310 20:18 17.04.2020
5559 Clouds 13 1017 58 10000 4.1 300 19:55 17.04.2020
5560 Clouds 15 1017 74 10000 2.1 0 19:37 17.04.2020
5561 Clouds 15 1017 74 10000 2.1 0 19:18 17.04.2020
5562 Clouds 15 1017 38 10000 2.6 30 18:40 17.04.2020
5563 Clouds 15 1017 38 10000 2.6 30 18:21 17.04.2020
5564 Clouds 15 1018 38 10000 2.6 40 17:38 17.04.2020
5565 Clouds 15 1018 38 10000 2.6 40 17:20 17.04.2020
5566 Clouds 15 1018 38 10000 2.6 340 16:59 17.04.2020
5567 Clouds 15 1018 38 10000 3.1 30 16:41 17.04.2020
5568 Clouds 15 1018 38 10000 3.1 30 16:22 17.04.2020
5569 Clouds 14 1018 37 10000 2.1 0 15:40 17.04.2020
5570 Clouds 14 1018 37 10000 2.1 0 15:22 17.04.2020
5571 Clouds 14 1019 44 10000 2.1 0 14:55 17.04.2020
5572 Clouds 14 1019 49 10000 3.1 40 14:36 17.04.2020
5573 Clouds 13 1019 47 10000 3.1 40 14:18 17.04.2020
5574 Clouds 13 1019 50 10000 2.6 30 13:40 17.04.2020
5575 Clouds 13 1019 50 10000 2.6 30 13:20 17.04.2020
5576 Clouds 13 1019 50 10000 2.6 0 12:57 17.04.2020
5577 Clouds 12 1020 50 10000 2.6 10 12:38 17.04.2020
5578 Clouds 11 1020 50 10000 2.6 10 12:20 17.04.2020
5579 Clouds 11 1020 57 10000 2.6 10 11:40 17.04.2020
5580 Clouds 10 1020 57 10000 2.6 10 11:19 17.04.2020
5581 Clouds 10 1020 57 10000 2.6 10 11:19 17.04.2020
5582 Clouds 10 1020 65 10000 3.1 40 10:43 17.04.2020
5583 Clouds 9 1020 65 10000 3.1 40 10:22 17.04.2020
5584 Clouds 8 1020 70 10000 4.1 30 09:57 17.04.2020
5585 Clouds 8 1020 75 10000 4.1 30 09:39 17.04.2020
5586 Clouds 7 1020 75 10000 4.1 30 09:19 17.04.2020
5587 Clouds 6 1020 81 10000 3.6 30 08:49 17.04.2020
5588 Clouds 5 1020 80 10000 3.6 30 08:28 17.04.2020
5589 Clouds 4 1019 86 10000 3.6 30 07:59 17.04.2020
5590 Clouds 3 1019 86 10000 3.6 30 07:41 17.04.2020
5591 Clouds 3 1019 86 10000 3.6 30 07:20 17.04.2020
5592 Clouds 3 1019 86 10000 3.6 30 06:45 17.04.2020
5593 Clouds 3 1019 86 10000 3.6 30 06:21 17.04.2020
5594 Clouds 4 1019 81 10000 2.1 350 04:27 17.04.2020
5595 Clouds 4 1019 87 10000 3.6 360 03:19 17.04.2020
5596 Clouds 5 1019 81 10000 3.1 340 01:58 17.04.2020
5597 Clouds 6 1019 75 10000 3.1 330 01:24 17.04.2020
5598 Clouds 6 1018 75 10000 3.6 350 00:45 17.04.2020
5599 Clouds 7 1018 75 10000 4.6 360 00:18 17.04.2020
5600 Clouds 7 1018 65 10000 4.1 360 23:40 16.04.2020
5601 Clouds 7 1018 65 10000 4.6 360 23:22 16.04.2020
5602 Clouds 7 1018 61 10000 4.6 350 22:56 16.04.2020
5603 Clouds 8 1018 61 10000 4.6 350 22:37 16.04.2020
5604 Clouds 8 1018 61 10000 5.1 350 22:19 16.04.2020
5605 Clouds 9 1018 66 10000 5.7 350 21:42 16.04.2020
5606 Clouds 10 1017 61 10000 5.1 350 21:20 16.04.2020
5607 Clouds 10 1017 61 10000 5.1 350 21:20 16.04.2020
5608 Clouds 10 1017 62 10000 5.7 350 20:59 16.04.2020
5609 Clouds 11 1017 62 10000 5.7 350 20:39 16.04.2020
5610 Clouds 11 1017 62 10000 7.2 360 20:19 16.04.2020
5611 Clouds 13 1017 62 10000 6.2 350 19:55 16.04.2020
5612 Clouds 13 1017 62 10000 6.2 350 19:36 16.04.2020
5613 Clouds 14 1016 62 10000 6.7 360 19:18 16.04.2020
5614 Clouds 15 1016 58 10000 6.7 350 18:42 16.04.2020
5615 Clouds 16 1016 58 10000 6.7 340 18:23 16.04.2020
5616 Clouds 16 1016 51 10000 3.6 10 17:57 16.04.2020
5617 Clouds 16 1016 51 10000 3.6 10 17:39 16.04.2020
5618 Clouds 17 1016 51 10000 2.1 350 17:18 16.04.2020
5619 Clouds 17 1016 48 10000 3.6 20 16:43 16.04.2020
5620 Clouds 17 1016 48 10000 2.1 70 16:25 16.04.2020
5621 Clouds 17 1017 51 10000 3.1 20 15:46 16.04.2020
5622 Clouds 17 1017 51 10000 3.1 20 15:46 16.04.2020
5623 Clouds 17 1017 48 10000 2.6 50 15:20 16.04.2020
5624 Clouds 17 1017 48 10000 2.6 50 15:20 16.04.2020
5625 Clouds 17 1017 48 10000 2.6 50 14:59 16.04.2020
5626 Clouds 17 1017 51 10000 3.6 20 14:41 16.04.2020
5627 Clouds 16 1017 54 10000 3.6 340 14:23 16.04.2020
5628 Clouds 16 1018 51 10000 3.6 350 13:58 16.04.2020
5629 Clouds 16 1018 51 10000 3.6 350 13:40 16.04.2020
5630 Clouds 16 1018 54 10000 2.6 60 13:21 16.04.2020
5631 Clouds 15 1018 54 10000 2.1 0 12:57 16.04.2020
5632 Clouds 15 1018 54 10000 2.1 0 12:38 16.04.2020
5633 Clouds 14 1018 58 10000 2.1 0 12:19 16.04.2020
5634 Clouds 14 1018 62 10000 2.6 0 11:56 16.04.2020
5635 Clouds 13 1018 62 10000 2.6 0 11:38 16.04.2020
5636 Clouds 13 1018 58 10000 3.1 360 11:20 16.04.2020
5637 Clouds 12 1018 66 10000 3.1 20 10:55 16.04.2020
5638 Clouds 12 1018 66 10000 3.1 20 10:36 16.04.2020
5639 Clouds 11 1019 57 10000 1.5 0 10:18 16.04.2020
5640 Clouds 10 1019 66 10000 2.6 30 09:39 16.04.2020
5641 Clouds 8 1019 66 10000 1.5 10 09:20 16.04.2020
5642 Clouds 8 1019 66 10000 1.5 10 09:20 16.04.2020
5643 Clouds 7 1019 87 10000 0.5 0 08:56 16.04.2020
5644 Clouds 6 1019 87 10000 0.5 0 08:37 16.04.2020
5645 Clouds 5 1019 93 10000 0.5 0 08:19 16.04.2020
5646 Clouds 3 1019 93 10000 1 250 07:43 16.04.2020
5647 Clouds 2 1018 100 10000 1 260 07:23 16.04.2020
5648 Clouds 2 1018 100 10000 0.5 320 06:41 16.04.2020
5649 Clouds 2 1018 93 6000 0.5 0 06:23 16.04.2020
5650 Clouds 3 1019 93 10000 0.5 0 04:54 16.04.2020
5651 Clouds 4 1019 93 10000 1.5 290 03:39 16.04.2020
5652 Clear 4 1019 93 10000 1.5 250 03:21 16.04.2020
5653 Clear 4 1019 93 10000 2.1 300 02:43 16.04.2020
5654 Clear 5 1020 86 10000 1.5 280 01:58 16.04.2020
5655 Clear 5 1020 86 10000 1.5 290 00:59 16.04.2020
5656 Clear 6 1020 75 10000 2.1 300 00:26 16.04.2020
5657 Clear 7 1020 70 10000 1.5 310 23:57 15.04.2020
5658 Clear 7 1020 70 10000 1.5 310 23:38 15.04.2020
5659 Clear 7 1020 65 10000 2.1 310 23:20 15.04.2020
5660 Clear 8 1020 57 10000 2.1 300 22:40 15.04.2020
5661 Clear 8 1020 70 10000 1 0 22:21 15.04.2020
5662 Clear 9 1020 66 10000 1 250 21:58 15.04.2020
5663 Clear 9 1020 66 10000 1 250 21:40 15.04.2020
5664 Clouds 11 1020 50 10000 2.1 310 21:22 15.04.2020
5665 Clouds 11 1017 65 0 2.37 277 20:57 15.04.2020
5666 Clouds 13 1020 47 10000 2.6 300 20:39 15.04.2020
5667 Clouds 13 1020 47 10000 3.1 280 20:21 15.04.2020
5668 Clouds 15 1021 41 10000 3.6 280 19:42 15.04.2020
5669 Clouds 16 1021 38 10000 3.6 290 19:21 15.04.2020
5670 Clouds 16 1021 36 10000 4.1 290 18:55 15.04.2020
5671 Clouds 16 1021 36 10000 4.1 290 18:36 15.04.2020
5672 Clouds 16 1021 36 10000 5.1 300 18:18 15.04.2020
5673 Clouds 16 1021 38 10000 4.1 300 17:40 15.04.2020
5674 Clouds 16 1021 38 10000 3.6 290 17:21 15.04.2020
5675 Clouds 16 1022 36 10000 4.1 280 16:58 15.04.2020
5676 Clouds 16 1022 36 10000 4.1 280 16:39 15.04.2020
5677 Clouds 16 1022 36 10000 4.6 280 16:20 15.04.2020
5678 Clouds 16 1022 38 10000 4.1 300 15:59 15.04.2020
5679 Clouds 16 1022 38 10000 4.1 300 15:40 15.04.2020
5680 Clouds 15 1022 41 10000 4.1 300 15:20 15.04.2020
5681 Clouds 15 1023 44 10000 4.6 300 14:59 15.04.2020
5682 Clouds 15 1023 44 10000 4.6 300 14:40 15.04.2020
5683 Clouds 14 1023 47 10000 4.6 280 14:22 15.04.2020
5684 Clouds 14 1023 50 10000 1 0 13:58 15.04.2020
5685 Clouds 14 1023 50 10000 1 0 13:40 15.04.2020
5686 Clouds 14 1023 50 10000 4.1 260 13:21 15.04.2020
5687 Clouds 13 1024 50 10000 4.1 280 12:57 15.04.2020
5688 Clouds 12 1024 50 10000 4.1 280 12:39 15.04.2020
5689 Clouds 11 1024 57 10000 5.1 270 12:21 15.04.2020
5690 Clouds 11 1024 61 10000 4.6 260 11:57 15.04.2020
5691 Clouds 11 1024 61 10000 4.6 260 11:38 15.04.2020
5692 Clouds 10 1024 61 10000 5.7 260 11:20 15.04.2020
5693 Clouds 9 1024 66 10000 5.7 270 10:38 15.04.2020
5694 Clouds 9 1024 66 10000 6.2 270 10:19 15.04.2020
5695 Clouds 8 1024 75 10000 6.2 270 09:56 15.04.2020
5696 Clouds 7 1024 75 10000 6.2 270 09:38 15.04.2020
5697 Clouds 6 1024 75 10000 5.7 260 09:19 15.04.2020
5698 Clouds 5 1024 80 10000 4.1 260 08:54 15.04.2020
5699 Clouds 5 1024 80 10000 4.1 260 08:36 15.04.2020
5700 Clouds 4 1024 86 10000 4.1 240 08:18 15.04.2020
5701 Clouds 4 1024 86 10000 3.1 250 07:44 15.04.2020
5702 Clouds 4 1023 86 10000 2.6 230 07:26 15.04.2020
5703 Clouds 3 1024 86 10000 2.1 250 06:24 15.04.2020
5704 Clouds 3 1024 86 10000 3.1 240 05:48 15.04.2020
5705 Clouds 3 1023 85 0 3.86 256 04:47 15.04.2020
5706 Clouds 3 1023 84 0 3.86 256 04:22 15.04.2020
5707 Clouds 3 1023 83 0 0.89 240 03:22 15.04.2020
5708 Clouds 3 1023 83 0 3.53 271 02:49 15.04.2020
5709 Clouds 3 1024 82 0 0.89 275 01:51 15.04.2020
5710 Clouds 3 1025 89 10000 2.6 270 01:25 15.04.2020
5711 Clouds 3 1025 80 10000 3.1 280 00:49 15.04.2020
5712 Clouds 3 1025 74 10000 2.6 280 00:27 15.04.2020
5713 Clouds 4 1025 81 10000 3.1 290 23:56 14.04.2020
5714 Clouds 4 1025 81 10000 3.1 290 23:38 14.04.2020
5715 Clouds 4 1025 74 10000 2.6 290 23:20 14.04.2020
5716 Clouds 4 1025 81 10000 2.6 290 22:56 14.04.2020
5717 Clouds 5 1025 81 10000 2.6 290 22:38 14.04.2020
5718 Clouds 5 1025 81 10000 3.1 300 22:20 14.04.2020
5719 Clouds 5 1025 81 10000 3.6 300 21:56 14.04.2020
5720 Clouds 5 1025 81 10000 3.6 300 21:56 14.04.2020
5721 Clouds 6 1025 81 10000 3.6 300 21:38 14.04.2020
5722 Clouds 6 1025 73 10000 4.1 310 21:19 14.04.2020
5723 Clouds 6 1025 73 10000 4.6 320 20:58 14.04.2020
5724 Clouds 7 1025 76 10000 4.6 320 20:39 14.04.2020
5725 Clouds 7 1025 76 10000 5.1 310 20:20 14.04.2020
5726 Clouds 8 1025 73 10000 5.7 310 19:41 14.04.2020
5727 Clouds 8 1025 76 10000 6.2 310 19:23 14.04.2020
5728 Clouds 9 1025 57 10000 6.7 300 18:59 14.04.2020
5729 Clouds 9 1025 57 10000 6.7 300 18:40 14.04.2020
5730 Clouds 9 1025 57 10000 7.2 340 18:21 14.04.2020
5731 Clouds 9 1025 61 10000 6.7 320 17:58 14.04.2020
5732 Clouds 9 1025 61 10000 6.7 320 17:39 14.04.2020
5733 Clouds 9 1025 61 10000 6.7 320 17:20 14.04.2020
5734 Clouds 9 1025 49 10000 6.2 310 16:57 14.04.2020
5735 Clouds 10 1025 49 10000 6.2 310 16:38 14.04.2020
5736 Clouds 9 1025 61 10000 7.2 310 16:20 14.04.2020
5737 Clouds 9 1025 52 10000 6.7 320 15:56 14.04.2020
5738 Clouds 9 1025 52 10000 6.7 320 15:38 14.04.2020
5739 Clouds 9 1025 49 10000 7.2 310 15:18 14.04.2020
5740 Clouds 9 1025 46 10000 6.7 320 14:56 14.04.2020
5741 Clouds 9 1025 46 10000 6.7 320 14:38 14.04.2020
5742 Clouds 9 1025 42 10000 6.7 320 14:20 14.04.2020
5743 Clouds 9 1025 42 10000 7.2 310 13:43 14.04.2020
5744 Clouds 8 1025 45 10000 5.7 320 13:24 14.04.2020
5745 Clouds 9 1025 45 10000 6.7 320 12:56 14.04.2020
5746 Clouds 8 1025 45 10000 6.7 320 12:38 14.04.2020
5747 Clouds 8 1025 52 10000 6.2 320 12:19 14.04.2020
5748 Clouds 8 1025 56 10000 5.1 320 11:41 14.04.2020
5749 Clouds 7 1025 70 10000 3.6 300 11:22 14.04.2020
5750 Rain 7 1025 70 10000 4.1 300 10:56 14.04.2020
5751 Rain 7 1025 70 10000 4.1 300 10:38 14.04.2020
5752 Clouds 7 1025 56 10000 3.1 340 10:20 14.04.2020
5753 Clouds 7 1025 56 10000 3.1 340 09:42 14.04.2020
5754 Clouds 5 1024 75 10000 4.6 280 09:23 14.04.2020
5755 Rain 5 1024 80 10000 4.6 310 08:57 14.04.2020
5756 Rain 5 1024 80 10000 4.6 310 08:39 14.04.2020
5757 Rain 4 1024 86 10000 4.1 270 08:21 14.04.2020
5758 Clouds 3 1023 86 10000 4.6 270 07:51 14.04.2020
5759 Clouds 3 1023 86 10000 6.2 290 07:27 14.04.2020
5760 Clouds 3 1023 86 10000 3.6 270 06:45 14.04.2020
5761 Clouds 3 1023 86 10000 4.1 280 05:54 14.04.2020
5762 Clouds 3 1022 94 10000 3.1 300 03:50 14.04.2020
5763 Clouds 3 1022 74 10000 4.6 10 02:44 14.04.2020
5764 Clouds 4 1022 88 10000 8.2 300 01:38 14.04.2020
5765 Clouds 4 1022 88 10000 5.7 290 01:18 14.04.2020
5766 Rain 4 1022 88 10000 7.7 300 00:32 14.04.2020
5767 Clouds 4 1022 83 10000 6.7 310 23:59 13.04.2020
5768 Clouds 4 1022 83 10000 6.7 310 23:39 13.04.2020
5769 Clouds 4 1022 83 10000 5.7 300 23:21 13.04.2020
5770 Rain 5 1022 65 10000 7.7 300 22:56 13.04.2020
5771 Rain 5 1022 65 10000 7.7 300 22:37 13.04.2020
5772 Clouds 5 1022 65 10000 6.7 340 22:19 13.04.2020
5773 Clouds 5 1022 65 10000 6.7 310 21:54 13.04.2020
5774 Clouds 5 1022 65 10000 6.7 310 21:36 13.04.2020
5775 Clouds 5 1021 52 10000 6.7 320 21:18 13.04.2020
5776 Clouds 6 1021 52 10000 7.2 330 20:41 13.04.2020
5777 Clouds 6 1021 52 10000 8.2 320 20:20 13.04.2020
5778 Clouds 6 1021 52 10000 10.3 320 19:59 13.04.2020
5779 Clouds 6 1021 52 10000 10.3 320 19:37 13.04.2020
5780 Clouds 6 1021 52 10000 10.3 320 19:37 13.04.2020
5781 Clouds 7 1021 48 10000 9.3 320 19:19 13.04.2020
5782 Clouds 7 1021 45 10000 9.8 340 18:58 13.04.2020
5783 Clouds 8 1021 45 10000 9.8 340 18:39 13.04.2020
5784 Clouds 8 1021 45 10000 10.3 330 18:20 13.04.2020
5785 Clouds 8 1021 45 10000 10.3 330 18:20 13.04.2020
5786 Clouds 9 1021 39 10000 9.8 320 17:58 13.04.2020
5787 Clouds 9 1021 39 10000 9.8 320 17:38 13.04.2020
5788 Clouds 9 1021 45 10000 9.8 320 17:19 13.04.2020
5789 Clouds 9 1021 45 10000 9.8 320 16:58 13.04.2020
5790 Clouds 10 1021 45 10000 9.8 320 16:40 13.04.2020
5791 Clouds 10 1021 45 10000 9.8 320 16:20 13.04.2020
5792 Clear 10 1021 42 10000 8.7 330 15:57 13.04.2020
5793 Clear 10 1021 42 10000 8.7 330 15:39 13.04.2020
5794 Clouds 10 1021 42 10000 9.3 330 15:20 13.04.2020
5795 Clouds 10 1021 39 10000 9.8 330 14:54 13.04.2020
5796 Clouds 9 1021 39 10000 9.8 330 14:36 13.04.2020
5797 Clouds 9 1021 42 10000 9.8 340 14:18 13.04.2020
5798 Clouds 9 1021 39 10000 11.3 330 13:54 13.04.2020
5799 Clouds 9 1021 39 10000 11.3 330 13:36 13.04.2020
5800 Clouds 9 1021 45 10000 9.8 330 13:18 13.04.2020
5801 Clouds 8 1021 48 10000 8.7 340 12:55 13.04.2020
5802 Clouds 9 1021 48 10000 8.7 340 12:37 13.04.2020
5803 Clouds 8 1020 45 10000 9.8 330 12:18 13.04.2020
5804 Clouds 8 1020 42 10000 8.2 340 11:41 13.04.2020
5805 Clouds 7 1020 48 10000 8.7 330 11:18 13.04.2020
5806 Clouds 7 1020 52 10000 9.3 330 10:56 13.04.2020
5807 Clouds 7 1020 52 10000 9.3 330 10:37 13.04.2020
5808 Clouds 7 1019 48 10000 7.7 340 10:19 13.04.2020
5809 Clouds 7 1019 52 10000 6.7 340 09:46 13.04.2020
5810 Clouds 6 1018 56 10000 6.7 330 09:26 13.04.2020
5811 Clouds 6 1018 52 10000 8.2 340 08:51 13.04.2020
5812 Clouds 6 1018 52 10000 8.2 340 08:31 13.04.2020
5813 Clouds 6 1017 60 10000 7.2 340 07:59 13.04.2020
5814 Clouds 6 1017 60 10000 7.2 340 07:39 13.04.2020
5815 Clouds 6 1017 60 10000 6.2 340 07:20 13.04.2020
5816 Clouds 6 1017 56 10000 7.7 350 06:47 13.04.2020
5817 Clouds 6 1016 79 10000 8.7 350 06:24 13.04.2020
5818 Clouds 7 1016 70 10000 8.7 350 05:31 13.04.2020
5819 Clouds 7 1015 75 10000 7.2 350 04:53 13.04.2020
5820 Clouds 8 1014 81 10000 6.2 340 04:24 13.04.2020
5821 Clouds 8 1014 81 10000 5.7 340 03:47 13.04.2020
5822 Clouds 8 1014 70 10000 6.7 350 02:59 13.04.2020
5823 Clouds 8 1014 70 10000 6.7 350 02:37 13.04.2020
5824 Clouds 9 1013 76 10000 6.7 350 01:43 13.04.2020
5825 Clouds 10 1013 66 10000 5.7 350 01:25 13.04.2020
5826 Clouds 11 1013 62 10000 5.7 360 00:42 13.04.2020
5827 Rain 11 1012 69 0 0.45 313 00:21 13.04.2020
5828 Rain 11 1012 58 10000 4.1 10 23:48 12.04.2020
5829 Rain 12 1012 67 10000 3.1 360 23:23 12.04.2020
5830 Rain 12 1012 62 10000 2.6 350 22:59 12.04.2020
5831 Rain 13 1012 62 10000 2.6 350 22:37 12.04.2020
5832 Rain 12 1008 83 0 3.24 358 22:19 12.04.2020
5833 Rain 13 1012 63 10000 2.1 360 21:54 12.04.2020
5834 Rain 14 1012 63 10000 2.1 360 21:36 12.04.2020
5835 Rain 15 1012 59 10000 2.1 350 21:18 12.04.2020
5836 Rain 15 1012 67 10000 3.1 310 20:41 12.04.2020
5837 Rain 16 1012 63 10000 1 0 20:22 12.04.2020
5838 Rain 16 1012 63 10000 1 0 20:22 12.04.2020
5839 Clouds 17 1012 59 10000 2.1 280 19:57 12.04.2020
5840 Clouds 18 1012 59 10000 2.1 280 19:38 12.04.2020
5841 Clouds 19 1012 55 10000 3.1 350 19:18 12.04.2020
5842 Clouds 20 1012 55 10000 4.6 330 18:41 12.04.2020
5843 Clouds 20 1012 52 10000 6.2 340 18:23 12.04.2020
5844 Clouds 21 1012 46 10000 5.1 310 17:59 12.04.2020
5845 Clouds 21 1012 46 10000 5.1 310 17:41 12.04.2020
5846 Clouds 22 1012 40 10000 5.7 310 17:23 12.04.2020
5847 Clear 22 1012 40 10000 4.6 300 16:58 12.04.2020
5848 Clear 21 1012 40 10000 4.6 300 16:39 12.04.2020
5849 Clear 22 1012 33 10000 5.1 290 16:20 12.04.2020
5850 Clear 21 1013 33 10000 4.1 260 15:49 12.04.2020
5851 Clouds 21 1013 30 10000 4.6 290 15:30 12.04.2020
5852 Clouds 21 1013 33 10000 5.1 240 14:55 12.04.2020
5853 Clouds 21 1013 33 10000 5.1 240 14:36 12.04.2020
5854 Clouds 21 1013 30 10000 4.1 240 14:18 12.04.2020
5855 Clouds 21 1013 30 10000 2.1 230 13:42 12.04.2020
5856 Clouds 21 1014 30 10000 3.6 240 13:24 12.04.2020
5857 Clouds 21 1014 34 10000 3.1 250 12:55 12.04.2020
5858 Clouds 20 1014 34 10000 3.1 250 12:37 12.04.2020
5859 Clouds 19 1015 32 10000 2.6 250 12:18 12.04.2020
5860 Clouds 18 1015 39 10000 3.1 250 11:56 12.04.2020
5861 Clouds 18 1015 39 10000 3.1 250 11:36 12.04.2020
5862 Clouds 17 1015 45 10000 1.5 240 11:18 12.04.2020
5863 Clouds 17 1015 54 10000 1.5 230 10:54 12.04.2020
5864 Clouds 16 1015 54 10000 1.5 230 10:36 12.04.2020
5865 Clouds 15 1015 58 10000 2.1 160 10:18 12.04.2020
5866 Clouds 13 1016 57 10000 1 0 09:40 12.04.2020
5867 Clouds 11 1016 66 10000 0.5 0 09:21 12.04.2020
5868 Clouds 10 1016 66 10000 0.5 0 09:00 12.04.2020
5869 Clouds 9 1016 70 10000 0.5 0 08:41 12.04.2020
5870 Clouds 8 1016 81 10000 1.5 150 08:23 12.04.2020
5871 Clouds 6 1016 75 10000 1.5 150 07:45 12.04.2020
5872 Clouds 6 1016 70 10000 1 0 07:19 12.04.2020
5873 Clouds 6 1016 75 10000 2.1 140 06:35 12.04.2020
5874 Clouds 6 1017 70 10000 1.5 130 05:58 12.04.2020
5875 Clouds 7 1017 70 10000 1.5 130 05:37 12.04.2020
5876 Clouds 7 1018 61 10000 1 0 03:45 12.04.2020
5877 Clouds 8 1018 61 10000 2.6 130 03:25 12.04.2020
5878 Clouds 7 1019 61 10000 1.5 120 02:35 12.04.2020
5879 Clouds 8 1020 61 10000 1 0 01:53 12.04.2020
5880 Clouds 8 1020 79 10000 1.5 130 01:19 12.04.2020
5881 Clouds 9 1020 79 10000 1 160 00:42 12.04.2020
5882 Clouds 9 1020 76 10000 1 0 00:20 12.04.2020
5883 Clouds 10 1020 76 10000 2.1 130 23:47 11.04.2020
5884 Clouds 10 1020 76 10000 2.1 130 23:26 11.04.2020
5885 Clouds 11 1021 43 10000 2.1 130 22:57 11.04.2020
5886 Clouds 11 1021 43 10000 2.1 130 22:36 11.04.2020
5887 Clouds 12 1021 41 10000 3.1 130 22:18 11.04.2020
5888 Clouds 12 1021 41 10000 3.1 120 21:54 11.04.2020
5889 Clouds 12 1021 41 10000 3.1 120 21:36 11.04.2020
5890 Clouds 13 1021 44 10000 2.1 110 21:18 11.04.2020
5891 Clouds 14 1021 38 10000 2.6 130 20:55 11.04.2020
5892 Clouds 15 1021 38 10000 2.6 130 20:37 11.04.2020
5893 Clouds 16 1022 38 10000 2.1 120 20:19 11.04.2020
5894 Clouds 16 1022 33 10000 3.1 140 19:56 11.04.2020
5895 Clouds 17 1022 33 10000 3.1 140 19:37 11.04.2020
5896 Clouds 17 1022 36 10000 3.6 140 19:18 11.04.2020
5897 Clouds 17 1023 39 10000 3.1 150 18:55 11.04.2020
5898 Clouds 18 1023 39 10000 3.1 150 18:36 11.04.2020
5899 Clouds 18 1023 34 10000 2.6 140 18:18 11.04.2020
5900 Clouds 18 1023 34 10000 2.6 140 17:56 11.04.2020
5901 Clouds 18 1023 34 10000 2.6 140 17:36 11.04.2020
5902 Clouds 18 1022 36 0 0.89 120 17:18 11.04.2020
5903 Clouds 18 1024 36 10000 3.1 150 16:42 11.04.2020
5904 Clouds 18 1024 36 10000 3.1 150 16:21 11.04.2020
5905 Clouds 17 1024 36 10000 2.1 120 15:41 11.04.2020
5906 Clouds 17 1025 38 10000 3.6 120 15:21 11.04.2020
5907 Clouds 17 1025 38 10000 3.6 150 14:58 11.04.2020
5908 Clouds 17 1025 38 10000 3.6 150 14:40 11.04.2020
5909 Clouds 16 1025 41 10000 2.1 120 14:22 11.04.2020
5910 Clouds 16 1026 41 10000 2.1 0 13:43 11.04.2020
5911 Clouds 15 1026 44 10000 2.6 180 13:25 11.04.2020
5912 Clouds 15 1027 47 10000 3.1 140 12:59 11.04.2020
5913 Clouds 14 1027 47 10000 3.1 140 12:38 11.04.2020
5914 Clouds 13 1027 58 10000 3.1 160 12:18 11.04.2020
5915 Clouds 13 1027 62 10000 2.6 150 11:54 11.04.2020
5916 Clouds 12 1027 62 10000 2.6 150 11:36 11.04.2020
5917 Clouds 11 1027 71 10000 2.1 170 11:18 11.04.2020
5918 Clouds 10 1027 70 10000 3.1 130 10:41 11.04.2020
5919 Clouds 9 1027 75 10000 2.6 110 10:21 11.04.2020
5920 Clouds 8 1027 81 10000 2.1 80 09:57 11.04.2020
5921 Clouds 7 1027 81 10000 2.1 80 09:39 11.04.2020
5922 Clouds 6 1027 81 10000 1.5 60 09:20 11.04.2020
5923 Clouds 5 1027 93 10000 1 80 08:45 11.04.2020
5924 Clouds 3 1027 93 10000 0.5 0 08:27 11.04.2020
5925 Clouds 2 1027 85 10000 1 190 07:49 11.04.2020
5926 Fog 1 1027 85 8000 1 180 07:28 11.04.2020
5927 Fog 2 1027 85 6000 1 0 06:47 11.04.2020
5928 Clouds 2 1027 100 10000 1 20 06:18 11.04.2020
5929 Clouds 2 1027 100 10000 0.5 90 04:35 11.04.2020
5930 Clouds 3 1027 93 10000 0.5 0 03:40 11.04.2020
5931 Clouds 4 1027 81 10000 3.1 30 01:55 11.04.2020
5932 Clouds 4 1027 86 10000 1.5 30 01:23 11.04.2020
5933 Clouds 4 1027 80 10000 2.6 40 00:44 11.04.2020
5934 Clouds 5 1027 81 10000 3.1 30 00:19 11.04.2020
5935 Clouds 5 1027 81 10000 2.6 30 23:57 10.04.2020
5936 Clouds 5 1027 81 10000 2.6 30 23:38 10.04.2020
5937 Clouds 5 1027 75 10000 2.6 360 23:19 10.04.2020
5938 Clouds 6 1027 75 10000 2.6 350 22:43 10.04.2020
5939 Clouds 6 1027 70 10000 3.6 350 22:22 10.04.2020
5940 Clouds 7 1027 70 10000 3.6 350 21:58 10.04.2020
5941 Clouds 7 1027 70 10000 3.6 350 21:40 10.04.2020
5942 Clouds 8 1027 66 10000 3.6 350 21:20 10.04.2020
5943 Clouds 9 1027 57 10000 3.6 360 20:55 10.04.2020
5944 Clouds 9 1027 57 10000 3.6 360 20:37 10.04.2020
5945 Clouds 10 1027 61 10000 4.1 350 20:18 10.04.2020
5946 Clouds 11 1027 53 10000 4.6 360 19:41 10.04.2020
5947 Clouds 11 1027 50 10000 4.1 350 19:21 10.04.2020
5948 Clouds 12 1026 50 10000 5.7 20 18:58 10.04.2020
5949 Clouds 12 1026 50 10000 5.7 20 18:40 10.04.2020
5950 Clouds 12 1026 50 10000 5.7 20 18:40 10.04.2020
5951 Clouds 13 1026 47 10000 3.6 360 18:22 10.04.2020
5952 Clouds 13 1026 43 10000 4.1 360 17:59 10.04.2020
5953 Clouds 13 1026 43 10000 4.1 360 17:40 10.04.2020
5954 Clouds 13 1026 43 10000 4.1 360 17:40 10.04.2020
5955 Clouds 14 1026 43 10000 4.6 10 17:21 10.04.2020
5956 Clouds 14 1027 43 10000 4.1 10 16:59 10.04.2020
5957 Clouds 14 1027 43 10000 4.1 10 16:41 10.04.2020
5958 Clouds 14 1027 44 10000 3.6 320 16:21 10.04.2020
5959 Clouds 14 1027 47 10000 3.1 320 15:57 10.04.2020
5960 Clouds 14 1027 47 10000 3.1 320 15:38 10.04.2020
5961 Clouds 13 1027 43 10000 3.1 320 15:19 10.04.2020
5962 Clouds 13 1027 47 10000 2.6 300 14:58 10.04.2020
5963 Clouds 13 1027 47 10000 2.6 300 14:39 10.04.2020
5964 Clouds 13 1028 50 10000 3.1 320 14:19 10.04.2020
5965 Clouds 13 1028 53 10000 3.6 330 13:44 10.04.2020
5966 Clouds 12 1028 53 10000 3.1 350 13:22 10.04.2020
5967 Clouds 12 1028 61 10000 2.6 0 12:55 10.04.2020
5968 Clouds 11 1028 61 10000 2.6 0 12:36 10.04.2020
5969 Clouds 10 1029 66 10000 2.6 30 12:18 10.04.2020
5970 Clouds 10 1029 61 10000 3.1 360 11:42 10.04.2020
5971 Clouds 9 1029 65 10000 3.6 340 11:23 10.04.2020
5972 Clouds 8 1029 70 10000 2.6 40 10:56 10.04.2020
5973 Clouds 8 1029 70 10000 2.6 40 10:37 10.04.2020
5974 Clouds 8 1029 70 10000 4.6 30 10:19 10.04.2020
5975 Clouds 7 1029 70 10000 3.6 40 09:43 10.04.2020
5976 Clouds 7 1029 70 10000 3.6 40 09:43 10.04.2020
5977 Clouds 5 1029 70 10000 2.6 50 09:21 10.04.2020
5978 Clouds 5 1029 70 10000 2.6 50 09:21 10.04.2020
5979 Clouds 4 1029 80 10000 1.5 40 08:47 10.04.2020
5980 Clouds 4 1029 86 10000 1 0 08:27 10.04.2020
5981 Clouds 2 1029 86 10000 0.5 0 07:54 10.04.2020
5982 Clouds 1 1029 86 10000 0.5 0 07:36 10.04.2020
5983 Clouds 1 1028 86 10000 1 0 07:18 10.04.2020
5984 Clouds 1 1028 86 10000 2.1 40 06:31 10.04.2020
5985 Clouds 2 1028 80 10000 3.1 40 05:59 10.04.2020
5986 Clouds 2 1028 86 10000 4.1 30 05:25 10.04.2020
5987 Clouds 2 1028 86 10000 4.1 30 04:53 10.04.2020
5988 Clouds 3 1028 80 10000 3.1 360 03:35 10.04.2020
5989 Clouds 4 1028 86 10000 3.1 360 02:51 10.04.2020
5990 Clouds 4 1028 86 10000 3.1 360 02:32 10.04.2020
5991 Clouds 4 1028 86 10000 3.1 360 01:46 10.04.2020
5992 Clouds 5 1028 81 10000 3.6 360 01:26 10.04.2020
5993 Clouds 5 1028 81 10000 3.6 350 00:46 10.04.2020
5994 Clouds 6 1028 81 10000 3.6 350 00:20 10.04.2020
5995 Clouds 6 1028 75 10000 4.6 360 23:42 09.04.2020
5996 Clouds 7 1028 75 10000 5.1 360 23:24 09.04.2020
5997 Clouds 7 1028 65 10000 4.6 360 22:57 09.04.2020
5998 Clouds 7 1028 65 10000 4.6 360 22:39 09.04.2020
5999 Clouds 8 1027 61 10000 4.1 360 22:21 09.04.2020
6000 Clouds 8 1027 66 10000 5.1 350 21:40 09.04.2020
6001 Clouds 9 1027 66 10000 5.1 340 21:21 09.04.2020
6002 Clouds 10 1026 66 10000 4.1 350 20:54 09.04.2020
6003 Clouds 11 1026 66 10000 4.1 350 20:36 09.04.2020
6004 Clouds 11 1026 62 10000 5.1 340 20:18 09.04.2020
6005 Clouds 13 1026 58 10000 5.7 330 19:39 09.04.2020
6006 Clouds 13 1026 54 10000 6.2 320 19:21 09.04.2020
6007 Clouds 14 1025 54 10000 6.7 310 18:42 09.04.2020
6008 Clouds 16 1025 54 10000 5.7 330 18:21 09.04.2020
6009 Clouds 16 1025 51 10000 5.7 330 17:58 09.04.2020
6010 Clouds 16 1025 51 10000 5.7 330 17:39 09.04.2020
6011 Clouds 16 1025 55 10000 5.7 340 17:19 09.04.2020
6012 Clouds 17 1025 51 10000 5.7 320 16:40 09.04.2020
6013 Clouds 18 1025 48 10000 5.1 300 16:20 09.04.2020
6014 Clouds 18 1025 48 10000 4.6 340 15:57 09.04.2020
6015 Clouds 18 1025 48 10000 4.6 340 15:38 09.04.2020
6016 Clear 18 1025 45 10000 4.1 310 15:19 09.04.2020
6017 Clear 18 1025 45 10000 4.1 300 14:56 09.04.2020
6018 Clear 18 1025 45 10000 4.1 300 14:56 09.04.2020
6019 Clear 18 1025 45 10000 4.1 300 14:38 09.04.2020
6020 Clear 18 1025 45 10000 3.6 320 14:20 09.04.2020
6021 Clear 18 1025 45 10000 3.6 320 14:20 09.04.2020
6022 Clear 18 1025 45 10000 5.7 300 13:42 09.04.2020
6023 Clear 17 1025 45 10000 4.6 280 13:24 09.04.2020
6024 Clear 17 1025 45 10000 4.6 310 12:59 09.04.2020
6025 Clear 17 1025 45 10000 4.6 310 12:39 09.04.2020
6026 Clear 16 1025 44 10000 3.1 310 12:20 09.04.2020
6027 Clear 16 1025 44 10000 3.1 310 12:20 09.04.2020
6028 Clear 15 1025 48 10000 2.1 240 11:55 09.04.2020
6029 Clear 15 1025 48 10000 2.1 240 11:36 09.04.2020
6030 Clear 15 1025 51 10000 2.1 270 11:18 09.04.2020
6031 Clear 14 1025 54 10000 1.5 260 10:41 09.04.2020
6032 Clear 14 1025 66 10000 2.1 300 10:22 09.04.2020
6033 Clear 13 1025 76 10000 2.1 300 09:58 09.04.2020
6034 Clear 12 1025 76 10000 2.1 300 09:40 09.04.2020
6035 Clear 10 1025 81 10000 1.5 280 09:21 09.04.2020
6036 Clear 9 1025 93 10000 2.1 300 08:56 09.04.2020
6037 Clear 8 1025 93 10000 2.1 300 08:37 09.04.2020
6038 Clear 7 1024 93 10000 1 280 08:18 09.04.2020
6039 Clear 6 1024 100 10000 1 280 07:37 09.04.2020
6040 Clear 5 1024 100 10000 1.5 270 07:18 09.04.2020
6041 Clear 6 1024 93 6000 2.1 290 06:35 09.04.2020
6042 Mist 6 1023 93 4000 1.5 280 05:49 09.04.2020
6043 Clear 6 1023 100 8000 1.5 280 05:24 09.04.2020
6044 Clouds 9 1023 81 10000 2.6 310 02:35 09.04.2020
6045 Clouds 10 1023 81 10000 2.6 320 01:46 09.04.2020
6046 Clouds 10 1023 81 10000 2.6 300 01:27 09.04.2020
6047 Clouds 10 1023 81 10000 3.1 310 00:54 09.04.2020
6048 Clouds 10 1023 81 10000 3.1 310 00:36 09.04.2020
6049 Clouds 11 1023 76 10000 2.1 300 00:18 09.04.2020
6050 Clouds 12 1023 62 10000 1.5 360 23:41 08.04.2020
6051 Clouds 12 1023 62 10000 1.5 360 23:41 08.04.2020
6052 Clouds 12 1023 66 10000 1 0 23:22 08.04.2020
6053 Clouds 13 1023 54 10000 2.1 10 22:44 08.04.2020
6054 Clouds 14 1023 54 10000 2.1 360 22:25 08.04.2020
6055 Clouds 14 1023 58 10000 3.1 30 21:57 08.04.2020
6056 Clouds 15 1023 58 10000 3.1 30 21:39 08.04.2020
6057 Rain 16 1023 59 0 4.1 360 21:21 08.04.2020
6058 Rain 16 1022 55 10000 4.6 350 21:00 08.04.2020
6059 Rain 17 1022 52 10000 3.6 350 20:40 08.04.2020
6060 Rain 18 1022 52 10000 3.6 350 20:21 08.04.2020
6061 Rain 19 1022 49 10000 3.1 350 19:59 08.04.2020
6062 Rain 20 1022 46 10000 3.6 330 19:40 08.04.2020
6063 Rain 20 1022 43 10000 4.6 330 19:21 08.04.2020
6064 Rain 21 1022 40 10000 4.1 330 18:45 08.04.2020
6065 Rain 22 1022 40 10000 4.1 330 18:27 08.04.2020
6066 Rain 22 1022 40 10000 3.1 330 17:57 08.04.2020
6067 Rain 22 1022 40 10000 3.1 330 17:39 08.04.2020
6068 Rain 23 1023 40 10000 3.6 230 17:20 08.04.2020
6069 Rain 23 1023 40 10000 3.6 230 16:55 08.04.2020
6070 Rain 23 1023 38 10000 2.1 0 16:37 08.04.2020
6071 Rain 23 1023 38 10000 2.1 0 16:19 08.04.2020
6072 Clouds 23 1024 43 10000 1.5 0 15:38 08.04.2020
6073 Clouds 23 1024 43 10000 1.5 0 15:20 08.04.2020
6074 Clouds 22 1024 46 10000 1.5 0 14:55 08.04.2020
6075 Clouds 22 1024 46 10000 1.5 0 14:37 08.04.2020
6076 Clouds 21 1024 46 10000 2.1 150 14:19 08.04.2020
6077 Clouds 21 1025 49 10000 2.1 140 13:44 08.04.2020
6078 Clouds 21 1025 49 10000 1.5 0 13:21 08.04.2020
6079 Clouds 20 1025 52 10000 0.5 60 12:54 08.04.2020
6080 Clouds 19 1025 52 10000 2.1 0 12:36 08.04.2020
6081 Clouds 17 1026 55 10000 2.6 150 12:18 08.04.2020
6082 Clouds 17 1026 55 10000 3.1 150 11:41 08.04.2020
6083 Clouds 17 1026 55 10000 3.1 150 11:41 08.04.2020
6084 Clouds 16 1026 58 10000 3.6 160 11:22 08.04.2020
6085 Clouds 16 1026 62 10000 2.1 140 10:58 08.04.2020
6086 Clouds 15 1026 58 10000 4.6 140 10:39 08.04.2020
6087 Clouds 14 1026 58 10000 4.6 140 10:20 08.04.2020
6088 Clouds 13 1027 62 10000 5.1 140 09:57 08.04.2020
6089 Clouds 12 1027 62 10000 5.1 140 09:39 08.04.2020
6090 Clouds 11 1027 57 10000 4.6 140 09:18 08.04.2020
6091 Clouds 11 1027 57 10000 4.6 140 09:18 08.04.2020
6092 Clouds 11 1027 57 10000 4.6 140 09:18 08.04.2020
6093 Clouds 11 1027 61 10000 4.6 130 08:56 08.04.2020
6094 Clouds 10 1027 61 10000 4.6 130 08:38 08.04.2020
6095 Clouds 10 1027 57 10000 3.6 130 08:20 08.04.2020
6096 Clouds 9 1027 61 10000 3.1 120 07:42 08.04.2020
6097 Clouds 8 1027 57 10000 4.1 110 07:20 08.04.2020
6098 Clear 9 1028 57 10000 3.1 110 06:23 08.04.2020
6099 Clear 9 1029 53 10000 4.6 100 04:54 08.04.2020
6100 Clouds 9 1030 53 10000 4.6 110 02:50 08.04.2020
6101 Clouds 10 1030 50 10000 5.1 110 02:21 08.04.2020
6102 Clouds 9 1030 61 10000 3.6 90 01:56 08.04.2020
6103 Clouds 9 1030 66 10000 3.6 80 01:28 08.04.2020
6104 Clouds 10 1030 61 10000 3.6 60 00:45 08.04.2020
6105 Clouds 10 1031 61 10000 3.6 60 00:25 08.04.2020
6106 Clouds 10 1031 61 10000 3.1 60 23:56 07.04.2020
6107 Clouds 10 1031 61 10000 3.1 60 23:37 07.04.2020
6108 Clouds 10 1031 57 10000 3.6 60 23:18 07.04.2020
6109 Clouds 10 1031 54 10000 3.6 60 22:54 07.04.2020
6110 Clouds 10 1031 54 10000 3.6 60 22:54 07.04.2020
6111 Clouds 11 1031 54 10000 3.6 60 22:36 07.04.2020
6112 Clouds 11 1031 54 10000 3.6 70 22:18 07.04.2020
6113 Clouds 11 1031 54 10000 3.1 70 21:42 07.04.2020
6114 Clouds 13 1031 47 10000 3.6 60 21:21 07.04.2020
6115 Clouds 13 1031 47 10000 3.1 60 20:58 07.04.2020
6116 Clouds 14 1031 47 10000 3.1 60 20:39 07.04.2020
6117 Clouds 14 1031 47 10000 3.1 60 20:21 07.04.2020
6118 Clouds 15 1031 44 10000 2.6 80 19:57 07.04.2020
6119 Clouds 16 1031 42 10000 3.6 60 19:38 07.04.2020
6120 Clouds 16 1031 42 10000 3.6 60 19:19 07.04.2020
6121 Clouds 17 1031 42 10000 4.1 90 18:58 07.04.2020
6122 Clouds 17 1031 39 10000 2.1 60 18:40 07.04.2020
6123 Clouds 17 1031 36 10000 3.6 90 18:20 07.04.2020
6124 Clouds 18 1031 36 10000 3.6 90 17:47 07.04.2020
6125 Clouds 18 1032 39 10000 3.1 0 17:24 07.04.2020
6126 Clouds 18 1032 39 10000 3.1 20 16:58 07.04.2020
6127 Clouds 18 1032 39 10000 3.1 20 16:40 07.04.2020
6128 Clouds 18 1032 39 10000 3.1 340 16:22 07.04.2020
6129 Clouds 18 1032 39 10000 3.1 340 15:43 07.04.2020
6130 Clouds 18 1032 45 10000 2.6 50 15:24 07.04.2020
6131 Clouds 17 1032 48 10000 1.5 0 14:55 07.04.2020
6132 Clouds 17 1032 48 10000 1.5 0 14:36 07.04.2020
6133 Clouds 17 1033 45 10000 2.1 0 14:18 07.04.2020
6134 Clouds 17 1033 48 10000 1.5 0 13:41 07.04.2020
6135 Clouds 17 1033 55 10000 1.5 0 13:19 07.04.2020
6136 Clouds 17 1033 55 10000 2.1 360 12:56 07.04.2020
6137 Clouds 16 1033 55 10000 2.1 360 12:37 07.04.2020
6138 Clouds 16 1033 55 10000 2.1 360 12:37 07.04.2020
6139 Clouds 15 1033 58 10000 2.1 350 12:19 07.04.2020
6140 Clouds 15 1033 67 10000 1 0 11:56 07.04.2020
6141 Clouds 15 1033 67 10000 1 0 11:38 07.04.2020
6142 Clouds 14 1033 76 10000 1 0 11:19 07.04.2020
6143 Clouds 12 1032 81 10000 1.5 320 10:39 07.04.2020
6144 Clouds 12 1032 100 6000 1.5 250 10:20 07.04.2020
6145 Mist 10 1032 93 1800 2.1 290 09:56 07.04.2020
6146 Mist 10 1032 93 1800 2.1 290 09:37 07.04.2020
6147 Fog 9 1031 100 800 2.1 300 09:18 07.04.2020
6148 Fog 9 1031 100 800 2.1 290 08:39 07.04.2020
6149 Mist 9 1029 100 4500 1 340 08:20 07.04.2020
6150 Mist 8 1029 100 4500 1 340 07:46 07.04.2020
6151 Fog 8 1029 100 10000 0.5 360 07:26 07.04.2020
6152 Fog 8 1029 100 800 1.5 270 06:53 07.04.2020
6153 Fog 9 1029 100 800 1.5 290 06:27 07.04.2020
6154 Clouds 9 1028 100 8000 2.1 300 05:59 07.04.2020
6155 Clouds 9 1028 93 9000 3.1 310 05:26 07.04.2020
6156 Clouds 10 1028 87 10000 3.6 290 04:31 07.04.2020
6157 Clear 10 1026 93 10000 3.1 290 03:23 07.04.2020
6158 Clear 11 1026 87 10000 1.5 300 02:47 07.04.2020
6159 Clear 11 1025 81 10000 2.1 280 01:43 07.04.2020
6160 Clear 11 1024 81 10000 3.1 300 01:23 07.04.2020
6161 Clear 12 1023 73 0 1.34 300 00:26 07.04.2020
6162 Clear 12 1023 71 10000 1.5 300 23:44 06.04.2020
6163 Clear 13 1023 66 10000 2.1 260 23:23 06.04.2020
6164 Clear 13 1022 54 10000 5.7 310 22:56 06.04.2020
6165 Clear 14 1022 54 10000 5.7 310 22:37 06.04.2020
6166 Clear 14 1022 54 10000 8.2 300 22:19 06.04.2020
6167 Clear 14 1021 47 10000 1 0 21:56 06.04.2020
6168 Clear 15 1021 47 10000 1 0 21:38 06.04.2020
6169 Clear 15 1021 44 10000 2.1 180 21:18 06.04.2020
6170 Clear 17 1020 42 10000 2.6 200 20:42 06.04.2020
6171 Clear 19 1020 37 10000 2.1 210 20:23 06.04.2020
6172 Clear 20 1020 37 10000 3.1 220 19:59 06.04.2020
6173 Clear 20 1020 37 10000 3.1 220 19:40 06.04.2020
6174 Clear 22 1019 35 10000 1.5 220 19:22 06.04.2020
6175 Clear 22 1019 30 10000 4.1 240 18:57 06.04.2020
6176 Clear 22 1019 30 10000 4.1 240 18:39 06.04.2020
6177 Clear 23 1019 25 10000 5.1 220 18:20 06.04.2020
6178 Clear 23 1019 28 10000 4.1 210 17:42 06.04.2020
6179 Clear 23 1019 28 10000 4.6 230 17:20 06.04.2020
6180 Clear 23 1019 30 10000 6.2 200 16:50 06.04.2020
6181 Clear 23 1019 28 10000 5.7 200 16:31 06.04.2020
6182 Clear 22 1019 30 10000 5.7 180 15:41 06.04.2020
6183 Clear 21 1019 37 10000 5.1 150 14:00 06.04.2020
6184 Clear 21 1019 37 10000 5.1 150 13:59 06.04.2020
6185 Clear 21 1019 37 10000 5.1 150 13:39 06.04.2020
6186 Clear 20 1019 39 10000 4.1 150 13:19 06.04.2020
6187 Clear 20 1019 39 10000 4.1 150 13:19 06.04.2020
6188 Clear 20 1019 39 10000 4.1 150 13:18 06.04.2020
6189 Clear 20 1019 39 10000 4.1 150 13:18 06.04.2020
6190 Clear 18 1019 44 10000 4.1 140 12:22 06.04.2020
6191 Clear 16 1019 44 10000 4.1 140 11:55 06.04.2020
6192 Clear 16 1019 44 10000 4.6 140 11:33 06.04.2020
6193 Clear 16 1019 44 10000 4.6 140 11:33 06.04.2020
6194 Clear 16 1019 44 10000 4.6 140 11:33 06.04.2020
6195 Clear 16 1019 44 10000 4.6 140 11:33 06.04.2020
6196 Clear 16 1019 44 10000 4.6 140 11:33 06.04.2020
6197 Clear 15 1019 47 10000 4.6 140 10:52 06.04.2020
6198 Clear 15 1019 47 10000 4.6 140 10:52 06.04.2020
6199 Clear 16 1019 47 10000 5.1 140 10:52 06.04.2020
6200 Clear 15 1019 47 10000 4.6 140 10:52 06.04.2020
6201 Clear 16 1019 47 10000 5.1 140 10:52 06.04.2020
6202 Clear 14 1019 47 10000 4.6 140 10:22 06.04.2020
6203 Clear 12 1019 57 10000 3.6 130 09:47 06.04.2020
6204 Clear 10 1019 57 10000 3.6 130 09:22 06.04.2020
6205 Clear 9 1019 65 10000 3.6 130 08:55 06.04.2020
6206 Clear 8 1019 65 10000 3.6 130 08:31 06.04.2020
6207 Clear 7 1019 79 10000 5.1 130 07:51 06.04.2020
6208 Clear 7 1019 79 10000 5.1 130 07:51 06.04.2020
6209 Clear 7 1019 79 10000 5.1 130 07:51 06.04.2020
6210 Clear 7 1019 79 10000 3.6 130 07:51 06.04.2020
6211 Clear 7 1019 79 10000 5.1 130 06:52 06.04.2020
6212 Clear 7 1019 79 10000 5.1 130 06:52 06.04.2020
6213 Clear 7 1019 79 10000 5.1 130 06:25 06.04.2020
6214 Clear 8 1019 61 10000 5.7 130 04:32 06.04.2020
6215 Clear 9 1020 76 10000 5.7 130 03:18 06.04.2020
6216 Clear 9 1020 76 10000 6.2 130 02:44 06.04.2020
6217 Clear 10 1020 74 10000 4.6 120 01:47 06.04.2020
6218 Clear 11 1020 74 10000 4.6 120 00:46 06.04.2020
6219 Clear 11 1020 74 10000 4.6 120 00:24 06.04.2020
6220 Clear 12 1021 46 10000 5.1 120 23:46 05.04.2020
6221 Clear 12 1021 46 10000 5.1 120 23:28 05.04.2020
6222 Clear 12 1021 46 10000 5.1 120 23:28 05.04.2020
6223 Clear 12 1021 46 10000 5.1 120 23:28 05.04.2020
6224 Clear 12 1021 46 10000 5.1 120 23:28 05.04.2020
6225 Clear 12 1021 46 10000 5.1 120 23:28 05.04.2020
6226 Clear 12 1021 46 10000 5.1 120 22:56 05.04.2020
6227 Clear 12 1021 43 10000 5.7 120 22:38 05.04.2020
6228 Clear 13 1021 43 10000 6.7 120 22:18 05.04.2020
6229 Clear 13 1021 43 10000 6.7 120 21:55 05.04.2020
6230 Clear 13 1021 41 10000 5.7 120 21:37 05.04.2020
6231 Clouds 13 1021 41 10000 4.6 120 21:18 05.04.2020
6232 Clouds 15 1021 38 10000 5.7 120 20:20 05.04.2020
6233 Clouds 15 1021 41 10000 6.2 120 20:20 05.04.2020
6234 Clouds 15 1021 38 10000 5.7 120 20:20 05.04.2020
6235 Clouds 15 1021 38 10000 5.7 120 20:20 05.04.2020
6236 Clouds 16 1021 38 10000 6.2 130 19:40 05.04.2020
6237 Clouds 16 1021 38 10000 6.2 130 19:22 05.04.2020
6238 Clouds 16 1021 38 10000 6.2 130 19:22 05.04.2020
6239 Clouds 17 1021 36 10000 7.2 130 18:45 05.04.2020
6240 Clouds 18 1022 39 10000 7.2 130 17:58 05.04.2020
6241 Clouds 18 1022 39 10000 7.2 130 17:58 05.04.2020
6242 Clouds 18 1022 39 10000 7.2 130 17:58 05.04.2020
6243 Clouds 18 1022 36 10000 6.7 140 17:39 05.04.2020
6244 Clouds 18 1022 34 10000 7.2 130 17:20 05.04.2020
6245 Clouds 18 1023 36 10000 7.7 140 16:44 05.04.2020
6246 Clouds 18 1023 36 10000 7.7 140 16:44 05.04.2020
6247 Clouds 18 1023 36 10000 7.7 140 16:44 05.04.2020
6248 Clouds 18 1023 36 10000 7.7 140 16:44 05.04.2020
6249 Clouds 18 1023 36 10000 7.7 140 16:44 05.04.2020
6250 Clouds 18 1023 33 10000 8.7 140 16:18 05.04.2020
6251 Clouds 18 1023 36 10000 7.7 140 15:43 05.04.2020
6252 Clouds 18 1023 36 10000 7.7 140 15:24 05.04.2020
6253 Clouds 18 1023 36 10000 7.7 140 15:24 05.04.2020
6254 Clouds 18 1023 36 10000 7.7 140 15:24 05.04.2020
6255 Clear 18 1024 36 10000 6.7 140 14:47 05.04.2020
6256 Clear 18 1024 36 10000 6.7 140 14:47 05.04.2020
6257 Clear 18 1024 36 10000 6.7 140 14:47 05.04.2020
6258 Clear 18 1024 36 10000 6.7 140 14:47 05.04.2020
6259 Clouds 17 1025 44 10000 6.2 140 13:45 05.04.2020
6260 Clouds 16 1025 44 10000 5.7 130 12:56 05.04.2020
6261 Clear 13 1026 50 10000 5.7 140 11:58 05.04.2020
6262 Clear 13 1026 50 10000 5.7 140 11:58 05.04.2020
6263 Clear 13 1026 50 10000 5.7 140 11:58 05.04.2020
6264 Clear 13 1026 50 10000 5.7 140 11:58 05.04.2020
6265 Clear 13 1026 50 10000 5.7 140 11:58 05.04.2020
6266 Clear 13 1026 50 10000 5.7 140 11:37 05.04.2020
6267 Clear 13 1026 53 10000 6.7 130 11:18 05.04.2020
6268 Clear 11 1027 53 10000 5.7 130 10:42 05.04.2020
6269 Clear 11 1026 61 0 1.34 105 10:19 05.04.2020
6270 Clear 9 1027 65 10000 5.7 120 09:48 05.04.2020
6271 Clear 9 1027 65 10000 5.7 120 09:48 05.04.2020
6272 Clear 9 1027 65 10000 5.7 120 09:48 05.04.2020
6273 Clear 9 1027 65 10000 5.7 120 09:48 05.04.2020
6274 Clear 8 1027 64 10000 5.7 120 09:25 05.04.2020
6275 Clear 8 1027 65 10000 5.7 120 09:25 05.04.2020
6276 Clear 8 1027 64 10000 5.7 120 09:25 05.04.2020
6277 Clear 8 1027 65 10000 5.7 120 09:25 05.04.2020
6278 Clear 8 1027 65 10000 5.7 120 09:25 05.04.2020
6279 Clouds 5 1027 69 10000 3.6 120 07:57 05.04.2020
6280 Clouds 4 1027 69 10000 3.6 120 07:55 05.04.2020
6281 Clouds 4 1026 65 10000 4.6 110 04:52 05.04.2020
6282 Clouds 4 1026 65 10000 4.6 110 04:52 05.04.2020
6283 Clouds 5 1026 60 10000 4.1 120 03:35 05.04.2020
6284 Clouds 5 1026 60 10000 4.1 120 03:35 05.04.2020
6285 Clouds 5 1026 60 10000 4.1 120 03:35 05.04.2020
6286 Clear 6 1026 60 10000 4.6 120 02:52 05.04.2020
6287 Clear 6 1027 56 10000 3.6 120 01:48 05.04.2020
6288 Clear 6 1027 56 10000 3.6 120 01:30 05.04.2020
6289 Clear 6 1027 56 10000 3.6 130 00:47 05.04.2020
6290 Clear 6 1027 56 10000 3.6 130 00:22 05.04.2020
6291 Clear 6 1027 56 10000 3.6 130 00:22 05.04.2020
6292 Clear 6 1027 56 10000 3.6 130 00:22 05.04.2020
6293 Clouds 6 1026 52 10000 3.6 130 23:57 04.04.2020
6294 Clouds 6 1026 73 10000 3.1 120 23:38 04.04.2020
6295 Clouds 6 1026 73 10000 3.6 120 23:20 04.04.2020
6296 Clouds 6 1026 73 10000 3.6 120 22:56 04.04.2020
6297 Clouds 6 1026 73 10000 2.1 110 22:37 04.04.2020
6298 Clouds 6 1026 70 10000 1.5 110 22:19 04.04.2020
6299 Clouds 7 1026 70 10000 1.5 110 21:55 04.04.2020
6300 Clouds 8 1026 65 10000 2.1 110 21:37 04.04.2020
6301 Clouds 9 1026 71 10000 1 100 21:18 04.04.2020
6302 Clouds 10 1026 71 10000 1.5 120 20:43 04.04.2020
6303 Clouds 10 1026 71 10000 1.5 120 20:23 04.04.2020
6304 Clouds 11 1025 71 10000 2.6 140 19:59 04.04.2020
6305 Clouds 12 1025 46 10000 3.1 140 19:38 04.04.2020
6306 Clouds 13 1025 43 0 3.1 130 19:20 04.04.2020
6307 Clouds 13 1025 43 0 3.1 130 18:58 04.04.2020
6308 Clouds 13 1025 71 10000 2.1 150 18:39 04.04.2020
6309 Clouds 14 1025 43 10000 1.5 150 18:19 04.04.2020
6310 Clouds 13 1025 43 10000 1.5 150 17:58 04.04.2020
6311 Clouds 14 1025 41 10000 2.6 180 17:38 04.04.2020
6312 Clouds 14 1025 43 10000 2.6 180 17:19 04.04.2020
6313 Clouds 13 1025 43 10000 3.1 220 16:43 04.04.2020
6314 Clouds 14 1025 43 10000 3.1 220 16:24 04.04.2020
6315 Clouds 14 1025 49 0 1.97 194 15:58 04.04.2020
6316 Clouds 14 1025 47 10000 2.6 220 15:38 04.04.2020
6317 Clouds 13 1025 43 10000 3.6 220 15:19 04.04.2020
6318 Clouds 13 1025 43 10000 3.6 220 15:19 04.04.2020
6319 Clouds 13 1025 43 10000 3.6 220 14:54 04.04.2020
6320 Clouds 13 1025 50 10000 3.6 220 14:36 04.04.2020
6321 Clouds 13 1025 50 10000 3.1 240 14:18 04.04.2020
6322 Clouds 13 1025 50 10000 4.1 230 13:42 04.04.2020
6323 Clouds 12 1025 50 10000 4.1 240 13:21 04.04.2020
6324 Clouds 12 1025 50 10000 4.1 240 13:21 04.04.2020
6325 Clouds 12 1025 50 10000 4.1 240 12:58 04.04.2020
6326 Clouds 12 1025 50 10000 4.6 220 12:40 04.04.2020
6327 Clouds 10 1025 53 10000 4.1 210 12:20 04.04.2020
6328 Clouds 10 1025 57 10000 5.1 220 11:42 04.04.2020
6329 Clouds 10 1025 57 10000 5.1 220 11:42 04.04.2020
6330 Clouds 9 1025 65 10000 4.1 200 11:23 04.04.2020
6331 Clouds 9 1025 65 10000 4.1 200 10:59 04.04.2020
6332 Clouds 8 1025 70 10000 3.1 210 10:41 04.04.2020
6333 Clouds 7 1025 70 10000 3.1 210 10:23 04.04.2020
6334 Clouds 6 1024 75 10000 3.1 200 09:57 04.04.2020
6335 Clouds 5 1024 75 10000 2.1 200 09:39 04.04.2020
6336 Clouds 4 1024 75 10000 2.1 200 09:21 04.04.2020
6337 Clear 3 1023 88 10000 2.1 170 08:45 04.04.2020
6338 Clear 3 1023 88 10000 2.1 170 08:25 04.04.2020
6339 Clear 2 1023 86 10000 1.5 160 07:59 04.04.2020
6340 Clear 1 1023 88 10000 1.5 160 07:40 04.04.2020
6341 Clear 0 1022 92 10000 1.5 180 07:21 04.04.2020
6342 Clear 0 1022 92 10000 2.1 200 06:40 04.04.2020
6343 Clear 0 1022 92 10000 1.5 220 05:52 04.04.2020
6344 Clear 0 1022 92 10000 1.5 220 05:52 04.04.2020
6345 Clear 0 1022 92 10000 1.5 220 05:33 04.04.2020
6346 Clear 0 1021 97 10000 1.5 220 04:40 04.04.2020
6347 Clear 0 1021 97 10000 1 0 04:20 04.04.2020
6348 Clear 1 1021 97 10000 1.5 220 03:45 04.04.2020
6349 Clouds 1 1021 86 10000 1 230 02:49 04.04.2020
6350 Clouds 1 1021 86 10000 1 230 02:30 04.04.2020
6351 Clouds 2 1020 86 10000 2.6 240 01:48 04.04.2020
6352 Clouds 2 1020 80 10000 2.1 240 01:21 04.04.2020
6353 Clouds 3 1020 80 10000 2.1 260 00:45 04.04.2020
6354 Clouds 3 1020 80 10000 2.1 260 00:26 04.04.2020
6355 Clouds 4 1019 69 10000 2.1 280 23:39 03.04.2020
6356 Clouds 5 1019 69 10000 2.1 280 23:20 03.04.2020
6357 Clouds 5 1019 69 10000 2.6 280 22:56 03.04.2020
6358 Clouds 5 1019 65 10000 2.1 300 22:37 03.04.2020
6359 Clouds 6 1018 60 10000 3.1 300 22:18 03.04.2020
6360 Clouds 6 1018 60 10000 3.6 300 21:43 03.04.2020
6361 Clouds 6 1018 52 10000 4.1 300 21:22 03.04.2020
6362 Clouds 7 1018 52 10000 4.1 300 20:56 03.04.2020
6363 Clouds 7 1017 52 10000 4.1 290 20:37 03.04.2020
6364 Clouds 7 1017 52 10000 4.1 300 20:19 03.04.2020
6365 Clouds 7 1017 52 10000 4.1 300 20:19 03.04.2020
6366 Clouds 7 1017 52 10000 4.1 300 19:56 03.04.2020
6367 Clouds 8 1017 45 10000 4.1 300 19:38 03.04.2020
6368 Clouds 8 1016 45 10000 4.1 300 19:19 03.04.2020
6369 Clouds 8 1016 45 10000 4.1 300 18:58 03.04.2020
6370 Clouds 8 1016 52 10000 5.7 300 18:40 03.04.2020
6371 Rain 8 1016 72 10000 5.1 290 18:22 03.04.2020
6372 Rain 9 1015 57 10000 5.7 300 17:54 03.04.2020
6373 Rain 9 1015 57 10000 5.7 300 17:36 03.04.2020
6374 Rain 9 1015 52 10000 6.2 320 17:18 03.04.2020
6375 Clouds 9 1015 49 10000 6.2 300 16:42 03.04.2020
6376 Clouds 9 1015 49 10000 5.7 270 16:21 03.04.2020
6377 Clouds 9 1015 49 10000 5.7 270 15:58 03.04.2020
6378 Clouds 9 1015 49 10000 6.7 280 15:39 03.04.2020
6379 Clouds 9 1015 49 10000 5.7 290 15:20 03.04.2020
6380 Rain 9 1015 55 0 0.89 337 14:55 03.04.2020
6381 Rain 9 1014 42 10000 6.7 290 14:37 03.04.2020
6382 Rain 9 1014 42 10000 6.7 290 14:19 03.04.2020
6383 Rain 9 1014 42 10000 6.7 290 13:42 03.04.2020
6384 Rain 9 1014 42 10000 6.7 290 13:24 03.04.2020
6385 Rain 9 1014 45 10000 7.2 290 12:55 03.04.2020
6386 Rain 9 1014 42 10000 8.7 300 12:37 03.04.2020
6387 Clear 8 1014 45 10000 9.3 290 12:18 03.04.2020
6388 Clouds 8 1013 49 10000 6.7 290 11:41 03.04.2020
6389 Clouds 8 1013 49 10000 6.7 290 11:23 03.04.2020
6390 Clouds 8 1013 49 10000 7.7 310 10:59 03.04.2020
6391 Clouds 7 1013 52 10000 9.3 300 10:40 03.04.2020
6392 Clouds 7 1012 56 10000 7.7 300 10:21 03.04.2020
6393 Clouds 7 1012 56 10000 7.7 300 09:59 03.04.2020
6394 Clear 6 1012 70 10000 6.7 290 09:40 03.04.2020
6395 Clear 5 1012 70 10000 6.7 290 09:22 03.04.2020
6396 Clear 5 1012 70 10000 6.7 290 09:22 03.04.2020
6397 Clear 5 1012 70 10000 5.1 280 08:57 03.04.2020
6398 Clouds 4 1011 75 10000 3.6 270 08:39 03.04.2020
6399 Clouds 4 1011 80 10000 4.1 270 08:20 03.04.2020
6400 Clouds 3 1011 85 10000 3.6 260 07:50 03.04.2020
6401 Clouds 3 1011 85 10000 3.6 260 07:31 03.04.2020
6402 Clear 4 1010 85 10000 3.6 250 06:49 03.04.2020
6403 Clear 4 1010 86 10000 3.6 270 06:24 03.04.2020
6404 Clouds 4 1009 80 10000 4.1 270 05:40 03.04.2020
6405 Clouds 4 1008 80 10000 4.6 270 03:45 03.04.2020
6406 Clouds 4 1008 80 10000 4.6 270 03:23 03.04.2020
6407 Rain 5 1008 75 10000 5.1 280 02:28 03.04.2020
6408 Clouds 5 1008 75 10000 5.7 290 01:23 03.04.2020
6409 Rain 6 1007 87 8000 9.8 290 00:41 03.04.2020
6410 Clouds 7 1007 81 10000 7.7 260 00:20 03.04.2020
6411 Clouds 7 1007 87 10000 7.7 260 23:42 02.04.2020
6412 Clouds 7 1007 87 10000 7.7 260 23:42 02.04.2020
6413 Clouds 8 1007 87 10000 7.7 260 23:23 02.04.2020
6414 Clouds 8 1007 81 10000 7.7 260 22:59 02.04.2020
6415 Clouds 8 1007 81 10000 6.7 260 22:41 02.04.2020
6416 Clouds 8 1007 81 10000 6.7 260 22:41 02.04.2020
6417 Rain 7 1007 87 10000 6.7 250 22:20 02.04.2020
6418 Rain 8 1006 84 0 2.24 267 21:55 02.04.2020
6419 Clouds 8 1007 75 10000 7.2 250 21:36 02.04.2020
6420 Rain 8 1007 75 10000 7.2 260 21:18 02.04.2020
6421 Clouds 8 1007 66 10000 7.7 260 20:42 02.04.2020
6422 Clouds 9 1007 61 10000 7.7 260 20:23 02.04.2020
6423 Clouds 9 1007 61 10000 7.7 260 19:55 02.04.2020
6424 Clouds 9 1007 61 10000 7.2 260 19:37 02.04.2020
6425 Clouds 9 1007 57 10000 8.7 250 19:19 02.04.2020
6426 Clouds 10 1007 57 10000 9.3 250 18:42 02.04.2020
6427 Clouds 10 1007 57 10000 7.7 250 18:21 02.04.2020
6428 Clouds 10 1007 57 10000 7.7 250 17:59 02.04.2020
6429 Clouds 10 1007 57 10000 7.7 250 17:59 02.04.2020
6430 Clouds 10 1008 57 10000 7.2 250 17:40 02.04.2020
6431 Clouds 10 1008 57 10000 7.2 250 17:22 02.04.2020
6432 Clouds 10 1008 53 10000 7.7 250 16:57 02.04.2020
6433 Clouds 10 1008 57 10000 7.7 250 16:39 02.04.2020
6434 Clouds 10 1008 53 10000 7.7 250 16:21 02.04.2020
6435 Clouds 10 1008 53 10000 7.7 250 15:56 02.04.2020
6436 Clouds 10 1009 53 10000 9.3 240 15:38 02.04.2020
6437 Clouds 10 1009 53 10000 8.2 250 15:18 02.04.2020
6438 Clouds 10 1009 53 10000 8.2 250 14:55 02.04.2020
6439 Clouds 10 1010 62 10000 8.7 250 14:37 02.04.2020
6440 Clouds 10 1010 62 10000 8.7 230 14:18 02.04.2020
6441 Clouds 10 1010 62 10000 8.7 230 13:54 02.04.2020
6442 Clouds 10 1010 62 10000 8.7 230 13:36 02.04.2020
6443 Clouds 10 1010 62 10000 8.2 240 13:18 02.04.2020
6444 Clouds 10 1011 53 10000 8.2 250 12:41 02.04.2020
6445 Clouds 9 1011 57 10000 8.2 240 12:19 02.04.2020
6446 Clouds 9 1011 57 10000 8.2 240 11:57 02.04.2020
6447 Clouds 9 1012 57 10000 8.7 250 11:39 02.04.2020
6448 Clouds 9 1012 65 10000 6.7 240 11:20 02.04.2020
6449 Clouds 8 1012 65 10000 6.7 240 10:56 02.04.2020
6450 Clouds 8 1012 70 10000 5.7 250 10:38 02.04.2020
6451 Clouds 7 1012 70 10000 5.7 240 10:20 02.04.2020
6452 Clouds 7 1012 70 10000 5.7 240 09:58 02.04.2020
6453 Clouds 7 1012 70 10000 5.7 240 09:58 02.04.2020
6454 Clear 6 1012 81 10000 4.6 240 09:39 02.04.2020
6455 Clouds 5 1013 75 10000 4.1 250 09:20 02.04.2020
6456 Clouds 5 1013 80 10000 4.1 240 08:47 02.04.2020
6457 Clouds 5 1013 80 10000 4.1 240 08:28 02.04.2020
6458 Clouds 5 1013 80 10000 3.6 240 07:54 02.04.2020
6459 Clouds 4 1013 80 10000 4.1 240 07:36 02.04.2020
6460 Clouds 4 1013 80 10000 3.6 240 07:18 02.04.2020
6461 Clouds 4 1013 80 10000 3.6 240 06:23 02.04.2020
6462 Clouds 4 1014 80 10000 4.1 250 05:46 02.04.2020
6463 Clouds 4 1014 80 10000 4.1 250 05:46 02.04.2020
6464 Clouds 4 1014 80 10000 3.6 250 04:55 02.04.2020
6465 Clouds 5 1015 75 10000 3.1 260 02:19 02.04.2020
6466 Clouds 5 1016 80 10000 3.6 260 00:59 02.04.2020
6467 Clouds 5 1016 80 10000 3.1 250 00:41 02.04.2020
6468 Clouds 5 1016 80 10000 3.1 260 00:19 02.04.2020
6469 Clouds 5 1016 80 10000 3.1 260 23:39 01.04.2020
6470 Clouds 5 1016 86 10000 3.1 260 23:19 01.04.2020
6471 Clouds 6 1016 86 10000 3.1 260 22:56 01.04.2020
6472 Clouds 6 1017 86 10000 3.1 260 22:38 01.04.2020
6473 Clouds 6 1017 81 10000 4.1 270 22:19 01.04.2020
6474 Clouds 6 1017 81 10000 4.1 270 21:41 01.04.2020
6475 Rain 6 1017 81 10000 3.6 270 21:19 01.04.2020
6476 Rain 6 1017 81 10000 3.6 270 20:56 01.04.2020
6477 Clouds 6 1017 81 10000 4.1 270 20:38 01.04.2020
6478 Clouds 6 1017 81 10000 4.6 270 20:19 01.04.2020
6479 Clouds 6 1017 81 10000 4.6 270 19:58 01.04.2020
6480 Clouds 7 1017 81 10000 4.6 270 19:38 01.04.2020
6481 Rain 7 1016 80 0 0.89 290 19:19 01.04.2020
6482 Clouds 7 1017 70 10000 4.6 260 18:42 01.04.2020
6483 Clouds 7 1017 70 10000 4.6 260 18:42 01.04.2020
6484 Clouds 7 1017 70 10000 6.2 260 18:23 01.04.2020
6485 Clouds 7 1017 70 10000 6.2 260 17:57 01.04.2020
6486 Clouds 8 1018 65 10000 4.1 270 17:38 01.04.2020
6487 Clouds 8 1018 70 10000 6.2 270 17:19 01.04.2020
6488 Clouds 8 1018 70 10000 6.2 270 17:19 01.04.2020
6489 Clouds 8 1018 70 10000 6.2 270 16:58 01.04.2020
6490 Clouds 8 1018 65 10000 4.6 260 16:39 01.04.2020
6491 Clouds 8 1019 70 10000 4.6 250 16:21 01.04.2020
6492 Clouds 8 1019 70 10000 4.6 250 15:57 01.04.2020
6493 Clouds 8 1019 70 10000 5.7 260 15:37 01.04.2020
6494 Clouds 8 1019 70 10000 6.2 270 15:18 01.04.2020
6495 Clouds 8 1019 70 10000 6.2 270 14:55 01.04.2020
6496 Clouds 8 1019 70 10000 6.2 270 14:55 01.04.2020
6497 Clouds 8 1019 70 10000 7.2 270 14:36 01.04.2020
6498 Clouds 8 1020 65 10000 5.7 260 14:18 01.04.2020
6499 Clouds 8 1020 65 10000 5.7 260 13:55 01.04.2020
6500 Clouds 8 1020 61 10000 5.7 260 13:36 01.04.2020
6501 Clouds 8 1020 65 10000 5.1 270 13:18 01.04.2020
6502 Clouds 8 1021 65 10000 6.2 280 12:42 01.04.2020
6503 Clouds 8 1021 65 10000 6.2 280 12:23 01.04.2020
6504 Clouds 7 1021 70 10000 6.2 270 11:59 01.04.2020
6505 Clouds 7 1021 65 10000 6.7 250 11:39 01.04.2020
6506 Clouds 7 1021 70 10000 6.7 260 11:20 01.04.2020
6507 Clouds 6 1021 70 10000 6.7 260 10:56 01.04.2020
6508 Clouds 5 1022 70 10000 5.1 250 10:37 01.04.2020
6509 Clouds 4 1022 70 10000 4.6 240 10:18 01.04.2020
6510 Rain 3 1022 74 10000 3.6 240 09:40 01.04.2020
6511 Rain 3 1022 74 10000 3.6 240 09:40 01.04.2020
6512 Rain 3 1022 74 10000 3.6 240 09:21 01.04.2020
6513 Clouds 2 1022 74 10000 2.1 250 08:59 01.04.2020
6514 Clouds 1 1023 80 10000 2.1 250 08:40 01.04.2020
6515 Clouds 1 1023 87 10000 1.5 260 08:18 01.04.2020
6516 Clouds 0 1023 87 10000 1.5 230 07:42 01.04.2020
6517 Clouds 0 1023 86 10000 2.1 220 07:20 01.04.2020
6518 Clouds -1 1023 80 10000 1.5 230 06:47 01.04.2020
6519 Clouds -1 1023 79 10000 1 0 06:22 01.04.2020
6520 Clouds -1 1023 79 10000 1 0 05:55 01.04.2020
6521 Clear -2 1024 79 10000 1.5 220 04:30 01.04.2020
6522 Clear -2 1025 79 10000 1.5 270 03:28 01.04.2020
6523 Clear -2 1026 79 10000 1.5 240 02:49 01.04.2020
6524 Clear -2 1026 79 10000 1.5 250 01:56 01.04.2020
6525 Clear -2 1026 86 10000 1.5 200 01:36 01.04.2020
6526 Clear -1 1027 80 10000 1.5 220 01:18 01.04.2020
6527 Clear -1 1027 80 10000 1 220 00:43 01.04.2020
6528 Clear -1 1027 80 10000 1.5 220 00:18 01.04.2020
6529 Clear 0 1027 92 10000 1.5 230 23:41 31.03.2020
6530 Clear 0 1026 67 0 0.81 306 23:23 31.03.2020
6531 Clear 0 1026 67 0 0.81 306 23:23 31.03.2020
6532 Clear 1 1028 55 10000 2.1 350 22:57 31.03.2020
6533 Clear 1 1028 55 10000 2.1 350 22:36 31.03.2020
6534 Clear 1 1027 66 0 0.89 317 22:18 31.03.2020
6535 Clear 1 1027 66 0 0.89 355 21:55 31.03.2020
6536 Clear 2 1024 84 0 0.81 306 21:37 31.03.2020
6537 Clouds 3 1028 56 10000 4.1 350 21:19 31.03.2020
6538 Clouds 3 1028 56 10000 4.1 350 20:54 31.03.2020
6539 Clouds 4 1028 52 0 3.6 310 20:36 31.03.2020
6540 Clouds 4 1028 52 0 3.6 310 20:36 31.03.2020
6541 Clouds 5 1028 52 0 3.6 310 20:18 31.03.2020
6542 Clouds 6 1028 45 10000 2.6 290 19:41 31.03.2020
6543 Clouds 6 1027 57 0 0.89 309 19:22 31.03.2020
6544 Clouds 7 1029 45 10000 2.1 320 18:56 31.03.2020
6545 Clouds 7 1029 45 10000 2.1 320 18:37 31.03.2020
6546 Clouds 7 1029 42 10000 3.1 300 18:18 31.03.2020
6547 Clouds 8 1029 39 10000 2.1 220 17:54 31.03.2020
6548 Clouds 8 1029 39 10000 2.1 220 17:36 31.03.2020
6549 Clouds 7 1029 42 10000 2.1 310 17:18 31.03.2020
6550 Clouds 8 1030 45 10000 1.5 0 16:39 31.03.2020
6551 Clouds 7 1030 45 10000 2.6 230 16:19 31.03.2020
6552 Clouds 7 1030 45 10000 2.6 230 15:57 31.03.2020
6553 Clouds 7 1030 45 10000 2.1 0 15:39 31.03.2020
6554 Clouds 7 1031 45 10000 1.5 130 15:20 31.03.2020
6555 Clouds 7 1031 45 10000 1.5 130 15:20 31.03.2020
6556 Clouds 8 1031 52 10000 2.1 170 14:57 31.03.2020
6557 Clouds 7 1031 52 10000 2.1 170 14:38 31.03.2020
6558 Clouds 7 1031 48 10000 1 0 14:20 31.03.2020
6559 Clouds 7 1031 56 10000 1 0 13:43 31.03.2020
6560 Clouds 7 1032 60 10000 1 0 13:19 31.03.2020
6561 Clouds 7 1032 60 10000 1 0 13:19 31.03.2020
6562 Clouds 7 1032 60 10000 1 0 12:56 31.03.2020
6563 Clouds 6 1032 65 10000 1 0 12:38 31.03.2020
6564 Clouds 5 1032 65 10000 1.5 0 12:19 31.03.2020
6565 Clouds 5 1032 69 10000 2.1 0 11:39 31.03.2020
6566 Clouds 5 1032 64 10000 1 0 11:20 31.03.2020
6567 Clouds 4 1032 64 10000 1 0 10:58 31.03.2020
6568 Clear 4 1032 69 10000 1.5 60 10:40 31.03.2020
6569 Clear 3 1032 69 10000 2.1 80 10:21 31.03.2020
6570 Clear 3 1032 69 10000 2.1 80 09:57 31.03.2020
6571 Clear 2 1032 69 10000 2.1 50 09:39 31.03.2020
6572 Clear 1 1032 69 10000 2.1 50 09:21 31.03.2020
6573 Clouds 0 1032 69 10000 2.6 60 08:57 31.03.2020
6574 Clouds 0 1032 94 10000 2.1 30 08:38 31.03.2020
6575 Clouds -1 1031 94 10000 1.5 40 08:19 31.03.2020
6576 Clouds -1 1031 94 10000 1.5 40 07:56 31.03.2020
6577 Clouds -2 1031 74 10000 2.6 30 07:37 31.03.2020
6578 Clouds -3 1031 74 10000 3.6 30 07:18 31.03.2020
6579 Clouds -3 1031 94 10000 3.6 20 06:45 31.03.2020
6580 Clear -2 1030 95 10000 3.6 20 06:18 31.03.2020
6581 Clear -2 1030 95 10000 3.1 10 05:39 31.03.2020
6582 Clear -1 1030 95 10000 3.6 30 03:34 31.03.2020
6583 Clear 0 1030 69 10000 3.6 30 01:59 31.03.2020
6584 Clear 0 1029 69 10000 3.6 30 01:40 31.03.2020
6585 Clear 1 1029 74 10000 3.1 30 00:47 31.03.2020
6586 Clear 1 1029 74 10000 3.1 30 00:25 31.03.2020
6587 Clear 1 1029 69 10000 4.1 30 23:56 30.03.2020
6588 Clear 2 1029 69 10000 4.1 30 23:37 30.03.2020
6589 Clear 2 1028 69 10000 4.1 30 23:18 30.03.2020
6590 Clear 2 1028 69 10000 4.1 30 22:55 30.03.2020
6591 Clouds 2 1028 86 10000 4.1 30 22:36 30.03.2020
6592 Clouds 2 1028 80 10000 4.6 20 22:18 30.03.2020
6593 Clouds 3 1028 80 10000 4.6 20 21:54 30.03.2020
6594 Clouds 3 1027 93 10000 1 310 21:36 30.03.2020
6595 Clouds 3 1027 93 10000 0.5 0 21:18 30.03.2020
6596 Clouds 4 1026 93 10000 1.5 30 20:40 30.03.2020
6597 Clouds 4 1026 93 10000 1.5 30 20:22 30.03.2020
6598 Clouds 5 1026 86 10000 2.1 50 19:59 30.03.2020
6599 Clouds 4 1026 86 10000 1.5 50 19:40 30.03.2020
6600 Clouds 5 1025 86 10000 2.1 30 19:21 30.03.2020
6601 Clouds 5 1025 86 10000 2.1 30 18:56 30.03.2020
6602 Clouds 5 1025 86 10000 1 0 18:38 30.03.2020
6603 Clouds 5 1025 86 10000 1 0 18:38 30.03.2020
6604 Rain 5 1025 93 7000 5.1 40 18:19 30.03.2020
6605 Rain 6 1025 93 7000 5.1 40 17:56 30.03.2020
6606 Rain 6 1025 93 7000 5.1 40 17:56 30.03.2020
6607 Rain 6 1025 93 7000 5.1 40 17:56 30.03.2020
6608 Clouds 7 1025 80 10000 9.3 60 17:37 30.03.2020
6609 Clouds 7 1024 70 10000 6.2 330 17:18 30.03.2020
6610 Clouds 7 1024 81 10000 1.5 10 16:55 30.03.2020
6611 Clouds 7 1024 81 10000 1.5 10 16:36 30.03.2020
6612 Clouds 7 1025 81 10000 2.1 40 16:18 30.03.2020
6613 Clouds 7 1025 81 10000 4.6 320 15:54 30.03.2020
6614 Clouds 7 1025 81 10000 4.6 320 15:36 30.03.2020
6615 Clouds 6 1025 81 10000 3.6 330 15:18 30.03.2020
6616 Rain 7 1025 81 10000 4.1 320 14:39 30.03.2020
6617 Rain 6 1026 86 10000 4.1 300 14:19 30.03.2020
6618 Rain 6 1026 86 10000 4.1 300 13:59 30.03.2020
6619 Clouds 6 1026 93 10000 3.6 290 13:40 30.03.2020
6620 Clouds 5 1026 93 3000 10.3 310 13:20 30.03.2020
6621 Clouds 5 1026 93 3000 10.3 310 12:56 30.03.2020
6622 Clouds 5 1026 75 10000 5.7 280 12:37 30.03.2020
6623 Clouds 5 1027 75 10000 5.1 260 12:19 30.03.2020
6624 Clouds 5 1027 75 10000 5.1 260 11:55 30.03.2020
6625 Clouds 5 1027 80 10000 5.7 270 11:37 30.03.2020
6626 Clouds 4 1028 86 10000 4.6 260 11:18 30.03.2020
6627 Clouds 3 1028 93 6000 4.1 250 10:39 30.03.2020
6628 Snow 2 1028 93 6000 4.1 260 10:21 30.03.2020
6629 Snow 2 1028 93 6000 4.1 260 10:21 30.03.2020
6630 Snow 2 1028 93 6000 4.1 260 09:55 30.03.2020
6631 Snow 1 1028 80 8000 4.1 270 09:37 30.03.2020
6632 Snow 1 1028 80 10000 4.1 250 09:18 30.03.2020
6633 Clouds 0 1029 88 10000 3.1 240 08:40 30.03.2020
6634 Clouds 0 1029 88 10000 3.1 240 08:22 30.03.2020
6635 Snow 0 1029 80 10000 2.1 240 07:49 30.03.2020
6636 Snow -1 1029 80 10000 2.1 240 07:27 30.03.2020
6637 Clouds -1 1030 79 10000 2.1 250 06:54 30.03.2020
6638 Clouds -1 1030 79 10000 2.1 250 06:31 30.03.2020
6639 Clouds -1 1030 79 10000 2.1 250 06:31 30.03.2020
6640 Clouds -2 1031 73 10000 1.5 230 05:52 30.03.2020
6641 Clouds -2 1031 73 10000 1.5 250 05:18 30.03.2020
6642 Clouds -3 1031 68 10000 2.1 220 04:22 30.03.2020
6643 Clouds -4 1032 73 10000 1.5 270 03:38 30.03.2020
6644 Clear -3 1033 79 10000 2.1 220 02:37 30.03.2020
6645 Clear -3 1033 68 10000 1 240 01:35 30.03.2020
6646 Clear -2 1034 58 10000 1.5 290 00:49 30.03.2020
6647 Clear -1 1034 58 10000 2.6 310 00:22 30.03.2020
6648 Clear -1 1034 58 10000 3.1 310 23:42 29.03.2020
6649 Clear -1 1033 54 10000 2.1 300 23:23 29.03.2020
6650 Clear -1 1033 54 10000 2.1 300 22:58 29.03.2020
6651 Clear 0 1033 40 10000 1.5 340 22:38 29.03.2020
6652 Clear 0 1033 43 10000 3.1 20 22:19 29.03.2020
6653 Clear 1 1033 43 10000 3.1 20 21:57 29.03.2020
6654 Clear 1 1033 40 10000 3.6 20 21:36 29.03.2020
6655 Clear 1 1033 40 10000 3.6 20 21:36 29.03.2020
6656 Clouds 1 1033 40 10000 4.1 20 21:18 29.03.2020
6657 Clouds 2 1033 40 10000 4.1 20 20:55 29.03.2020
6658 Clouds 2 1033 37 10000 5.7 20 20:36 29.03.2020
6659 Clouds 3 1033 34 10000 7.2 20 20:18 29.03.2020
6660 Clouds 4 1032 32 10000 8.2 30 19:54 29.03.2020
6661 Clouds 4 1032 32 10000 8.2 30 19:36 29.03.2020
6662 Clouds 4 1032 29 10000 8.2 20 19:18 29.03.2020
6663 Clouds 5 1032 30 10000 7.7 20 18:54 29.03.2020
6664 Clouds 5 1032 30 10000 7.7 20 18:36 29.03.2020
6665 Clouds 5 1031 35 10000 8.7 20 18:18 29.03.2020
6666 Clouds 6 1031 28 10000 9.3 20 17:42 29.03.2020
6667 Clouds 6 1031 33 10000 8.7 20 17:22 29.03.2020
6668 Clouds 6 1031 33 10000 8.7 20 16:58 29.03.2020
6669 Clouds 6 1031 41 10000 8.2 30 16:40 29.03.2020
6670 Clouds 6 1030 44 10000 8.7 30 16:21 29.03.2020
6671 Clouds 6 1030 44 10000 8.7 30 15:58 29.03.2020
6672 Clouds 6 1030 45 10000 9.8 30 15:40 29.03.2020
6673 Clouds 6 1030 52 10000 10.3 40 15:20 29.03.2020
6674 Clouds 6 1030 52 10000 10.3 40 14:56 29.03.2020
6675 Clouds 6 1030 56 10000 10.3 20 14:37 29.03.2020
6676 Clouds 6 1030 56 10000 10.8 40 14:19 29.03.2020
6677 Rain 5 1030 69 10000 9.3 20 13:55 29.03.2020
6678 Rain 5 1030 69 10000 9.3 20 13:37 29.03.2020
6679 Snow 5 1029 68 10000 10.3 20 13:18 29.03.2020